<?xml version='1.0' encoding='UTF-8'?><gpx version="1.1" creator="JPX - https://github.com/jenetics/jpx" xmlns="http://www.topografix.com/GPX/1/1"><trk><trkseg><trkpt lat="45.59728390042366" lon="8.638428682529877"><ele>242.00000000000003</ele><time>2026-04-05T10:30:58.065Z</time></trkpt><trkpt lat="45.59721518994345" lon="8.63851141120604"><ele>242.0</ele><time>2026-04-05T10:31:01.059Z</time></trkpt><trkpt lat="45.59713318870552" lon="8.638533460333"><ele>242.0</ele><time>2026-04-05T10:31:03.997Z</time></trkpt><trkpt lat="45.59719303231419" lon="8.638482438627022"><ele>242.0</ele><time>2026-04-05T10:31:04.997Z</time></trkpt><trkpt lat="45.59726920013268" lon="8.638476912830717"><ele>242.00000000000003</ele><time>2026-04-05T10:31:05.997Z</time></trkpt><trkpt lat="45.59733760561929" lon="8.638474291060694"><ele>242.0</ele><time>2026-04-05T10:31:08Z</time></trkpt><trkpt lat="45.5974576360351" lon="8.638492747125323"><ele>242.0</ele><time>2026-04-05T10:31:10Z</time></trkpt><trkpt lat="45.59752931362473" lon="8.638492247243489"><ele>241.99999999999997</ele><time>2026-04-05T10:31:11Z</time></trkpt><trkpt lat="45.59759961138602" lon="8.638480626003108"><ele>242.0</ele><time>2026-04-05T10:31:12Z</time></trkpt><trkpt lat="45.59766794991227" lon="8.638468001942112"><ele>242.0</ele><time>2026-04-05T10:31:13Z</time></trkpt><trkpt lat="45.59773294595262" lon="8.638457345159585"><ele>241.99999999999997</ele><time>2026-04-05T10:31:14Z</time></trkpt><trkpt lat="45.597807116061524" lon="8.638444860118538"><ele>242.0</ele><time>2026-04-05T10:31:15Z</time></trkpt><trkpt lat="45.59788110100503" lon="8.638421143661182"><ele>242.0</ele><time>2026-04-05T10:31:16Z</time></trkpt><trkpt lat="45.59794862300393" lon="8.638393032806965"><ele>241.50000000000003</ele><time>2026-04-05T10:31:17Z</time></trkpt><trkpt lat="45.59803090829081" lon="8.638370086648555"><ele>241.0</ele><time>2026-04-05T10:31:18Z</time></trkpt><trkpt lat="45.59810342025765" lon="8.638347660086765"><ele>240.5</ele><time>2026-04-05T10:31:19Z</time></trkpt><trkpt lat="45.598189633804694" lon="8.638317941803319"><ele>240.0</ele><time>2026-04-05T10:31:20Z</time></trkpt><trkpt lat="45.59829309218237" lon="8.638292911037217"><ele>239.50000000000003</ele><time>2026-04-05T10:31:21Z</time></trkpt><trkpt lat="45.59835973384751" lon="8.638264354910731"><ele>239.0</ele><time>2026-04-05T10:31:22Z</time></trkpt><trkpt lat="45.598430090493466" lon="8.638237136525534"><ele>239.00000000000003</ele><time>2026-04-05T10:31:23Z</time></trkpt><trkpt lat="45.598501300066694" lon="8.63821870875442"><ele>239.0</ele><time>2026-04-05T10:31:25Z</time></trkpt><trkpt lat="45.59857152901767" lon="8.63818602765396"><ele>239.0</ele><time>2026-04-05T10:31:30Z</time></trkpt><trkpt lat="45.598706331648124" lon="8.63820281464283"><ele>239.0</ele><time>2026-04-05T10:31:32Z</time></trkpt><trkpt lat="45.59877843787306" lon="8.638202455990367"><ele>239.00000000000003</ele><time>2026-04-05T10:31:33Z</time></trkpt><trkpt lat="45.59886034277675" lon="8.63818867371818"><ele>239.0</ele><time>2026-04-05T10:31:34Z</time></trkpt><trkpt lat="45.59894470668333" lon="8.638176708954992"><ele>239.16666666666669</ele><time>2026-04-05T10:31:35Z</time></trkpt><trkpt lat="45.59903100611439" lon="8.638176685403463"><ele>239.33333333333334</ele><time>2026-04-05T10:31:36Z</time></trkpt><trkpt lat="45.59910771653632" lon="8.638170126653852"><ele>239.5</ele><time>2026-04-05T10:31:37Z</time></trkpt><trkpt lat="45.59918352555534" lon="8.638163446015467"><ele>239.66666666666669</ele><time>2026-04-05T10:31:38Z</time></trkpt><trkpt lat="45.59925289772976" lon="8.638167059939246"><ele>239.83333333333334</ele><time>2026-04-05T10:31:39Z</time></trkpt><trkpt lat="45.59936224188999" lon="8.638160292895169"><ele>240.0</ele><time>2026-04-05T10:31:41Z</time></trkpt><trkpt lat="45.59942980947989" lon="8.638117803982908"><ele>240.0</ele><time>2026-04-05T10:31:42.999Z</time></trkpt><trkpt lat="45.599430632237535" lon="8.637949243700554"><ele>240.0</ele><time>2026-04-05T10:31:44.999Z</time></trkpt><trkpt lat="45.5994168034919" lon="8.637819728207868"><ele>240.0</ele><time>2026-04-05T10:31:45.999Z</time></trkpt><trkpt lat="45.5994005521406" lon="8.637674576815336"><ele>240.0</ele><time>2026-04-05T10:31:46.999Z</time></trkpt><trkpt lat="45.59937143933543" lon="8.637536791034602"><ele>240.0</ele><time>2026-04-05T10:31:47.999Z</time></trkpt><trkpt lat="45.59935263013095" lon="8.637391615932662"><ele>240.5</ele><time>2026-04-05T10:31:48.999Z</time></trkpt><trkpt lat="45.599335877108054" lon="8.637260449906229"><ele>241.0</ele><time>2026-04-05T10:31:49.999Z</time></trkpt><trkpt lat="45.599324219765265" lon="8.637143704586075"><ele>241.5</ele><time>2026-04-05T10:31:50.999Z</time></trkpt><trkpt lat="45.599313785397236" lon="8.637028154575537"><ele>242.0</ele><time>2026-04-05T10:31:51.999Z</time></trkpt><trkpt lat="45.599292053855145" lon="8.636875431625391"><ele>242.5</ele><time>2026-04-05T10:31:53.999Z</time></trkpt><trkpt lat="45.599282327636004" lon="8.636779088212062"><ele>243.0</ele><time>2026-04-05T10:31:55.999Z</time></trkpt><trkpt lat="45.59943288652318" lon="8.636697304092554"><ele>242.4</ele><time>2026-04-05T10:32:10.999Z</time></trkpt><trkpt lat="45.599551877630105" lon="8.636671492753967"><ele>241.8</ele><time>2026-04-05T10:32:12.999Z</time></trkpt><trkpt lat="45.59966190639725" lon="8.636693993855454"><ele>241.2</ele><time>2026-04-05T10:32:14.999Z</time></trkpt><trkpt lat="45.599748805468906" lon="8.636678273786533"><ele>240.6</ele><time>2026-04-05T10:32:16.999Z</time></trkpt><trkpt lat="45.59975096705825" lon="8.636557094972233"><ele>240.0</ele><time>2026-04-05T10:32:18.999Z</time></trkpt><trkpt lat="45.59971360545451" lon="8.63647324475635"><ele>240.0</ele><time>2026-04-05T10:32:19.999Z</time></trkpt><trkpt lat="45.599693012905036" lon="8.636386089965635"><ele>240.0</ele><time>2026-04-05T10:32:20.999Z</time></trkpt><trkpt lat="45.5996834896137" lon="8.636286632155366"><ele>240.0</ele><time>2026-04-05T10:32:21.999Z</time></trkpt><trkpt lat="45.599672386801075" lon="8.636192006164304"><ele>240.0</ele><time>2026-04-05T10:32:22.999Z</time></trkpt><trkpt lat="45.59965288321493" lon="8.636026771342339"><ele>240.0</ele><time>2026-04-05T10:32:24.998Z</time></trkpt><trkpt lat="45.599624482707796" lon="8.635864930614044"><ele>240.0</ele><time>2026-04-05T10:32:26.998Z</time></trkpt><trkpt lat="45.599603153299114" lon="8.635709646288783"><ele>240.16666666666666</ele><time>2026-04-05T10:32:28.998Z</time></trkpt><trkpt lat="45.59959286570841" lon="8.63560907637257"><ele>240.33333333333331</ele><time>2026-04-05T10:32:30.998Z</time></trkpt><trkpt lat="45.59958348431155" lon="8.635508360439314"><ele>240.5</ele><time>2026-04-05T10:32:34.998Z</time></trkpt><trkpt lat="45.599579768581485" lon="8.63540206354264"><ele>240.66666666666666</ele><time>2026-04-05T10:32:36.998Z</time></trkpt><trkpt lat="45.59954287522819" lon="8.635289679304426"><ele>240.83333333333331</ele><time>2026-04-05T10:32:38.998Z</time></trkpt><trkpt lat="45.599506156713936" lon="8.635160839024353"><ele>241.0</ele><time>2026-04-05T10:32:40.998Z</time></trkpt><trkpt lat="45.59944334468045" lon="8.635022437366786"><ele>240.20000000000002</ele><time>2026-04-05T10:32:42.998Z</time></trkpt><trkpt lat="45.59940183751846" lon="8.634936909453202"><ele>239.40000000000003</ele><time>2026-04-05T10:32:43.998Z</time></trkpt><trkpt lat="45.59944141435574" lon="8.634751792198495"><ele>238.6</ele><time>2026-04-05T10:32:45.998Z</time></trkpt><trkpt lat="45.599485269944914" lon="8.634643741406482"><ele>237.8</ele><time>2026-04-05T10:32:46.998Z</time></trkpt><trkpt lat="45.5994821587717" lon="8.634530215331806"><ele>237.0</ele><time>2026-04-05T10:32:47.998Z</time></trkpt><trkpt lat="45.59946816510128" lon="8.634395267897423"><ele>236.8</ele><time>2026-04-05T10:32:48.998Z</time></trkpt><trkpt lat="45.59946550900826" lon="8.634258989677747"><ele>236.6</ele><time>2026-04-05T10:32:49.998Z</time></trkpt><trkpt lat="45.5994702172428" lon="8.63412315213109"><ele>236.40000000000003</ele><time>2026-04-05T10:32:50.998Z</time></trkpt><trkpt lat="45.59947589719452" lon="8.634005227223097"><ele>236.20000000000002</ele><time>2026-04-05T10:32:51.998Z</time></trkpt><trkpt lat="45.599476196534916" lon="8.633906188575473"><ele>236.0</ele><time>2026-04-05T10:32:52.998Z</time></trkpt><trkpt lat="45.599478491612444" lon="8.633746786309004"><ele>236.20000000000002</ele><time>2026-04-05T10:32:54.998Z</time></trkpt><trkpt lat="45.59949686947061" lon="8.63362117721257"><ele>236.40000000000003</ele><time>2026-04-05T10:32:56.998Z</time></trkpt><trkpt lat="45.599498072368455" lon="8.633470583966934"><ele>236.6</ele><time>2026-04-05T10:32:58.998Z</time></trkpt><trkpt lat="45.59950979112897" lon="8.63337090159173"><ele>236.8</ele><time>2026-04-05T10:33:00.998Z</time></trkpt><trkpt lat="45.599641869925264" lon="8.63330086418985"><ele>237.0</ele><time>2026-04-05T10:33:03.998Z</time></trkpt><trkpt lat="45.599720001049846" lon="8.633283511088857"><ele>237.0</ele><time>2026-04-05T10:33:04.997Z</time></trkpt><trkpt lat="45.599795756222576" lon="8.633243538400093"><ele>237.0</ele><time>2026-04-05T10:33:05.997Z</time></trkpt><trkpt lat="45.5998749870863" lon="8.633228525449455"><ele>237.0</ele><time>2026-04-05T10:33:06.997Z</time></trkpt><trkpt lat="45.599968118764934" lon="8.633213296792277"><ele>237.0</ele><time>2026-04-05T10:33:07.997Z</time></trkpt><trkpt lat="45.60006368059887" lon="8.63319283241789"><ele>237.0</ele><time>2026-04-05T10:33:08.997Z</time></trkpt><trkpt lat="45.60016880738581" lon="8.633174329516118"><ele>237.0</ele><time>2026-04-05T10:33:09.997Z</time></trkpt><trkpt lat="45.600275407860494" lon="8.633163195802426"><ele>237.0</ele><time>2026-04-05T10:33:10.997Z</time></trkpt><trkpt lat="45.600389397381335" lon="8.633163666675099"><ele>237.0</ele><time>2026-04-05T10:33:11.997Z</time></trkpt><trkpt lat="45.600506391727585" lon="8.633168695495543"><ele>237.0</ele><time>2026-04-05T10:33:13Z</time></trkpt><trkpt lat="45.60062423337352" lon="8.633172960319838"><ele>237.25</ele><time>2026-04-05T10:33:14Z</time></trkpt><trkpt lat="45.600747177899756" lon="8.633185484524653"><ele>237.5</ele><time>2026-04-05T10:33:15Z</time></trkpt><trkpt lat="45.60086920185916" lon="8.633190153448172"><ele>237.75</ele><time>2026-04-05T10:33:16Z</time></trkpt><trkpt lat="45.60098489722866" lon="8.633190616357036"><ele>238.0</ele><time>2026-04-05T10:33:17Z</time></trkpt><trkpt lat="45.60110097327014" lon="8.633196526931627"><ele>238.0</ele><time>2026-04-05T10:33:18Z</time></trkpt><trkpt lat="45.60121705563774" lon="8.633205399529011"><ele>238.0</ele><time>2026-04-05T10:33:19Z</time></trkpt><trkpt lat="45.60133464122246" lon="8.63321340568299"><ele>238.0</ele><time>2026-04-05T10:33:20Z</time></trkpt><trkpt lat="45.60144305880813" lon="8.633222411336803"><ele>238.0</ele><time>2026-04-05T10:33:21Z</time></trkpt><trkpt lat="45.601538368288566" lon="8.633233140018872"><ele>238.0</ele><time>2026-04-05T10:33:22Z</time></trkpt><trkpt lat="45.601622084740214" lon="8.633248018497266"><ele>237.99999999999997</ele><time>2026-04-05T10:33:23Z</time></trkpt><trkpt lat="45.60169456522808" lon="8.633252167769399"><ele>238.0</ele><time>2026-04-05T10:33:24Z</time></trkpt><trkpt lat="45.60175765736081" lon="8.633272440160498"><ele>238.0</ele><time>2026-04-05T10:33:25Z</time></trkpt><trkpt lat="45.60184444025517" lon="8.63333381810004"><ele>238.0</ele><time>2026-04-05T10:33:28Z</time></trkpt><trkpt lat="45.60192378985474" lon="8.633194125369878"><ele>237.99999999999997</ele><time>2026-04-05T10:33:29Z</time></trkpt><trkpt lat="45.601986670623276" lon="8.633136400215685"><ele>238.0</ele><time>2026-04-05T10:33:30Z</time></trkpt><trkpt lat="45.60205242087351" lon="8.63306835912114"><ele>238.16666666666666</ele><time>2026-04-05T10:33:31Z</time></trkpt><trkpt lat="45.602102304297084" lon="8.632999372417048"><ele>238.33333333333331</ele><time>2026-04-05T10:33:32Z</time></trkpt><trkpt lat="45.60214631351729" lon="8.632899275439767"><ele>238.5</ele><time>2026-04-05T10:33:33Z</time></trkpt><trkpt lat="45.60217288142026" lon="8.632779972086128"><ele>238.66666666666669</ele><time>2026-04-05T10:33:34Z</time></trkpt><trkpt lat="45.60218056878631" lon="8.632648983457823"><ele>238.83333333333334</ele><time>2026-04-05T10:33:35Z</time></trkpt><trkpt lat="45.60220638705828" lon="8.63252036009004"><ele>239.0</ele><time>2026-04-05T10:33:36Z</time></trkpt><trkpt lat="45.60221319773664" lon="8.632422018134294"><ele>239.00000000000003</ele><time>2026-04-05T10:33:37Z</time></trkpt><trkpt lat="45.60222941495895" lon="8.632325220179244"><ele>239.0</ele><time>2026-04-05T10:33:38Z</time></trkpt><trkpt lat="45.60229601284459" lon="8.632268427201256"><ele>239.0</ele><time>2026-04-05T10:33:39Z</time></trkpt><trkpt lat="45.60237103232258" lon="8.63224109015078"><ele>239.0</ele><time>2026-04-05T10:33:40Z</time></trkpt><trkpt lat="45.60245349836282" lon="8.632217598838201"><ele>239.00000000000003</ele><time>2026-04-05T10:33:41Z</time></trkpt><trkpt lat="45.60253962104778" lon="8.632196503107057"><ele>239.0</ele><time>2026-04-05T10:33:42Z</time></trkpt><trkpt lat="45.60263131028893" lon="8.632168329753064"><ele>239.00000000000003</ele><time>2026-04-05T10:33:43Z</time></trkpt><trkpt lat="45.602728020569444" lon="8.63214488860242"><ele>239.0</ele><time>2026-04-05T10:33:44Z</time></trkpt><trkpt lat="45.60282850028965" lon="8.632134943312522"><ele>239.0</ele><time>2026-04-05T10:33:44.999Z</time></trkpt><trkpt lat="45.60292316553643" lon="8.632122495879816"><ele>239.0</ele><time>2026-04-05T10:33:45.999Z</time></trkpt><trkpt lat="45.60299999797766" lon="8.632102346537074"><ele>239.00000000000003</ele><time>2026-04-05T10:33:46.999Z</time></trkpt><trkpt lat="45.60306552453097" lon="8.63209556078718"><ele>239.0</ele><time>2026-04-05T10:33:47.999Z</time></trkpt><trkpt lat="45.60317357048237" lon="8.632068535144754"><ele>239.0</ele><time>2026-04-05T10:33:49.999Z</time></trkpt><trkpt lat="45.6032455278648" lon="8.632066635169187"><ele>239.0</ele><time>2026-04-05T10:33:51.999Z</time></trkpt><trkpt lat="45.603246029777075" lon="8.631765551549282"><ele>239.0</ele><time>2026-04-05T10:33:53.999Z</time></trkpt><trkpt lat="45.60324979257962" lon="8.631602790624042"><ele>239.0</ele><time>2026-04-05T10:33:54.999Z</time></trkpt><trkpt lat="45.60325226249989" lon="8.631428946363563"><ele>239.0</ele><time>2026-04-05T10:33:55.999Z</time></trkpt><trkpt lat="45.603260057212125" lon="8.631256361928996"><ele>239.0</ele><time>2026-04-05T10:33:56.999Z</time></trkpt><trkpt lat="45.60329593105987" lon="8.631079547145976"><ele>239.0</ele><time>2026-04-05T10:33:57.999Z</time></trkpt><trkpt lat="45.603292642727865" lon="8.630899291410586"><ele>239.0</ele><time>2026-04-05T10:33:58.999Z</time></trkpt><trkpt lat="45.603307148745166" lon="8.630744693528163"><ele>239.0</ele><time>2026-04-05T10:33:59.999Z</time></trkpt><trkpt lat="45.60334473841105" lon="8.630618504311276"><ele>238.99999999999997</ele><time>2026-04-05T10:34:00.999Z</time></trkpt><trkpt lat="45.60337026914257" lon="8.630496509807212"><ele>238.99999999999997</ele><time>2026-04-05T10:34:01.999Z</time></trkpt><trkpt lat="45.603441397860244" lon="8.630396234557066"><ele>239.0</ele><time>2026-04-05T10:34:02.999Z</time></trkpt><trkpt lat="45.603518653948825" lon="8.630296077129486"><ele>239.0</ele><time>2026-04-05T10:34:03.999Z</time></trkpt><trkpt lat="45.603578068887" lon="8.630169062268322"><ele>238.6</ele><time>2026-04-05T10:34:04.999Z</time></trkpt><trkpt lat="45.60360719664047" lon="8.630031402843803"><ele>238.2</ele><time>2026-04-05T10:34:05.999Z</time></trkpt><trkpt lat="45.60362854443398" lon="8.629895482957519"><ele>237.79999999999998</ele><time>2026-04-05T10:34:06.999Z</time></trkpt><trkpt lat="45.60366508422923" lon="8.629767951775191"><ele>237.39999999999998</ele><time>2026-04-05T10:34:07.999Z</time></trkpt><trkpt lat="45.603687473013906" lon="8.629635899634888"><ele>237.0</ele><time>2026-04-05T10:34:08.999Z</time></trkpt><trkpt lat="45.60369589278385" lon="8.629497183656108"><ele>236.8</ele><time>2026-04-05T10:34:09.999Z</time></trkpt><trkpt lat="45.60372223798056" lon="8.629368466518986"><ele>236.6</ele><time>2026-04-05T10:34:10.999Z</time></trkpt><trkpt lat="45.603747161733914" lon="8.629237773953768"><ele>236.40000000000003</ele><time>2026-04-05T10:34:11.999Z</time></trkpt><trkpt lat="45.60377051693071" lon="8.629107133915449"><ele>236.20000000000002</ele><time>2026-04-05T10:34:12.999Z</time></trkpt><trkpt lat="45.60379682101652" lon="8.628976465684355"><ele>236.0</ele><time>2026-04-05T10:34:13.999Z</time></trkpt><trkpt lat="45.60383856262989" lon="8.62884859807154"><ele>236.0</ele><time>2026-04-05T10:34:14.999Z</time></trkpt><trkpt lat="45.60386505069752" lon="8.628718021951405"><ele>236.00000000000003</ele><time>2026-04-05T10:34:15.999Z</time></trkpt><trkpt lat="45.60389083897874" lon="8.628590898093355"><ele>236.00000000000003</ele><time>2026-04-05T10:34:16.999Z</time></trkpt><trkpt lat="45.60388402967433" lon="8.628454523668957"><ele>236.0</ele><time>2026-04-05T10:34:17.999Z</time></trkpt><trkpt lat="45.603908083443514" lon="8.628337563234433"><ele>236.0</ele><time>2026-04-05T10:34:18.999Z</time></trkpt><trkpt lat="45.60391235407757" lon="8.628216132125623"><ele>236.0</ele><time>2026-04-05T10:34:19.999Z</time></trkpt><trkpt lat="45.60389473998889" lon="8.628093284226845"><ele>236.00000000000003</ele><time>2026-04-05T10:34:20.999Z</time></trkpt><trkpt lat="45.6038902884145" lon="8.627969356347968"><ele>236.00000000000003</ele><time>2026-04-05T10:34:21.999Z</time></trkpt><trkpt lat="45.603883893565325" lon="8.627841444575566"><ele>236.0</ele><time>2026-04-05T10:34:22.999Z</time></trkpt><trkpt lat="45.603868561617205" lon="8.627710158907522"><ele>236.0</ele><time>2026-04-05T10:34:23.999Z</time></trkpt><trkpt lat="45.60384894915946" lon="8.627579217365778"><ele>236.20000000000002</ele><time>2026-04-05T10:34:24.999Z</time></trkpt><trkpt lat="45.603837581139196" lon="8.6274433341876"><ele>236.40000000000003</ele><time>2026-04-05T10:34:25.999Z</time></trkpt><trkpt lat="45.60379332227968" lon="8.627315907931727"><ele>236.6</ele><time>2026-04-05T10:34:26.998Z</time></trkpt><trkpt lat="45.60372858086227" lon="8.62720822682045"><ele>236.8</ele><time>2026-04-05T10:34:27.998Z</time></trkpt><trkpt lat="45.603694448793874" lon="8.627078735821808"><ele>237.0</ele><time>2026-04-05T10:34:28.998Z</time></trkpt><trkpt lat="45.603634180504386" lon="8.626955439799561"><ele>236.0</ele><time>2026-04-05T10:34:29.998Z</time></trkpt><trkpt lat="45.60360463549823" lon="8.62680942242004"><ele>235.0</ele><time>2026-04-05T10:34:30.998Z</time></trkpt><trkpt lat="45.603560883765" lon="8.62669446648077"><ele>234.0</ele><time>2026-04-05T10:34:31.998Z</time></trkpt><trkpt lat="45.603518884718994" lon="8.626549418512772"><ele>233.0</ele><time>2026-04-05T10:34:32.998Z</time></trkpt><trkpt lat="45.6034793422685" lon="8.62639652318515"><ele>232.0</ele><time>2026-04-05T10:34:33.998Z</time></trkpt><trkpt lat="45.60343533822217" lon="8.626234915097399"><ele>232.0</ele><time>2026-04-05T10:34:34.998Z</time></trkpt><trkpt lat="45.6033913844462" lon="8.62606350383768"><ele>232.0</ele><time>2026-04-05T10:34:35.998Z</time></trkpt><trkpt lat="45.60335043741802" lon="8.625886914318055"><ele>232.0</ele><time>2026-04-05T10:34:36.998Z</time></trkpt><trkpt lat="45.60330899281919" lon="8.625723068852198"><ele>232.0</ele><time>2026-04-05T10:34:37.998Z</time></trkpt><trkpt lat="45.60326675316644" lon="8.625557925053139"><ele>232.0</ele><time>2026-04-05T10:34:38.998Z</time></trkpt><trkpt lat="45.60322521679063" lon="8.62539633058463"><ele>232.0</ele><time>2026-04-05T10:34:39.998Z</time></trkpt><trkpt lat="45.603184064741534" lon="8.62523598488651"><ele>232.0</ele><time>2026-04-05T10:34:40.998Z</time></trkpt><trkpt lat="45.603148478354754" lon="8.625075474308014"><ele>232.0</ele><time>2026-04-05T10:34:41.998Z</time></trkpt><trkpt lat="45.60310764535946" lon="8.624918270928434"><ele>232.0</ele><time>2026-04-05T10:34:42.998Z</time></trkpt><trkpt lat="45.60307453761787" lon="8.624757342443488"><ele>232.0</ele><time>2026-04-05T10:34:43.998Z</time></trkpt><trkpt lat="45.60304823618153" lon="8.624596838272778"><ele>232.0</ele><time>2026-04-05T10:34:44.998Z</time></trkpt><trkpt lat="45.60300801075494" lon="8.624446272515208"><ele>232.0</ele><time>2026-04-05T10:34:45.998Z</time></trkpt><trkpt lat="45.60298295116829" lon="8.62428887369311"><ele>232.0</ele><time>2026-04-05T10:34:46.998Z</time></trkpt><trkpt lat="45.60293913609976" lon="8.62414098954036"><ele>232.0</ele><time>2026-04-05T10:34:47.998Z</time></trkpt><trkpt lat="45.60291295518663" lon="8.623989205808407"><ele>232.0</ele><time>2026-04-05T10:34:48.998Z</time></trkpt><trkpt lat="45.60287879551395" lon="8.623841186108692"><ele>232.0</ele><time>2026-04-05T10:34:49.998Z</time></trkpt><trkpt lat="45.602851279003495" lon="8.623712296391174"><ele>232.0</ele><time>2026-04-05T10:34:50.998Z</time></trkpt><trkpt lat="45.60282867471645" lon="8.623608668413125"><ele>232.0</ele><time>2026-04-05T10:34:51.998Z</time></trkpt><trkpt lat="45.60279182188438" lon="8.623483307669739"><ele>232.0</ele><time>2026-04-05T10:34:53.998Z</time></trkpt><trkpt lat="45.602754917714265" lon="8.623304617171687"><ele>232.0</ele><time>2026-04-05T10:34:55.998Z</time></trkpt><trkpt lat="45.602722954799326" lon="8.623198748414262"><ele>232.0</ele><time>2026-04-05T10:34:56.998Z</time></trkpt><trkpt lat="45.6027029024106" lon="8.623098032988809"><ele>232.0</ele><time>2026-04-05T10:34:57.998Z</time></trkpt><trkpt lat="45.602683225191264" lon="8.622986512189321"><ele>232.0</ele><time>2026-04-05T10:34:58.998Z</time></trkpt><trkpt lat="45.60264989527333" lon="8.622861747023835"><ele>232.0</ele><time>2026-04-05T10:34:59.998Z</time></trkpt><trkpt lat="45.60261448270156" lon="8.622724430110136"><ele>232.0</ele><time>2026-04-05T10:35:00.998Z</time></trkpt><trkpt lat="45.60258478252001" lon="8.622587155154223"><ele>232.0</ele><time>2026-04-05T10:35:01.998Z</time></trkpt><trkpt lat="45.602557277645076" lon="8.62245060837046"><ele>232.0</ele><time>2026-04-05T10:35:02.998Z</time></trkpt><trkpt lat="45.6025249144564" lon="8.622312036398334"><ele>231.75</ele><time>2026-04-05T10:35:03.998Z</time></trkpt><trkpt lat="45.60249027914213" lon="8.622162127028947"><ele>231.5</ele><time>2026-04-05T10:35:04.998Z</time></trkpt><trkpt lat="45.6024533255498" lon="8.621997927772325"><ele>231.25</ele><time>2026-04-05T10:35:05.998Z</time></trkpt><trkpt lat="45.602412793211215" lon="8.621825998206651"><ele>231.0</ele><time>2026-04-05T10:35:06.998Z</time></trkpt><trkpt lat="45.60237360351037" lon="8.621660131429488"><ele>230.8</ele><time>2026-04-05T10:35:07.997Z</time></trkpt><trkpt lat="45.602334891692045" lon="8.621496290420447"><ele>230.60000000000002</ele><time>2026-04-05T10:35:08.997Z</time></trkpt><trkpt lat="45.60229536760901" lon="8.62133215671596"><ele>230.4</ele><time>2026-04-05T10:35:09.997Z</time></trkpt><trkpt lat="45.6022612618726" lon="8.62118686145872"><ele>230.2</ele><time>2026-04-05T10:35:10.997Z</time></trkpt><trkpt lat="45.602232038721745" lon="8.621057450232419"><ele>230.0</ele><time>2026-04-05T10:35:11.997Z</time></trkpt><trkpt lat="45.602206852177744" lon="8.62094267187077"><ele>230.00000000000003</ele><time>2026-04-05T10:35:12.997Z</time></trkpt><trkpt lat="45.602183868042" lon="8.620835904427626"><ele>230.0</ele><time>2026-04-05T10:35:13.997Z</time></trkpt><trkpt lat="45.60216499198264" lon="8.62074674937555"><ele>230.0</ele><time>2026-04-05T10:35:14.997Z</time></trkpt><trkpt lat="45.602130516513185" lon="8.620596643530044"><ele>230.0</ele><time>2026-04-05T10:35:16.997Z</time></trkpt><trkpt lat="45.602110520283624" lon="8.6205105303374"><ele>230.00000000000003</ele><time>2026-04-05T10:35:17.997Z</time></trkpt><trkpt lat="45.60207791055909" lon="8.620385187122602"><ele>230.0</ele><time>2026-04-05T10:35:19Z</time></trkpt><trkpt lat="45.60204963562171" lon="8.620255491017799"><ele>230.0</ele><time>2026-04-05T10:35:20Z</time></trkpt><trkpt lat="45.602017590719214" lon="8.620108703118042"><ele>230.0</ele><time>2026-04-05T10:35:21Z</time></trkpt><trkpt lat="45.60198052901058" lon="8.619957724633762"><ele>230.0</ele><time>2026-04-05T10:35:22Z</time></trkpt><trkpt lat="45.601942368163925" lon="8.619808832095059"><ele>230.0</ele><time>2026-04-05T10:35:23Z</time></trkpt><trkpt lat="45.60190683197911" lon="8.619654879822125"><ele>230.0</ele><time>2026-04-05T10:35:24Z</time></trkpt><trkpt lat="45.601873321789675" lon="8.619506141626674"><ele>230.0</ele><time>2026-04-05T10:35:25Z</time></trkpt><trkpt lat="45.60183895672056" lon="8.61935521788746"><ele>230.0</ele><time>2026-04-05T10:35:26Z</time></trkpt><trkpt lat="45.60181082013752" lon="8.619207224202253"><ele>230.0</ele><time>2026-04-05T10:35:27Z</time></trkpt><trkpt lat="45.60179281815127" lon="8.619054283821532"><ele>230.0</ele><time>2026-04-05T10:35:28Z</time></trkpt><trkpt lat="45.60179005407002" lon="8.618899300744653"><ele>230.0</ele><time>2026-04-05T10:35:29Z</time></trkpt><trkpt lat="45.601806941660925" lon="8.618744260386537"><ele>229.75</ele><time>2026-04-05T10:35:30Z</time></trkpt><trkpt lat="45.601839508958264" lon="8.618588299909824"><ele>229.5</ele><time>2026-04-05T10:35:31Z</time></trkpt><trkpt lat="45.60188200864508" lon="8.618439133863559"><ele>229.25</ele><time>2026-04-05T10:35:32Z</time></trkpt><trkpt lat="45.60194217614003" lon="8.618298938781628"><ele>229.0</ele><time>2026-04-05T10:35:33Z</time></trkpt><trkpt lat="45.602012707886054" lon="8.618164865123072"><ele>228.75</ele><time>2026-04-05T10:35:34Z</time></trkpt><trkpt lat="45.60209249260032" lon="8.61803936254793"><ele>228.5</ele><time>2026-04-05T10:35:35Z</time></trkpt><trkpt lat="45.602173029196685" lon="8.6179138265855"><ele>228.25</ele><time>2026-04-05T10:35:36Z</time></trkpt><trkpt lat="45.60225045566729" lon="8.617781760661899"><ele>228.0</ele><time>2026-04-05T10:35:36.999Z</time></trkpt><trkpt lat="45.60232152430323" lon="8.61765055818961"><ele>228.4</ele><time>2026-04-05T10:35:37.999Z</time></trkpt><trkpt lat="45.60238959000348" lon="8.617524828611774"><ele>228.8</ele><time>2026-04-05T10:35:38.999Z</time></trkpt><trkpt lat="45.602449955414485" lon="8.617410930894335"><ele>229.2</ele><time>2026-04-05T10:35:39.999Z</time></trkpt><trkpt lat="45.60249919573466" lon="8.617310265424065"><ele>229.6</ele><time>2026-04-05T10:35:40.999Z</time></trkpt><trkpt lat="45.60253920950533" lon="8.617225273020699"><ele>230.0</ele><time>2026-04-05T10:35:41.999Z</time></trkpt><trkpt lat="45.60258888086873" lon="8.617122889448236"><ele>230.0</ele><time>2026-04-05T10:35:43.999Z</time></trkpt><trkpt lat="45.6024928814276" lon="8.617017546046327"><ele>230.0</ele><time>2026-04-05T10:35:44.999Z</time></trkpt><trkpt lat="45.602425310594825" lon="8.616962999535707"><ele>230.0</ele><time>2026-04-05T10:35:45.999Z</time></trkpt><trkpt lat="45.602448224874244" lon="8.61676817141773"><ele>230.0</ele><time>2026-04-05T10:36:05.998Z</time></trkpt><trkpt lat="45.6024607807774" lon="8.616673806886238"><ele>230.0</ele><time>2026-04-05T10:36:06.998Z</time></trkpt><trkpt lat="45.602480123102566" lon="8.61657423525009"><ele>230.33333333333334</ele><time>2026-04-05T10:36:07.998Z</time></trkpt><trkpt lat="45.602485135785734" lon="8.616442373557296"><ele>230.66666666666669</ele><time>2026-04-05T10:36:08.998Z</time></trkpt><trkpt lat="45.60249859509392" lon="8.616301822631828"><ele>231.0</ele><time>2026-04-05T10:36:09.998Z</time></trkpt><trkpt lat="45.602497282470075" lon="8.61618931124019"><ele>231.33333333333331</ele><time>2026-04-05T10:36:10.998Z</time></trkpt><trkpt lat="45.602482155630696" lon="8.616077283383012"><ele>231.66666666666666</ele><time>2026-04-05T10:36:11.998Z</time></trkpt><trkpt lat="45.60247575967131" lon="8.615977396422188"><ele>232.0</ele><time>2026-04-05T10:36:12.998Z</time></trkpt><trkpt lat="45.60246155764308" lon="8.61581108174813"><ele>232.28571428571433</ele><time>2026-04-05T10:36:14.998Z</time></trkpt><trkpt lat="45.602489060899856" lon="8.615712544179534"><ele>232.57142857142858</ele><time>2026-04-05T10:36:15.998Z</time></trkpt><trkpt lat="45.60249831022703" lon="8.615617027767394"><ele>232.8571428571429</ele><time>2026-04-05T10:36:16.998Z</time></trkpt><trkpt lat="45.60249492419171" lon="8.615513771831408"><ele>233.14285714285717</ele><time>2026-04-05T10:36:17.998Z</time></trkpt><trkpt lat="45.60248313948024" lon="8.61540179430728"><ele>233.42857142857144</ele><time>2026-04-05T10:36:18.998Z</time></trkpt><trkpt lat="45.60245811415533" lon="8.615295937743735"><ele>233.71428571428572</ele><time>2026-04-05T10:36:19.998Z</time></trkpt><trkpt lat="45.60245996335446" lon="8.615192956690313"><ele>234.0</ele><time>2026-04-05T10:36:20.998Z</time></trkpt><trkpt lat="45.6024362557012" lon="8.615102708592502"><ele>234.2</ele><time>2026-04-05T10:36:21.998Z</time></trkpt><trkpt lat="45.602408790313056" lon="8.61501969440946"><ele>234.39999999999998</ele><time>2026-04-05T10:36:22.998Z</time></trkpt><trkpt lat="45.60234962401544" lon="8.614963783740427"><ele>234.6</ele><time>2026-04-05T10:36:23.998Z</time></trkpt><trkpt lat="45.60231543304963" lon="8.614832793319856"><ele>234.8</ele><time>2026-04-05T10:36:25.998Z</time></trkpt><trkpt lat="45.60228557668491" lon="8.614660304494533"><ele>235.0</ele><time>2026-04-05T10:36:27.998Z</time></trkpt><trkpt lat="45.6022745020337" lon="8.61451554760901"><ele>235.25</ele><time>2026-04-05T10:36:28.998Z</time></trkpt><trkpt lat="45.602267046123195" lon="8.614418092054283"><ele>235.5</ele><time>2026-04-05T10:36:29.998Z</time></trkpt><trkpt lat="45.602268087680656" lon="8.614268912945356"><ele>235.75</ele><time>2026-04-05T10:36:31.998Z</time></trkpt><trkpt lat="45.60227436615171" lon="8.614157619313358"><ele>236.0</ele><time>2026-04-05T10:36:33.998Z</time></trkpt><trkpt lat="45.602473270674786" lon="8.61415838578521"><ele>236.0</ele><time>2026-04-05T10:36:35.998Z</time></trkpt><trkpt lat="45.602569142884555" lon="8.614141916970157"><ele>236.00000000000003</ele><time>2026-04-05T10:36:36.998Z</time></trkpt><trkpt lat="45.60266590240674" lon="8.614125295936546"><ele>236.00000000000003</ele><time>2026-04-05T10:36:37.998Z</time></trkpt><trkpt lat="45.60276557784416" lon="8.614088768942"><ele>236.0</ele><time>2026-04-05T10:36:38.998Z</time></trkpt><trkpt lat="45.60286827769808" lon="8.614075116241574"><ele>236.0</ele><time>2026-04-05T10:36:39.998Z</time></trkpt><trkpt lat="45.60297104015945" lon="8.614063852103284"><ele>235.83333333333334</ele><time>2026-04-05T10:36:40.997Z</time></trkpt><trkpt lat="45.60307130878571" lon="8.614050634166516"><ele>235.66666666666669</ele><time>2026-04-05T10:36:41.997Z</time></trkpt><trkpt lat="45.603159789780655" lon="8.614043467099952"><ele>235.5</ele><time>2026-04-05T10:36:42.997Z</time></trkpt><trkpt lat="45.60323671515981" lon="8.614032293295663"><ele>235.33333333333331</ele><time>2026-04-05T10:36:43.997Z</time></trkpt><trkpt lat="45.60330661296577" lon="8.614027309484525"><ele>235.16666666666666</ele><time>2026-04-05T10:36:44.997Z</time></trkpt><trkpt lat="45.603418671237954" lon="8.614021958906283"><ele>235.0</ele><time>2026-04-05T10:36:46.997Z</time></trkpt><trkpt lat="45.60348230347985" lon="8.614033748378487"><ele>235.0</ele><time>2026-04-05T10:36:48.997Z</time></trkpt><trkpt lat="45.603549318811844" lon="8.61386978669245"><ele>235.0</ele><time>2026-04-05T10:38:44.996Z</time></trkpt><trkpt lat="45.60354604580526" lon="8.61368464269986"><ele>235.0</ele><time>2026-04-05T10:38:46.996Z</time></trkpt><trkpt lat="45.60353433869996" lon="8.613583429810122"><ele>235.0</ele><time>2026-04-05T10:38:47.996Z</time></trkpt><trkpt lat="45.603536253933726" lon="8.613473997600465"><ele>235.0</ele><time>2026-04-05T10:38:48.996Z</time></trkpt><trkpt lat="45.60353549341772" lon="8.613350849957472"><ele>235.2</ele><time>2026-04-05T10:38:49.996Z</time></trkpt><trkpt lat="45.6035411340155" lon="8.61322404602373"><ele>235.4</ele><time>2026-04-05T10:38:50.996Z</time></trkpt><trkpt lat="45.60355238841765" lon="8.613078336613341"><ele>235.60000000000002</ele><time>2026-04-05T10:38:51.996Z</time></trkpt><trkpt lat="45.603570374416044" lon="8.612921211437428"><ele>235.8</ele><time>2026-04-05T10:38:52.996Z</time></trkpt><trkpt lat="45.60359463826176" lon="8.61275499660965"><ele>236.0</ele><time>2026-04-05T10:38:53.996Z</time></trkpt><trkpt lat="45.60362276833095" lon="8.612580536594429"><ele>236.0</ele><time>2026-04-05T10:38:54.996Z</time></trkpt><trkpt lat="45.603679037036905" lon="8.612406884900253"><ele>236.0</ele><time>2026-04-05T10:38:55.996Z</time></trkpt><trkpt lat="45.60370604719331" lon="8.612232069073567"><ele>236.0</ele><time>2026-04-05T10:38:56.995Z</time></trkpt><trkpt lat="45.603746730398996" lon="8.612070732509542"><ele>236.0</ele><time>2026-04-05T10:38:57.996Z</time></trkpt><trkpt lat="45.60378177125722" lon="8.611911615686283"><ele>236.25</ele><time>2026-04-05T10:38:58.995Z</time></trkpt><trkpt lat="45.60382122083948" lon="8.611736110386632"><ele>236.5</ele><time>2026-04-05T10:38:59.995Z</time></trkpt><trkpt lat="45.60387964894886" lon="8.611563375531817"><ele>236.75</ele><time>2026-04-05T10:39:00.995Z</time></trkpt><trkpt lat="45.6039220260575" lon="8.611387210270427"><ele>237.0</ele><time>2026-04-05T10:39:01.995Z</time></trkpt><trkpt lat="45.60395129124111" lon="8.611197207221476"><ele>237.0</ele><time>2026-04-05T10:39:02.995Z</time></trkpt><trkpt lat="45.60399486542933" lon="8.611014719360279"><ele>237.0</ele><time>2026-04-05T10:39:03.995Z</time></trkpt><trkpt lat="45.604045293213176" lon="8.610835887433966"><ele>237.0</ele><time>2026-04-05T10:39:04.995Z</time></trkpt><trkpt lat="45.60408497750734" lon="8.610647016216346"><ele>237.0</ele><time>2026-04-05T10:39:05.995Z</time></trkpt><trkpt lat="45.604130167606904" lon="8.610454844372233"><ele>236.66666666666669</ele><time>2026-04-05T10:39:06.995Z</time></trkpt><trkpt lat="45.60417410453579" lon="8.610259302543193"><ele>236.33333333333334</ele><time>2026-04-05T10:39:07.995Z</time></trkpt><trkpt lat="45.604222070363186" lon="8.61004087786187"><ele>236.0</ele><time>2026-04-05T10:39:08.995Z</time></trkpt><trkpt lat="45.604274617933285" lon="8.609845004924859"><ele>236.0</ele><time>2026-04-05T10:39:09.995Z</time></trkpt><trkpt lat="45.60432584553515" lon="8.609640023741978"><ele>236.0</ele><time>2026-04-05T10:39:10.995Z</time></trkpt><trkpt lat="45.60437910923553" lon="8.60941726080158"><ele>236.0</ele><time>2026-04-05T10:39:11.995Z</time></trkpt><trkpt lat="45.60443167893699" lon="8.609202208553127"><ele>236.33333333333334</ele><time>2026-04-05T10:39:12.995Z</time></trkpt><trkpt lat="45.6044801774812" lon="8.60899433346813"><ele>236.66666666666669</ele><time>2026-04-05T10:39:13.995Z</time></trkpt><trkpt lat="45.604530329488504" lon="8.608787988120993"><ele>237.0</ele><time>2026-04-05T10:39:14.995Z</time></trkpt><trkpt lat="45.604582092039685" lon="8.608569546992072"><ele>236.33333333333331</ele><time>2026-04-05T10:39:15.995Z</time></trkpt><trkpt lat="45.604625308591814" lon="8.608366983838643"><ele>235.66666666666666</ele><time>2026-04-05T10:39:16.995Z</time></trkpt><trkpt lat="45.604674356873424" lon="8.608151975413929"><ele>235.0</ele><time>2026-04-05T10:39:17.995Z</time></trkpt><trkpt lat="45.604741619246006" lon="8.607935070304217"><ele>234.0</ele><time>2026-04-05T10:39:18.995Z</time></trkpt><trkpt lat="45.60480059906812" lon="8.607687543592927"><ele>233.0</ele><time>2026-04-05T10:39:19.995Z</time></trkpt><trkpt lat="45.60484815143278" lon="8.607423567442346"><ele>232.0</ele><time>2026-04-05T10:39:20.995Z</time></trkpt><trkpt lat="45.604917993488094" lon="8.607151850682442"><ele>232.0</ele><time>2026-04-05T10:39:21.995Z</time></trkpt><trkpt lat="45.6049855005857" lon="8.606864929489038"><ele>232.0</ele><time>2026-04-05T10:39:22.995Z</time></trkpt><trkpt lat="45.6050524952841" lon="8.606580489083967"><ele>232.0</ele><time>2026-04-05T10:39:23.995Z</time></trkpt><trkpt lat="45.605116395835736" lon="8.606302396016682"><ele>231.66666666666666</ele><time>2026-04-05T10:39:24.995Z</time></trkpt><trkpt lat="45.60517826522215" lon="8.606044773406062"><ele>231.33333333333331</ele><time>2026-04-05T10:39:25.995Z</time></trkpt><trkpt lat="45.60524903716746" lon="8.605800485634896"><ele>231.0</ele><time>2026-04-05T10:39:26.995Z</time></trkpt><trkpt lat="45.605310307897035" lon="8.605542346102128"><ele>230.33333333333331</ele><time>2026-04-05T10:39:27.995Z</time></trkpt><trkpt lat="45.60537731553027" lon="8.605260129090041"><ele>229.66666666666666</ele><time>2026-04-05T10:39:28.995Z</time></trkpt><trkpt lat="45.605449853657916" lon="8.604954890773222"><ele>229.0</ele><time>2026-04-05T10:39:29.995Z</time></trkpt><trkpt lat="45.60550841315808" lon="8.60463427338968"><ele>229.5</ele><time>2026-04-05T10:39:30.997Z</time></trkpt><trkpt lat="45.60559954578271" lon="8.604326977915502"><ele>230.0</ele><time>2026-04-05T10:39:31.997Z</time></trkpt><trkpt lat="45.605679513792886" lon="8.60399088267485"><ele>231.5</ele><time>2026-04-05T10:39:32.997Z</time></trkpt><trkpt lat="45.60575961479358" lon="8.60365541006347"><ele>233.0</ele><time>2026-04-05T10:39:33.997Z</time></trkpt><trkpt lat="45.60582701500331" lon="8.603301056976813"><ele>233.0</ele><time>2026-04-05T10:39:34.997Z</time></trkpt><trkpt lat="45.60592730601325" lon="8.602952587626115"><ele>233.0</ele><time>2026-04-05T10:39:35.997Z</time></trkpt><trkpt lat="45.60601041985804" lon="8.602603771764207"><ele>232.5</ele><time>2026-04-05T10:39:36.998Z</time></trkpt><trkpt lat="45.606096553029154" lon="8.60224398022906"><ele>232.0</ele><time>2026-04-05T10:39:37.998Z</time></trkpt><trkpt lat="45.60617280520242" lon="8.601924939758526"><ele>232.66666666666666</ele><time>2026-04-05T10:39:38.998Z</time></trkpt><trkpt lat="45.60624694637672" lon="8.601614732214921"><ele>233.33333333333331</ele><time>2026-04-05T10:39:39.998Z</time></trkpt><trkpt lat="45.606311659169364" lon="8.601343972913654"><ele>234.0</ele><time>2026-04-05T10:39:40.998Z</time></trkpt><trkpt lat="45.60636983129364" lon="8.601100076992385"><ele>234.0</ele><time>2026-04-05T10:39:41.998Z</time></trkpt><trkpt lat="45.60642187938057" lon="8.60086872508075"><ele>234.0</ele><time>2026-04-05T10:39:42.998Z</time></trkpt><trkpt lat="45.606469536246436" lon="8.60065778045517"><ele>234.0</ele><time>2026-04-05T10:39:43.998Z</time></trkpt><trkpt lat="45.60651883462872" lon="8.600441355302188"><ele>234.25</ele><time>2026-04-05T10:39:44.998Z</time></trkpt><trkpt lat="45.60655057220802" lon="8.600230065598153"><ele>234.5</ele><time>2026-04-05T10:39:45.998Z</time></trkpt><trkpt lat="45.60659965723758" lon="8.600042447649646"><ele>234.75</ele><time>2026-04-05T10:39:46.999Z</time></trkpt><trkpt lat="45.60665578536667" lon="8.59985333521082"><ele>235.0</ele><time>2026-04-05T10:39:47.999Z</time></trkpt><trkpt lat="45.60669386846959" lon="8.599691723650418"><ele>235.0</ele><time>2026-04-05T10:39:48.999Z</time></trkpt><trkpt lat="45.606710938179184" lon="8.599564641225442"><ele>235.0</ele><time>2026-04-05T10:39:49.999Z</time></trkpt><trkpt lat="45.606736999873704" lon="8.5994581838451"><ele>235.0</ele><time>2026-04-05T10:39:50.999Z</time></trkpt><trkpt lat="45.60678456182802" lon="8.599308614312282"><ele>235.0</ele><time>2026-04-05T10:39:52.999Z</time></trkpt><trkpt lat="45.60681980751602" lon="8.599158019155569"><ele>235.0</ele><time>2026-04-05T10:39:54.999Z</time></trkpt><trkpt lat="45.606858961878736" lon="8.598989045661424"><ele>235.14285714285714</ele><time>2026-04-05T10:39:56.999Z</time></trkpt><trkpt lat="45.60688176280437" lon="8.598890646644382"><ele>235.28571428571428</ele><time>2026-04-05T10:39:57.999Z</time></trkpt><trkpt lat="45.60689706765963" lon="8.59878632960423"><ele>235.42857142857142</ele><time>2026-04-05T10:39:58.999Z</time></trkpt><trkpt lat="45.60691972111781" lon="8.598682554188773"><ele>235.57142857142856</ele><time>2026-04-05T10:39:59.999Z</time></trkpt><trkpt lat="45.60693945205176" lon="8.598586599940719"><ele>235.71428571428572</ele><time>2026-04-05T10:40:00.999Z</time></trkpt><trkpt lat="45.60696752303573" lon="8.598480646848797"><ele>235.85714285714283</ele><time>2026-04-05T10:40:01.999Z</time></trkpt><trkpt lat="45.60699961813561" lon="8.598384189280834"><ele>236.0</ele><time>2026-04-05T10:40:02.999Z</time></trkpt><trkpt lat="45.60703197091521" lon="8.598283155652146"><ele>236.33333333333334</ele><time>2026-04-05T10:40:03.999Z</time></trkpt><trkpt lat="45.60707698273318" lon="8.598207495321187"><ele>236.66666666666669</ele><time>2026-04-05T10:40:04.999Z</time></trkpt><trkpt lat="45.607108128469555" lon="8.598109545962913"><ele>237.0</ele><time>2026-04-05T10:40:05.999Z</time></trkpt><trkpt lat="45.607138634988694" lon="8.598010998708403"><ele>237.33333333333331</ele><time>2026-04-05T10:40:06.999Z</time></trkpt><trkpt lat="45.60716990767282" lon="8.597905694720357"><ele>237.66666666666666</ele><time>2026-04-05T10:40:07.999Z</time></trkpt><trkpt lat="45.607192683779736" lon="8.597791276689469"><ele>238.0</ele><time>2026-04-05T10:40:08.999Z</time></trkpt><trkpt lat="45.60720829160942" lon="8.597680863703545"><ele>237.99999999999997</ele><time>2026-04-05T10:40:09.999Z</time></trkpt><trkpt lat="45.60721936219674" lon="8.59757065211891"><ele>238.0</ele><time>2026-04-05T10:40:10.999Z</time></trkpt><trkpt lat="45.60722526147861" lon="8.597460265621903"><ele>238.0</ele><time>2026-04-05T10:40:11.999Z</time></trkpt><trkpt lat="45.60721203689301" lon="8.597350172477325"><ele>238.0</ele><time>2026-04-05T10:40:12.999Z</time></trkpt><trkpt lat="45.607208296753285" lon="8.597239763844946"><ele>237.99999999999997</ele><time>2026-04-05T10:40:13.999Z</time></trkpt><trkpt lat="45.6072024144371" lon="8.597133720516984"><ele>238.0</ele><time>2026-04-05T10:40:14.999Z</time></trkpt><trkpt lat="45.6071959295176" lon="8.597031666576672"><ele>237.83333333333331</ele><time>2026-04-05T10:40:15.999Z</time></trkpt><trkpt lat="45.60719377594879" lon="8.596930873036023"><ele>237.66666666666666</ele><time>2026-04-05T10:40:16.999Z</time></trkpt><trkpt lat="45.60720398922941" lon="8.59684028080737"><ele>237.5</ele><time>2026-04-05T10:40:17.999Z</time></trkpt><trkpt lat="45.60725255664423" lon="8.596697402640448"><ele>237.33333333333331</ele><time>2026-04-05T10:40:19.999Z</time></trkpt><trkpt lat="45.607322805710346" lon="8.596634052369945"><ele>237.16666666666666</ele><time>2026-04-05T10:40:21.999Z</time></trkpt><trkpt lat="45.60739982953004" lon="8.596660617494328"><ele>237.0</ele><time>2026-04-05T10:40:23.999Z</time></trkpt><trkpt lat="45.60751055060154" lon="8.596632300067082"><ele>236.99999999999997</ele><time>2026-04-05T10:40:25.999Z</time></trkpt><trkpt lat="45.60757631279036" lon="8.596604818314198"><ele>237.0</ele><time>2026-04-05T10:40:26.999Z</time></trkpt><trkpt lat="45.607641020880195" lon="8.596584180157897"><ele>236.99999999999997</ele><time>2026-04-05T10:40:27.999Z</time></trkpt><trkpt lat="45.60770203747824" lon="8.596560244348629"><ele>236.99999999999997</ele><time>2026-04-05T10:40:28.999Z</time></trkpt><trkpt lat="45.60776357048933" lon="8.596536318822523"><ele>237.0</ele><time>2026-04-05T10:40:29.999Z</time></trkpt><trkpt lat="45.60783059798558" lon="8.596509885701193"><ele>236.99999999999997</ele><time>2026-04-05T10:40:30.999Z</time></trkpt><trkpt lat="45.60789596567904" lon="8.596482499170879"><ele>236.99999999999997</ele><time>2026-04-05T10:40:31.999Z</time></trkpt><trkpt lat="45.60801605600564" lon="8.596437523313211"><ele>238.6</ele><time>2026-04-05T10:40:33.999Z</time></trkpt><trkpt lat="45.608131893041275" lon="8.596396321448928"><ele>240.2</ele><time>2026-04-05T10:40:35.998Z</time></trkpt><trkpt lat="45.60821104662078" lon="8.596364428641426"><ele>241.8</ele><time>2026-04-05T10:40:36.998Z</time></trkpt><trkpt lat="45.608280930960944" lon="8.596340251433068"><ele>243.4</ele><time>2026-04-05T10:40:37.998Z</time></trkpt><trkpt lat="45.60836110109953" lon="8.596313925572069"><ele>245.0</ele><time>2026-04-05T10:40:38.998Z</time></trkpt><trkpt lat="45.6084655245885" lon="8.596280778838286"><ele>245.0</ele><time>2026-04-05T10:40:39.998Z</time></trkpt><trkpt lat="45.60860535058636" lon="8.59623373307886"><ele>245.0</ele><time>2026-04-05T10:40:40.998Z</time></trkpt><trkpt lat="45.60879281735893" lon="8.596175400028702"><ele>245.0</ele><time>2026-04-05T10:40:41.998Z</time></trkpt><trkpt lat="45.6089918614904" lon="8.596104058361426"><ele>249.33333333333334</ele><time>2026-04-05T10:40:42.998Z</time></trkpt><trkpt lat="45.609191760200716" lon="8.596037480279126"><ele>253.66666666666669</ele><time>2026-04-05T10:40:43.998Z</time></trkpt><trkpt lat="45.60939963738811" lon="8.595971397724167"><ele>258.0</ele><time>2026-04-05T10:40:44.998Z</time></trkpt><trkpt lat="45.60957012584156" lon="8.595915789641422"><ele>260.0</ele><time>2026-04-05T10:40:45.998Z</time></trkpt><trkpt lat="45.60974844428576" lon="8.595854903679356"><ele>262.0</ele><time>2026-04-05T10:40:46.998Z</time></trkpt><trkpt lat="45.60992704741927" lon="8.595797495194613"><ele>264.0</ele><time>2026-04-05T10:40:47.998Z</time></trkpt><trkpt lat="45.61009831342728" lon="8.595738258784445"><ele>264.0</ele><time>2026-04-05T10:40:48.998Z</time></trkpt><trkpt lat="45.610255077057936" lon="8.595684913768427"><ele>264.0</ele><time>2026-04-05T10:40:49.998Z</time></trkpt><trkpt lat="45.61042383193885" lon="8.595630648967862"><ele>264.0</ele><time>2026-04-05T10:40:50.998Z</time></trkpt><trkpt lat="45.61058580679699" lon="8.595571283435554"><ele>264.4</ele><time>2026-04-05T10:40:51.998Z</time></trkpt><trkpt lat="45.610710523803036" lon="8.59553139737362"><ele>264.79999999999995</ele><time>2026-04-05T10:40:52.998Z</time></trkpt><trkpt lat="45.61080756071333" lon="8.595499557479545"><ele>265.20000000000005</ele><time>2026-04-05T10:40:53.998Z</time></trkpt><trkpt lat="45.610893745249456" lon="8.595496108549565"><ele>265.6</ele><time>2026-04-05T10:40:54.998Z</time></trkpt><trkpt lat="45.610999558490356" lon="8.595431295515604"><ele>266.0</ele><time>2026-04-05T10:40:56.998Z</time></trkpt><trkpt lat="45.61104360420037" lon="8.5953081529151"><ele>266.8</ele><time>2026-04-05T10:40:58.998Z</time></trkpt><trkpt lat="45.61101396522719" lon="8.595202216101766"><ele>267.6</ele><time>2026-04-05T10:40:59.998Z</time></trkpt><trkpt lat="45.61099677974211" lon="8.595045787906319"><ele>268.4</ele><time>2026-04-05T10:41:00.998Z</time></trkpt><trkpt lat="45.61096631088949" lon="8.594862758216355"><ele>269.2</ele><time>2026-04-05T10:41:01.998Z</time></trkpt><trkpt lat="45.61094229787173" lon="8.594712358125081"><ele>270.0</ele><time>2026-04-05T10:41:02.998Z</time></trkpt><trkpt lat="45.61091894687714" lon="8.594590686274113"><ele>270.0</ele><time>2026-04-05T10:41:03.998Z</time></trkpt><trkpt lat="45.61087626920413" lon="8.594490586786225"><ele>270.0</ele><time>2026-04-05T10:41:04.998Z</time></trkpt><trkpt lat="45.6108673330632" lon="8.594330794881568"><ele>270.0</ele><time>2026-04-05T10:41:06.998Z</time></trkpt><trkpt lat="45.61092993254797" lon="8.594205210706056"><ele>270.0</ele><time>2026-04-05T10:41:08.998Z</time></trkpt><trkpt lat="45.6110375945933" lon="8.594201177392202"><ele>270.0</ele><time>2026-04-05T10:41:09.998Z</time></trkpt><trkpt lat="45.611178579574826" lon="8.59411539681283"><ele>270.0</ele><time>2026-04-05T10:41:10.998Z</time></trkpt><trkpt lat="45.61135418525185" lon="8.594033595341564"><ele>270.0</ele><time>2026-04-05T10:41:11.998Z</time></trkpt><trkpt lat="45.611535952483656" lon="8.593947059948919"><ele>270.0</ele><time>2026-04-05T10:41:12.998Z</time></trkpt><trkpt lat="45.61171548019176" lon="8.593858195162202"><ele>270.0</ele><time>2026-04-05T10:41:13.998Z</time></trkpt><trkpt lat="45.61191580300759" lon="8.59376381734731"><ele>270.0</ele><time>2026-04-05T10:41:14.998Z</time></trkpt><trkpt lat="45.61211899926359" lon="8.593653580318104"><ele>270.0</ele><time>2026-04-05T10:41:15.998Z</time></trkpt><trkpt lat="45.61232248242186" lon="8.59357566318228"><ele>270.3333333333333</ele><time>2026-04-05T10:41:16.998Z</time></trkpt><trkpt lat="45.612490975835385" lon="8.593494596907426"><ele>270.66666666666663</ele><time>2026-04-05T10:41:17.998Z</time></trkpt><trkpt lat="45.612640797925366" lon="8.59340112566581"><ele>271.0</ele><time>2026-04-05T10:41:18.998Z</time></trkpt><trkpt lat="45.612788248247824" lon="8.59332889238348"><ele>270.75</ele><time>2026-04-05T10:41:19.998Z</time></trkpt><trkpt lat="45.61292093197141" lon="8.593288171576866"><ele>270.5</ele><time>2026-04-05T10:41:20.998Z</time></trkpt><trkpt lat="45.61304571971736" lon="8.593228090378688"><ele>270.25</ele><time>2026-04-05T10:41:21.998Z</time></trkpt><trkpt lat="45.61315504904479" lon="8.59318318345554"><ele>270.0</ele><time>2026-04-05T10:41:22.998Z</time></trkpt><trkpt lat="45.61326722310001" lon="8.593170643083813"><ele>270.0</ele><time>2026-04-05T10:41:23.997Z</time></trkpt><trkpt lat="45.61340404400877" lon="8.593218819107213"><ele>270.0</ele><time>2026-04-05T10:41:24.997Z</time></trkpt><trkpt lat="45.61359561102297" lon="8.593243578171245"><ele>270.0</ele><time>2026-04-05T10:41:25.997Z</time></trkpt><trkpt lat="45.61380506960519" lon="8.593307129510901"><ele>271.0</ele><time>2026-04-05T10:41:26.997Z</time></trkpt><trkpt lat="45.61402408250025" lon="8.593386499399234"><ele>272.0</ele><time>2026-04-05T10:41:27.997Z</time></trkpt><trkpt lat="45.61422601706167" lon="8.593435384530391"><ele>273.0</ele><time>2026-04-05T10:41:28.997Z</time></trkpt><trkpt lat="45.61439773696154" lon="8.593451379161797"><ele>273.0</ele><time>2026-04-05T10:41:29.997Z</time></trkpt><trkpt lat="45.614542769994735" lon="8.593504899090181"><ele>273.0</ele><time>2026-04-05T10:41:30.997Z</time></trkpt><trkpt lat="45.61466843113888" lon="8.593534685522979"><ele>273.0</ele><time>2026-04-05T10:41:31.997Z</time></trkpt><trkpt lat="45.614785757603805" lon="8.593540442580842"><ele>273.0</ele><time>2026-04-05T10:41:32.997Z</time></trkpt><trkpt lat="45.61487844439647" lon="8.593585644505003"><ele>273.0</ele><time>2026-04-05T10:41:33.997Z</time></trkpt><trkpt lat="45.61495212359555" lon="8.593603697956008"><ele>273.0</ele><time>2026-04-05T10:41:34.997Z</time></trkpt><trkpt lat="45.615046491110014" lon="8.593656591626623"><ele>273.0</ele><time>2026-04-05T10:41:36.999Z</time></trkpt><trkpt lat="45.61510842974633" lon="8.593783110483637"><ele>273.0</ele><time>2026-04-05T10:41:38.999Z</time></trkpt><trkpt lat="45.61512160537788" lon="8.593871458356915"><ele>273.0</ele><time>2026-04-05T10:41:39.999Z</time></trkpt><trkpt lat="45.61517019407432" lon="8.594016497347324"><ele>273.0</ele><time>2026-04-05T10:41:41.999Z</time></trkpt><trkpt lat="45.61519724299893" lon="8.594131810411254"><ele>273.0</ele><time>2026-04-05T10:41:43.999Z</time></trkpt><trkpt lat="45.61514300326543" lon="8.594244013647785"><ele>273.0</ele><time>2026-04-05T10:41:45.999Z</time></trkpt><trkpt lat="45.61504713527841" lon="8.594291225464799"><ele>273.0</ele><time>2026-04-05T10:41:47.999Z</time></trkpt><trkpt lat="45.615011806212166" lon="8.594426003052417"><ele>273.0</ele><time>2026-04-05T10:41:49.999Z</time></trkpt><trkpt lat="45.61507640050836" lon="8.594531929526529"><ele>272.0</ele><time>2026-04-05T10:41:50.999Z</time></trkpt><trkpt lat="45.615147848545135" lon="8.594674797633838"><ele>271.0</ele><time>2026-04-05T10:41:51.999Z</time></trkpt><trkpt lat="45.61524214699166" lon="8.59488508374968"><ele>270.0</ele><time>2026-04-05T10:41:52.999Z</time></trkpt><trkpt lat="45.61532560568176" lon="8.595136624547234"><ele>267.3333333333333</ele><time>2026-04-05T10:41:53.999Z</time></trkpt><trkpt lat="45.615428957386236" lon="8.59535573344319"><ele>264.66666666666663</ele><time>2026-04-05T10:41:54.999Z</time></trkpt><trkpt lat="45.615506028771364" lon="8.59554429970673"><ele>262.0</ele><time>2026-04-05T10:41:55.999Z</time></trkpt><trkpt lat="45.61557348144609" lon="8.595714699175268"><ele>262.0</ele><time>2026-04-05T10:41:56.999Z</time></trkpt><trkpt lat="45.615633406178404" lon="8.595871908716227"><ele>262.0</ele><time>2026-04-05T10:41:57.999Z</time></trkpt><trkpt lat="45.61568891434692" lon="8.596009769500595"><ele>262.0</ele><time>2026-04-05T10:41:58.999Z</time></trkpt><trkpt lat="45.615732325451376" lon="8.59611988682452"><ele>262.0</ele><time>2026-04-05T10:41:59.999Z</time></trkpt><trkpt lat="45.615769746489235" lon="8.596228008838619"><ele>262.0</ele><time>2026-04-05T10:42:00.999Z</time></trkpt><trkpt lat="45.61580591060388" lon="8.596324541085968"><ele>262.0</ele><time>2026-04-05T10:42:01.999Z</time></trkpt><trkpt lat="45.61583539774402" lon="8.596407881099907"><ele>262.0</ele><time>2026-04-05T10:42:04.999Z</time></trkpt><trkpt lat="45.61594544388021" lon="8.596263881915759"><ele>262.0</ele><time>2026-04-05T10:42:14.999Z</time></trkpt><trkpt lat="45.61599884429947" lon="8.596162166255"><ele>262.0</ele><time>2026-04-05T10:42:15.999Z</time></trkpt><trkpt lat="45.616056670140715" lon="8.596060307019876"><ele>262.0</ele><time>2026-04-05T10:42:16.999Z</time></trkpt><trkpt lat="45.61610750761009" lon="8.595965577484014"><ele>262.0</ele><time>2026-04-05T10:42:17.999Z</time></trkpt><trkpt lat="45.61613963707088" lon="8.595851162956135"><ele>262.0</ele><time>2026-04-05T10:42:18.999Z</time></trkpt><trkpt lat="45.61614701097368" lon="8.595724400457645"><ele>262.0</ele><time>2026-04-05T10:42:19.999Z</time></trkpt><trkpt lat="45.61616674066283" lon="8.59559376062674"><ele>262.0</ele><time>2026-04-05T10:42:20.999Z</time></trkpt><trkpt lat="45.61620008783366" lon="8.595464581631227"><ele>262.0</ele><time>2026-04-05T10:42:21.999Z</time></trkpt><trkpt lat="45.61624945598029" lon="8.595343654885607"><ele>262.5</ele><time>2026-04-05T10:42:22.999Z</time></trkpt><trkpt lat="45.61631289715879" lon="8.595203170632084"><ele>263.0</ele><time>2026-04-05T10:42:23.999Z</time></trkpt><trkpt lat="45.61640963950724" lon="8.595067782996146"><ele>263.5</ele><time>2026-04-05T10:42:24.999Z</time></trkpt><trkpt lat="45.61652493775935" lon="8.594923766676402"><ele>264.0</ele><time>2026-04-05T10:42:25.999Z</time></trkpt><trkpt lat="45.61661788978584" lon="8.594773407324354"><ele>264.0</ele><time>2026-04-05T10:42:26.999Z</time></trkpt><trkpt lat="45.61672816266167" lon="8.594629613700425"><ele>264.0</ele><time>2026-04-05T10:42:27.999Z</time></trkpt><trkpt lat="45.616835427493065" lon="8.594490671235091"><ele>264.0</ele><time>2026-04-05T10:42:28.999Z</time></trkpt><trkpt lat="45.61694074890248" lon="8.594384086850477"><ele>264.0</ele><time>2026-04-05T10:42:29.999Z</time></trkpt><trkpt lat="45.61704035049681" lon="8.594297218231697"><ele>264.2</ele><time>2026-04-05T10:42:30.999Z</time></trkpt><trkpt lat="45.61714630114846" lon="8.59421401259057"><ele>264.4</ele><time>2026-04-05T10:42:31.999Z</time></trkpt><trkpt lat="45.61724181469284" lon="8.594136189219"><ele>264.6</ele><time>2026-04-05T10:42:32.999Z</time></trkpt><trkpt lat="45.61731826264507" lon="8.594052716077343"><ele>264.8</ele><time>2026-04-05T10:42:33.999Z</time></trkpt><trkpt lat="45.61738232375741" lon="8.594012985676606"><ele>265.0</ele><time>2026-04-05T10:42:34.999Z</time></trkpt><trkpt lat="45.617448643983664" lon="8.593877528226"><ele>265.0</ele><time>2026-04-05T10:42:36.999Z</time></trkpt><trkpt lat="45.617471882277975" lon="8.593764570320397"><ele>265.0</ele><time>2026-04-05T10:42:37.998Z</time></trkpt><trkpt lat="45.61743601865246" lon="8.593623474410258"><ele>265.0</ele><time>2026-04-05T10:42:38.998Z</time></trkpt><trkpt lat="45.61739388011928" lon="8.593444496323787"><ele>265.0</ele><time>2026-04-05T10:42:39.998Z</time></trkpt><trkpt lat="45.617338442159884" lon="8.593231565252863"><ele>265.6</ele><time>2026-04-05T10:42:40.998Z</time></trkpt><trkpt lat="45.617293949093344" lon="8.593010570036517"><ele>266.2</ele><time>2026-04-05T10:42:41.998Z</time></trkpt><trkpt lat="45.61725485414429" lon="8.592863929189711"><ele>266.8</ele><time>2026-04-05T10:42:42.998Z</time></trkpt><trkpt lat="45.61725065230036" lon="8.592767790649928"><ele>267.4</ele><time>2026-04-05T10:42:43.998Z</time></trkpt><trkpt lat="45.61732234458168" lon="8.59265515541301"><ele>268.0</ele><time>2026-04-05T10:42:46.998Z</time></trkpt><trkpt lat="45.61741849908179" lon="8.592577925408293"><ele>270.0</ele><time>2026-04-05T10:42:47.998Z</time></trkpt><trkpt lat="45.61755282322853" lon="8.59245178943908"><ele>272.0</ele><time>2026-04-05T10:42:48.998Z</time></trkpt><trkpt lat="45.61769597708964" lon="8.592319425531521"><ele>274.0</ele><time>2026-04-05T10:42:49.998Z</time></trkpt><trkpt lat="45.617817341058654" lon="8.592216798728932"><ele>274.8</ele><time>2026-04-05T10:42:50.998Z</time></trkpt><trkpt lat="45.617907795169856" lon="8.592151593154632"><ele>275.59999999999997</ele><time>2026-04-05T10:42:51.998Z</time></trkpt><trkpt lat="45.6179831515662" lon="8.59210651296013"><ele>276.4</ele><time>2026-04-05T10:42:52.998Z</time></trkpt><trkpt lat="45.61805771960727" lon="8.59200653188074"><ele>277.2</ele><time>2026-04-05T10:42:54.998Z</time></trkpt><trkpt lat="45.61801715128671" lon="8.59186754662112"><ele>278.0</ele><time>2026-04-05T10:42:55.998Z</time></trkpt><trkpt lat="45.61796372297782" lon="8.59170944661776"><ele>278.25</ele><time>2026-04-05T10:42:56.998Z</time></trkpt><trkpt lat="45.617922879165185" lon="8.59148843304001"><ele>278.5</ele><time>2026-04-05T10:42:57.998Z</time></trkpt><trkpt lat="45.617877321162275" lon="8.591323474754565"><ele>278.75</ele><time>2026-04-05T10:42:58.998Z</time></trkpt><trkpt lat="45.617868241009184" lon="8.591213351541263"><ele>279.0</ele><time>2026-04-05T10:43:00.998Z</time></trkpt><trkpt lat="45.61796869814951" lon="8.591148129769204"><ele>279.0</ele><time>2026-04-05T10:43:03.998Z</time></trkpt><trkpt lat="45.618086018673736" lon="8.591083580941389"><ele>279.0</ele><time>2026-04-05T10:43:04.998Z</time></trkpt><trkpt lat="45.61824566158412" lon="8.591002463674759"><ele>279.0</ele><time>2026-04-05T10:43:05.998Z</time></trkpt><trkpt lat="45.61841996701468" lon="8.590920786916534"><ele>279.0</ele><time>2026-04-05T10:43:06.998Z</time></trkpt><trkpt lat="45.61861663001808" lon="8.59083864506434"><ele>279.0</ele><time>2026-04-05T10:43:07.998Z</time></trkpt><trkpt lat="45.61878411962207" lon="8.590776496816478"><ele>279.0</ele><time>2026-04-05T10:43:08.998Z</time></trkpt><trkpt lat="45.6189017204013" lon="8.590732904431988"><ele>279.0</ele><time>2026-04-05T10:43:09.998Z</time></trkpt><trkpt lat="45.61899180900657" lon="8.590699510267001"><ele>279.0</ele><time>2026-04-05T10:43:10.998Z</time></trkpt><trkpt lat="45.61906352024971" lon="8.590682024175639"><ele>279.0</ele><time>2026-04-05T10:43:11.998Z</time></trkpt><trkpt lat="45.619164299411096" lon="8.590771693152519"><ele>279.0</ele><time>2026-04-05T10:43:13.998Z</time></trkpt><trkpt lat="45.61923360152729" lon="8.590821421555885"><ele>279.0</ele><time>2026-04-05T10:43:14.998Z</time></trkpt><trkpt lat="45.619343547295216" lon="8.590764978113834"><ele>279.0</ele><time>2026-04-05T10:43:15.998Z</time></trkpt><trkpt lat="45.6194695176637" lon="8.590701907984613"><ele>279.0</ele><time>2026-04-05T10:43:16.998Z</time></trkpt><trkpt lat="45.619638951315544" lon="8.59061948173096"><ele>279.0</ele><time>2026-04-05T10:43:17.998Z</time></trkpt><trkpt lat="45.61982128743633" lon="8.590578180875555"><ele>279.0</ele><time>2026-04-05T10:43:18.998Z</time></trkpt><trkpt lat="45.61996967720168" lon="8.590466412565878"><ele>279.0</ele><time>2026-04-05T10:43:19.998Z</time></trkpt><trkpt lat="45.620132190047464" lon="8.590384226943687"><ele>279.0</ele><time>2026-04-05T10:43:20.998Z</time></trkpt><trkpt lat="45.62032222084433" lon="8.590319691063975"><ele>279.0</ele><time>2026-04-05T10:43:21.998Z</time></trkpt><trkpt lat="45.62052954707625" lon="8.590247417579677"><ele>279.0</ele><time>2026-04-05T10:43:22.998Z</time></trkpt><trkpt lat="45.62075564314259" lon="8.590163923331819"><ele>279.0</ele><time>2026-04-05T10:43:23.998Z</time></trkpt><trkpt lat="45.620936710359835" lon="8.59007187439587"><ele>279.0</ele><time>2026-04-05T10:43:24.998Z</time></trkpt><trkpt lat="45.62109664827772" lon="8.59003215937944"><ele>279.0</ele><time>2026-04-05T10:43:25.998Z</time></trkpt><trkpt lat="45.6212331450628" lon="8.589961475151444"><ele>279.0</ele><time>2026-04-05T10:43:26.997Z</time></trkpt><trkpt lat="45.62137149431498" lon="8.589917697719324"><ele>279.0</ele><time>2026-04-05T10:43:27.997Z</time></trkpt><trkpt lat="45.621489911787705" lon="8.589868345640411"><ele>280.0</ele><time>2026-04-05T10:43:28.997Z</time></trkpt><trkpt lat="45.621607900306465" lon="8.589791759922923"><ele>281.0</ele><time>2026-04-05T10:43:29.997Z</time></trkpt><trkpt lat="45.6217266739263" lon="8.589683560278907"><ele>282.0</ele><time>2026-04-05T10:43:30.997Z</time></trkpt><trkpt lat="45.62187170541621" lon="8.589557011059794"><ele>283.0</ele><time>2026-04-05T10:43:31.997Z</time></trkpt><trkpt lat="45.622042939266876" lon="8.589400814368574"><ele>283.66666666666663</ele><time>2026-04-05T10:43:32.997Z</time></trkpt><trkpt lat="45.62220779565417" lon="8.58925413924966"><ele>284.3333333333333</ele><time>2026-04-05T10:43:33.997Z</time></trkpt><trkpt lat="45.62234163574885" lon="8.589132618743312"><ele>285.0</ele><time>2026-04-05T10:43:34.997Z</time></trkpt><trkpt lat="45.62244319812094" lon="8.589045090352275"><ele>285.0</ele><time>2026-04-05T10:43:35.997Z</time></trkpt><trkpt lat="45.62253167725118" lon="8.588972647151095"><ele>285.0</ele><time>2026-04-05T10:43:36.997Z</time></trkpt><trkpt lat="45.62261026604113" lon="8.588907361189795"><ele>285.0</ele><time>2026-04-05T10:43:37.997Z</time></trkpt><trkpt lat="45.62268189287968" lon="8.588907706618555"><ele>285.0</ele><time>2026-04-05T10:43:39.997Z</time></trkpt><trkpt lat="45.62277838078981" lon="8.588891398984568"><ele>285.0</ele><time>2026-04-05T10:43:44.999Z</time></trkpt><trkpt lat="45.62284469753541" lon="8.588877794604578"><ele>285.0</ele><time>2026-04-05T10:43:45.999Z</time></trkpt><trkpt lat="45.622928829324856" lon="8.588864814393853"><ele>284.8333333333333</ele><time>2026-04-05T10:43:46.999Z</time></trkpt><trkpt lat="45.62302321939391" lon="8.588860320076224"><ele>284.6666666666667</ele><time>2026-04-05T10:43:47.999Z</time></trkpt><trkpt lat="45.62311913088346" lon="8.58886529113926"><ele>284.5</ele><time>2026-04-05T10:43:48.999Z</time></trkpt><trkpt lat="45.62320968857346" lon="8.58887119899286"><ele>284.33333333333337</ele><time>2026-04-05T10:43:49.999Z</time></trkpt><trkpt lat="45.62327992214773" lon="8.588875780928712"><ele>284.1666666666667</ele><time>2026-04-05T10:43:50.999Z</time></trkpt><trkpt lat="45.62334972347329" lon="8.588881108818713"><ele>284.0</ele><time>2026-04-05T10:43:51.999Z</time></trkpt><trkpt lat="45.623459972623756" lon="8.588889713002192"><ele>284.0</ele><time>2026-04-05T10:43:53.999Z</time></trkpt><trkpt lat="45.62355410956783" lon="8.588904694040462"><ele>284.0</ele><time>2026-04-05T10:43:55.999Z</time></trkpt><trkpt lat="45.62359063016029" lon="8.588990895969484"><ele>284.0</ele><time>2026-04-05T10:43:56.999Z</time></trkpt><trkpt lat="45.62360367881589" lon="8.589139491247025"><ele>284.0</ele><time>2026-04-05T10:43:57.999Z</time></trkpt><trkpt lat="45.623651557816" lon="8.589308050180586"><ele>284.0</ele><time>2026-04-05T10:43:58.999Z</time></trkpt><trkpt lat="45.623692193894534" lon="8.589532927048115"><ele>285.0</ele><time>2026-04-05T10:43:59.999Z</time></trkpt><trkpt lat="45.62373490466895" lon="8.5897721901227"><ele>286.0</ele><time>2026-04-05T10:44:00.999Z</time></trkpt><trkpt lat="45.623784303151616" lon="8.590016781953322"><ele>287.0</ele><time>2026-04-05T10:44:01.999Z</time></trkpt><trkpt lat="45.6238435431201" lon="8.59027624215439"><ele>286.6666666666667</ele><time>2026-04-05T10:44:02.999Z</time></trkpt><trkpt lat="45.623895045224444" lon="8.590534384954474"><ele>286.3333333333333</ele><time>2026-04-05T10:44:03.999Z</time></trkpt><trkpt lat="45.62393825562092" lon="8.590747988775314"><ele>286.0</ele><time>2026-04-05T10:44:04.999Z</time></trkpt><trkpt lat="45.62397123345217" lon="8.590905342012524"><ele>286.0</ele><time>2026-04-05T10:44:05.999Z</time></trkpt><trkpt lat="45.62399748172766" lon="8.59104024919448"><ele>286.0</ele><time>2026-04-05T10:44:06.999Z</time></trkpt><trkpt lat="45.62401706832876" lon="8.591155419953962"><ele>286.0</ele><time>2026-04-05T10:44:07.999Z</time></trkpt><trkpt lat="45.624041489231914" lon="8.591267676602676"><ele>286.0</ele><time>2026-04-05T10:44:08.999Z</time></trkpt><trkpt lat="45.62406585534316" lon="8.591364496515592"><ele>286.0</ele><time>2026-04-05T10:44:09.999Z</time></trkpt><trkpt lat="45.624072114868035" lon="8.591464092904202"><ele>286.0</ele><time>2026-04-05T10:44:10.999Z</time></trkpt><trkpt lat="45.62410536342626" lon="8.591606339282542"><ele>285.2</ele><time>2026-04-05T10:44:12.999Z</time></trkpt><trkpt lat="45.624150655400854" lon="8.591731058716164"><ele>284.40000000000003</ele><time>2026-04-05T10:44:14.999Z</time></trkpt><trkpt lat="45.62418217655888" lon="8.591870226089402"><ele>283.6</ele><time>2026-04-05T10:44:16.999Z</time></trkpt><trkpt lat="45.62421018610524" lon="8.592009027485798"><ele>282.8</ele><time>2026-04-05T10:44:18.999Z</time></trkpt><trkpt lat="45.62422917184137" lon="8.592142869138806"><ele>282.0</ele><time>2026-04-05T10:44:20.999Z</time></trkpt><trkpt lat="45.62425187544505" lon="8.592271057289441"><ele>281.0</ele><time>2026-04-05T10:44:22.999Z</time></trkpt><trkpt lat="45.62427685144884" lon="8.592408916455378"><ele>280.0</ele><time>2026-04-05T10:44:24.999Z</time></trkpt><trkpt lat="45.62433184140619" lon="8.592535313644177"><ele>279.0</ele><time>2026-04-05T10:44:26.999Z</time></trkpt><trkpt lat="45.62441957983427" lon="8.592593326744423"><ele>278.0</ele><time>2026-04-05T10:44:28.999Z</time></trkpt><trkpt lat="45.624522435740666" lon="8.592620868501935"><ele>277.0</ele><time>2026-04-05T10:44:30.999Z</time></trkpt><trkpt lat="45.62460027043926" lon="8.592623680958305"><ele>277.0</ele><time>2026-04-05T10:44:32.999Z</time></trkpt><trkpt lat="45.62511736145485" lon="8.59277696432396"><ele>277.3333333333333</ele><time>2026-04-05T10:44:35.999Z</time></trkpt><trkpt lat="45.62514787489377" lon="8.59294482846539"><ele>277.6666666666667</ele><time>2026-04-05T10:44:36.999Z</time></trkpt><trkpt lat="45.625189928996924" lon="8.593156336475804"><ele>278.0</ele><time>2026-04-05T10:44:37.999Z</time></trkpt><trkpt lat="45.625232885145074" lon="8.593408707803937"><ele>278.0</ele><time>2026-04-05T10:44:38.999Z</time></trkpt><trkpt lat="45.62525849852283" lon="8.593626667762496"><ele>278.0</ele><time>2026-04-05T10:44:39.999Z</time></trkpt><trkpt lat="45.62528422062941" lon="8.593849272568923"><ele>278.0</ele><time>2026-04-05T10:44:40.998Z</time></trkpt><trkpt lat="45.62529951380506" lon="8.59399517171038"><ele>278.0</ele><time>2026-04-05T10:44:41.998Z</time></trkpt><trkpt lat="45.62530976687713" lon="8.59408946538246"><ele>279.6666666666667</ele><time>2026-04-05T10:44:42.998Z</time></trkpt><trkpt lat="45.6249818721488" lon="8.594211883895426"><ele>281.3333333333333</ele><time>2026-04-05T10:44:46.998Z</time></trkpt><trkpt lat="45.62508446015645" lon="8.594183185082079"><ele>283.0</ele><time>2026-04-05T10:44:47.998Z</time></trkpt><trkpt lat="45.625214866670504" lon="8.594155807201451"><ele>283.0</ele><time>2026-04-05T10:44:48.998Z</time></trkpt><trkpt lat="45.625289625865356" lon="8.594129050075685"><ele>283.0</ele><time>2026-04-05T10:44:49.998Z</time></trkpt><trkpt lat="45.625354641518015" lon="8.594173419906992"><ele>283.0</ele><time>2026-04-05T10:44:51.998Z</time></trkpt><trkpt lat="45.62536951562131" lon="8.594261932006791"><ele>283.0</ele><time>2026-04-05T10:44:52.998Z</time></trkpt><trkpt lat="45.625359617055075" lon="8.594415089141416"><ele>283.0</ele><time>2026-04-05T10:44:53.998Z</time></trkpt><trkpt lat="45.62538334466949" lon="8.59455945532641"><ele>283.0</ele><time>2026-04-05T10:44:54.998Z</time></trkpt><trkpt lat="45.625404723257155" lon="8.594697554037458"><ele>283.0</ele><time>2026-04-05T10:44:56.998Z</time></trkpt><trkpt lat="45.62546216022896" lon="8.594738477344288"><ele>283.0</ele><time>2026-04-05T10:45:00.998Z</time></trkpt><trkpt lat="45.62555253742904" lon="8.59476336276945"><ele>283.0</ele><time>2026-04-05T10:45:05.998Z</time></trkpt><trkpt lat="45.625637603421424" lon="8.594677057942357"><ele>283.0</ele><time>2026-04-05T10:45:06.998Z</time></trkpt><trkpt lat="45.62570745561935" lon="8.59461235166292"><ele>283.0</ele><time>2026-04-05T10:45:07.998Z</time></trkpt><trkpt lat="45.62577565891267" lon="8.594537906793068"><ele>283.0</ele><time>2026-04-05T10:45:08.998Z</time></trkpt><trkpt lat="45.625861515409774" lon="8.594467868145221"><ele>283.3333333333333</ele><time>2026-04-05T10:45:09.998Z</time></trkpt><trkpt lat="45.62601178868042" lon="8.594454857124589"><ele>283.6666666666667</ele><time>2026-04-05T10:45:10.998Z</time></trkpt><trkpt lat="45.62617480437907" lon="8.594366737275305"><ele>284.0</ele><time>2026-04-05T10:45:11.998Z</time></trkpt><trkpt lat="45.62634257728982" lon="8.594280176858767"><ele>286.5</ele><time>2026-04-05T10:45:12.998Z</time></trkpt><trkpt lat="45.62655179997161" lon="8.594170298778785"><ele>289.0</ele><time>2026-04-05T10:45:13.998Z</time></trkpt><trkpt lat="45.626762123182054" lon="8.594038696477575"><ele>289.0</ele><time>2026-04-05T10:45:14.998Z</time></trkpt><trkpt lat="45.626953831314445" lon="8.593967652842245"><ele>289.0</ele><time>2026-04-05T10:45:15.998Z</time></trkpt><trkpt lat="45.62710319700755" lon="8.593872947605162"><ele>289.0</ele><time>2026-04-05T10:45:16.998Z</time></trkpt><trkpt lat="45.6272473552697" lon="8.593804483566784"><ele>289.0</ele><time>2026-04-05T10:45:17.998Z</time></trkpt><trkpt lat="45.62736602569632" lon="8.593725935220398"><ele>289.0</ele><time>2026-04-05T10:45:18.998Z</time></trkpt><trkpt lat="45.62749974402828" lon="8.593593417879607"><ele>289.0</ele><time>2026-04-05T10:45:19.998Z</time></trkpt><trkpt lat="45.62765165640903" lon="8.593467529809782"><ele>289.0</ele><time>2026-04-05T10:45:20.998Z</time></trkpt><trkpt lat="45.62778905311662" lon="8.593346324645502"><ele>289.0</ele><time>2026-04-05T10:45:21.998Z</time></trkpt><trkpt lat="45.62791727852393" lon="8.593247786874542"><ele>289.0</ele><time>2026-04-05T10:45:22.998Z</time></trkpt><trkpt lat="45.62801824358331" lon="8.593180858171982"><ele>289.0</ele><time>2026-04-05T10:45:23.998Z</time></trkpt><trkpt lat="45.62810873043649" lon="8.59312036947276"><ele>289.0</ele><time>2026-04-05T10:45:24.998Z</time></trkpt><trkpt lat="45.62818939022562" lon="8.59306731763737"><ele>289.0</ele><time>2026-04-05T10:45:25.998Z</time></trkpt><trkpt lat="45.6282859784013" lon="8.593036132484553"><ele>289.0</ele><time>2026-04-05T10:45:27.998Z</time></trkpt><trkpt lat="45.62838446628263" lon="8.593167647469697"><ele>289.0</ele><time>2026-04-05T10:45:29.998Z</time></trkpt><trkpt lat="45.628395585422346" lon="8.59334655300939"><ele>289.0</ele><time>2026-04-05T10:45:30.998Z</time></trkpt><trkpt lat="45.628457152844554" lon="8.593545494496988"><ele>289.0</ele><time>2026-04-05T10:45:31.998Z</time></trkpt><trkpt lat="45.628492292056265" lon="8.593706731464758"><ele>289.0</ele><time>2026-04-05T10:45:32.998Z</time></trkpt><trkpt lat="45.62850464737495" lon="8.593836208070828"><ele>289.0</ele><time>2026-04-05T10:45:33.998Z</time></trkpt><trkpt lat="45.62857579058237" lon="8.593946965264127"><ele>289.0</ele><time>2026-04-05T10:45:35.997Z</time></trkpt><trkpt lat="45.62863458776482" lon="8.593990187607263"><ele>289.0</ele><time>2026-04-05T10:45:36.997Z</time></trkpt><trkpt lat="45.62874145075152" lon="8.593946106162992"><ele>289.3333333333333</ele><time>2026-04-05T10:45:37.997Z</time></trkpt><trkpt lat="45.62885463649741" lon="8.593832336793989"><ele>289.6666666666667</ele><time>2026-04-05T10:45:38.997Z</time></trkpt><trkpt lat="45.62901945360167" lon="8.59374824431818"><ele>290.0</ele><time>2026-04-05T10:45:39.997Z</time></trkpt><trkpt lat="45.629203872762474" lon="8.593635638185372"><ele>290.0</ele><time>2026-04-05T10:45:40.997Z</time></trkpt><trkpt lat="45.62940619401632" lon="8.59351588908636"><ele>290.0</ele><time>2026-04-05T10:45:41.997Z</time></trkpt><trkpt lat="45.629613018482" lon="8.593376227404073"><ele>290.0</ele><time>2026-04-05T10:45:42.997Z</time></trkpt><trkpt lat="45.629813868559" lon="8.593234037561707"><ele>290.0</ele><time>2026-04-05T10:45:43.997Z</time></trkpt><trkpt lat="45.63004594815" lon="8.593072425241298"><ele>290.0</ele><time>2026-04-05T10:45:44.997Z</time></trkpt><trkpt lat="45.63024453795655" lon="8.592935195502655"><ele>290.75</ele><time>2026-04-05T10:45:45.997Z</time></trkpt><trkpt lat="45.63040506786283" lon="8.592830074651058"><ele>291.5</ele><time>2026-04-05T10:45:46.999Z</time></trkpt><trkpt lat="45.63053452292406" lon="8.59274702800201"><ele>292.25</ele><time>2026-04-05T10:45:47.999Z</time></trkpt><trkpt lat="45.63063480347327" lon="8.592681262759559"><ele>293.0</ele><time>2026-04-05T10:45:48.999Z</time></trkpt><trkpt lat="45.63071687569299" lon="8.592623730700012"><ele>293.0</ele><time>2026-04-05T10:45:49.999Z</time></trkpt><trkpt lat="45.630792985463025" lon="8.592570378252443"><ele>293.0</ele><time>2026-04-05T10:45:50.999Z</time></trkpt><trkpt lat="45.63085646745975" lon="8.59252923080067"><ele>293.0</ele><time>2026-04-05T10:45:51.999Z</time></trkpt><trkpt lat="45.63094150205791" lon="8.592525289187686"><ele>293.0</ele><time>2026-04-05T10:45:53.999Z</time></trkpt><trkpt lat="45.630972312674544" lon="8.592619881203467"><ele>293.0</ele><time>2026-04-05T10:45:54.999Z</time></trkpt><trkpt lat="45.63097087733856" lon="8.59277721907803"><ele>293.0</ele><time>2026-04-05T10:45:55.999Z</time></trkpt><trkpt lat="45.63101517035144" lon="8.592924905540752"><ele>293.0</ele><time>2026-04-05T10:45:56.999Z</time></trkpt><trkpt lat="45.63105190913167" lon="8.593019260396277"><ele>293.0</ele><time>2026-04-05T10:45:57.999Z</time></trkpt><trkpt lat="45.631089867376325" lon="8.59310778991072"><ele>293.0</ele><time>2026-04-05T10:45:59.999Z</time></trkpt><trkpt lat="45.63122578858043" lon="8.59304637622898"><ele>293.0</ele><time>2026-04-05T10:46:00.999Z</time></trkpt><trkpt lat="45.63134230611414" lon="8.592966388817086"><ele>293.0</ele><time>2026-04-05T10:46:01.999Z</time></trkpt><trkpt lat="45.63149128608098" lon="8.592877025102764"><ele>294.0</ele><time>2026-04-05T10:46:02.999Z</time></trkpt><trkpt lat="45.63166948786933" lon="8.592784162909513"><ele>295.0</ele><time>2026-04-05T10:46:03.999Z</time></trkpt><trkpt lat="45.63186313681501" lon="8.592692059078866"><ele>296.0</ele><time>2026-04-05T10:46:04.999Z</time></trkpt><trkpt lat="45.632072982958725" lon="8.592586938165473"><ele>296.6666666666667</ele><time>2026-04-05T10:46:05.999Z</time></trkpt><trkpt lat="45.63228339327343" lon="8.592478578696133"><ele>297.3333333333333</ele><time>2026-04-05T10:46:06.999Z</time></trkpt><trkpt lat="45.632469814962256" lon="8.592387102306388"><ele>298.0</ele><time>2026-04-05T10:46:07.999Z</time></trkpt><trkpt lat="45.63261538783773" lon="8.59231640978944"><ele>298.0</ele><time>2026-04-05T10:46:08.999Z</time></trkpt><trkpt lat="45.63273702607456" lon="8.592257299627898"><ele>298.0</ele><time>2026-04-05T10:46:09.999Z</time></trkpt><trkpt lat="45.6328271453593" lon="8.592209564930315"><ele>298.0</ele><time>2026-04-05T10:46:10.999Z</time></trkpt><trkpt lat="45.632906774341016" lon="8.59218131685613"><ele>298.0</ele><time>2026-04-05T10:46:12.999Z</time></trkpt><trkpt lat="45.63295936707256" lon="8.59229216629943"><ele>298.0</ele><time>2026-04-05T10:46:46.999Z</time></trkpt><trkpt lat="45.63295470807871" lon="8.59238324584959"><ele>298.5</ele><time>2026-04-05T10:46:48.999Z</time></trkpt><trkpt lat="45.63296450983089" lon="8.5924928472915"><ele>299.0</ele><time>2026-04-05T10:46:51.999Z</time></trkpt><trkpt lat="45.63299564713136" lon="8.592635634360796"><ele>299.5</ele><time>2026-04-05T10:46:53.998Z</time></trkpt><trkpt lat="45.632990046080884" lon="8.592727177729191"><ele>300.0</ele><time>2026-04-05T10:46:54.998Z</time></trkpt><trkpt lat="45.63300068028185" lon="8.59284135185141"><ele>300.5</ele><time>2026-04-05T10:46:55.998Z</time></trkpt><trkpt lat="45.633015295945434" lon="8.592967212507375"><ele>301.0</ele><time>2026-04-05T10:46:56.998Z</time></trkpt><trkpt lat="45.63303439675498" lon="8.593096057303258"><ele>301.0</ele><time>2026-04-05T10:46:57.998Z</time></trkpt><trkpt lat="45.6330568386098" lon="8.593222977491727"><ele>301.0</ele><time>2026-04-05T10:46:58.998Z</time></trkpt><trkpt lat="45.63307959702593" lon="8.593334614893678"><ele>301.0</ele><time>2026-04-05T10:46:59.998Z</time></trkpt><trkpt lat="45.63310442931375" lon="8.59345791545122"><ele>301.0</ele><time>2026-04-05T10:47:00.998Z</time></trkpt><trkpt lat="45.63313177401602" lon="8.593600703888422"><ele>301.0</ele><time>2026-04-05T10:47:01.998Z</time></trkpt><trkpt lat="45.63316043826831" lon="8.593766588858825"><ele>301.75</ele><time>2026-04-05T10:47:02.998Z</time></trkpt><trkpt lat="45.633194090245425" lon="8.593965694538685"><ele>302.5</ele><time>2026-04-05T10:47:03.998Z</time></trkpt><trkpt lat="45.6332327643007" lon="8.594188142937687"><ele>303.25</ele><time>2026-04-05T10:47:04.998Z</time></trkpt><trkpt lat="45.63326481045702" lon="8.59436655014458"><ele>304.0</ele><time>2026-04-05T10:47:05.998Z</time></trkpt><trkpt lat="45.633291306272916" lon="8.594517903157893"><ele>304.16666666666663</ele><time>2026-04-05T10:47:06.998Z</time></trkpt><trkpt lat="45.63331601248317" lon="8.5946537080865"><ele>304.3333333333333</ele><time>2026-04-05T10:47:07.998Z</time></trkpt><trkpt lat="45.63333714918125" lon="8.59476254693645"><ele>304.5</ele><time>2026-04-05T10:47:08.998Z</time></trkpt><trkpt lat="45.63337507049706" lon="8.594914410675838"><ele>304.6666666666667</ele><time>2026-04-05T10:47:10.998Z</time></trkpt><trkpt lat="45.63334331800214" lon="8.595013435624344"><ele>304.83333333333337</ele><time>2026-04-05T10:47:12.998Z</time></trkpt><trkpt lat="45.63336722495339" lon="8.595114653142097"><ele>305.0</ele><time>2026-04-05T10:47:16.998Z</time></trkpt><trkpt lat="45.63334375179526" lon="8.595216993898747"><ele>305.0</ele><time>2026-04-05T10:47:18.998Z</time></trkpt><trkpt lat="45.633243252157236" lon="8.595176897014559"><ele>305.0</ele><time>2026-04-05T10:47:19.998Z</time></trkpt><trkpt lat="45.63324095209046" lon="8.59533202045264"><ele>305.0</ele><time>2026-04-05T10:47:20.998Z</time></trkpt><trkpt lat="45.63345386509502" lon="8.595549203179441"><ele>304.8571428571429</ele><time>2026-04-05T10:47:24.998Z</time></trkpt><trkpt lat="45.63346236173341" lon="8.595661367893644"><ele>304.71428571428567</ele><time>2026-04-05T10:47:30.998Z</time></trkpt><trkpt lat="45.63348361018788" lon="8.595752972970947"><ele>304.57142857142856</ele><time>2026-04-05T10:47:32.998Z</time></trkpt><trkpt lat="45.63352392237996" lon="8.595859234815531"><ele>304.42857142857144</ele><time>2026-04-05T10:47:35.998Z</time></trkpt><trkpt lat="45.633543870942425" lon="8.595969617538497"><ele>304.28571428571433</ele><time>2026-04-05T10:47:38.998Z</time></trkpt><trkpt lat="45.6335638983601" lon="8.596056647946458"><ele>304.1428571428571</ele><time>2026-04-05T10:47:40.998Z</time></trkpt><trkpt lat="45.633581069934166" lon="8.596150476358472"><ele>304.0</ele><time>2026-04-05T10:47:49.998Z</time></trkpt><trkpt lat="45.63368270151224" lon="8.5961276328869"><ele>304.0</ele><time>2026-04-05T10:47:52.999Z</time></trkpt><trkpt lat="45.63374421732608" lon="8.59610728158399"><ele>304.0</ele><time>2026-04-05T10:47:53.999Z</time></trkpt><trkpt lat="45.63380312001353" lon="8.596074644031049"><ele>304.0</ele><time>2026-04-05T10:47:54.999Z</time></trkpt><trkpt lat="45.63387610214056" lon="8.596046699920935"><ele>304.0</ele><time>2026-04-05T10:47:56.999Z</time></trkpt><trkpt lat="45.633969155093475" lon="8.596004602348057"><ele>304.0</ele><time>2026-04-05T10:47:58.999Z</time></trkpt><trkpt lat="45.63403294564162" lon="8.595972608617577"><ele>304.0</ele><time>2026-04-05T10:47:59.999Z</time></trkpt><trkpt lat="45.63409758893515" lon="8.595943396238601"><ele>304.0</ele><time>2026-04-05T10:48:00.999Z</time></trkpt><trkpt lat="45.634159368682226" lon="8.595912601621736"><ele>304.0</ele><time>2026-04-05T10:48:01.999Z</time></trkpt><trkpt lat="45.63424014269958" lon="8.595881281750406"><ele>304.0</ele><time>2026-04-05T10:48:03.999Z</time></trkpt><trkpt lat="45.63435227029917" lon="8.595832167326327"><ele>304.0</ele><time>2026-04-05T10:48:05.999Z</time></trkpt><trkpt lat="45.634421007109886" lon="8.59580080881327"><ele>304.0</ele><time>2026-04-05T10:48:07.999Z</time></trkpt><trkpt lat="45.63450759795855" lon="8.59580652068655"><ele>304.0</ele><time>2026-04-05T10:48:12.999Z</time></trkpt><trkpt lat="45.63456600929918" lon="8.595877213591105"><ele>304.0</ele><time>2026-04-05T10:48:16.999Z</time></trkpt><trkpt lat="45.6345507824256" lon="8.59599077000262"><ele>303.66666666666663</ele><time>2026-04-05T10:48:20.999Z</time></trkpt><trkpt lat="45.63456356796207" lon="8.59610450527223"><ele>303.3333333333333</ele><time>2026-04-05T10:48:22.999Z</time></trkpt><trkpt lat="45.63450312057854" lon="8.596214615702445"><ele>303.0</ele><time>2026-04-05T10:48:26.999Z</time></trkpt><trkpt lat="45.634444038387564" lon="8.596282885363907"><ele>302.6666666666667</ele><time>2026-04-05T10:48:29.999Z</time></trkpt><trkpt lat="45.63440651446443" lon="8.59637036697231"><ele>302.33333333333337</ele><time>2026-04-05T10:48:34.999Z</time></trkpt><trkpt lat="45.6343646905501" lon="8.596461422413535"><ele>302.0</ele><time>2026-04-05T10:48:43.999Z</time></trkpt><trkpt lat="45.6342983597316" lon="8.596471557779559"><ele>301.14285714285717</ele><time>2026-04-05T10:48:45.999Z</time></trkpt><trkpt lat="45.63424107827554" lon="8.596537779333536"><ele>300.2857142857143</ele><time>2026-04-05T10:48:48.999Z</time></trkpt><trkpt lat="45.63417998504235" lon="8.596592083385552"><ele>299.42857142857144</ele><time>2026-04-05T10:48:52.999Z</time></trkpt><trkpt lat="45.63415232386522" lon="8.596683141439522"><ele>298.57142857142856</ele><time>2026-04-05T10:49:05.998Z</time></trkpt><trkpt lat="45.63417995815604" lon="8.596775419695179"><ele>297.7142857142857</ele><time>2026-04-05T10:49:09.998Z</time></trkpt><trkpt lat="45.63417022892492" lon="8.596864740931661"><ele>296.8571428571429</ele><time>2026-04-05T10:49:12.998Z</time></trkpt><trkpt lat="45.634157783061184" lon="8.596959644865832"><ele>296.0</ele><time>2026-04-05T10:49:15.998Z</time></trkpt><trkpt lat="45.63421518280051" lon="8.597015923663736"><ele>296.0</ele><time>2026-04-05T10:49:19.998Z</time></trkpt><trkpt lat="45.6342878920937" lon="8.597062913964272"><ele>296.0</ele><time>2026-04-05T10:49:22.998Z</time></trkpt><trkpt lat="45.6343538566625" lon="8.597070183277882"><ele>296.0</ele><time>2026-04-05T10:49:34.998Z</time></trkpt><trkpt lat="45.63438591605762" lon="8.596962565446828"><ele>296.0</ele><time>2026-04-05T10:49:47.998Z</time></trkpt><trkpt lat="45.63446292246995" lon="8.596947036929572"><ele>296.0</ele><time>2026-04-05T10:49:52.998Z</time></trkpt><trkpt lat="45.634528795780206" lon="8.597002372118299"><ele>296.0</ele><time>2026-04-05T10:50:02.999Z</time></trkpt><trkpt lat="45.63458268951455" lon="8.597057037429852"><ele>296.0</ele><time>2026-04-05T10:50:09.999Z</time></trkpt><trkpt lat="45.63464281929485" lon="8.596961495073325"><ele>296.0</ele><time>2026-04-05T10:50:40.999Z</time></trkpt><trkpt lat="45.634668973594096" lon="8.596878313464865"><ele>296.0</ele><time>2026-04-05T10:50:43.999Z</time></trkpt><trkpt lat="45.634672836558174" lon="8.596777661689524"><ele>296.0</ele><time>2026-04-05T10:50:49.999Z</time></trkpt><trkpt lat="45.63468756187414" lon="8.59668421127238"><ele>296.0</ele><time>2026-04-05T10:51:15.998Z</time></trkpt><trkpt lat="45.63462736409912" lon="8.59661787049079"><ele>296.0</ele><time>2026-04-05T10:51:21.998Z</time></trkpt><trkpt lat="45.63459476403833" lon="8.596515358177564"><ele>296.0</ele><time>2026-04-05T10:51:25.998Z</time></trkpt><trkpt lat="45.634464754983526" lon="8.596560096020246"><ele>296.0</ele><time>2026-04-05T10:51:43.998Z</time></trkpt><trkpt lat="45.634458630896916" lon="8.596653591069467"><ele>296.0</ele><time>2026-04-05T10:51:53.998Z</time></trkpt><trkpt lat="45.63447918360971" lon="8.596754428084543"><ele>296.0</ele><time>2026-04-05T10:52:05.999Z</time></trkpt><trkpt lat="45.63445335089326" lon="8.596852527015628"><ele>296.0</ele><time>2026-04-05T10:52:10.999Z</time></trkpt><trkpt lat="45.63448071593147" lon="8.596760576649565"><ele>296.0</ele><time>2026-04-05T10:53:35.998Z</time></trkpt><trkpt lat="45.63445790849114" lon="8.59667055289255"><ele>296.0</ele><time>2026-04-05T10:53:42.998Z</time></trkpt><trkpt lat="45.63443260794957" lon="8.596580771780253"><ele>296.0</ele><time>2026-04-05T10:53:55.998Z</time></trkpt><trkpt lat="45.63440265049445" lon="8.596483400518114"><ele>296.0</ele><time>2026-04-05T10:54:10.999Z</time></trkpt><trkpt lat="45.63432459393209" lon="8.596496130629705"><ele>296.0</ele><time>2026-04-05T10:54:14.999Z</time></trkpt><trkpt lat="45.63426555522368" lon="8.596536215308179"><ele>296.0</ele><time>2026-04-05T10:54:16.999Z</time></trkpt><trkpt lat="45.63421161348945" lon="8.596583824673337"><ele>296.0</ele><time>2026-04-05T10:54:20.999Z</time></trkpt><trkpt lat="45.63414005652473" lon="8.596631339947757"><ele>296.0</ele><time>2026-04-05T10:54:25.999Z</time></trkpt><trkpt lat="45.634076474730215" lon="8.596651099671382"><ele>296.0</ele><time>2026-04-05T10:54:41.999Z</time></trkpt><trkpt lat="45.63401262129273" lon="8.596647653483453"><ele>296.0</ele><time>2026-04-05T10:54:47.999Z</time></trkpt><trkpt lat="45.633967213349656" lon="8.596721549013983"><ele>296.0</ele><time>2026-04-05T10:55:02.999Z</time></trkpt><trkpt lat="45.63390592879883" lon="8.596742719038001"><ele>296.0</ele><time>2026-04-05T10:55:10.999Z</time></trkpt><trkpt lat="45.63383782456186" lon="8.596702590300067"><ele>296.0</ele><time>2026-04-05T10:55:18.999Z</time></trkpt><trkpt lat="45.63381363644848" lon="8.596598348603841"><ele>296.0</ele><time>2026-04-05T10:55:22.999Z</time></trkpt><trkpt lat="45.63382236511886" lon="8.596470498684472"><ele>296.0</ele><time>2026-04-05T10:55:25.999Z</time></trkpt><trkpt lat="45.63381613840296" lon="8.596322643767387"><ele>296.0</ele><time>2026-04-05T10:55:27.999Z</time></trkpt><trkpt lat="45.6337937916114" lon="8.596227964260175"><ele>296.57142857142856</ele><time>2026-04-05T10:55:29.999Z</time></trkpt><trkpt lat="45.63377094865386" lon="8.596135748915511"><ele>297.1428571428571</ele><time>2026-04-05T10:55:32.999Z</time></trkpt><trkpt lat="45.63369992917134" lon="8.596088389917135"><ele>297.71428571428567</ele><time>2026-04-05T10:55:40.998Z</time></trkpt><trkpt lat="45.63367387343309" lon="8.595995071060582"><ele>298.2857142857143</ele><time>2026-04-05T10:55:43.998Z</time></trkpt><trkpt lat="45.63362440784143" lon="8.59593105069807"><ele>298.85714285714283</ele><time>2026-04-05T10:55:46.998Z</time></trkpt><trkpt lat="45.6335932446638" lon="8.59584518879818"><ele>299.4285714285714</ele><time>2026-04-05T10:55:49.998Z</time></trkpt><trkpt lat="45.63355521202993" lon="8.595737493512674"><ele>300.0</ele><time>2026-04-05T10:55:52.998Z</time></trkpt><trkpt lat="45.63348080569799" lon="8.595683575523852"><ele>300.0</ele><time>2026-04-05T10:55:54.998Z</time></trkpt><trkpt lat="45.633451974179714" lon="8.595586937780494"><ele>300.0</ele><time>2026-04-05T10:55:56.998Z</time></trkpt><trkpt lat="45.6334199726186" lon="8.595416280952328"><ele>300.0</ele><time>2026-04-05T10:55:58.998Z</time></trkpt><trkpt lat="45.63339982074293" lon="8.595316355533035"><ele>300.0</ele><time>2026-04-05T10:55:59.998Z</time></trkpt><trkpt lat="45.63337648683862" lon="8.595225001918898"><ele>300.0</ele><time>2026-04-05T10:56:00.998Z</time></trkpt><trkpt lat="45.633368986602875" lon="8.59508423842298"><ele>300.0</ele><time>2026-04-05T10:56:02.998Z</time></trkpt><trkpt lat="45.6333693420128" lon="8.59497490874685"><ele>300.6666666666667</ele><time>2026-04-05T10:56:04.998Z</time></trkpt><trkpt lat="45.63338936660861" lon="8.59480509941697"><ele>301.3333333333333</ele><time>2026-04-05T10:56:06.998Z</time></trkpt><trkpt lat="45.63336927964423" lon="8.594706007595985"><ele>302.0</ele><time>2026-04-05T10:56:07.998Z</time></trkpt><trkpt lat="45.633339737860595" lon="8.594610861272127"><ele>302.66666666666663</ele><time>2026-04-05T10:56:08.998Z</time></trkpt><trkpt lat="45.633308518472745" lon="8.594487448897663"><ele>303.3333333333333</ele><time>2026-04-05T10:56:09.998Z</time></trkpt><trkpt lat="45.63328996802713" lon="8.594369619372227"><ele>304.0</ele><time>2026-04-05T10:56:10.998Z</time></trkpt><trkpt lat="45.63327476429286" lon="8.59425670119063"><ele>304.0</ele><time>2026-04-05T10:56:11.998Z</time></trkpt><trkpt lat="45.633254384810854" lon="8.594127105542258"><ele>304.0</ele><time>2026-04-05T10:56:12.998Z</time></trkpt><trkpt lat="45.63323271246699" lon="8.594002414616318"><ele>304.0</ele><time>2026-04-05T10:56:13.998Z</time></trkpt><trkpt lat="45.6332076029468" lon="8.593886340860365"><ele>304.0</ele><time>2026-04-05T10:56:14.998Z</time></trkpt><trkpt lat="45.63318964133543" lon="8.593787440708551"><ele>304.0</ele><time>2026-04-05T10:56:15.999Z</time></trkpt><trkpt lat="45.633170350722175" lon="8.593628679834175"><ele>303.4</ele><time>2026-04-05T10:56:17.999Z</time></trkpt><trkpt lat="45.63313780722361" lon="8.593475945437605"><ele>302.79999999999995</ele><time>2026-04-05T10:56:19.999Z</time></trkpt><trkpt lat="45.63310155961222" lon="8.593321687447977"><ele>302.20000000000005</ele><time>2026-04-05T10:56:21.999Z</time></trkpt><trkpt lat="45.633089202198626" lon="8.593233076584536"><ele>301.6</ele><time>2026-04-05T10:56:22.999Z</time></trkpt><trkpt lat="45.633055576422386" lon="8.593095218790051"><ele>301.0</ele><time>2026-04-05T10:56:24.999Z</time></trkpt><trkpt lat="45.63308396275252" lon="8.593010758848836"><ele>301.0</ele><time>2026-04-05T10:56:26.999Z</time></trkpt><trkpt lat="45.63321220456741" lon="8.593027425189478"><ele>301.0</ele><time>2026-04-05T10:56:28.999Z</time></trkpt><trkpt lat="45.633315634783614" lon="8.592980071437248"><ele>301.0</ele><time>2026-04-05T10:56:29.999Z</time></trkpt><trkpt lat="45.633438006103" lon="8.592970722696426"><ele>301.0</ele><time>2026-04-05T10:56:30.999Z</time></trkpt><trkpt lat="45.63358060843508" lon="8.592936882211816"><ele>302.0</ele><time>2026-04-05T10:56:31.999Z</time></trkpt><trkpt lat="45.63375871831339" lon="8.592896083359499"><ele>303.0</ele><time>2026-04-05T10:56:32.999Z</time></trkpt><trkpt lat="45.63395747795311" lon="8.592852092862397"><ele>304.0</ele><time>2026-04-05T10:56:33.999Z</time></trkpt><trkpt lat="45.6341571293201" lon="8.592779709510324"><ele>304.0</ele><time>2026-04-05T10:56:34.999Z</time></trkpt><trkpt lat="45.634347023313396" lon="8.592758300672227"><ele>304.0</ele><time>2026-04-05T10:56:35.999Z</time></trkpt><trkpt lat="45.63453240580558" lon="8.592723346827643"><ele>304.0</ele><time>2026-04-05T10:56:36.999Z</time></trkpt><trkpt lat="45.634734063967066" lon="8.592672766874067"><ele>303.3333333333333</ele><time>2026-04-05T10:56:37.999Z</time></trkpt><trkpt lat="45.634918580791876" lon="8.59260788479182"><ele>302.6666666666667</ele><time>2026-04-05T10:56:38.999Z</time></trkpt><trkpt lat="45.63509488299588" lon="8.592547542011188"><ele>302.0</ele><time>2026-04-05T10:56:39.999Z</time></trkpt><trkpt lat="45.63528437955744" lon="8.592491199779523"><ele>302.33333333333337</ele><time>2026-04-05T10:56:40.999Z</time></trkpt><trkpt lat="45.63548068914724" lon="8.592431766111496"><ele>302.6666666666667</ele><time>2026-04-05T10:56:41.999Z</time></trkpt><trkpt lat="45.6356690677805" lon="8.592370933094191"><ele>303.0</ele><time>2026-04-05T10:56:42.999Z</time></trkpt><trkpt lat="45.635852992228706" lon="8.592312771256092"><ele>303.0</ele><time>2026-04-05T10:56:43.999Z</time></trkpt><trkpt lat="45.636021491049426" lon="8.592261223387846"><ele>303.0</ele><time>2026-04-05T10:56:44.999Z</time></trkpt><trkpt lat="45.63616065765126" lon="8.592216777501466"><ele>303.0</ele><time>2026-04-05T10:56:45.999Z</time></trkpt><trkpt lat="45.63625403830384" lon="8.592187277771501"><ele>303.0</ele><time>2026-04-05T10:56:46.999Z</time></trkpt><trkpt lat="45.63631184814027" lon="8.592148610482923"><ele>303.4</ele><time>2026-04-05T10:56:47.999Z</time></trkpt><trkpt lat="45.636402429157286" lon="8.592140475374817"><ele>303.8</ele><time>2026-04-05T10:56:49.999Z</time></trkpt><trkpt lat="45.63652836906455" lon="8.592101040447199"><ele>304.2</ele><time>2026-04-05T10:56:51.999Z</time></trkpt><trkpt lat="45.63661019653897" lon="8.592057030495715"><ele>304.6</ele><time>2026-04-05T10:56:52.999Z</time></trkpt><trkpt lat="45.63670320367839" lon="8.592052108314402"><ele>305.0</ele><time>2026-04-05T10:56:53.999Z</time></trkpt><trkpt lat="45.636799461269064" lon="8.59200872295131"><ele>305.0</ele><time>2026-04-05T10:56:54.999Z</time></trkpt><trkpt lat="45.63689664826752" lon="8.591987858741932"><ele>305.0</ele><time>2026-04-05T10:56:55.999Z</time></trkpt><trkpt lat="45.63699905919117" lon="8.591922360348702"><ele>305.0</ele><time>2026-04-05T10:56:56.999Z</time></trkpt><trkpt lat="45.637108516044826" lon="8.591904480582695"><ele>305.0</ele><time>2026-04-05T10:56:57.999Z</time></trkpt><trkpt lat="45.63717327399162" lon="8.591841102571056"><ele>305.0</ele><time>2026-04-05T10:56:58.999Z</time></trkpt><trkpt lat="45.63718807757034" lon="8.59159678351393"><ele>305.6</ele><time>2026-04-05T10:57:02.999Z</time></trkpt><trkpt lat="45.63719179715464" lon="8.591447923524148"><ele>306.2</ele><time>2026-04-05T10:57:03.999Z</time></trkpt><trkpt lat="45.6371999146131" lon="8.59128703891925"><ele>306.8</ele><time>2026-04-05T10:57:04.999Z</time></trkpt><trkpt lat="45.637202739737546" lon="8.591137153373795"><ele>307.4</ele><time>2026-04-05T10:57:05.999Z</time></trkpt><trkpt lat="45.63720217713017" lon="8.590987322708559"><ele>308.0</ele><time>2026-04-05T10:57:06.999Z</time></trkpt><trkpt lat="45.637207115746236" lon="8.590842206982215"><ele>308.0</ele><time>2026-04-05T10:57:07.999Z</time></trkpt><trkpt lat="45.637212960661664" lon="8.590704996247617"><ele>308.0</ele><time>2026-04-05T10:57:08.999Z</time></trkpt><trkpt lat="45.637218265434626" lon="8.590582916852753"><ele>308.0</ele><time>2026-04-05T10:57:09.999Z</time></trkpt><trkpt lat="45.63721932823923" lon="8.590433579254967"><ele>308.0</ele><time>2026-04-05T10:57:10.999Z</time></trkpt><trkpt lat="45.63721750700748" lon="8.590288401837983"><ele>308.0</ele><time>2026-04-05T10:57:11.999Z</time></trkpt><trkpt lat="45.63721889210081" lon="8.590147086043537"><ele>308.0</ele><time>2026-04-05T10:57:12.999Z</time></trkpt><trkpt lat="45.63722486103723" lon="8.590021691480944"><ele>308.0</ele><time>2026-04-05T10:57:13.999Z</time></trkpt><trkpt lat="45.63723179298941" lon="8.58991467870648"><ele>308.0</ele><time>2026-04-05T10:57:14.999Z</time></trkpt><trkpt lat="45.63724014322809" lon="8.5897825389485"><ele>308.0</ele><time>2026-04-05T10:57:15.999Z</time></trkpt><trkpt lat="45.6372421284834" lon="8.589652638936386"><ele>308.0</ele><time>2026-04-05T10:57:16.999Z</time></trkpt><trkpt lat="45.63725312903079" lon="8.589548933407071"><ele>308.0</ele><time>2026-04-05T10:57:17.999Z</time></trkpt><trkpt lat="45.63727091730523" lon="8.589414710681208"><ele>308.0</ele><time>2026-04-05T10:57:18.999Z</time></trkpt><trkpt lat="45.63727632132755" lon="8.5893103732601"><ele>308.0</ele><time>2026-04-05T10:57:19.999Z</time></trkpt><trkpt lat="45.63727959040482" lon="8.589203980135881"><ele>308.0</ele><time>2026-04-05T10:57:20.999Z</time></trkpt><trkpt lat="45.637281990279796" lon="8.58910563159982"><ele>308.0</ele><time>2026-04-05T10:57:21.999Z</time></trkpt><trkpt lat="45.63728263470398" lon="8.589008410782785"><ele>308.0</ele><time>2026-04-05T10:57:22.999Z</time></trkpt><trkpt lat="45.63729750112981" lon="8.588826788170383"><ele>308.0</ele><time>2026-04-05T10:57:24.999Z</time></trkpt><trkpt lat="45.63730716362364" lon="8.58870938125336"><ele>307.8</ele><time>2026-04-05T10:57:25.999Z</time></trkpt><trkpt lat="45.637304258483454" lon="8.588579161269063"><ele>307.6</ele><time>2026-04-05T10:57:26.999Z</time></trkpt><trkpt lat="45.63730130211208" lon="8.588431268039798"><ele>307.4</ele><time>2026-04-05T10:57:27.999Z</time></trkpt><trkpt lat="45.6372981990655" lon="8.588301401624486"><ele>307.2</ele><time>2026-04-05T10:57:28.999Z</time></trkpt><trkpt lat="45.637300378380324" lon="8.588179272915767"><ele>307.0</ele><time>2026-04-05T10:57:29.999Z</time></trkpt><trkpt lat="45.63730399625441" lon="8.588049343801803"><ele>307.0</ele><time>2026-04-05T10:57:30.999Z</time></trkpt><trkpt lat="45.63729198741852" lon="8.587887277505256"><ele>307.0</ele><time>2026-04-05T10:57:31.999Z</time></trkpt><trkpt lat="45.6372819799363" lon="8.587731517561581"><ele>307.0</ele><time>2026-04-05T10:57:32.999Z</time></trkpt><trkpt lat="45.637273346237194" lon="8.58759503072746"><ele>307.0</ele><time>2026-04-05T10:57:33.999Z</time></trkpt><trkpt lat="45.63726537165008" lon="8.58748376992746"><ele>307.0</ele><time>2026-04-05T10:57:34.999Z</time></trkpt><trkpt lat="45.63733719767539" lon="8.587357788818393"><ele>307.2</ele><time>2026-04-05T10:57:36.999Z</time></trkpt><trkpt lat="45.63742514660587" lon="8.587327751269331"><ele>307.4</ele><time>2026-04-05T10:57:37.999Z</time></trkpt><trkpt lat="45.637529238187845" lon="8.587286687511998"><ele>307.6</ele><time>2026-04-05T10:57:38.999Z</time></trkpt><trkpt lat="45.63763368393987" lon="8.587227393144804"><ele>307.8</ele><time>2026-04-05T10:57:39.998Z</time></trkpt><trkpt lat="45.637735223903185" lon="8.587155144936219"><ele>308.0</ele><time>2026-04-05T10:57:40.998Z</time></trkpt><trkpt lat="45.63784120148477" lon="8.58708913399129"><ele>308.0</ele><time>2026-04-05T10:57:41.998Z</time></trkpt><trkpt lat="45.63793174004142" lon="8.587033681295038"><ele>308.0</ele><time>2026-04-05T10:57:42.998Z</time></trkpt><trkpt lat="45.63801758080854" lon="8.586995718137556"><ele>308.0</ele><time>2026-04-05T10:57:43.998Z</time></trkpt><trkpt lat="45.63809372018223" lon="8.586953906727482"><ele>308.0</ele><time>2026-04-05T10:57:44.998Z</time></trkpt><trkpt lat="45.63815589394586" lon="8.586925035093957"><ele>308.0</ele><time>2026-04-05T10:57:45.998Z</time></trkpt><trkpt lat="45.638242507990384" lon="8.586873791532673"><ele>308.0</ele><time>2026-04-05T10:57:47.998Z</time></trkpt><trkpt lat="45.63822970144127" lon="8.586701546682635"><ele>308.0</ele><time>2026-04-05T10:57:49.998Z</time></trkpt><trkpt lat="45.63818238414154" lon="8.586595308624657"><ele>308.0</ele><time>2026-04-05T10:57:50.998Z</time></trkpt><trkpt lat="45.638116287845" lon="8.586451163079106"><ele>308.0</ele><time>2026-04-05T10:57:51.998Z</time></trkpt><trkpt lat="45.638050491346895" lon="8.586226914924291"><ele>308.0</ele><time>2026-04-05T10:57:52.998Z</time></trkpt><trkpt lat="45.63800992274154" lon="8.586038936859609"><ele>308.5</ele><time>2026-04-05T10:57:53.998Z</time></trkpt><trkpt lat="45.63798480469988" lon="8.585858999730885"><ele>309.0</ele><time>2026-04-05T10:57:54.998Z</time></trkpt><trkpt lat="45.63797250728576" lon="8.585701194956318"><ele>309.5</ele><time>2026-04-05T10:57:55.998Z</time></trkpt><trkpt lat="45.63796072271595" lon="8.585556486425336"><ele>310.0</ele><time>2026-04-05T10:57:56.998Z</time></trkpt><trkpt lat="45.63792292125479" lon="8.585400594218832"><ele>309.5</ele><time>2026-04-05T10:57:57.998Z</time></trkpt><trkpt lat="45.637878698585155" lon="8.585248929756077"><ele>309.0</ele><time>2026-04-05T10:57:58.998Z</time></trkpt><trkpt lat="45.63784393023358" lon="8.585094219789388"><ele>308.5</ele><time>2026-04-05T10:57:59.998Z</time></trkpt><trkpt lat="45.63780070988944" lon="8.584929489531376"><ele>308.0</ele><time>2026-04-05T10:58:00.998Z</time></trkpt><trkpt lat="45.63776418348521" lon="8.584793864726079"><ele>307.5</ele><time>2026-04-05T10:58:01.998Z</time></trkpt><trkpt lat="45.63774197430022" lon="8.584709487944005"><ele>307.0</ele><time>2026-04-05T10:58:02.998Z</time></trkpt><trkpt lat="45.63772670465376" lon="8.584598340406862"><ele>306.5</ele><time>2026-04-05T10:58:06.998Z</time></trkpt><trkpt lat="45.63768799834814" lon="8.584502536995668"><ele>306.0</ele><time>2026-04-05T10:58:08.998Z</time></trkpt><trkpt lat="45.63769245174933" lon="8.584392219834019"><ele>305.5</ele><time>2026-04-05T10:58:10.998Z</time></trkpt><trkpt lat="45.63762406087679" lon="8.584242799383055"><ele>305.0</ele><time>2026-04-05T10:58:12.998Z</time></trkpt><trkpt lat="45.63760041801951" lon="8.584147818074392"><ele>304.8571428571429</ele><time>2026-04-05T10:58:13.998Z</time></trkpt><trkpt lat="45.637583799507496" lon="8.584058721803443"><ele>304.71428571428567</ele><time>2026-04-05T10:58:14.998Z</time></trkpt><trkpt lat="45.63756831450358" lon="8.583963888053386"><ele>304.57142857142856</ele><time>2026-04-05T10:58:18.998Z</time></trkpt><trkpt lat="45.637567709593064" lon="8.583850156783722"><ele>304.42857142857144</ele><time>2026-04-05T10:58:20.999Z</time></trkpt><trkpt lat="45.6375774643911" lon="8.583740190770818"><ele>304.28571428571433</ele><time>2026-04-05T10:58:22.999Z</time></trkpt><trkpt lat="45.63765368088826" lon="8.583683095844094"><ele>304.1428571428571</ele><time>2026-04-05T10:58:25.999Z</time></trkpt><trkpt lat="45.637694919175516" lon="8.58360415414466"><ele>304.0</ele><time>2026-04-05T10:58:29.999Z</time></trkpt><trkpt lat="45.63774098078069" lon="8.583513435862846"><ele>304.0</ele><time>2026-04-05T10:58:53.999Z</time></trkpt><trkpt lat="45.63780048948956" lon="8.583466052782324"><ele>304.0</ele><time>2026-04-05T10:59:05.999Z</time></trkpt><trkpt lat="45.63781877131995" lon="8.583554550365426"><ele>304.0</ele><time>2026-04-05T10:59:11.999Z</time></trkpt><trkpt lat="45.63781520999065" lon="8.583646355520354"><ele>304.0</ele><time>2026-04-05T10:59:17.999Z</time></trkpt><trkpt lat="45.6378840367798" lon="8.583642320552878"><ele>304.0</ele><time>2026-04-05T10:59:36.999Z</time></trkpt><trkpt lat="45.63785415581544" lon="8.583723953431413"><ele>304.0</ele><time>2026-04-05T10:59:43.999Z</time></trkpt><trkpt lat="45.63780419406314" lon="8.583811966814913"><ele>304.0</ele><time>2026-04-05T10:59:48.998Z</time></trkpt><trkpt lat="45.63777503976122" lon="8.58389950061991"><ele>304.0</ele><time>2026-04-05T10:59:53.998Z</time></trkpt><trkpt lat="45.63778379020575" lon="8.584020972308272"><ele>304.0</ele><time>2026-04-05T10:59:57.998Z</time></trkpt><trkpt lat="45.637724022487994" lon="8.584088434626972"><ele>304.0</ele><time>2026-04-05T11:00:01.998Z</time></trkpt><trkpt lat="45.63765629707762" lon="8.584066598042607"><ele>304.0</ele><time>2026-04-05T11:00:07.998Z</time></trkpt><trkpt lat="45.63759849511339" lon="8.584025457659498"><ele>304.0</ele><time>2026-04-05T11:00:10.998Z</time></trkpt><trkpt lat="45.63755271053655" lon="8.583931193136872"><ele>304.0</ele><time>2026-04-05T11:00:13.998Z</time></trkpt><trkpt lat="45.63747070688924" lon="8.583939310475596"><ele>304.0</ele><time>2026-04-05T11:00:16.998Z</time></trkpt><trkpt lat="45.63739592066937" lon="8.583953567025912"><ele>304.0</ele><time>2026-04-05T11:00:18.998Z</time></trkpt><trkpt lat="45.63732802591758" lon="8.584010823498012"><ele>304.0</ele><time>2026-04-05T11:00:21.998Z</time></trkpt><trkpt lat="45.63725489833218" lon="8.584105306092697"><ele>304.0</ele><time>2026-04-05T11:00:25.998Z</time></trkpt><trkpt lat="45.63719801659069" lon="8.584045329324649"><ele>304.0</ele><time>2026-04-05T11:00:27.999Z</time></trkpt><trkpt lat="45.637128467042835" lon="8.584055841324558"><ele>304.0</ele><time>2026-04-05T11:00:29.999Z</time></trkpt><trkpt lat="45.63703586182202" lon="8.584100927056676"><ele>303.0</ele><time>2026-04-05T11:00:31.999Z</time></trkpt><trkpt lat="45.63692527709424" lon="8.584117104216293"><ele>302.0</ele><time>2026-04-05T11:00:33.999Z</time></trkpt><trkpt lat="45.636836459069976" lon="8.584063583018795"><ele>301.0</ele><time>2026-04-05T11:00:35.999Z</time></trkpt><trkpt lat="45.63678576307068" lon="8.583961342623883"><ele>300.0</ele><time>2026-04-05T11:00:37.999Z</time></trkpt><trkpt lat="45.636757349018495" lon="8.583877462373785"><ele>299.0</ele><time>2026-04-05T11:00:39.999Z</time></trkpt><trkpt lat="45.63666133994729" lon="8.58385749355224"><ele>299.0</ele><time>2026-04-05T11:00:41.999Z</time></trkpt><trkpt lat="45.63658854379787" lon="8.583849672049121"><ele>299.0</ele><time>2026-04-05T11:00:42.999Z</time></trkpt><trkpt lat="45.636515162729815" lon="8.583767377162598"><ele>299.0</ele><time>2026-04-05T11:00:44.999Z</time></trkpt><trkpt lat="45.63644867180839" lon="8.583651655793483"><ele>299.0</ele><time>2026-04-05T11:00:46.999Z</time></trkpt><trkpt lat="45.63640208872516" lon="8.58353115526805"><ele>299.0</ele><time>2026-04-05T11:00:48.999Z</time></trkpt><trkpt lat="45.63637823324303" lon="8.58341169609103"><ele>297.59999999999997</ele><time>2026-04-05T11:00:50.999Z</time></trkpt><trkpt lat="45.636384711312985" lon="8.58331381867778"><ele>296.2</ele><time>2026-04-05T11:00:51.999Z</time></trkpt><trkpt lat="45.63638219979432" lon="8.583203958328292"><ele>294.79999999999995</ele><time>2026-04-05T11:00:52.999Z</time></trkpt><trkpt lat="45.63639109300648" lon="8.58297457938444"><ele>293.4</ele><time>2026-04-05T11:00:53.999Z</time></trkpt><trkpt lat="45.63641016858388" lon="8.582888452973634"><ele>292.0</ele><time>2026-04-05T11:00:54.999Z</time></trkpt><trkpt lat="45.63649861927513" lon="8.582903513574552"><ele>292.0</ele><time>2026-04-05T11:00:57.999Z</time></trkpt><trkpt lat="45.63664067182043" lon="8.58291225642142"><ele>292.0</ele><time>2026-04-05T11:00:59.999Z</time></trkpt><trkpt lat="45.63675946350342" lon="8.582922899043881"><ele>292.0</ele><time>2026-04-05T11:01:01.999Z</time></trkpt><trkpt lat="45.636824975656424" lon="8.582930362295402"><ele>292.0</ele><time>2026-04-05T11:01:04.999Z</time></trkpt><trkpt lat="45.63690977160339" lon="8.582882959118873"><ele>292.0</ele><time>2026-04-05T11:01:07.999Z</time></trkpt><trkpt lat="45.63700503836942" lon="8.582872521443424"><ele>291.2</ele><time>2026-04-05T11:01:09.999Z</time></trkpt><trkpt lat="45.6371006773003" lon="8.582830423668184"><ele>290.4</ele><time>2026-04-05T11:01:11.999Z</time></trkpt><trkpt lat="45.637235262781935" lon="8.582764553517974"><ele>289.6</ele><time>2026-04-05T11:01:13.999Z</time></trkpt><trkpt lat="45.637301396577044" lon="8.582798047327692"><ele>288.8</ele><time>2026-04-05T11:01:15.999Z</time></trkpt><trkpt lat="45.63737315564137" lon="8.582740893100633"><ele>288.0</ele><time>2026-04-05T11:01:17.999Z</time></trkpt><trkpt lat="45.63740785207557" lon="8.58262847674053"><ele>288.0</ele><time>2026-04-05T11:01:19.999Z</time></trkpt><trkpt lat="45.63749761720565" lon="8.582588372885535"><ele>288.0</ele><time>2026-04-05T11:01:26.999Z</time></trkpt><trkpt lat="45.637586384763644" lon="8.582542048475636"><ele>288.0</ele><time>2026-04-05T11:01:28.999Z</time></trkpt><trkpt lat="45.6377000154301" lon="8.582599400981657"><ele>288.0</ele><time>2026-04-05T11:01:30.999Z</time></trkpt><trkpt lat="45.637761143475295" lon="8.582476171466569"><ele>288.0</ele><time>2026-04-05T11:01:33.999Z</time></trkpt><trkpt lat="45.63774782312177" lon="8.582350225506714"><ele>288.0</ele><time>2026-04-05T11:01:34.999Z</time></trkpt><trkpt lat="45.637738295677494" lon="8.58219426122473"><ele>288.0</ele><time>2026-04-05T11:01:35.999Z</time></trkpt><trkpt lat="45.63773128504508" lon="8.58206375888295"><ele>288.0</ele><time>2026-04-05T11:01:36.999Z</time></trkpt><trkpt lat="45.6377260639661" lon="8.581956239568926"><ele>288.0</ele><time>2026-04-05T11:01:37.999Z</time></trkpt><trkpt lat="45.637774325352275" lon="8.581774017226397"><ele>288.0</ele><time>2026-04-05T11:01:39.999Z</time></trkpt><trkpt lat="45.63780555792626" lon="8.58166714671101"><ele>288.8333333333333</ele><time>2026-04-05T11:01:40.999Z</time></trkpt><trkpt lat="45.63779224423096" lon="8.581490359482114"><ele>289.6666666666667</ele><time>2026-04-05T11:01:42.999Z</time></trkpt><trkpt lat="45.6377808591332" lon="8.581395158873695"><ele>290.5</ele><time>2026-04-05T11:01:43.999Z</time></trkpt><trkpt lat="45.63775963807588" lon="8.581292748933727"><ele>291.33333333333337</ele><time>2026-04-05T11:01:44.999Z</time></trkpt><trkpt lat="45.63774190581673" lon="8.581174786792795"><ele>292.1666666666667</ele><time>2026-04-05T11:01:45.999Z</time></trkpt><trkpt lat="45.637728064019825" lon="8.581050819451479"><ele>293.0</ele><time>2026-04-05T11:01:46.999Z</time></trkpt><trkpt lat="45.63771583603524" lon="8.580924766172087"><ele>293.6666666666667</ele><time>2026-04-05T11:01:47.999Z</time></trkpt><trkpt lat="45.637705844331535" lon="8.580807731519297"><ele>294.33333333333337</ele><time>2026-04-05T11:01:48.999Z</time></trkpt><trkpt lat="45.63769773847143" lon="8.580706683240383"><ele>295.0</ele><time>2026-04-05T11:01:49.999Z</time></trkpt><trkpt lat="45.63769022546228" lon="8.580607221890192"><ele>295.6666666666667</ele><time>2026-04-05T11:01:50.999Z</time></trkpt><trkpt lat="45.637700153789034" lon="8.580510295927944"><ele>296.3333333333333</ele><time>2026-04-05T11:01:51.999Z</time></trkpt><trkpt lat="45.6377439664881" lon="8.580405509452293"><ele>297.0</ele><time>2026-04-05T11:01:52.999Z</time></trkpt><trkpt lat="45.637790920222656" lon="8.580309961080598"><ele>296.6666666666667</ele><time>2026-04-05T11:01:53.999Z</time></trkpt><trkpt lat="45.63782239827224" lon="8.580208177831034"><ele>296.3333333333333</ele><time>2026-04-05T11:01:54.999Z</time></trkpt><trkpt lat="45.63785648345085" lon="8.58008193319849"><ele>296.0</ele><time>2026-04-05T11:01:55.999Z</time></trkpt><trkpt lat="45.63787830747024" lon="8.579974152077831"><ele>295.66666666666663</ele><time>2026-04-05T11:01:56.999Z</time></trkpt><trkpt lat="45.637897631293995" lon="8.579869454824616"><ele>295.3333333333333</ele><time>2026-04-05T11:01:57.999Z</time></trkpt><trkpt lat="45.637953433770235" lon="8.57978512199575"><ele>295.0</ele><time>2026-04-05T11:02:07.998Z</time></trkpt><trkpt lat="45.638015064077244" lon="8.579763084280822"><ele>295.0</ele><time>2026-04-05T11:02:08.998Z</time></trkpt><trkpt lat="45.63807821383866" lon="8.579746250908109"><ele>295.0</ele><time>2026-04-05T11:02:09.998Z</time></trkpt><trkpt lat="45.6381743639611" lon="8.57973600951222"><ele>295.0</ele><time>2026-04-05T11:02:11.998Z</time></trkpt><trkpt lat="45.638184491327195" lon="8.579624816742191"><ele>295.0</ele><time>2026-04-05T11:02:13.998Z</time></trkpt><trkpt lat="45.63818726205365" lon="8.579507032659722"><ele>295.0</ele><time>2026-04-05T11:02:14.998Z</time></trkpt><trkpt lat="45.6382042234042" lon="8.579362316400507"><ele>295.0</ele><time>2026-04-05T11:02:15.998Z</time></trkpt><trkpt lat="45.638194493142095" lon="8.579257413356828"><ele>296.0</ele><time>2026-04-05T11:02:16.998Z</time></trkpt><trkpt lat="45.63818486843084" lon="8.579133873045443"><ele>297.0</ele><time>2026-04-05T11:02:17.998Z</time></trkpt><trkpt lat="45.63817572938338" lon="8.579010814540831"><ele>298.0</ele><time>2026-04-05T11:02:18.998Z</time></trkpt><trkpt lat="45.63817277582197" lon="8.578870360952273"><ele>299.0</ele><time>2026-04-05T11:02:19.998Z</time></trkpt><trkpt lat="45.638165391050194" lon="8.578760078270017"><ele>300.0</ele><time>2026-04-05T11:02:20.998Z</time></trkpt><trkpt lat="45.63816022010376" lon="8.578655441731973"><ele>301.0</ele><time>2026-04-05T11:02:21.998Z</time></trkpt><trkpt lat="45.638144291737596" lon="8.578552593732747"><ele>301.40000000000003</ele><time>2026-04-05T11:02:22.998Z</time></trkpt><trkpt lat="45.638127046271215" lon="8.578434408885327"><ele>301.8</ele><time>2026-04-05T11:02:23.998Z</time></trkpt><trkpt lat="45.63811745114184" lon="8.578290022495505"><ele>302.20000000000005</ele><time>2026-04-05T11:02:24.998Z</time></trkpt><trkpt lat="45.63810966108552" lon="8.578125054866561"><ele>302.6</ele><time>2026-04-05T11:02:25.998Z</time></trkpt><trkpt lat="45.63810392803783" lon="8.57795324509632"><ele>303.0</ele><time>2026-04-05T11:02:26.998Z</time></trkpt><trkpt lat="45.638095519930175" lon="8.577799488771914"><ele>303.0</ele><time>2026-04-05T11:02:27.998Z</time></trkpt><trkpt lat="45.63808169953304" lon="8.577676930210412"><ele>303.0</ele><time>2026-04-05T11:02:28.998Z</time></trkpt><trkpt lat="45.6380735564557" lon="8.57756951133899"><ele>303.0</ele><time>2026-04-05T11:02:29.998Z</time></trkpt><trkpt lat="45.63806884998638" lon="8.577475041924387"><ele>303.0</ele><time>2026-04-05T11:02:30.998Z</time></trkpt><trkpt lat="45.63807045767223" lon="8.577343008356214"><ele>303.0</ele><time>2026-04-05T11:02:31.998Z</time></trkpt><trkpt lat="45.63806026701764" lon="8.577232699319293"><ele>303.0</ele><time>2026-04-05T11:02:33.999Z</time></trkpt><trkpt lat="45.63805230210657" lon="8.577090715495169"><ele>302.8333333333333</ele><time>2026-04-05T11:02:35.999Z</time></trkpt><trkpt lat="45.638047478645674" lon="8.576973157846046"><ele>302.6666666666667</ele><time>2026-04-05T11:02:36.999Z</time></trkpt><trkpt lat="45.638036687228556" lon="8.576836305881615"><ele>302.5</ele><time>2026-04-05T11:02:37.999Z</time></trkpt><trkpt lat="45.638036223375536" lon="8.576708089728744"><ele>302.33333333333337</ele><time>2026-04-05T11:02:38.999Z</time></trkpt><trkpt lat="45.638024311257" lon="8.576583919911293"><ele>302.1666666666667</ele><time>2026-04-05T11:02:39.999Z</time></trkpt><trkpt lat="45.63802053180185" lon="8.57647044183137"><ele>302.0</ele><time>2026-04-05T11:02:40.999Z</time></trkpt><trkpt lat="45.63801506857234" lon="8.57632762611412"><ele>302.33333333333337</ele><time>2026-04-05T11:02:41.999Z</time></trkpt><trkpt lat="45.63800581966797" lon="8.576168699091212"><ele>302.6666666666667</ele><time>2026-04-05T11:02:42.999Z</time></trkpt><trkpt lat="45.63799477454719" lon="8.576045043612753"><ele>303.0</ele><time>2026-04-05T11:02:43.999Z</time></trkpt><trkpt lat="45.63798615380984" lon="8.57594099288578"><ele>303.3333333333333</ele><time>2026-04-05T11:02:44.999Z</time></trkpt><trkpt lat="45.63797966188634" lon="8.575842673944813"><ele>303.66666666666663</ele><time>2026-04-05T11:02:45.999Z</time></trkpt><trkpt lat="45.63797305987184" lon="8.575748261556317"><ele>304.0</ele><time>2026-04-05T11:02:46.999Z</time></trkpt><trkpt lat="45.6379665069075" lon="8.575644014206375"><ele>304.0</ele><time>2026-04-05T11:02:47.999Z</time></trkpt><trkpt lat="45.637959612669654" lon="8.575535456323014"><ele>304.0</ele><time>2026-04-05T11:02:48.999Z</time></trkpt><trkpt lat="45.63795254563604" lon="8.575416768043619"><ele>304.0</ele><time>2026-04-05T11:02:49.999Z</time></trkpt><trkpt lat="45.637944743662224" lon="8.575293068617032"><ele>304.0</ele><time>2026-04-05T11:02:50.999Z</time></trkpt><trkpt lat="45.63794316114737" lon="8.575153417157447"><ele>304.0</ele><time>2026-04-05T11:02:51.999Z</time></trkpt><trkpt lat="45.6379309488281" lon="8.575010405224075"><ele>304.0</ele><time>2026-04-05T11:02:52.999Z</time></trkpt><trkpt lat="45.63793778378247" lon="8.574879953259368"><ele>303.4</ele><time>2026-04-05T11:02:53.999Z</time></trkpt><trkpt lat="45.63791873845616" lon="8.574756569983197"><ele>302.79999999999995</ele><time>2026-04-05T11:02:54.999Z</time></trkpt><trkpt lat="45.637929491581666" lon="8.574665147877786"><ele>302.20000000000005</ele><time>2026-04-05T11:02:55.999Z</time></trkpt><trkpt lat="45.63794590902839" lon="8.574543888040347"><ele>301.6</ele><time>2026-04-05T11:02:58.999Z</time></trkpt><trkpt lat="45.63806639863399" lon="8.574534925875316"><ele>301.0</ele><time>2026-04-05T11:02:59.999Z</time></trkpt><trkpt lat="45.63818775782509" lon="8.574468188667653"><ele>300.66666666666663</ele><time>2026-04-05T11:03:00.999Z</time></trkpt><trkpt lat="45.638342380765486" lon="8.574382726318996"><ele>300.3333333333333</ele><time>2026-04-05T11:03:01.999Z</time></trkpt><trkpt lat="45.638505411217224" lon="8.574293296117382"><ele>300.0</ele><time>2026-04-05T11:03:02.999Z</time></trkpt><trkpt lat="45.63867606175401" lon="8.574198409790013"><ele>300.0</ele><time>2026-04-05T11:03:03.999Z</time></trkpt><trkpt lat="45.63885503731309" lon="8.57410103084492"><ele>300.0</ele><time>2026-04-05T11:03:04.999Z</time></trkpt><trkpt lat="45.63902984949386" lon="8.574011645998086"><ele>300.0</ele><time>2026-04-05T11:03:05.999Z</time></trkpt><trkpt lat="45.639206032173725" lon="8.573921219658963"><ele>300.0</ele><time>2026-04-05T11:03:06.999Z</time></trkpt><trkpt lat="45.639404011434515" lon="8.5738155013795"><ele>300.0</ele><time>2026-04-05T11:03:07.999Z</time></trkpt><trkpt lat="45.63961734659527" lon="8.573699304446217"><ele>300.0</ele><time>2026-04-05T11:03:08.999Z</time></trkpt><trkpt lat="45.639797477873266" lon="8.573599167525442"><ele>299.75</ele><time>2026-04-05T11:03:09.999Z</time></trkpt><trkpt lat="45.63994294837184" lon="8.57351758056021"><ele>299.5</ele><time>2026-04-05T11:03:10.999Z</time></trkpt><trkpt lat="45.64007600278434" lon="8.573442060507901"><ele>299.25</ele><time>2026-04-05T11:03:11.999Z</time></trkpt><trkpt lat="45.64020142526272" lon="8.573366011206149"><ele>299.0</ele><time>2026-04-05T11:03:12.999Z</time></trkpt><trkpt lat="45.640314526440434" lon="8.573269117458763"><ele>299.0</ele><time>2026-04-05T11:03:13.999Z</time></trkpt><trkpt lat="45.64044666282981" lon="8.57319148313687"><ele>299.0</ele><time>2026-04-05T11:03:14.999Z</time></trkpt><trkpt lat="45.64058949310069" lon="8.573045281739596"><ele>299.0</ele><time>2026-04-05T11:03:15.999Z</time></trkpt><trkpt lat="45.64075769311862" lon="8.572857070208999"><ele>297.6666666666667</ele><time>2026-04-05T11:03:16.999Z</time></trkpt><trkpt lat="45.64091123531846" lon="8.572678376110131"><ele>296.3333333333333</ele><time>2026-04-05T11:03:17.999Z</time></trkpt><trkpt lat="45.64104916271358" lon="8.572509921147596"><ele>295.0</ele><time>2026-04-05T11:03:18.999Z</time></trkpt><trkpt lat="45.64116837343935" lon="8.572357249858989"><ele>295.0</ele><time>2026-04-05T11:03:19.999Z</time></trkpt><trkpt lat="45.64128869307507" lon="8.572212244638592"><ele>295.0</ele><time>2026-04-05T11:03:20.999Z</time></trkpt><trkpt lat="45.641393754559985" lon="8.572087422853691"><ele>295.0</ele><time>2026-04-05T11:03:21.999Z</time></trkpt><trkpt lat="45.641478363691995" lon="8.571989801494846"><ele>295.0</ele><time>2026-04-05T11:03:22.999Z</time></trkpt><trkpt lat="45.6415418626606" lon="8.57191174725658"><ele>295.4</ele><time>2026-04-05T11:03:23.999Z</time></trkpt><trkpt lat="45.64158066697875" lon="8.571827545899154"><ele>295.8</ele><time>2026-04-05T11:03:24.999Z</time></trkpt><trkpt lat="45.64160630141562" lon="8.571691164077704"><ele>296.2</ele><time>2026-04-05T11:03:26.999Z</time></trkpt><trkpt lat="45.641567055933265" lon="8.571570138676613"><ele>296.6</ele><time>2026-04-05T11:03:27.999Z</time></trkpt><trkpt lat="45.641527841976504" lon="8.571380199437462"><ele>297.0</ele><time>2026-04-05T11:03:28.999Z</time></trkpt><trkpt lat="45.64144986496041" lon="8.57116194036475"><ele>297.5</ele><time>2026-04-05T11:03:29.999Z</time></trkpt><trkpt lat="45.641381625481166" lon="8.570997900051465"><ele>298.0</ele><time>2026-04-05T11:03:30.999Z</time></trkpt><trkpt lat="45.641375906557045" lon="8.570894794924914"><ele>298.5</ele><time>2026-04-05T11:03:31.999Z</time></trkpt><trkpt lat="45.641358030634144" lon="8.570785902759242"><ele>299.0</ele><time>2026-04-05T11:03:33.999Z</time></trkpt><trkpt lat="45.641298477998184" lon="8.57050205227478"><ele>299.0</ele><time>2026-04-05T11:03:36.999Z</time></trkpt><trkpt lat="45.64127803541707" lon="8.570357381466078"><ele>299.0</ele><time>2026-04-05T11:03:37.999Z</time></trkpt><trkpt lat="45.641249766570525" lon="8.570184616284568"><ele>299.0</ele><time>2026-04-05T11:03:38.999Z</time></trkpt><trkpt lat="45.641207772596665" lon="8.569988564255155"><ele>299.0</ele><time>2026-04-05T11:03:39.999Z</time></trkpt><trkpt lat="45.64118565982257" lon="8.569825934947557"><ele>299.0</ele><time>2026-04-05T11:03:40.999Z</time></trkpt><trkpt lat="45.64117481423325" lon="8.569708371590215"><ele>299.0</ele><time>2026-04-05T11:03:41.999Z</time></trkpt><trkpt lat="45.641163720372575" lon="8.569615642735238"><ele>299.0</ele><time>2026-04-05T11:03:42.999Z</time></trkpt><trkpt lat="45.64115085113036" lon="8.569497742686833"><ele>299.0</ele><time>2026-04-05T11:03:43.999Z</time></trkpt><trkpt lat="45.641136662646446" lon="8.569373158175866"><ele>299.0</ele><time>2026-04-05T11:03:44.999Z</time></trkpt><trkpt lat="45.64110921719508" lon="8.56922304786361"><ele>299.0</ele><time>2026-04-05T11:03:45.999Z</time></trkpt><trkpt lat="45.64107835054317" lon="8.569072176529046"><ele>297.2</ele><time>2026-04-05T11:03:46.999Z</time></trkpt><trkpt lat="45.64104377249045" lon="8.568927118653544"><ele>295.4</ele><time>2026-04-05T11:03:47.999Z</time></trkpt><trkpt lat="45.64098670578853" lon="8.568805085955553"><ele>293.6</ele><time>2026-04-05T11:03:48.999Z</time></trkpt><trkpt lat="45.64095022659831" lon="8.568687816240889"><ele>291.8</ele><time>2026-04-05T11:03:49.999Z</time></trkpt><trkpt lat="45.64089356734469" lon="8.568566578225028"><ele>290.0</ele><time>2026-04-05T11:03:50.999Z</time></trkpt><trkpt lat="45.640874639421426" lon="8.568457190425098"><ele>289.6666666666667</ele><time>2026-04-05T11:03:51.999Z</time></trkpt><trkpt lat="45.64085522458917" lon="8.56837064259178"><ele>289.33333333333337</ele><time>2026-04-05T11:03:52.999Z</time></trkpt><trkpt lat="45.64084545124605" lon="8.568254443084921"><ele>289.0</ele><time>2026-04-05T11:03:53.999Z</time></trkpt><trkpt lat="45.640836157604554" lon="8.568112803265493"><ele>288.6666666666667</ele><time>2026-04-05T11:03:54.999Z</time></trkpt><trkpt lat="45.64084683717141" lon="8.567986754131729"><ele>288.3333333333333</ele><time>2026-04-05T11:03:55.999Z</time></trkpt><trkpt lat="45.640851380153165" lon="8.567895423540381"><ele>288.0</ele><time>2026-04-05T11:03:56.999Z</time></trkpt><trkpt lat="45.6408652129168" lon="8.567786915783248"><ele>287.4</ele><time>2026-04-05T11:04:00.999Z</time></trkpt><trkpt lat="45.64087699044172" lon="8.56766268580891"><ele>286.8</ele><time>2026-04-05T11:04:02.999Z</time></trkpt><trkpt lat="45.640874584232954" lon="8.567545970739856"><ele>286.2</ele><time>2026-04-05T11:04:03.999Z</time></trkpt><trkpt lat="45.64087104225881" lon="8.567402652530955"><ele>285.6</ele><time>2026-04-05T11:04:04.999Z</time></trkpt><trkpt lat="45.64086371613499" lon="8.567241832102432"><ele>285.0</ele><time>2026-04-05T11:04:05.999Z</time></trkpt><trkpt lat="45.64085050531663" lon="8.56708967502141"><ele>284.2</ele><time>2026-04-05T11:04:06.999Z</time></trkpt><trkpt lat="45.6408264446953" lon="8.566965857648508"><ele>283.4</ele><time>2026-04-05T11:04:07.999Z</time></trkpt><trkpt lat="45.64079919942023" lon="8.566858975960324"><ele>282.6</ele><time>2026-04-05T11:04:08.999Z</time></trkpt><trkpt lat="45.640765453046996" lon="8.56675210310068"><ele>281.8</ele><time>2026-04-05T11:04:09.999Z</time></trkpt><trkpt lat="45.64071975269821" lon="8.566639679776014"><ele>281.0</ele><time>2026-04-05T11:04:23.998Z</time></trkpt><trkpt lat="45.64062953328041" lon="8.566532936853099"><ele>281.0</ele><time>2026-04-05T11:04:25.998Z</time></trkpt><trkpt lat="45.640535317243675" lon="8.566430723050678"><ele>281.0</ele><time>2026-04-05T11:04:27.998Z</time></trkpt><trkpt lat="45.64046040138561" lon="8.566311705043283"><ele>281.0</ele><time>2026-04-05T11:04:29.998Z</time></trkpt><trkpt lat="45.64040110665743" lon="8.566165278106586"><ele>281.0</ele><time>2026-04-05T11:04:31.998Z</time></trkpt><trkpt lat="45.64037506408305" lon="8.566077722115129"><ele>281.0</ele><time>2026-04-05T11:04:32.998Z</time></trkpt><trkpt lat="45.64035208487481" lon="8.565992236128409"><ele>279.5</ele><time>2026-04-05T11:04:33.998Z</time></trkpt><trkpt lat="45.64032486090925" lon="8.565908908472366"><ele>278.0</ele><time>2026-04-05T11:04:34.998Z</time></trkpt><trkpt lat="45.640293838360535" lon="8.565762733481245"><ele>276.5</ele><time>2026-04-05T11:04:36.998Z</time></trkpt><trkpt lat="45.64026312322834" lon="8.565659364330118"><ele>275.0</ele><time>2026-04-05T11:04:38.999Z</time></trkpt><trkpt lat="45.64046362526391" lon="8.565572015038956"><ele>275.0</ele><time>2026-04-05T11:04:42.999Z</time></trkpt><trkpt lat="45.640595088379605" lon="8.565537777131325"><ele>275.0</ele><time>2026-04-05T11:04:43.999Z</time></trkpt><trkpt lat="45.64073593720668" lon="8.565497751278183"><ele>275.0</ele><time>2026-04-05T11:04:44.999Z</time></trkpt><trkpt lat="45.64084763606442" lon="8.565460912156492"><ele>275.0</ele><time>2026-04-05T11:04:45.999Z</time></trkpt><trkpt lat="45.64093476058435" lon="8.565454123678993"><ele>275.0</ele><time>2026-04-05T11:04:46.999Z</time></trkpt><trkpt lat="45.64101520272827" lon="8.56547619372319"><ele>275.0</ele><time>2026-04-05T11:04:47.999Z</time></trkpt><trkpt lat="45.6410923559963" lon="8.565523569235566"><ele>275.0</ele><time>2026-04-05T11:04:48.999Z</time></trkpt><trkpt lat="45.641185341321545" lon="8.565585891594901"><ele>275.0</ele><time>2026-04-05T11:04:49.999Z</time></trkpt><trkpt lat="45.64129650415764" lon="8.56562701029702"><ele>275.0</ele><time>2026-04-05T11:04:50.999Z</time></trkpt><trkpt lat="45.64141815916794" lon="8.565631735132321"><ele>276.5</ele><time>2026-04-05T11:04:51.999Z</time></trkpt><trkpt lat="45.64154296904264" lon="8.565610476093031"><ele>278.0</ele><time>2026-04-05T11:04:52.999Z</time></trkpt><trkpt lat="45.6416509479952" lon="8.565587198134583"><ele>279.5</ele><time>2026-04-05T11:04:53.999Z</time></trkpt><trkpt lat="45.64176194413865" lon="8.565545188046686"><ele>281.0</ele><time>2026-04-05T11:04:54.999Z</time></trkpt><trkpt lat="45.64188074229492" lon="8.56550282376908"><ele>282.40000000000003</ele><time>2026-04-05T11:04:55.999Z</time></trkpt><trkpt lat="45.641976153950935" lon="8.565477645630208"><ele>283.8</ele><time>2026-04-05T11:04:56.999Z</time></trkpt><trkpt lat="45.64205409661126" lon="8.565511070077422"><ele>285.20000000000005</ele><time>2026-04-05T11:04:57.999Z</time></trkpt><trkpt lat="45.64213010434404" lon="8.565574673010698"><ele>286.6</ele><time>2026-04-05T11:04:58.999Z</time></trkpt><trkpt lat="45.64222301474127" lon="8.56565551987953"><ele>288.0</ele><time>2026-04-05T11:04:59.999Z</time></trkpt><trkpt lat="45.64228678963289" lon="8.565738687260696"><ele>288.0</ele><time>2026-04-05T11:05:00.999Z</time></trkpt><trkpt lat="45.64233966216178" lon="8.565840815974273"><ele>288.0</ele><time>2026-04-05T11:05:01.999Z</time></trkpt><trkpt lat="45.642453963054756" lon="8.565897463987755"><ele>288.0</ele><time>2026-04-05T11:05:03.999Z</time></trkpt><trkpt lat="45.64256158298624" lon="8.565877789787436"><ele>288.0</ele><time>2026-04-05T11:05:04.999Z</time></trkpt><trkpt lat="45.642703353658504" lon="8.565850554228623"><ele>289.75</ele><time>2026-04-05T11:05:05.999Z</time></trkpt><trkpt lat="45.642842033714814" lon="8.565864711825897"><ele>291.5</ele><time>2026-04-05T11:05:06.999Z</time></trkpt><trkpt lat="45.64296697165106" lon="8.565876696770513"><ele>293.25</ele><time>2026-04-05T11:05:07.999Z</time></trkpt><trkpt lat="45.64309333170266" lon="8.565871517201138"><ele>295.0</ele><time>2026-04-05T11:05:08.999Z</time></trkpt><trkpt lat="45.643208541662474" lon="8.565871133058542"><ele>295.0</ele><time>2026-04-05T11:05:09.999Z</time></trkpt><trkpt lat="45.6433256803729" lon="8.565861086482201"><ele>295.0</ele><time>2026-04-05T11:05:10.999Z</time></trkpt><trkpt lat="45.643444074084876" lon="8.565853934625256"><ele>295.0</ele><time>2026-04-05T11:05:11.999Z</time></trkpt><trkpt lat="45.64356197896265" lon="8.565845354775423"><ele>295.0</ele><time>2026-04-05T11:05:12.999Z</time></trkpt><trkpt lat="45.64367424175602" lon="8.565829382403862"><ele>296.0</ele><time>2026-04-05T11:05:13.999Z</time></trkpt><trkpt lat="45.6437772042895" lon="8.565789910483184"><ele>297.0</ele><time>2026-04-05T11:05:14.999Z</time></trkpt><trkpt lat="45.64387935199102" lon="8.565738774121817"><ele>298.0</ele><time>2026-04-05T11:05:15.999Z</time></trkpt><trkpt lat="45.64396820125194" lon="8.565718064865731"><ele>299.0</ele><time>2026-04-05T11:05:16.999Z</time></trkpt><trkpt lat="45.64405320134213" lon="8.565733795660167"><ele>300.0</ele><time>2026-04-05T11:05:17.999Z</time></trkpt><trkpt lat="45.644124134870076" lon="8.565763001556364"><ele>300.0</ele><time>2026-04-05T11:05:18.999Z</time></trkpt><trkpt lat="45.64421269284211" lon="8.565844719781238"><ele>300.0</ele><time>2026-04-05T11:05:20.999Z</time></trkpt><trkpt lat="45.64431901502736" lon="8.565819749771604"><ele>300.0</ele><time>2026-04-05T11:05:22.999Z</time></trkpt><trkpt lat="45.64439028377057" lon="8.565828380381925"><ele>300.0</ele><time>2026-04-05T11:05:23.999Z</time></trkpt><trkpt lat="45.64444886094097" lon="8.565865338244597"><ele>300.0</ele><time>2026-04-05T11:05:24.999Z</time></trkpt><trkpt lat="45.64451140515548" lon="8.565881197267762"><ele>300.0</ele><time>2026-04-05T11:05:25.999Z</time></trkpt><trkpt lat="45.644616409868675" lon="8.56584694840438"><ele>299.4</ele><time>2026-04-05T11:05:27.999Z</time></trkpt><trkpt lat="45.64468588643791" lon="8.565760137147393"><ele>298.8</ele><time>2026-04-05T11:05:29.999Z</time></trkpt><trkpt lat="45.6447658579252" lon="8.565717905155726"><ele>298.2</ele><time>2026-04-05T11:05:33.999Z</time></trkpt><trkpt lat="45.644828651089526" lon="8.56559846937504"><ele>297.6</ele><time>2026-04-05T11:05:36.999Z</time></trkpt><trkpt lat="45.64488928706106" lon="8.565499218338024"><ele>297.0</ele><time>2026-04-05T11:05:38.999Z</time></trkpt><trkpt lat="45.64495492147831" lon="8.565346784329158"><ele>296.0</ele><time>2026-04-05T11:05:40.999Z</time></trkpt><trkpt lat="45.645012581137514" lon="8.565281775646948"><ele>295.0</ele><time>2026-04-05T11:05:41.999Z</time></trkpt><trkpt lat="45.64498481283098" lon="8.565143097269543"><ele>294.0</ele><time>2026-04-05T11:05:44.999Z</time></trkpt><trkpt lat="45.64492403493105" lon="8.565048789952238"><ele>293.0</ele><time>2026-04-05T11:05:45.999Z</time></trkpt><trkpt lat="45.644891624449265" lon="8.564951561617214"><ele>292.0</ele><time>2026-04-05T11:05:46.999Z</time></trkpt><trkpt lat="45.644888160739356" lon="8.564860274195789"><ele>291.0</ele><time>2026-04-05T11:05:47.999Z</time></trkpt><trkpt lat="45.64494348256329" lon="8.564700696900603"><ele>291.0</ele><time>2026-04-05T11:05:49.999Z</time></trkpt><trkpt lat="45.644985917341295" lon="8.564619765041044"><ele>291.0</ele><time>2026-04-05T11:05:50.999Z</time></trkpt><trkpt lat="45.64508465924422" lon="8.564520009347453"><ele>291.0</ele><time>2026-04-05T11:05:52.999Z</time></trkpt><trkpt lat="45.645161826645214" lon="8.56443503974038"><ele>291.0</ele><time>2026-04-05T11:05:54.999Z</time></trkpt><trkpt lat="45.64522928990908" lon="8.564321381937223"><ele>291.0</ele><time>2026-04-05T11:05:56.999Z</time></trkpt><trkpt lat="45.64519512936172" lon="8.564154310512874"><ele>291.0</ele><time>2026-04-05T11:05:58.999Z</time></trkpt><trkpt lat="45.64524460604435" lon="8.563992735682504"><ele>291.0</ele><time>2026-04-05T11:06:00.999Z</time></trkpt><trkpt lat="45.645275428781936" lon="8.563911247449806"><ele>291.0</ele><time>2026-04-05T11:06:01.999Z</time></trkpt><trkpt lat="45.645360661313575" lon="8.563780695791865"><ele>291.0</ele><time>2026-04-05T11:06:03.999Z</time></trkpt><trkpt lat="45.64540340492263" lon="8.56371360870125"><ele>291.0</ele><time>2026-04-05T11:06:04.999Z</time></trkpt><trkpt lat="45.64545441856869" lon="8.56363055542889"><ele>292.0</ele><time>2026-04-05T11:06:05.999Z</time></trkpt><trkpt lat="45.64553985055876" lon="8.563530010845765"><ele>293.0</ele><time>2026-04-05T11:06:06.999Z</time></trkpt><trkpt lat="45.645615684076425" lon="8.563436655029156"><ele>294.0</ele><time>2026-04-05T11:06:07.999Z</time></trkpt><trkpt lat="45.6456779062287" lon="8.563317935405744"><ele>295.0</ele><time>2026-04-05T11:06:08.999Z</time></trkpt><trkpt lat="45.645750744726755" lon="8.563173203156724"><ele>296.0</ele><time>2026-04-05T11:06:09.999Z</time></trkpt><trkpt lat="45.64581439755262" lon="8.563046786489934"><ele>296.0</ele><time>2026-04-05T11:06:10.999Z</time></trkpt><trkpt lat="45.645874611462176" lon="8.562931515537125"><ele>296.0</ele><time>2026-04-05T11:06:11.999Z</time></trkpt><trkpt lat="45.645949069295824" lon="8.562797562914499"><ele>296.0</ele><time>2026-04-05T11:06:12.999Z</time></trkpt><trkpt lat="45.646028592372254" lon="8.562677878369424"><ele>296.0</ele><time>2026-04-05T11:06:13.999Z</time></trkpt><trkpt lat="45.64610678861004" lon="8.562581360888695"><ele>296.0</ele><time>2026-04-05T11:06:14.999Z</time></trkpt><trkpt lat="45.64617573361" lon="8.562510231954796"><ele>297.6</ele><time>2026-04-05T11:06:15.999Z</time></trkpt><trkpt lat="45.64624477450006" lon="8.562424500442594"><ele>299.20000000000005</ele><time>2026-04-05T11:06:16.999Z</time></trkpt><trkpt lat="45.64631779628827" lon="8.562366048415212"><ele>300.79999999999995</ele><time>2026-04-05T11:06:17.999Z</time></trkpt><trkpt lat="45.64639196921923" lon="8.562335623288565"><ele>302.4</ele><time>2026-04-05T11:06:18.999Z</time></trkpt><trkpt lat="45.646483638414765" lon="8.562350622473533"><ele>304.0</ele><time>2026-04-05T11:06:19.999Z</time></trkpt><trkpt lat="45.646600995357794" lon="8.562365715566427"><ele>304.0</ele><time>2026-04-05T11:06:20.999Z</time></trkpt><trkpt lat="45.64670042737738" lon="8.56238793964945"><ele>304.0</ele><time>2026-04-05T11:06:21.999Z</time></trkpt><trkpt lat="45.64678219322748" lon="8.562433350050947"><ele>304.0</ele><time>2026-04-05T11:06:22.999Z</time></trkpt><trkpt lat="45.64684506136765" lon="8.56246036576957"><ele>304.0</ele><time>2026-04-05T11:06:23.999Z</time></trkpt><trkpt lat="45.64690800595838" lon="8.562496401171062"><ele>304.0</ele><time>2026-04-05T11:06:24.999Z</time></trkpt><trkpt lat="45.64697426537421" lon="8.562538293504698"><ele>304.0</ele><time>2026-04-05T11:06:25.999Z</time></trkpt><trkpt lat="45.64704151813985" lon="8.56257611235233"><ele>304.3333333333333</ele><time>2026-04-05T11:06:26.999Z</time></trkpt><trkpt lat="45.64711052227508" lon="8.562609838747075"><ele>304.66666666666663</ele><time>2026-04-05T11:06:27.999Z</time></trkpt><trkpt lat="45.64718675268275" lon="8.562639038667658"><ele>305.0</ele><time>2026-04-05T11:06:28.999Z</time></trkpt><trkpt lat="45.64727089331362" lon="8.562662770929956"><ele>305.3333333333333</ele><time>2026-04-05T11:06:29.999Z</time></trkpt><trkpt lat="45.64735272972483" lon="8.562678729136804"><ele>305.6666666666667</ele><time>2026-04-05T11:06:30.999Z</time></trkpt><trkpt lat="45.647442383386945" lon="8.56269521735417"><ele>306.0</ele><time>2026-04-05T11:06:31.999Z</time></trkpt><trkpt lat="45.64751959391209" lon="8.562705493705488"><ele>306.0</ele><time>2026-04-05T11:06:32.999Z</time></trkpt><trkpt lat="45.64758526259972" lon="8.562717910319293"><ele>306.0</ele><time>2026-04-05T11:06:33.999Z</time></trkpt><trkpt lat="45.64765110987148" lon="8.562725646081473"><ele>306.0</ele><time>2026-04-05T11:06:34.999Z</time></trkpt><trkpt lat="45.64772243964607" lon="8.562733535621634"><ele>306.0</ele><time>2026-04-05T11:06:35.999Z</time></trkpt><trkpt lat="45.64779741350368" lon="8.562753662608804"><ele>306.0</ele><time>2026-04-05T11:06:36.999Z</time></trkpt><trkpt lat="45.6478602882447" lon="8.562765995290397"><ele>306.0</ele><time>2026-04-05T11:06:37.999Z</time></trkpt><trkpt lat="45.64796368825337" lon="8.562753868009011"><ele>306.0</ele><time>2026-04-05T11:06:39.999Z</time></trkpt><trkpt lat="45.648047896803675" lon="8.56264325851524"><ele>305.5</ele><time>2026-04-05T11:06:41.999Z</time></trkpt><trkpt lat="45.64807739483055" lon="8.562553257454468"><ele>305.0</ele><time>2026-04-05T11:06:42.999Z</time></trkpt><trkpt lat="45.648086750350785" lon="8.562404068684822"><ele>304.5</ele><time>2026-04-05T11:06:43.998Z</time></trkpt><trkpt lat="45.64809999166592" lon="8.562256538581229"><ele>304.0</ele><time>2026-04-05T11:06:44.999Z</time></trkpt><trkpt lat="45.64814550632008" lon="8.562145264"><ele>303.5</ele><time>2026-04-05T11:06:45.999Z</time></trkpt><trkpt lat="45.64819308363869" lon="8.562051208491146"><ele>303.0</ele><time>2026-04-05T11:06:46.999Z</time></trkpt><trkpt lat="45.64821970536323" lon="8.561936845187635"><ele>303.0</ele><time>2026-04-05T11:06:47.999Z</time></trkpt><trkpt lat="45.64823361916496" lon="8.561835575632712"><ele>303.0</ele><time>2026-04-05T11:06:48.999Z</time></trkpt><trkpt lat="45.64824684776804" lon="8.56172838324054"><ele>303.0</ele><time>2026-04-05T11:06:49.999Z</time></trkpt><trkpt lat="45.64828338570508" lon="8.561630042399221"><ele>303.0</ele><time>2026-04-05T11:06:50.999Z</time></trkpt><trkpt lat="45.64834014265937" lon="8.561584843336268"><ele>303.0</ele><time>2026-04-05T11:06:51.999Z</time></trkpt><trkpt lat="45.64844125260712" lon="8.561515398004515"><ele>303.0</ele><time>2026-04-05T11:06:53.999Z</time></trkpt><trkpt lat="45.64841854103633" lon="8.561326242043279"><ele>303.0</ele><time>2026-04-05T11:06:57.999Z</time></trkpt><trkpt lat="45.64835931379728" lon="8.561202662200106"><ele>303.0</ele><time>2026-04-05T11:06:58.999Z</time></trkpt><trkpt lat="45.648305080324526" lon="8.561109167204286"><ele>303.0</ele><time>2026-04-05T11:06:59.999Z</time></trkpt><trkpt lat="45.6482458424102" lon="8.561018878771906"><ele>303.0</ele><time>2026-04-05T11:07:00.999Z</time></trkpt><trkpt lat="45.64820195721823" lon="8.56092069224736"><ele>303.0</ele><time>2026-04-05T11:07:01.999Z</time></trkpt><trkpt lat="45.648158805465904" lon="8.560827642859124"><ele>303.0</ele><time>2026-04-05T11:07:02.999Z</time></trkpt><trkpt lat="45.648115189373804" lon="8.5607253794216"><ele>301.6666666666667</ele><time>2026-04-05T11:07:04Z</time></trkpt><trkpt lat="45.64808302364114" lon="8.560614782692003"><ele>300.3333333333333</ele><time>2026-04-05T11:07:05Z</time></trkpt><trkpt lat="45.64806009481454" lon="8.560506680284767"><ele>299.0</ele><time>2026-04-05T11:07:06Z</time></trkpt><trkpt lat="45.6480513703913" lon="8.560393190040152"><ele>297.66666666666663</ele><time>2026-04-05T11:07:07Z</time></trkpt><trkpt lat="45.648057053041384" lon="8.56027454715618"><ele>296.3333333333333</ele><time>2026-04-05T11:07:08Z</time></trkpt><trkpt lat="45.648066087326875" lon="8.560155719271787"><ele>295.0</ele><time>2026-04-05T11:07:09Z</time></trkpt><trkpt lat="45.64809556668804" lon="8.56004553246617"><ele>294.66666666666663</ele><time>2026-04-05T11:07:10Z</time></trkpt><trkpt lat="45.64812549567644" lon="8.559932293626717"><ele>294.3333333333333</ele><time>2026-04-05T11:07:11Z</time></trkpt><trkpt lat="45.64814218504986" lon="8.559808589067732"><ele>294.0</ele><time>2026-04-05T11:07:12Z</time></trkpt><trkpt lat="45.648171445866524" lon="8.55968953972279"><ele>293.6666666666667</ele><time>2026-04-05T11:07:13Z</time></trkpt><trkpt lat="45.64820735795797" lon="8.559594590472585"><ele>293.33333333333337</ele><time>2026-04-05T11:07:14Z</time></trkpt><trkpt lat="45.64823994814548" lon="8.559491078026909"><ele>293.0</ele><time>2026-04-05T11:07:16Z</time></trkpt><trkpt lat="45.64843829596618" lon="8.559509876663629"><ele>291.6</ele><time>2026-04-05T11:07:21Z</time></trkpt><trkpt lat="45.648533572239565" lon="8.559522012414375"><ele>290.20000000000005</ele><time>2026-04-05T11:07:23Z</time></trkpt><trkpt lat="45.64866062342368" lon="8.559497183076708"><ele>288.8</ele><time>2026-04-05T11:07:25Z</time></trkpt><trkpt lat="45.64875177670724" lon="8.559413165973776"><ele>287.40000000000003</ele><time>2026-04-05T11:07:27Z</time></trkpt><trkpt lat="45.6488285638742" lon="8.559439681832648"><ele>286.0</ele><time>2026-04-05T11:07:29Z</time></trkpt><trkpt lat="45.64888164834579" lon="8.559495382326258"><ele>286.8</ele><time>2026-04-05T11:07:30Z</time></trkpt><trkpt lat="45.6489438025266" lon="8.559569022662412"><ele>287.6</ele><time>2026-04-05T11:07:31Z</time></trkpt><trkpt lat="45.64900693979967" lon="8.559659466810507"><ele>288.4</ele><time>2026-04-05T11:07:32Z</time></trkpt><trkpt lat="45.649084132504804" lon="8.559769026721268"><ele>289.2</ele><time>2026-04-05T11:07:33Z</time></trkpt><trkpt lat="45.64917084482399" lon="8.559864291726099"><ele>290.0</ele><time>2026-04-05T11:07:34Z</time></trkpt><trkpt lat="45.64925554883538" lon="8.55994848452079"><ele>290.0</ele><time>2026-04-05T11:07:35Z</time></trkpt><trkpt lat="45.64933885369411" lon="8.560025334586042"><ele>290.0</ele><time>2026-04-05T11:07:36Z</time></trkpt><trkpt lat="45.64942884871157" lon="8.560111654253204"><ele>290.0</ele><time>2026-04-05T11:07:37Z</time></trkpt><trkpt lat="45.64953394748203" lon="8.560202904360088"><ele>290.0</ele><time>2026-04-05T11:07:38Z</time></trkpt><trkpt lat="45.64960560996004" lon="8.56027949978467"><ele>290.0</ele><time>2026-04-05T11:07:39Z</time></trkpt><trkpt lat="45.6496755098228" lon="8.560395185175766"><ele>290.2</ele><time>2026-04-05T11:07:40Z</time></trkpt><trkpt lat="45.64974570254364" lon="8.560512092537921"><ele>290.4</ele><time>2026-04-05T11:07:41Z</time></trkpt><trkpt lat="45.649823527326895" lon="8.560619816206762"><ele>290.6</ele><time>2026-04-05T11:07:42Z</time></trkpt><trkpt lat="45.64989717728686" lon="8.560718067191823"><ele>290.8</ele><time>2026-04-05T11:07:43Z</time></trkpt><trkpt lat="45.64995750590344" lon="8.560814208541302"><ele>291.0</ele><time>2026-04-05T11:07:44Z</time></trkpt><trkpt lat="45.650016262137385" lon="8.56091604428818"><ele>291.0</ele><time>2026-04-05T11:07:45Z</time></trkpt><trkpt lat="45.65010708292199" lon="8.560986156107498"><ele>291.0</ele><time>2026-04-05T11:07:46Z</time></trkpt><trkpt lat="45.650194501307" lon="8.561049207620654"><ele>291.0</ele><time>2026-04-05T11:07:47Z</time></trkpt><trkpt lat="45.65026355911811" lon="8.561119267371131"><ele>291.0</ele><time>2026-04-05T11:07:48Z</time></trkpt><trkpt lat="45.65033441276127" lon="8.561181973848468"><ele>291.0</ele><time>2026-04-05T11:07:49Z</time></trkpt><trkpt lat="45.65041930581495" lon="8.561232570701879"><ele>291.6</ele><time>2026-04-05T11:07:50Z</time></trkpt><trkpt lat="45.650489740794015" lon="8.561304844955778"><ele>292.20000000000005</ele><time>2026-04-05T11:07:51Z</time></trkpt><trkpt lat="45.650538022272336" lon="8.561391334915497"><ele>292.79999999999995</ele><time>2026-04-05T11:07:52Z</time></trkpt><trkpt lat="45.65065000432652" lon="8.561516680890279"><ele>293.4</ele><time>2026-04-05T11:07:54Z</time></trkpt><trkpt lat="45.650734582283114" lon="8.561571306368428"><ele>294.0</ele><time>2026-04-05T11:07:55Z</time></trkpt><trkpt lat="45.65080713875524" lon="8.56161405238378"><ele>294.0</ele><time>2026-04-05T11:07:56Z</time></trkpt><trkpt lat="45.65091215208305" lon="8.56167764247558"><ele>294.0</ele><time>2026-04-05T11:07:57Z</time></trkpt><trkpt lat="45.65100726489288" lon="8.561729669559732"><ele>294.0</ele><time>2026-04-05T11:07:58Z</time></trkpt><trkpt lat="45.651086144518366" lon="8.561769990746797"><ele>294.0</ele><time>2026-04-05T11:07:59Z</time></trkpt><trkpt lat="45.651157493758554" lon="8.561802283987628"><ele>294.0</ele><time>2026-04-05T11:08:00Z</time></trkpt><trkpt lat="45.65122326567829" lon="8.561841325510345"><ele>294.0</ele><time>2026-04-05T11:08:01Z</time></trkpt><trkpt lat="45.651286766470534" lon="8.5618773160468"><ele>293.0</ele><time>2026-04-05T11:08:02Z</time></trkpt><trkpt lat="45.65135702451401" lon="8.56188847015335"><ele>292.0</ele><time>2026-04-05T11:08:03Z</time></trkpt><trkpt lat="45.65143848940657" lon="8.561859426605725"><ele>291.0</ele><time>2026-04-05T11:08:04Z</time></trkpt><trkpt lat="45.651517605933364" lon="8.56182524810696"><ele>290.0</ele><time>2026-04-05T11:08:05Z</time></trkpt><trkpt lat="45.651604261518266" lon="8.561842256487752"><ele>289.0</ele><time>2026-04-05T11:08:06Z</time></trkpt><trkpt lat="45.65172972198988" lon="8.561850946157097"><ele>289.0</ele><time>2026-04-05T11:08:07Z</time></trkpt><trkpt lat="45.65179768872364" lon="8.561856461720193"><ele>289.0</ele><time>2026-04-05T11:08:08Z</time></trkpt><trkpt lat="45.651925415708945" lon="8.56182933280358"><ele>289.0</ele><time>2026-04-05T11:08:10Z</time></trkpt><trkpt lat="45.65198968254898" lon="8.561842278563153"><ele>289.0</ele><time>2026-04-05T11:08:11Z</time></trkpt><trkpt lat="45.65204170025605" lon="8.56189418385916"><ele>289.0</ele><time>2026-04-05T11:08:12Z</time></trkpt><trkpt lat="45.65207668953304" lon="8.56198902398386"><ele>289.0</ele><time>2026-04-05T11:08:13Z</time></trkpt><trkpt lat="45.65211822331496" lon="8.562089608976521"><ele>289.0</ele><time>2026-04-05T11:08:14Z</time></trkpt><trkpt lat="45.652184565443385" lon="8.56212275389391"><ele>289.0</ele><time>2026-04-05T11:08:15Z</time></trkpt><trkpt lat="45.65227001545468" lon="8.562168574466117"><ele>289.0</ele><time>2026-04-05T11:08:16Z</time></trkpt><trkpt lat="45.652332461016194" lon="8.562214631399694"><ele>289.0</ele><time>2026-04-05T11:08:17Z</time></trkpt><trkpt lat="45.65238149364739" lon="8.562328036651095"><ele>289.0</ele><time>2026-04-05T11:08:19Z</time></trkpt><trkpt lat="45.652415498970626" lon="8.562411005873813"><ele>289.0</ele><time>2026-04-05T11:08:39Z</time></trkpt><trkpt lat="45.65240388646533" lon="8.562321483198389"><ele>289.0</ele><time>2026-04-05T11:08:48Z</time></trkpt><trkpt lat="45.652344230778326" lon="8.56222687646974"><ele>289.0</ele><time>2026-04-05T11:08:51Z</time></trkpt><trkpt lat="45.65225467253624" lon="8.562128508027333"><ele>289.0</ele><time>2026-04-05T11:08:53Z</time></trkpt><trkpt lat="45.65216835255314" lon="8.562088370692274"><ele>289.0</ele><time>2026-04-05T11:08:55Z</time></trkpt><trkpt lat="45.652106572708036" lon="8.562049287817944"><ele>289.0</ele><time>2026-04-05T11:08:57Z</time></trkpt><trkpt lat="45.652060167932405" lon="8.561978440331814"><ele>289.0</ele><time>2026-04-05T11:09:00Z</time></trkpt><trkpt lat="45.65201675887298" lon="8.561879773660465"><ele>289.0</ele><time>2026-04-05T11:09:10Z</time></trkpt><trkpt lat="45.652050699576655" lon="8.561791266391896"><ele>289.0</ele><time>2026-04-05T11:09:17Z</time></trkpt><trkpt lat="45.652015033406634" lon="8.561713894385711"><ele>289.0</ele><time>2026-04-05T11:09:25Z</time></trkpt><trkpt lat="45.65196738177549" lon="8.56164337784814"><ele>289.0</ele><time>2026-04-05T11:09:39Z</time></trkpt><trkpt lat="45.651905567623736" lon="8.561671751796842"><ele>289.0</ele><time>2026-04-05T11:09:48Z</time></trkpt><trkpt lat="45.651947529163245" lon="8.561741364614837"><ele>289.0</ele><time>2026-04-05T11:09:54Z</time></trkpt><trkpt lat="45.65199603122916" lon="8.56167376530115"><ele>289.0</ele><time>2026-04-05T11:10:02Z</time></trkpt><trkpt lat="45.65204350315999" lon="8.561612078041392"><ele>288.66666666666663</ele><time>2026-04-05T11:10:17Z</time></trkpt><trkpt lat="45.652104862446485" lon="8.561556767119363"><ele>288.3333333333333</ele><time>2026-04-05T11:10:22Z</time></trkpt><trkpt lat="45.6521938088173" lon="8.5615235222334"><ele>288.0</ele><time>2026-04-05T11:10:41Z</time></trkpt><trkpt lat="45.652294209254116" lon="8.561503003591211"><ele>287.6666666666667</ele><time>2026-04-05T11:11:13Z</time></trkpt><trkpt lat="45.65234822490407" lon="8.561438894628322"><ele>287.33333333333337</ele><time>2026-04-05T11:11:17Z</time></trkpt><trkpt lat="45.65238980952732" lon="8.56135572948631"><ele>287.0</ele><time>2026-04-05T11:11:22Z</time></trkpt><trkpt lat="45.65241596238033" lon="8.561262646373608"><ele>287.0</ele><time>2026-04-05T11:11:26Z</time></trkpt><trkpt lat="45.65247535676993" lon="8.56122872877892"><ele>287.0</ele><time>2026-04-05T11:11:32Z</time></trkpt><trkpt lat="45.652541065500536" lon="8.56120261802431"><ele>287.0</ele><time>2026-04-05T11:11:35Z</time></trkpt><trkpt lat="45.65258542475539" lon="8.56109816352526"><ele>287.0</ele><time>2026-04-05T11:11:37Z</time></trkpt><trkpt lat="45.652706480566394" lon="8.56109823800814"><ele>287.0</ele><time>2026-04-05T11:11:40Z</time></trkpt><trkpt lat="45.65278520619282" lon="8.561121319197339"><ele>287.0</ele><time>2026-04-05T11:11:41Z</time></trkpt><trkpt lat="45.65287412994058" lon="8.561135357283971"><ele>288.83333333333337</ele><time>2026-04-05T11:11:42Z</time></trkpt><trkpt lat="45.65296353688564" lon="8.561146110918784"><ele>290.6666666666667</ele><time>2026-04-05T11:11:43Z</time></trkpt><trkpt lat="45.65305141619922" lon="8.561155422879008"><ele>292.5</ele><time>2026-04-05T11:11:44Z</time></trkpt><trkpt lat="45.65315061387412" lon="8.561168631911537"><ele>294.3333333333333</ele><time>2026-04-05T11:11:45Z</time></trkpt><trkpt lat="45.65322984599597" lon="8.561178438403546"><ele>296.16666666666663</ele><time>2026-04-05T11:11:46Z</time></trkpt><trkpt lat="45.65331040709716" lon="8.561190547950824"><ele>298.0</ele><time>2026-04-05T11:11:47Z</time></trkpt><trkpt lat="45.6533742886329" lon="8.561197550739612"><ele>298.0</ele><time>2026-04-05T11:11:48Z</time></trkpt><trkpt lat="45.65344034059999" lon="8.561208280502855"><ele>298.0</ele><time>2026-04-05T11:11:49Z</time></trkpt><trkpt lat="45.65354748438181" lon="8.56123629991199"><ele>298.0</ele><time>2026-04-05T11:11:51Z</time></trkpt><trkpt lat="45.65363704981903" lon="8.561202230289402"><ele>298.0</ele><time>2026-04-05T11:11:53Z</time></trkpt><trkpt lat="45.653710789742334" lon="8.561067423443058"><ele>298.0</ele><time>2026-04-05T11:11:55Z</time></trkpt><trkpt lat="45.653785679321324" lon="8.56099146054901"><ele>298.0</ele><time>2026-04-05T11:11:57Z</time></trkpt><trkpt lat="45.65391926875923" lon="8.561026825618846"><ele>298.0</ele><time>2026-04-05T11:11:59Z</time></trkpt><trkpt lat="45.65399588662334" lon="8.561058591826168"><ele>298.0</ele><time>2026-04-05T11:12:00Z</time></trkpt><trkpt lat="45.654066062609566" lon="8.561094116955141"><ele>298.0</ele><time>2026-04-05T11:12:01Z</time></trkpt><trkpt lat="45.654139427930545" lon="8.561087286447771"><ele>298.0</ele><time>2026-04-05T11:12:02Z</time></trkpt><trkpt lat="45.65424707330531" lon="8.561056907086432"><ele>298.0</ele><time>2026-04-05T11:12:03Z</time></trkpt><trkpt lat="45.65438190506973" lon="8.561020097803654"><ele>298.0</ele><time>2026-04-05T11:12:04Z</time></trkpt><trkpt lat="45.65447639049466" lon="8.560999785422492"><ele>298.0</ele><time>2026-04-05T11:12:05Z</time></trkpt><trkpt lat="45.65456062705564" lon="8.561015226519485"><ele>298.0</ele><time>2026-04-05T11:12:06Z</time></trkpt><trkpt lat="45.65466117504625" lon="8.561046851711906"><ele>298.0</ele><time>2026-04-05T11:12:07Z</time></trkpt><trkpt lat="45.654771623219034" lon="8.561072275225651"><ele>298.6</ele><time>2026-04-05T11:12:08Z</time></trkpt><trkpt lat="45.65487262643337" lon="8.561095545254725"><ele>299.20000000000005</ele><time>2026-04-05T11:12:10Z</time></trkpt><trkpt lat="45.654961180151496" lon="8.560999203412212"><ele>299.8</ele><time>2026-04-05T11:12:13Z</time></trkpt><trkpt lat="45.65502040589307" lon="8.560887732453047"><ele>300.40000000000003</ele><time>2026-04-05T11:12:14Z</time></trkpt><trkpt lat="45.65506052168183" lon="8.560765401829627"><ele>301.0</ele><time>2026-04-05T11:12:15Z</time></trkpt><trkpt lat="45.65509647779142" lon="8.560654662001028"><ele>301.0</ele><time>2026-04-05T11:12:16Z</time></trkpt><trkpt lat="45.65513661762324" lon="8.560577574175596"><ele>301.0</ele><time>2026-04-05T11:12:17Z</time></trkpt><trkpt lat="45.65515603407713" lon="8.560485748864004"><ele>301.0</ele><time>2026-04-05T11:12:18Z</time></trkpt><trkpt lat="45.655176586942744" lon="8.560398189417503"><ele>301.0</ele><time>2026-04-05T11:12:20Z</time></trkpt><trkpt lat="45.655261173614306" lon="8.560414961834084"><ele>301.0</ele><time>2026-04-05T11:12:22Z</time></trkpt><trkpt lat="45.65535316192016" lon="8.560384561705028"><ele>301.0</ele><time>2026-04-05T11:12:24Z</time></trkpt><trkpt lat="45.655406261410164" lon="8.560336086713066"><ele>301.0</ele><time>2026-04-05T11:12:52Z</time></trkpt><trkpt lat="45.655451905748386" lon="8.560248898147387"><ele>303.0</ele><time>2026-04-05T11:12:58Z</time></trkpt><trkpt lat="45.65552237271048" lon="8.560243196203494"><ele>305.0</ele><time>2026-04-05T11:13:12.001Z</time></trkpt><trkpt lat="45.65558418996072" lon="8.560284532413661"><ele>307.0</ele><time>2026-04-05T11:13:19.001Z</time></trkpt><trkpt lat="45.65566902115099" lon="8.560216422316323"><ele>309.0</ele><time>2026-04-05T11:13:21.001Z</time></trkpt><trkpt lat="45.65573642800423" lon="8.560185131279804"><ele>311.0</ele><time>2026-04-05T11:13:22.001Z</time></trkpt><trkpt lat="45.65580071236411" lon="8.560126878800451"><ele>313.0</ele><time>2026-04-05T11:13:23.001Z</time></trkpt><trkpt lat="45.655866756545606" lon="8.560082381948021"><ele>313.0</ele><time>2026-04-05T11:13:24.001Z</time></trkpt><trkpt lat="45.65595854021858" lon="8.560010220511966"><ele>313.0</ele><time>2026-04-05T11:13:26.001Z</time></trkpt><trkpt lat="45.656048792954685" lon="8.559931757419081"><ele>313.0</ele><time>2026-04-05T11:13:28.001Z</time></trkpt><trkpt lat="45.656092417216705" lon="8.559846255017966"><ele>313.0</ele><time>2026-04-05T11:13:29.001Z</time></trkpt><trkpt lat="45.656135747058464" lon="8.559755014604479"><ele>313.0</ele><time>2026-04-05T11:13:30.001Z</time></trkpt><trkpt lat="45.656180539032555" lon="8.559683234995855"><ele>313.0</ele><time>2026-04-05T11:13:31.001Z</time></trkpt><trkpt lat="45.65623239107348" lon="8.559585218962518"><ele>313.42857142857144</ele><time>2026-04-05T11:13:33.001Z</time></trkpt><trkpt lat="45.65628578483836" lon="8.559533747969654"><ele>313.8571428571429</ele><time>2026-04-05T11:13:35.001Z</time></trkpt><trkpt lat="45.65634009582813" lon="8.559484121062575"><ele>314.28571428571433</ele><time>2026-04-05T11:13:37.001Z</time></trkpt><trkpt lat="45.65640352457366" lon="8.559442009037744"><ele>314.7142857142857</ele><time>2026-04-05T11:13:38.001Z</time></trkpt><trkpt lat="45.65646924920388" lon="8.559401530681038"><ele>315.14285714285717</ele><time>2026-04-05T11:13:39.001Z</time></trkpt><trkpt lat="45.65653944689913" lon="8.559345768596714"><ele>315.5714285714286</ele><time>2026-04-05T11:13:40.001Z</time></trkpt><trkpt lat="45.65662452741648" lon="8.559278614116295"><ele>316.0</ele><time>2026-04-05T11:13:41.001Z</time></trkpt><trkpt lat="45.65671301350723" lon="8.559210577471534"><ele>316.0</ele><time>2026-04-05T11:13:43.001Z</time></trkpt><trkpt lat="45.65679326760072" lon="8.559014657431259"><ele>316.0</ele><time>2026-04-05T11:13:45.001Z</time></trkpt><trkpt lat="45.656838118811166" lon="8.55891786062572"><ele>316.0</ele><time>2026-04-05T11:13:46.001Z</time></trkpt><trkpt lat="45.656930261159" lon="8.558823123241188"><ele>316.0</ele><time>2026-04-05T11:13:48Z</time></trkpt><trkpt lat="45.656998905093275" lon="8.55878931515433"><ele>316.0</ele><time>2026-04-05T11:13:49Z</time></trkpt><trkpt lat="45.65707502597648" lon="8.558736032489087"><ele>316.40000000000003</ele><time>2026-04-05T11:13:50Z</time></trkpt><trkpt lat="45.65719097100872" lon="8.558700324369397"><ele>316.8</ele><time>2026-04-05T11:13:52Z</time></trkpt><trkpt lat="45.65726217065305" lon="8.55872167485813"><ele>317.20000000000005</ele><time>2026-04-05T11:13:53Z</time></trkpt><trkpt lat="45.65734303191684" lon="8.558732013096268"><ele>317.6</ele><time>2026-04-05T11:13:54Z</time></trkpt><trkpt lat="45.6574240224396" lon="8.558730185493928"><ele>318.0</ele><time>2026-04-05T11:13:55Z</time></trkpt><trkpt lat="45.65752059862143" lon="8.558716433823113"><ele>318.0</ele><time>2026-04-05T11:13:56Z</time></trkpt><trkpt lat="45.65759736531852" lon="8.558721834396694"><ele>318.0</ele><time>2026-04-05T11:13:57Z</time></trkpt><trkpt lat="45.65767584945942" lon="8.558743992653207"><ele>318.0</ele><time>2026-04-05T11:13:58Z</time></trkpt><trkpt lat="45.65775879162491" lon="8.558777161299476"><ele>318.0</ele><time>2026-04-05T11:13:59Z</time></trkpt><trkpt lat="45.657821335655946" lon="8.558819030339476"><ele>318.0</ele><time>2026-04-05T11:14:00Z</time></trkpt><trkpt lat="45.65788631302827" lon="8.558891981514789"><ele>318.0</ele><time>2026-04-05T11:14:01Z</time></trkpt><trkpt lat="45.6579521466908" lon="8.558958614165514"><ele>318.3333333333333</ele><time>2026-04-05T11:14:02Z</time></trkpt><trkpt lat="45.65800584242105" lon="8.559023597344057"><ele>318.6666666666667</ele><time>2026-04-05T11:14:03Z</time></trkpt><trkpt lat="45.65806939127641" lon="8.559114666181372"><ele>319.0</ele><time>2026-04-05T11:14:05Z</time></trkpt><trkpt lat="45.65809355429221" lon="8.559202835760455"><ele>319.33333333333337</ele><time>2026-04-05T11:14:06Z</time></trkpt><trkpt lat="45.65810932085088" lon="8.559294296962321"><ele>319.6666666666667</ele><time>2026-04-05T11:14:07Z</time></trkpt><trkpt lat="45.65812554477424" lon="8.559415612044388"><ele>320.0</ele><time>2026-04-05T11:14:09Z</time></trkpt><trkpt lat="45.65819266679059" lon="8.559485167062768"><ele>320.0</ele><time>2026-04-05T11:14:11Z</time></trkpt><trkpt lat="45.658296452430626" lon="8.55950889010018"><ele>320.0</ele><time>2026-04-05T11:14:13Z</time></trkpt><trkpt lat="45.65837357985549" lon="8.559531506184715"><ele>320.0</ele><time>2026-04-05T11:14:14Z</time></trkpt><trkpt lat="45.6584912977736" lon="8.559571915561454"><ele>320.0</ele><time>2026-04-05T11:14:16Z</time></trkpt><trkpt lat="45.65856948066844" lon="8.55957626951191"><ele>320.0</ele><time>2026-04-05T11:14:17Z</time></trkpt><trkpt lat="45.65864119693864" lon="8.559576937826701"><ele>319.33333333333337</ele><time>2026-04-05T11:14:18Z</time></trkpt><trkpt lat="45.658710926689594" lon="8.559589887905405"><ele>318.6666666666667</ele><time>2026-04-05T11:14:19Z</time></trkpt><trkpt lat="45.65879727861069" lon="8.55961721671169"><ele>318.0</ele><time>2026-04-05T11:14:20Z</time></trkpt><trkpt lat="45.65888194806451" lon="8.559651782993623"><ele>317.3333333333333</ele><time>2026-04-05T11:14:21Z</time></trkpt><trkpt lat="45.65895610358656" lon="8.559676465204221"><ele>316.66666666666663</ele><time>2026-04-05T11:14:22Z</time></trkpt><trkpt lat="45.6590227815591" lon="8.559705267402613"><ele>316.0</ele><time>2026-04-05T11:14:23Z</time></trkpt><trkpt lat="45.659085825205324" lon="8.559729959538014"><ele>316.0</ele><time>2026-04-05T11:14:24Z</time></trkpt><trkpt lat="45.65921608043829" lon="8.559753221954562"><ele>316.0</ele><time>2026-04-05T11:14:26Z</time></trkpt><trkpt lat="45.65928285350569" lon="8.559764825499904"><ele>316.0</ele><time>2026-04-05T11:14:27Z</time></trkpt><trkpt lat="45.65934885563129" lon="8.55979373961683"><ele>316.0</ele><time>2026-04-05T11:14:28Z</time></trkpt><trkpt lat="45.659424885023206" lon="8.559807566093436"><ele>316.0</ele><time>2026-04-05T11:14:29Z</time></trkpt><trkpt lat="45.65951132655305" lon="8.559808267910645"><ele>316.0</ele><time>2026-04-05T11:14:30Z</time></trkpt><trkpt lat="45.659599831322495" lon="8.559796776824987"><ele>316.3333333333333</ele><time>2026-04-05T11:14:31Z</time></trkpt><trkpt lat="45.65968266917463" lon="8.559792488764826"><ele>316.66666666666663</ele><time>2026-04-05T11:14:32Z</time></trkpt><trkpt lat="45.65976606799255" lon="8.559793805905871"><ele>317.0</ele><time>2026-04-05T11:14:33Z</time></trkpt><trkpt lat="45.659856836966284" lon="8.559806956881067"><ele>317.3333333333333</ele><time>2026-04-05T11:14:34Z</time></trkpt><trkpt lat="45.65994674374818" lon="8.559837066680851"><ele>317.6666666666667</ele><time>2026-04-05T11:14:35Z</time></trkpt><trkpt lat="45.66003676615792" lon="8.559860517115228"><ele>318.0</ele><time>2026-04-05T11:14:36Z</time></trkpt><trkpt lat="45.66010390971743" lon="8.559883376037769"><ele>318.0</ele><time>2026-04-05T11:14:37Z</time></trkpt><trkpt lat="45.660166099378756" lon="8.559867730504267"><ele>318.0</ele><time>2026-04-05T11:14:40Z</time></trkpt><trkpt lat="45.66013971818771" lon="8.559996413887898"><ele>318.0</ele><time>2026-04-05T11:15:00Z</time></trkpt><trkpt lat="45.66014629372991" lon="8.560086648822896"><ele>318.0</ele><time>2026-04-05T11:15:05Z</time></trkpt><trkpt lat="45.66022268764137" lon="8.56011025363466"><ele>318.0</ele><time>2026-04-05T11:15:14.001Z</time></trkpt><trkpt lat="45.66025495825522" lon="8.560187936465681"><ele>318.0</ele><time>2026-04-05T11:15:23.001Z</time></trkpt><trkpt lat="45.66032068069068" lon="8.560238419799582"><ele>318.0</ele><time>2026-04-05T11:15:51Z</time></trkpt><trkpt lat="45.6603835759268" lon="8.560296557840116"><ele>318.0</ele><time>2026-04-05T11:16:02Z</time></trkpt><trkpt lat="45.6604528327478" lon="8.560258754752965"><ele>318.0</ele><time>2026-04-05T11:16:06Z</time></trkpt><trkpt lat="45.66051694389483" lon="8.560234469572114"><ele>318.0</ele><time>2026-04-05T11:16:12Z</time></trkpt><trkpt lat="45.660581140057566" lon="8.560207166559584"><ele>318.0</ele><time>2026-04-05T11:16:18Z</time></trkpt><trkpt lat="45.660653621020884" lon="8.560232307706915"><ele>318.0</ele><time>2026-04-05T11:16:31Z</time></trkpt><trkpt lat="45.660715472338794" lon="8.560211705508646"><ele>318.0</ele><time>2026-04-05T11:16:37Z</time></trkpt><trkpt lat="45.66076031951705" lon="8.560148374889376"><ele>318.0</ele><time>2026-04-05T11:16:41Z</time></trkpt><trkpt lat="45.660817224929175" lon="8.560105780887433"><ele>318.0</ele><time>2026-04-05T11:16:44Z</time></trkpt><trkpt lat="45.66088709792814" lon="8.5601418377068"><ele>318.0</ele><time>2026-04-05T11:16:49Z</time></trkpt><trkpt lat="45.66095156022701" lon="8.560117611516441"><ele>318.0</ele><time>2026-04-05T11:16:57Z</time></trkpt><trkpt lat="45.660999311949695" lon="8.560035765349133"><ele>318.0</ele><time>2026-04-05T11:17:02Z</time></trkpt><trkpt lat="45.66103286920227" lon="8.559953652369348"><ele>318.0</ele><time>2026-04-05T11:17:04Z</time></trkpt><trkpt lat="45.66107464100602" lon="8.559870642953248"><ele>318.0</ele><time>2026-04-05T11:17:13.001Z</time></trkpt><trkpt lat="45.66121875819215" lon="8.559884198817183"><ele>318.8</ele><time>2026-04-05T11:17:16.001Z</time></trkpt><trkpt lat="45.66133206651514" lon="8.5599258144617"><ele>319.6</ele><time>2026-04-05T11:17:18.001Z</time></trkpt><trkpt lat="45.66145315110165" lon="8.55998960447974"><ele>320.40000000000003</ele><time>2026-04-05T11:17:20.001Z</time></trkpt><trkpt lat="45.66152597426486" lon="8.560043360527194"><ele>321.20000000000005</ele><time>2026-04-05T11:17:21.001Z</time></trkpt><trkpt lat="45.66161016505852" lon="8.560079665190562"><ele>322.0</ele><time>2026-04-05T11:17:22.001Z</time></trkpt><trkpt lat="45.661679959459505" lon="8.560115612487342"><ele>322.0</ele><time>2026-04-05T11:17:23.001Z</time></trkpt><trkpt lat="45.66174273914702" lon="8.560131436259738"><ele>322.0</ele><time>2026-04-05T11:17:24.001Z</time></trkpt><trkpt lat="45.661864630062304" lon="8.560154452204229"><ele>322.0</ele><time>2026-04-05T11:17:26.001Z</time></trkpt><trkpt lat="45.66197263228455" lon="8.560188665947049"><ele>322.0</ele><time>2026-04-05T11:17:28.001Z</time></trkpt><trkpt lat="45.662048080147926" lon="8.560204354118648"><ele>322.0</ele><time>2026-04-05T11:17:29.001Z</time></trkpt><trkpt lat="45.66212178678793" lon="8.560226384445157"><ele>322.0</ele><time>2026-04-05T11:17:30.001Z</time></trkpt><trkpt lat="45.66218335827041" lon="8.560245471831836"><ele>322.0</ele><time>2026-04-05T11:17:31.001Z</time></trkpt><trkpt lat="45.66225573659861" lon="8.560264146311486"><ele>322.0</ele><time>2026-04-05T11:17:32.001Z</time></trkpt><trkpt lat="45.66233732487796" lon="8.560286851610607"><ele>322.0</ele><time>2026-04-05T11:17:33.001Z</time></trkpt><trkpt lat="45.66241064666894" lon="8.560300425604064"><ele>322.0</ele><time>2026-04-05T11:17:34.001Z</time></trkpt><trkpt lat="45.66251107044434" lon="8.560317958076705"><ele>322.0</ele><time>2026-04-05T11:17:36.001Z</time></trkpt><trkpt lat="45.66256903924866" lon="8.560357380590279"><ele>322.0</ele><time>2026-04-05T11:17:44.001Z</time></trkpt><trkpt lat="45.6626558064087" lon="8.560396651517769"><ele>322.16666666666663</ele><time>2026-04-05T11:17:46Z</time></trkpt><trkpt lat="45.66276254238805" lon="8.560412958696324"><ele>322.3333333333333</ele><time>2026-04-05T11:17:48Z</time></trkpt><trkpt lat="45.66284368352759" lon="8.560424215315177"><ele>322.5</ele><time>2026-04-05T11:17:49Z</time></trkpt><trkpt lat="45.66291328606789" lon="8.560425081006178"><ele>322.6666666666667</ele><time>2026-04-05T11:17:50Z</time></trkpt><trkpt lat="45.66300536573273" lon="8.560449905128438"><ele>322.83333333333337</ele><time>2026-04-05T11:17:52Z</time></trkpt><trkpt lat="45.66309622223428" lon="8.560452911114384"><ele>323.0</ele><time>2026-04-05T11:17:54Z</time></trkpt><trkpt lat="45.663158722229014" lon="8.560396231502079"><ele>323.0</ele><time>2026-04-05T11:17:55Z</time></trkpt><trkpt lat="45.663219562257616" lon="8.560369000264927"><ele>323.0</ele><time>2026-04-05T11:17:56Z</time></trkpt><trkpt lat="45.66329800887918" lon="8.560359814052976"><ele>323.0</ele><time>2026-04-05T11:17:57Z</time></trkpt><trkpt lat="45.66341474766141" lon="8.560330775043198"><ele>323.0</ele><time>2026-04-05T11:17:59Z</time></trkpt><trkpt lat="45.66353584382966" lon="8.560297107262068"><ele>323.0</ele><time>2026-04-05T11:18:01Z</time></trkpt><trkpt lat="45.66360428671221" lon="8.560283023441439"><ele>323.5</ele><time>2026-04-05T11:18:02Z</time></trkpt><trkpt lat="45.66367010895391" lon="8.56026959565118"><ele>324.0</ele><time>2026-04-05T11:18:03Z</time></trkpt><trkpt lat="45.663768382657004" lon="8.560232811947841"><ele>324.5</ele><time>2026-04-05T11:18:05Z</time></trkpt><trkpt lat="45.66383929778491" lon="8.56021014695846"><ele>325.0</ele><time>2026-04-05T11:18:06Z</time></trkpt><trkpt lat="45.66390895865359" lon="8.5601990721376"><ele>325.5</ele><time>2026-04-05T11:18:07Z</time></trkpt><trkpt lat="45.66398774944883" lon="8.560190467052445"><ele>326.0</ele><time>2026-04-05T11:18:08Z</time></trkpt><trkpt lat="45.66405343916628" lon="8.560189976223828"><ele>326.0</ele><time>2026-04-05T11:18:09Z</time></trkpt><trkpt lat="45.66416698247996" lon="8.56014518311195"><ele>326.0</ele><time>2026-04-05T11:18:11Z</time></trkpt><trkpt lat="45.664252818864234" lon="8.5601173529683"><ele>326.0</ele><time>2026-04-05T11:18:13Z</time></trkpt><trkpt lat="45.66433563780741" lon="8.560111212914224"><ele>326.0</ele><time>2026-04-05T11:18:15Z</time></trkpt><trkpt lat="45.66439678843477" lon="8.560043114118137"><ele>326.0</ele><time>2026-04-05T11:18:17Z</time></trkpt><trkpt lat="45.664470209211025" lon="8.560023370157317"><ele>326.0</ele><time>2026-04-05T11:18:37Z</time></trkpt><trkpt lat="45.66454236852035" lon="8.559989711412198"><ele>326.6666666666667</ele><time>2026-04-05T11:18:39Z</time></trkpt><trkpt lat="45.66461905988783" lon="8.559954759735486"><ele>327.33333333333337</ele><time>2026-04-05T11:18:42Z</time></trkpt><trkpt lat="45.66469206984041" lon="8.559926825970603"><ele>328.0</ele><time>2026-04-05T11:18:44Z</time></trkpt><trkpt lat="45.66477537747162" lon="8.559923577015004"><ele>328.6666666666667</ele><time>2026-04-05T11:18:46Z</time></trkpt><trkpt lat="45.6648476553628" lon="8.559937378672334"><ele>329.3333333333333</ele><time>2026-04-05T11:18:48Z</time></trkpt><trkpt lat="45.66497965790299" lon="8.559911708165496"><ele>330.0</ele><time>2026-04-05T11:18:50Z</time></trkpt><trkpt lat="45.66504274805939" lon="8.5598866626614"><ele>330.0</ele><time>2026-04-05T11:18:51Z</time></trkpt><trkpt lat="45.66513322921699" lon="8.559895680768893"><ele>330.0</ele><time>2026-04-05T11:18:54Z</time></trkpt><trkpt lat="45.665240421006764" lon="8.559865225840335"><ele>330.0</ele><time>2026-04-05T11:18:56Z</time></trkpt><trkpt lat="45.66533185382719" lon="8.559853703516406"><ele>330.0</ele><time>2026-04-05T11:18:58Z</time></trkpt><trkpt lat="45.66540431231123" lon="8.55984273078094"><ele>330.0</ele><time>2026-04-05T11:19:00Z</time></trkpt><trkpt lat="45.66547429348927" lon="8.559831626955601"><ele>330.0</ele><time>2026-04-05T11:19:02Z</time></trkpt><trkpt lat="45.66555855587764" lon="8.559830363004549"><ele>330.6</ele><time>2026-04-05T11:19:04Z</time></trkpt><trkpt lat="45.6656232801124" lon="8.559829874684828"><ele>331.2</ele><time>2026-04-05T11:19:05Z</time></trkpt><trkpt lat="45.665740621624515" lon="8.559805815057445"><ele>331.79999999999995</ele><time>2026-04-05T11:19:07Z</time></trkpt><trkpt lat="45.66582885620293" lon="8.559830855277553"><ele>332.4</ele><time>2026-04-05T11:19:09Z</time></trkpt><trkpt lat="45.66594678200477" lon="8.559841914984155"><ele>333.0</ele><time>2026-04-05T11:19:11Z</time></trkpt><trkpt lat="45.666066936970644" lon="8.559839371493055"><ele>333.4</ele><time>2026-04-05T11:19:13Z</time></trkpt><trkpt lat="45.666189772157885" lon="8.55986526947853"><ele>333.79999999999995</ele><time>2026-04-05T11:19:15Z</time></trkpt><trkpt lat="45.66625452940047" lon="8.559859993002513"><ele>334.2</ele><time>2026-04-05T11:19:16Z</time></trkpt><trkpt lat="45.66632114063286" lon="8.559864754650867"><ele>334.6</ele><time>2026-04-05T11:19:17Z</time></trkpt><trkpt lat="45.66646505414314" lon="8.559870694411172"><ele>335.0</ele><time>2026-04-05T11:19:19.001Z</time></trkpt><trkpt lat="45.66655622169835" lon="8.559898254432293"><ele>335.0</ele><time>2026-04-05T11:19:20.001Z</time></trkpt><trkpt lat="45.66662602842931" lon="8.559917907960047"><ele>335.0</ele><time>2026-04-05T11:19:21.001Z</time></trkpt><trkpt lat="45.66675207568609" lon="8.559940149463316"><ele>335.0</ele><time>2026-04-05T11:19:23.001Z</time></trkpt><trkpt lat="45.66681947424942" lon="8.559980862703581"><ele>335.0</ele><time>2026-04-05T11:19:24.001Z</time></trkpt><trkpt lat="45.666876010194606" lon="8.560022762918514"><ele>335.0</ele><time>2026-04-05T11:19:25.001Z</time></trkpt><trkpt lat="45.66697451192893" lon="8.560072596841687"><ele>335.0</ele><time>2026-04-05T11:19:27.001Z</time></trkpt><trkpt lat="45.66707584215485" lon="8.560116561734338"><ele>335.2</ele><time>2026-04-05T11:19:29.001Z</time></trkpt><trkpt lat="45.66714820232529" lon="8.560129340954507"><ele>335.4</ele><time>2026-04-05T11:19:31.001Z</time></trkpt><trkpt lat="45.667267735584566" lon="8.560104102238558"><ele>335.6</ele><time>2026-04-05T11:19:33.001Z</time></trkpt><trkpt lat="45.66734015838839" lon="8.56011343316348"><ele>335.8</ele><time>2026-04-05T11:19:34.001Z</time></trkpt><trkpt lat="45.6674237140241" lon="8.560115916663047"><ele>336.0</ele><time>2026-04-05T11:19:35.001Z</time></trkpt><trkpt lat="45.66752309187429" lon="8.560103119374189"><ele>336.0</ele><time>2026-04-05T11:19:36.001Z</time></trkpt><trkpt lat="45.667619006961495" lon="8.560097703708966"><ele>336.0</ele><time>2026-04-05T11:19:37.001Z</time></trkpt><trkpt lat="45.66771488959549" lon="8.560091369651127"><ele>336.0</ele><time>2026-04-05T11:19:38.001Z</time></trkpt><trkpt lat="45.66781057990844" lon="8.56007474153459"><ele>336.0</ele><time>2026-04-05T11:19:39.001Z</time></trkpt><trkpt lat="45.667899277466034" lon="8.56006940518917"><ele>336.0</ele><time>2026-04-05T11:19:40.001Z</time></trkpt><trkpt lat="45.66798648816506" lon="8.560067616866645"><ele>335.5</ele><time>2026-04-05T11:19:41.001Z</time></trkpt><trkpt lat="45.66807836657765" lon="8.560062805706703"><ele>335.0</ele><time>2026-04-05T11:19:42.001Z</time></trkpt><trkpt lat="45.66816422284224" lon="8.560053218327885"><ele>334.5</ele><time>2026-04-05T11:19:43.001Z</time></trkpt><trkpt lat="45.66825632355392" lon="8.560044572664836"><ele>334.0</ele><time>2026-04-05T11:19:44.001Z</time></trkpt><trkpt lat="45.66832603171179" lon="8.56004710253547"><ele>333.5</ele><time>2026-04-05T11:19:45.001Z</time></trkpt><trkpt lat="45.668392395879444" lon="8.56005036379248"><ele>333.0</ele><time>2026-04-05T11:19:46.001Z</time></trkpt><trkpt lat="45.66845663780958" lon="8.560056584450031"><ele>333.0</ele><time>2026-04-05T11:19:47.001Z</time></trkpt><trkpt lat="45.668523647483475" lon="8.560059253618046"><ele>333.0</ele><time>2026-04-05T11:19:48.001Z</time></trkpt><trkpt lat="45.66859430765868" lon="8.560067024444134"><ele>333.0</ele><time>2026-04-05T11:19:49.001Z</time></trkpt><trkpt lat="45.66868180622431" lon="8.560078765745661"><ele>333.0</ele><time>2026-04-05T11:19:50Z</time></trkpt><trkpt lat="45.66876942384319" lon="8.560086983172724"><ele>333.0</ele><time>2026-04-05T11:19:51Z</time></trkpt><trkpt lat="45.668836467134504" lon="8.560089435850157"><ele>333.0</ele><time>2026-04-05T11:19:52Z</time></trkpt><trkpt lat="45.66892315676001" lon="8.56009932616538"><ele>332.0</ele><time>2026-04-05T11:19:54Z</time></trkpt><trkpt lat="45.66896500290306" lon="8.559985891828331"><ele>331.0</ele><time>2026-04-05T11:19:58Z</time></trkpt><trkpt lat="45.66896555788865" lon="8.559872850633933"><ele>330.0</ele><time>2026-04-05T11:19:59Z</time></trkpt><trkpt lat="45.66896788471483" lon="8.559729506293147"><ele>329.0</ele><time>2026-04-05T11:20:01Z</time></trkpt><trkpt lat="45.66898732765584" lon="8.559626991740375"><ele>328.0</ele><time>2026-04-05T11:20:03Z</time></trkpt><trkpt lat="45.66904597893861" lon="8.559578989002505"><ele>327.0</ele><time>2026-04-05T11:20:05Z</time></trkpt><trkpt lat="45.669152001031584" lon="8.559626418343703"><ele>327.0</ele><time>2026-04-05T11:20:07Z</time></trkpt><trkpt lat="45.66921400121317" lon="8.559659404378959"><ele>327.0</ele><time>2026-04-05T11:20:08Z</time></trkpt><trkpt lat="45.66927753217164" lon="8.559685511277802"><ele>327.0</ele><time>2026-04-05T11:20:09Z</time></trkpt><trkpt lat="45.66934504089859" lon="8.559714541279082"><ele>327.0</ele><time>2026-04-05T11:20:10Z</time></trkpt><trkpt lat="45.66945598909127" lon="8.559781724083578"><ele>327.0</ele><time>2026-04-05T11:20:12Z</time></trkpt><trkpt lat="45.66956877573656" lon="8.559839620970697"><ele>327.0</ele><time>2026-04-05T11:20:14Z</time></trkpt><trkpt lat="45.669686529365244" lon="8.559893535178118"><ele>327.0</ele><time>2026-04-05T11:20:16Z</time></trkpt><trkpt lat="45.66975061721273" lon="8.55992405270799"><ele>327.0</ele><time>2026-04-05T11:20:17Z</time></trkpt><trkpt lat="45.6698152080602" lon="8.55994735414083"><ele>327.0</ele><time>2026-04-05T11:20:18Z</time></trkpt><trkpt lat="45.669881627324116" lon="8.559972306383463"><ele>327.0</ele><time>2026-04-05T11:20:19Z</time></trkpt><trkpt lat="45.669947961272996" lon="8.559997432194285"><ele>327.0</ele><time>2026-04-05T11:20:20Z</time></trkpt><trkpt lat="45.67001271080584" lon="8.560028703105713"><ele>327.0</ele><time>2026-04-05T11:20:21Z</time></trkpt><trkpt lat="45.67008463083477" lon="8.560065693471678"><ele>327.0</ele><time>2026-04-05T11:20:22Z</time></trkpt><trkpt lat="45.670158154462904" lon="8.560100515264802"><ele>327.0</ele><time>2026-04-05T11:20:23Z</time></trkpt><trkpt lat="45.670230003858634" lon="8.560135525087897"><ele>327.0</ele><time>2026-04-05T11:20:24Z</time></trkpt><trkpt lat="45.670335570991" lon="8.560179453128816"><ele>327.0</ele><time>2026-04-05T11:20:26Z</time></trkpt><trkpt lat="45.67042863769302" lon="8.560236910286198"><ele>327.0</ele><time>2026-04-05T11:20:28Z</time></trkpt><trkpt lat="45.67049260317498" lon="8.560374161242601"><ele>327.0</ele><time>2026-04-05T11:20:30Z</time></trkpt><trkpt lat="45.67057386268848" lon="8.560435498921885"><ele>328.20000000000005</ele><time>2026-04-05T11:20:32Z</time></trkpt><trkpt lat="45.67066410893448" lon="8.560371051105815"><ele>329.4</ele><time>2026-04-05T11:20:35Z</time></trkpt><trkpt lat="45.67074337050776" lon="8.560267807596825"><ele>330.6</ele><time>2026-04-05T11:20:37Z</time></trkpt><trkpt lat="45.67078408885844" lon="8.560187134553848"><ele>331.79999999999995</ele><time>2026-04-05T11:20:38Z</time></trkpt><trkpt lat="45.670825493331" lon="8.560011853620697"><ele>333.0</ele><time>2026-04-05T11:20:40Z</time></trkpt><trkpt lat="45.67081973590832" lon="8.559913625526068"><ele>333.0</ele><time>2026-04-05T11:20:41Z</time></trkpt><trkpt lat="45.67079031727775" lon="8.559795461094389"><ele>333.0</ele><time>2026-04-05T11:20:42Z</time></trkpt><trkpt lat="45.670770268875835" lon="8.559666515106578"><ele>333.0</ele><time>2026-04-05T11:20:43Z</time></trkpt><trkpt lat="45.67075309329704" lon="8.559504566198866"><ele>333.0</ele><time>2026-04-05T11:20:44Z</time></trkpt><trkpt lat="45.6707509440811" lon="8.559370769854818"><ele>333.0</ele><time>2026-04-05T11:20:45Z</time></trkpt><trkpt lat="45.67075893188783" lon="8.559251344634857"><ele>332.6666666666667</ele><time>2026-04-05T11:20:46Z</time></trkpt><trkpt lat="45.670773186581044" lon="8.559121261335946"><ele>332.3333333333333</ele><time>2026-04-05T11:20:47Z</time></trkpt><trkpt lat="45.67077229647729" lon="8.558986281663817"><ele>332.0</ele><time>2026-04-05T11:20:48Z</time></trkpt><trkpt lat="45.6707720836197" lon="8.558868238104735"><ele>331.66666666666663</ele><time>2026-04-05T11:20:49Z</time></trkpt><trkpt lat="45.670795582003" lon="8.55875688072808"><ele>331.3333333333333</ele><time>2026-04-05T11:20:50Z</time></trkpt><trkpt lat="45.670803643440806" lon="8.558657260776807"><ele>331.0</ele><time>2026-04-05T11:20:51Z</time></trkpt><trkpt lat="45.670832124413124" lon="8.558483085781784"><ele>331.0</ele><time>2026-04-05T11:20:53Z</time></trkpt><trkpt lat="45.67083102456935" lon="8.558390475047476"><ele>331.0</ele><time>2026-04-05T11:20:54Z</time></trkpt><trkpt lat="45.67085113277783" lon="8.55821530119993"><ele>331.0</ele><time>2026-04-05T11:20:56Z</time></trkpt><trkpt lat="45.67086829497835" lon="8.558067361718201"><ele>331.0</ele><time>2026-04-05T11:20:58Z</time></trkpt><trkpt lat="45.67097400847189" lon="8.557987823676003"><ele>331.0</ele><time>2026-04-05T11:21:00Z</time></trkpt><trkpt lat="45.6710456074609" lon="8.558027121466404"><ele>331.16666666666663</ele><time>2026-04-05T11:21:01Z</time></trkpt><trkpt lat="45.671114338579805" lon="8.55802093209119"><ele>331.3333333333333</ele><time>2026-04-05T11:21:02Z</time></trkpt><trkpt lat="45.67119035248927" lon="8.558003952301602"><ele>331.5</ele><time>2026-04-05T11:21:03Z</time></trkpt><trkpt lat="45.671264732119" lon="8.557956832332744"><ele>331.6666666666667</ele><time>2026-04-05T11:21:04Z</time></trkpt><trkpt lat="45.671351801451884" lon="8.557927074190124"><ele>331.83333333333337</ele><time>2026-04-05T11:21:05Z</time></trkpt><trkpt lat="45.67144170531323" lon="8.557920487366193"><ele>332.0</ele><time>2026-04-05T11:21:06Z</time></trkpt><trkpt lat="45.67152456882361" lon="8.557871199005806"><ele>332.6666666666667</ele><time>2026-04-05T11:21:07Z</time></trkpt><trkpt lat="45.671607726202716" lon="8.557867098416889"><ele>333.33333333333337</ele><time>2026-04-05T11:21:08Z</time></trkpt><trkpt lat="45.671691726417876" lon="8.557839946170345"><ele>334.0</ele><time>2026-04-05T11:21:09Z</time></trkpt><trkpt lat="45.671771913330126" lon="8.557814598956142"><ele>334.6666666666667</ele><time>2026-04-05T11:21:10Z</time></trkpt><trkpt lat="45.671853316768505" lon="8.557794920553745"><ele>335.3333333333333</ele><time>2026-04-05T11:21:11Z</time></trkpt><trkpt lat="45.67194784534789" lon="8.557774701183092"><ele>336.0</ele><time>2026-04-05T11:21:12Z</time></trkpt><trkpt lat="45.67203566326972" lon="8.557758702551949"><ele>336.0</ele><time>2026-04-05T11:21:13Z</time></trkpt><trkpt lat="45.6721411170393" lon="8.557741007003084"><ele>336.0</ele><time>2026-04-05T11:21:14Z</time></trkpt><trkpt lat="45.67224816951124" lon="8.557722815739384"><ele>336.0</ele><time>2026-04-05T11:21:15Z</time></trkpt><trkpt lat="45.67235058990469" lon="8.557705384323771"><ele>336.0</ele><time>2026-04-05T11:21:16Z</time></trkpt><trkpt lat="45.67243444874305" lon="8.557669514238528"><ele>336.0</ele><time>2026-04-05T11:21:17Z</time></trkpt><trkpt lat="45.672513619122405" lon="8.55767978657545"><ele>336.0</ele><time>2026-04-05T11:21:18Z</time></trkpt><trkpt lat="45.67259086820743" lon="8.557667968979517"><ele>336.0</ele><time>2026-04-05T11:21:19Z</time></trkpt><trkpt lat="45.672660182756914" lon="8.557657434508734"><ele>336.0</ele><time>2026-04-05T11:21:20Z</time></trkpt><trkpt lat="45.672726506336865" lon="8.557646765086218"><ele>336.0</ele><time>2026-04-05T11:21:21Z</time></trkpt><trkpt lat="45.672789862238076" lon="8.557636318381617"><ele>336.0</ele><time>2026-04-05T11:21:22Z</time></trkpt><trkpt lat="45.6728031873432" lon="8.557830446842981"><ele>336.0</ele><time>2026-04-05T11:22:04Z</time></trkpt><trkpt lat="45.67281785623106" lon="8.557959702952202"><ele>336.5</ele><time>2026-04-05T11:22:06Z</time></trkpt><trkpt lat="45.67285118765451" lon="8.558083417132625"><ele>337.0</ele><time>2026-04-05T11:22:08Z</time></trkpt><trkpt lat="45.67287592712702" lon="8.558211902367907"><ele>337.5</ele><time>2026-04-05T11:22:10Z</time></trkpt><trkpt lat="45.67289634615232" lon="8.55831794905323"><ele>338.0</ele><time>2026-04-05T11:22:11Z</time></trkpt><trkpt lat="45.672863855926664" lon="8.558406900144936"><ele>338.5</ele><time>2026-04-05T11:22:12Z</time></trkpt><trkpt lat="45.672849347760675" lon="8.558497100457725"><ele>339.0</ele><time>2026-04-05T11:22:14Z</time></trkpt><trkpt lat="45.67315349247558" lon="8.558689482048354"><ele>339.1666666666667</ele><time>2026-04-05T11:22:15Z</time></trkpt><trkpt lat="45.673198787080594" lon="8.558787695497495"><ele>339.3333333333333</ele><time>2026-04-05T11:22:16Z</time></trkpt><trkpt lat="45.67324973433884" lon="8.558882454749474"><ele>339.5</ele><time>2026-04-05T11:22:17Z</time></trkpt><trkpt lat="45.67330617603744" lon="8.558976532108533"><ele>339.66666666666663</ele><time>2026-04-05T11:22:18Z</time></trkpt><trkpt lat="45.67337883974089" lon="8.559061156052998"><ele>339.8333333333333</ele><time>2026-04-05T11:22:19Z</time></trkpt><trkpt lat="45.67343001215267" lon="8.559155744447436"><ele>340.0</ele><time>2026-04-05T11:22:20Z</time></trkpt><trkpt lat="45.673469558214116" lon="8.55924058038047"><ele>340.0</ele><time>2026-04-05T11:22:21Z</time></trkpt><trkpt lat="45.67349385946116" lon="8.559328662400453"><ele>340.0</ele><time>2026-04-05T11:22:22Z</time></trkpt><trkpt lat="45.67351787794372" lon="8.559437232874851"><ele>340.0</ele><time>2026-04-05T11:22:23Z</time></trkpt><trkpt lat="45.673538069779084" lon="8.559559328279905"><ele>340.0</ele><time>2026-04-05T11:22:24Z</time></trkpt><trkpt lat="45.673566995345" lon="8.559676333176583"><ele>340.0</ele><time>2026-04-05T11:22:25Z</time></trkpt><trkpt lat="45.67360235357747" lon="8.55979496032576"><ele>340.0</ele><time>2026-04-05T11:22:26Z</time></trkpt><trkpt lat="45.67362769287431" lon="8.559902233179885"><ele>339.3333333333333</ele><time>2026-04-05T11:22:27Z</time></trkpt><trkpt lat="45.673646325127216" lon="8.55999081566339"><ele>338.66666666666663</ele><time>2026-04-05T11:22:28Z</time></trkpt><trkpt lat="45.67368022378916" lon="8.560144443742272"><ele>338.0</ele><time>2026-04-05T11:22:30Z</time></trkpt><trkpt lat="45.67369720806249" lon="8.560231342263164"><ele>337.3333333333333</ele><time>2026-04-05T11:22:31Z</time></trkpt><trkpt lat="45.67371631935554" lon="8.560381744140656"><ele>336.6666666666667</ele><time>2026-04-05T11:22:33Z</time></trkpt><trkpt lat="45.67378120692657" lon="8.560437104231548"><ele>336.0</ele><time>2026-04-05T11:22:35Z</time></trkpt><trkpt lat="45.673929587754486" lon="8.56044537768677"><ele>336.0</ele><time>2026-04-05T11:22:37Z</time></trkpt><trkpt lat="45.6740498585091" lon="8.560423611250105"><ele>336.0</ele><time>2026-04-05T11:22:38Z</time></trkpt><trkpt lat="45.67414213232105" lon="8.560385937272631"><ele>336.0</ele><time>2026-04-05T11:22:39Z</time></trkpt><trkpt lat="45.67421294317674" lon="8.560331424576088"><ele>336.0</ele><time>2026-04-05T11:22:40Z</time></trkpt><trkpt lat="45.67428538268509" lon="8.560366912993118"><ele>336.0</ele><time>2026-04-05T11:22:41Z</time></trkpt><trkpt lat="45.67437870988647" lon="8.560399432513162"><ele>335.5</ele><time>2026-04-05T11:22:43Z</time></trkpt><trkpt lat="45.67448154234174" lon="8.560447110952039"><ele>335.0</ele><time>2026-04-05T11:22:45Z</time></trkpt><trkpt lat="45.67455917973999" lon="8.560464906299442"><ele>334.5</ele><time>2026-04-05T11:22:46Z</time></trkpt><trkpt lat="45.67463328004283" lon="8.56053148661681"><ele>334.0</ele><time>2026-04-05T11:22:47Z</time></trkpt><trkpt lat="45.6747180105773" lon="8.560552082842072"><ele>333.5</ele><time>2026-04-05T11:22:48Z</time></trkpt><trkpt lat="45.674799267520385" lon="8.560586754384703"><ele>333.0</ele><time>2026-04-05T11:22:49Z</time></trkpt><trkpt lat="45.67488298111824" lon="8.560640240853814"><ele>333.0</ele><time>2026-04-05T11:22:50Z</time></trkpt><trkpt lat="45.67496818884353" lon="8.5606512044223"><ele>333.0</ele><time>2026-04-05T11:22:51Z</time></trkpt><trkpt lat="45.67503494921877" lon="8.560693059120975"><ele>333.0</ele><time>2026-04-05T11:22:52Z</time></trkpt><trkpt lat="45.67515146547719" lon="8.560709443738327"><ele>333.0</ele><time>2026-04-05T11:22:54Z</time></trkpt><trkpt lat="45.67521238595338" lon="8.560760021027413"><ele>333.0</ele><time>2026-04-05T11:22:57Z</time></trkpt><trkpt lat="45.67532144880267" lon="8.560570882081597"><ele>333.3333333333333</ele><time>2026-04-05T11:23:00Z</time></trkpt><trkpt lat="45.675380543990315" lon="8.560417916744488"><ele>333.6666666666667</ele><time>2026-04-05T11:23:02Z</time></trkpt><trkpt lat="45.67540332734394" lon="8.560332635254525"><ele>334.0</ele><time>2026-04-05T11:23:03Z</time></trkpt><trkpt lat="45.67542959680032" lon="8.560246562789812"><ele>334.33333333333337</ele><time>2026-04-05T11:23:04Z</time></trkpt><trkpt lat="45.67545243643694" lon="8.560158853172094"><ele>334.6666666666667</ele><time>2026-04-05T11:23:05Z</time></trkpt><trkpt lat="45.675474800992745" lon="8.560065351235659"><ele>335.0</ele><time>2026-04-05T11:23:06Z</time></trkpt><trkpt lat="45.675499735387206" lon="8.559970365442343"><ele>335.2</ele><time>2026-04-05T11:23:07Z</time></trkpt><trkpt lat="45.67552107011954" lon="8.559877144085267"><ele>335.4</ele><time>2026-04-05T11:23:08Z</time></trkpt><trkpt lat="45.675542869614986" lon="8.559792318699321"><ele>335.6</ele><time>2026-04-05T11:23:09Z</time></trkpt><trkpt lat="45.67558580571563" lon="8.559634849936305"><ele>335.8</ele><time>2026-04-05T11:23:11Z</time></trkpt><trkpt lat="45.67562784594506" lon="8.559475701970257"><ele>336.0</ele><time>2026-04-05T11:23:12.999Z</time></trkpt><trkpt lat="45.67566754057407" lon="8.559315612310604"><ele>335.6666666666667</ele><time>2026-04-05T11:23:14.999Z</time></trkpt><trkpt lat="45.67570766305207" lon="8.559150056245128"><ele>335.3333333333333</ele><time>2026-04-05T11:23:16.999Z</time></trkpt><trkpt lat="45.675733888270074" lon="8.559063804559434"><ele>335.0</ele><time>2026-04-05T11:23:17.999Z</time></trkpt><trkpt lat="45.67575639797209" lon="8.558976252215981"><ele>334.66666666666663</ele><time>2026-04-05T11:23:18.999Z</time></trkpt><trkpt lat="45.67577830533982" lon="8.558885920415511"><ele>334.3333333333333</ele><time>2026-04-05T11:23:19.999Z</time></trkpt><trkpt lat="45.67582302527574" lon="8.55871875170652"><ele>334.0</ele><time>2026-04-05T11:23:21.999Z</time></trkpt><trkpt lat="45.675850275914634" lon="8.55863292417424"><ele>333.8333333333333</ele><time>2026-04-05T11:23:22.999Z</time></trkpt><trkpt lat="45.675874899228866" lon="8.558530382120464"><ele>333.66666666666663</ele><time>2026-04-05T11:23:23.999Z</time></trkpt><trkpt lat="45.675899905684574" lon="8.558423739145343"><ele>333.5</ele><time>2026-04-05T11:23:24.999Z</time></trkpt><trkpt lat="45.675931320320444" lon="8.55831991414349"><ele>333.3333333333333</ele><time>2026-04-05T11:23:25.999Z</time></trkpt><trkpt lat="45.6759656423206" lon="8.558215787968875"><ele>333.1666666666667</ele><time>2026-04-05T11:23:26.999Z</time></trkpt><trkpt lat="45.67600958907437" lon="8.558110803054701"><ele>333.0</ele><time>2026-04-05T11:23:27.999Z</time></trkpt><trkpt lat="45.67606088001078" lon="8.558006046118416"><ele>333.0</ele><time>2026-04-05T11:23:28.999Z</time></trkpt><trkpt lat="45.67612371761095" lon="8.557903766274057"><ele>333.0</ele><time>2026-04-05T11:23:30Z</time></trkpt><trkpt lat="45.676190105910145" lon="8.557807010543304"><ele>333.0</ele><time>2026-04-05T11:23:31Z</time></trkpt><trkpt lat="45.676261781319226" lon="8.557718314338283"><ele>333.0</ele><time>2026-04-05T11:23:32Z</time></trkpt><trkpt lat="45.67635213881152" lon="8.557647327262243"><ele>333.0</ele><time>2026-04-05T11:23:33Z</time></trkpt><trkpt lat="45.67644780538244" lon="8.55758917297526"><ele>333.0</ele><time>2026-04-05T11:23:34Z</time></trkpt><trkpt lat="45.67653676561045" lon="8.557538070346826"><ele>333.0</ele><time>2026-04-05T11:23:35Z</time></trkpt><trkpt lat="45.67661579920858" lon="8.55747091253328"><ele>333.0</ele><time>2026-04-05T11:23:36Z</time></trkpt><trkpt lat="45.67667543291527" lon="8.557376667649685"><ele>333.0</ele><time>2026-04-05T11:23:37Z</time></trkpt><trkpt lat="45.676707479397635" lon="8.557263415804721"><ele>333.0</ele><time>2026-04-05T11:23:38Z</time></trkpt><trkpt lat="45.67672355050093" lon="8.5571307665838"><ele>332.79999999999995</ele><time>2026-04-05T11:23:39Z</time></trkpt><trkpt lat="45.676737668741104" lon="8.55698609307401"><ele>332.6</ele><time>2026-04-05T11:23:40Z</time></trkpt><trkpt lat="45.67675814006146" lon="8.556837801533757"><ele>332.4</ele><time>2026-04-05T11:23:41Z</time></trkpt><trkpt lat="45.6767789863507" lon="8.55668087778324"><ele>332.20000000000005</ele><time>2026-04-05T11:23:42Z</time></trkpt><trkpt lat="45.67679972748038" lon="8.556514407139394"><ele>332.0</ele><time>2026-04-05T11:23:43Z</time></trkpt><trkpt lat="45.67682229360306" lon="8.556341022210834"><ele>331.75</ele><time>2026-04-05T11:23:44Z</time></trkpt><trkpt lat="45.67684440322755" lon="8.556162587110276"><ele>331.5</ele><time>2026-04-05T11:23:45Z</time></trkpt><trkpt lat="45.67686493735818" lon="8.555978925167983"><ele>331.25</ele><time>2026-04-05T11:23:46Z</time></trkpt><trkpt lat="45.67688630719173" lon="8.555803587803544"><ele>331.0</ele><time>2026-04-05T11:23:47Z</time></trkpt><trkpt lat="45.676909618826826" lon="8.555632325965204"><ele>331.0</ele><time>2026-04-05T11:23:48Z</time></trkpt><trkpt lat="45.67693167865846" lon="8.555457047950997"><ele>331.0</ele><time>2026-04-05T11:23:49Z</time></trkpt><trkpt lat="45.676954314535976" lon="8.555279160873294"><ele>331.0</ele><time>2026-04-05T11:23:50Z</time></trkpt><trkpt lat="45.67697378196052" lon="8.555096346661099"><ele>331.0</ele><time>2026-04-05T11:23:51Z</time></trkpt><trkpt lat="45.67698552921616" lon="8.554902103119618"><ele>331.0</ele><time>2026-04-05T11:23:52Z</time></trkpt><trkpt lat="45.67698804485545" lon="8.554694934463452"><ele>331.0</ele><time>2026-04-05T11:23:53Z</time></trkpt><trkpt lat="45.67697915370755" lon="8.554487261176059"><ele>331.0</ele><time>2026-04-05T11:23:54Z</time></trkpt><trkpt lat="45.676954410289945" lon="8.554284639860398"><ele>331.0</ele><time>2026-04-05T11:23:55Z</time></trkpt><trkpt lat="45.67692295596701" lon="8.554083601315597"><ele>330.75</ele><time>2026-04-05T11:23:56Z</time></trkpt><trkpt lat="45.67688886955739" lon="8.55389497285042"><ele>330.5</ele><time>2026-04-05T11:23:57Z</time></trkpt><trkpt lat="45.676855420405005" lon="8.553719183196337"><ele>330.25</ele><time>2026-04-05T11:23:58Z</time></trkpt><trkpt lat="45.67681663696711" lon="8.553552114591026"><ele>330.0</ele><time>2026-04-05T11:23:59Z</time></trkpt><trkpt lat="45.67679350557383" lon="8.553392528107619"><ele>330.6666666666667</ele><time>2026-04-05T11:24:00Z</time></trkpt><trkpt lat="45.67676416117091" lon="8.553257124863338"><ele>331.3333333333333</ele><time>2026-04-05T11:24:01Z</time></trkpt><trkpt lat="45.67673033536561" lon="8.55313887499008"><ele>332.0</ele><time>2026-04-05T11:24:02Z</time></trkpt><trkpt lat="45.676716059285596" lon="8.5530270317011"><ele>332.66666666666663</ele><time>2026-04-05T11:24:03Z</time></trkpt><trkpt lat="45.676710672354865" lon="8.55292191679752"><ele>333.3333333333333</ele><time>2026-04-05T11:24:04Z</time></trkpt><trkpt lat="45.67672492181942" lon="8.552796273708115"><ele>334.0</ele><time>2026-04-05T11:24:06Z</time></trkpt><trkpt lat="45.67691175258901" lon="8.55276388538722"><ele>334.79999999999995</ele><time>2026-04-05T11:24:08Z</time></trkpt><trkpt lat="45.67700186644692" lon="8.552762043202938"><ele>335.59999999999997</ele><time>2026-04-05T11:24:09Z</time></trkpt><trkpt lat="45.67709705176664" lon="8.552779266353664"><ele>336.4</ele><time>2026-04-05T11:24:10Z</time></trkpt><trkpt lat="45.67719441254847" lon="8.552763258101301"><ele>337.2</ele><time>2026-04-05T11:24:11Z</time></trkpt><trkpt lat="45.67729274552326" lon="8.552734062519363"><ele>338.0</ele><time>2026-04-05T11:24:12Z</time></trkpt><trkpt lat="45.67740151411632" lon="8.552746219706473"><ele>338.0</ele><time>2026-04-05T11:24:13Z</time></trkpt><trkpt lat="45.677511956308486" lon="8.552772415794955"><ele>338.0</ele><time>2026-04-05T11:24:14Z</time></trkpt><trkpt lat="45.67762797166789" lon="8.552817673129939"><ele>338.0</ele><time>2026-04-05T11:24:15Z</time></trkpt><trkpt lat="45.67774998236517" lon="8.552892341474658"><ele>338.0</ele><time>2026-04-05T11:24:16Z</time></trkpt><trkpt lat="45.67787796883224" lon="8.552971687673617"><ele>338.5</ele><time>2026-04-05T11:24:17Z</time></trkpt><trkpt lat="45.67801150158097" lon="8.553035724946403"><ele>339.0</ele><time>2026-04-05T11:24:18Z</time></trkpt><trkpt lat="45.678151738487415" lon="8.55307476275717"><ele>339.5</ele><time>2026-04-05T11:24:19Z</time></trkpt><trkpt lat="45.678300699402264" lon="8.553109751274818"><ele>340.0</ele><time>2026-04-05T11:24:20Z</time></trkpt><trkpt lat="45.67845232376487" lon="8.553164834041178"><ele>340.3333333333333</ele><time>2026-04-05T11:24:21Z</time></trkpt><trkpt lat="45.67862050070274" lon="8.55322687754823"><ele>340.6666666666667</ele><time>2026-04-05T11:24:22Z</time></trkpt><trkpt lat="45.678768148048" lon="8.553303350841462"><ele>341.0</ele><time>2026-04-05T11:24:23Z</time></trkpt><trkpt lat="45.67890568877729" lon="8.55335075186192"><ele>341.0</ele><time>2026-04-05T11:24:24Z</time></trkpt><trkpt lat="45.679031171473014" lon="8.553394441279675"><ele>341.0</ele><time>2026-04-05T11:24:25Z</time></trkpt><trkpt lat="45.67914513283364" lon="8.55342058858827"><ele>341.0</ele><time>2026-04-05T11:24:26Z</time></trkpt><trkpt lat="45.67923787136785" lon="8.553465859694647"><ele>341.0</ele><time>2026-04-05T11:24:27Z</time></trkpt><trkpt lat="45.6793209224564" lon="8.553495300886887"><ele>341.0</ele><time>2026-04-05T11:24:28Z</time></trkpt><trkpt lat="45.679401164820824" lon="8.553531682930513"><ele>341.1666666666667</ele><time>2026-04-05T11:24:29Z</time></trkpt><trkpt lat="45.679485468728316" lon="8.55355856908179"><ele>341.33333333333337</ele><time>2026-04-05T11:24:30Z</time></trkpt><trkpt lat="45.679570725344256" lon="8.5535809200825"><ele>341.5</ele><time>2026-04-05T11:24:31Z</time></trkpt><trkpt lat="45.67964999949581" lon="8.553612468998391"><ele>341.6666666666667</ele><time>2026-04-05T11:24:32Z</time></trkpt><trkpt lat="45.67972418650962" lon="8.553626717281917"><ele>341.8333333333333</ele><time>2026-04-05T11:24:33Z</time></trkpt><trkpt lat="45.67980434176788" lon="8.553645380763232"><ele>342.0</ele><time>2026-04-05T11:24:34Z</time></trkpt><trkpt lat="45.67989117224925" lon="8.553666372459457"><ele>342.0</ele><time>2026-04-05T11:24:35Z</time></trkpt><trkpt lat="45.67998076199355" lon="8.5536813137045"><ele>342.0</ele><time>2026-04-05T11:24:36Z</time></trkpt><trkpt lat="45.68007100531297" lon="8.553720326740306"><ele>342.0</ele><time>2026-04-05T11:24:37Z</time></trkpt><trkpt lat="45.68017173191884" lon="8.553741156026055"><ele>342.0</ele><time>2026-04-05T11:24:38Z</time></trkpt><trkpt lat="45.68027590844346" lon="8.553740346027963"><ele>342.0</ele><time>2026-04-05T11:24:39Z</time></trkpt><trkpt lat="45.68036815270205" lon="8.553763178331295"><ele>340.0</ele><time>2026-04-05T11:24:40Z</time></trkpt><trkpt lat="45.68044492589904" lon="8.553780268923942"><ele>340.0</ele><time>2026-04-05T11:24:41Z</time></trkpt><trkpt lat="45.680510369074966" lon="8.553794498514774"><ele>340.0</ele><time>2026-04-05T11:24:42Z</time></trkpt><trkpt lat="45.680604065041074" lon="8.55381252306234"><ele>340.0</ele><time>2026-04-05T11:24:44Z</time></trkpt><trkpt lat="45.68066512955569" lon="8.553836761426057"><ele>340.0</ele><time>2026-04-05T11:24:48Z</time></trkpt><trkpt lat="45.680740984972125" lon="8.553853992933087"><ele>340.0</ele><time>2026-04-05T11:25:27.999Z</time></trkpt></trkseg><trkseg><trkpt lat="45.680784186358665" lon="8.553737319105428"><ele>340.0</ele><time>2026-04-05T11:55:37.66Z</time></trkpt><trkpt lat="45.68071217952668" lon="8.553757216780872"><ele>340.0</ele><time>2026-04-05T11:58:31.999Z</time></trkpt><trkpt lat="45.68079112198799" lon="8.553815780182017"><ele>340.0</ele><time>2026-04-05T11:58:57.999Z</time></trkpt><trkpt lat="45.68086936447482" lon="8.553873267407837"><ele>340.0</ele><time>2026-04-05T11:58:59.999Z</time></trkpt><trkpt lat="45.68097084154088" lon="8.553930728394812"><ele>340.0</ele><time>2026-04-05T11:59:01.999Z</time></trkpt><trkpt lat="45.681086010580536" lon="8.554005432128804"><ele>340.2857142857143</ele><time>2026-04-05T11:59:03.998Z</time></trkpt><trkpt lat="45.681148376848085" lon="8.554043803226001"><ele>340.57142857142856</ele><time>2026-04-05T11:59:04.998Z</time></trkpt><trkpt lat="45.68121066173136" lon="8.554082171778763"><ele>340.85714285714283</ele><time>2026-04-05T11:59:05.998Z</time></trkpt><trkpt lat="45.68127327555015" lon="8.554128793822626"><ele>341.1428571428571</ele><time>2026-04-05T11:59:06.998Z</time></trkpt><trkpt lat="45.68133719051308" lon="8.554169499593257"><ele>341.42857142857144</ele><time>2026-04-05T11:59:07.998Z</time></trkpt><trkpt lat="45.68140267917082" lon="8.55421365342928"><ele>341.71428571428567</ele><time>2026-04-05T11:59:08.998Z</time></trkpt><trkpt lat="45.681469985536076" lon="8.554259857349829"><ele>342.0</ele><time>2026-04-05T11:59:09.998Z</time></trkpt><trkpt lat="45.68153763123904" lon="8.554304558589148"><ele>342.0</ele><time>2026-04-05T11:59:10.998Z</time></trkpt><trkpt lat="45.68160893035344" lon="8.554354099397878"><ele>342.0</ele><time>2026-04-05T11:59:11.998Z</time></trkpt><trkpt lat="45.681677547045226" lon="8.554397562441084"><ele>342.0</ele><time>2026-04-05T11:59:12.998Z</time></trkpt><trkpt lat="45.681747618788464" lon="8.5544403121694"><ele>342.0</ele><time>2026-04-05T11:59:13.998Z</time></trkpt><trkpt lat="45.68181897131003" lon="8.554481850824867"><ele>342.0</ele><time>2026-04-05T11:59:14.998Z</time></trkpt><trkpt lat="45.68189004809644" lon="8.554530519311847"><ele>342.0</ele><time>2026-04-05T11:59:15.998Z</time></trkpt><trkpt lat="45.68196149286982" lon="8.554578571973954"><ele>342.8333333333333</ele><time>2026-04-05T11:59:16.998Z</time></trkpt><trkpt lat="45.68203508955294" lon="8.55462387451686"><ele>343.6666666666667</ele><time>2026-04-05T11:59:17.998Z</time></trkpt><trkpt lat="45.682098306654886" lon="8.554686926473227"><ele>344.5</ele><time>2026-04-05T11:59:18.998Z</time></trkpt><trkpt lat="45.68218127832907" lon="8.55472128504088"><ele>345.33333333333337</ele><time>2026-04-05T11:59:19.998Z</time></trkpt><trkpt lat="45.682252266147934" lon="8.554773512136574"><ele>346.1666666666667</ele><time>2026-04-05T11:59:20.998Z</time></trkpt><trkpt lat="45.68232618278744" lon="8.554825448231144"><ele>347.0</ele><time>2026-04-05T11:59:21.998Z</time></trkpt><trkpt lat="45.682403240630656" lon="8.554877169614324"><ele>347.0</ele><time>2026-04-05T11:59:22.998Z</time></trkpt><trkpt lat="45.68248524751083" lon="8.554929608417002"><ele>347.0</ele><time>2026-04-05T11:59:23.998Z</time></trkpt><trkpt lat="45.68256871633455" lon="8.554984399979343"><ele>347.0</ele><time>2026-04-05T11:59:24.998Z</time></trkpt><trkpt lat="45.68265447338744" lon="8.555036326628905"><ele>347.0</ele><time>2026-04-05T11:59:25.998Z</time></trkpt><trkpt lat="45.68274154338429" lon="8.555095269018018"><ele>347.0</ele><time>2026-04-05T11:59:26.998Z</time></trkpt><trkpt lat="45.68282768043001" lon="8.555155739830589"><ele>346.8</ele><time>2026-04-05T11:59:27.998Z</time></trkpt><trkpt lat="45.68291620176013" lon="8.555214738538496"><ele>346.6</ele><time>2026-04-05T11:59:28.998Z</time></trkpt><trkpt lat="45.68300410745731" lon="8.555268699105566"><ele>346.40000000000003</ele><time>2026-04-05T11:59:29.998Z</time></trkpt><trkpt lat="45.683088389913706" lon="8.555323769602863"><ele>346.20000000000005</ele><time>2026-04-05T11:59:30.998Z</time></trkpt><trkpt lat="45.6831717657193" lon="8.555376315136426"><ele>346.0</ele><time>2026-04-05T11:59:31.998Z</time></trkpt><trkpt lat="45.68325378677122" lon="8.555432492211162"><ele>346.0</ele><time>2026-04-05T11:59:32.998Z</time></trkpt><trkpt lat="45.683336319174174" lon="8.555488313148345"><ele>346.0</ele><time>2026-04-05T11:59:33.998Z</time></trkpt><trkpt lat="45.68341947095" lon="8.55554170531621"><ele>346.0</ele><time>2026-04-05T11:59:34.998Z</time></trkpt><trkpt lat="45.683499012887715" lon="8.555593959532782"><ele>346.0</ele><time>2026-04-05T11:59:35.998Z</time></trkpt><trkpt lat="45.6835791341609" lon="8.555659959797454"><ele>346.0</ele><time>2026-04-05T11:59:36.998Z</time></trkpt><trkpt lat="45.68365629872027" lon="8.555733838674348"><ele>346.8</ele><time>2026-04-05T11:59:37.998Z</time></trkpt><trkpt lat="45.683732810467156" lon="8.55582400799569"><ele>347.6</ele><time>2026-04-05T11:59:38.998Z</time></trkpt><trkpt lat="45.68379968336607" lon="8.555924351595136"><ele>348.4</ele><time>2026-04-05T11:59:39.998Z</time></trkpt><trkpt lat="45.68385896022189" lon="8.556035094146036"><ele>349.2</ele><time>2026-04-05T11:59:40.998Z</time></trkpt><trkpt lat="45.683916042094644" lon="8.556149067555648"><ele>350.0</ele><time>2026-04-05T11:59:41.998Z</time></trkpt><trkpt lat="45.68397394484284" lon="8.556267810750116"><ele>350.8</ele><time>2026-04-05T11:59:42.998Z</time></trkpt><trkpt lat="45.68402945914543" lon="8.556384483438272"><ele>351.6</ele><time>2026-04-05T11:59:43.998Z</time></trkpt><trkpt lat="45.68408646817795" lon="8.556503349710507"><ele>352.4</ele><time>2026-04-05T11:59:44.998Z</time></trkpt><trkpt lat="45.68414786615314" lon="8.556610795609725"><ele>353.2</ele><time>2026-04-05T11:59:45.998Z</time></trkpt><trkpt lat="45.68420145731433" lon="8.556729914496444"><ele>354.0</ele><time>2026-04-05T11:59:46.998Z</time></trkpt><trkpt lat="45.68427048132233" lon="8.556834987591069"><ele>354.0</ele><time>2026-04-05T11:59:47.998Z</time></trkpt><trkpt lat="45.68434243077024" lon="8.556934164525833"><ele>354.0</ele><time>2026-04-05T11:59:48.998Z</time></trkpt><trkpt lat="45.68441997453562" lon="8.557030527222373"><ele>354.0</ele><time>2026-04-05T11:59:49.998Z</time></trkpt><trkpt lat="45.68450113123201" lon="8.55712682403041"><ele>354.0</ele><time>2026-04-05T11:59:50.999Z</time></trkpt><trkpt lat="45.68458019240951" lon="8.557220172475024"><ele>354.0</ele><time>2026-04-05T11:59:51.999Z</time></trkpt><trkpt lat="45.68466028081768" lon="8.557310225815646"><ele>355.4</ele><time>2026-04-05T11:59:52.999Z</time></trkpt><trkpt lat="45.684750457886054" lon="8.557382012749498"><ele>356.79999999999995</ele><time>2026-04-05T11:59:53.999Z</time></trkpt><trkpt lat="45.68483028816154" lon="8.557469498395859"><ele>358.20000000000005</ele><time>2026-04-05T11:59:54.999Z</time></trkpt><trkpt lat="45.684912375984034" lon="8.557550540028863"><ele>359.6</ele><time>2026-04-05T11:59:55.999Z</time></trkpt><trkpt lat="45.68499389787544" lon="8.55762925370645"><ele>361.0</ele><time>2026-04-05T11:59:56.999Z</time></trkpt><trkpt lat="45.685074425433434" lon="8.557706766549638"><ele>361.0</ele><time>2026-04-05T11:59:57.999Z</time></trkpt><trkpt lat="45.685159695386666" lon="8.557774299410333"><ele>361.0</ele><time>2026-04-05T11:59:58.999Z</time></trkpt><trkpt lat="45.68524561486919" lon="8.557836802036233"><ele>361.0</ele><time>2026-04-05T11:59:59.999Z</time></trkpt><trkpt lat="45.68532717050352" lon="8.55791578172497"><ele>361.0</ele><time>2026-04-05T12:00:00.999Z</time></trkpt><trkpt lat="45.68542601432697" lon="8.55794780610633"><ele>361.0</ele><time>2026-04-05T12:00:01.999Z</time></trkpt><trkpt lat="45.68552038841583" lon="8.55799566350655"><ele>361.0</ele><time>2026-04-05T12:00:02.999Z</time></trkpt><trkpt lat="45.685612242470086" lon="8.558058530140801"><ele>361.0</ele><time>2026-04-05T12:00:03.999Z</time></trkpt><trkpt lat="45.6857149075894" lon="8.558097884422386"><ele>361.0</ele><time>2026-04-05T12:00:04.999Z</time></trkpt><trkpt lat="45.68581717609455" lon="8.558136147360367"><ele>361.0</ele><time>2026-04-05T12:00:05.999Z</time></trkpt><trkpt lat="45.68592380169225" lon="8.558175481935768"><ele>361.0</ele><time>2026-04-05T12:00:06.999Z</time></trkpt><trkpt lat="45.686034723092725" lon="8.558193104505312"><ele>360.0</ele><time>2026-04-05T12:00:07.999Z</time></trkpt><trkpt lat="45.686136694596655" lon="8.558227803430313"><ele>359.0</ele><time>2026-04-05T12:00:08.999Z</time></trkpt><trkpt lat="45.686231323005906" lon="8.55828629638569"><ele>358.0</ele><time>2026-04-05T12:00:09.999Z</time></trkpt><trkpt lat="45.686326353219535" lon="8.558320327670705"><ele>357.0</ele><time>2026-04-05T12:00:10.999Z</time></trkpt><trkpt lat="45.686420197827594" lon="8.55832496299061"><ele>356.0</ele><time>2026-04-05T12:00:11.999Z</time></trkpt><trkpt lat="45.68650709923132" lon="8.558337391929665"><ele>356.0</ele><time>2026-04-05T12:00:12.999Z</time></trkpt><trkpt lat="45.686585780392676" lon="8.558355725167287"><ele>356.0</ele><time>2026-04-05T12:00:13.999Z</time></trkpt><trkpt lat="45.68665525530635" lon="8.558341035423156"><ele>356.0</ele><time>2026-04-05T12:00:14.999Z</time></trkpt><trkpt lat="45.68671774516348" lon="8.558318105486862"><ele>356.0</ele><time>2026-04-05T12:00:15.999Z</time></trkpt><trkpt lat="45.686810107443385" lon="8.558288128156004"><ele>356.0</ele><time>2026-04-05T12:00:17.999Z</time></trkpt><trkpt lat="45.68683057380041" lon="8.558451648783192"><ele>356.0</ele><time>2026-04-05T12:00:19.999Z</time></trkpt><trkpt lat="45.686847642630234" lon="8.558554950638003"><ele>356.0</ele><time>2026-04-05T12:00:20.999Z</time></trkpt><trkpt lat="45.68684932596897" lon="8.55865825785896"><ele>356.0</ele><time>2026-04-05T12:00:21.999Z</time></trkpt><trkpt lat="45.68685266238174" lon="8.558763553288987"><ele>356.0</ele><time>2026-04-05T12:00:22.999Z</time></trkpt><trkpt lat="45.68685880491005" lon="8.558857099491084"><ele>356.0</ele><time>2026-04-05T12:00:23.999Z</time></trkpt><trkpt lat="45.68686278385855" lon="8.559027069091606"><ele>356.0</ele><time>2026-04-05T12:00:25.999Z</time></trkpt><trkpt lat="45.686858786211104" lon="8.559204327361908"><ele>356.0</ele><time>2026-04-05T12:00:27.999Z</time></trkpt><trkpt lat="45.686849768512545" lon="8.559299054482658"><ele>356.0</ele><time>2026-04-05T12:00:28.999Z</time></trkpt><trkpt lat="45.68683184862598" lon="8.559395754464601"><ele>356.0</ele><time>2026-04-05T12:00:29.999Z</time></trkpt><trkpt lat="45.68681098175543" lon="8.559487069792203"><ele>356.0</ele><time>2026-04-05T12:00:30.999Z</time></trkpt><trkpt lat="45.68678049603161" lon="8.559626550961895"><ele>356.0</ele><time>2026-04-05T12:00:32.999Z</time></trkpt><trkpt lat="45.68686644811703" lon="8.55975239162281"><ele>356.0</ele><time>2026-04-05T12:00:35.999Z</time></trkpt><trkpt lat="45.68693286191972" lon="8.559739052794317"><ele>354.6666666666667</ele><time>2026-04-05T12:00:36.999Z</time></trkpt><trkpt lat="45.68699883785502" lon="8.559717467106282"><ele>353.33333333333337</ele><time>2026-04-05T12:00:37.999Z</time></trkpt><trkpt lat="45.687072706676894" lon="8.5596771561311"><ele>352.0</ele><time>2026-04-05T12:00:38.999Z</time></trkpt><trkpt lat="45.687152656620626" lon="8.559664812976914"><ele>350.6666666666667</ele><time>2026-04-05T12:00:39.999Z</time></trkpt><trkpt lat="45.687224766602185" lon="8.559649137455898"><ele>349.3333333333333</ele><time>2026-04-05T12:00:40.999Z</time></trkpt><trkpt lat="45.68729946572826" lon="8.559662449911993"><ele>348.0</ele><time>2026-04-05T12:00:41.999Z</time></trkpt><trkpt lat="45.68737569698139" lon="8.559653141734284"><ele>348.0</ele><time>2026-04-05T12:00:42.999Z</time></trkpt><trkpt lat="45.68745550628711" lon="8.559643295210872"><ele>348.0</ele><time>2026-04-05T12:00:43.999Z</time></trkpt><trkpt lat="45.68752643359337" lon="8.55963429658024"><ele>348.0</ele><time>2026-04-05T12:00:44.999Z</time></trkpt><trkpt lat="45.687601168287564" lon="8.5596248466363"><ele>348.0</ele><time>2026-04-05T12:00:45.999Z</time></trkpt><trkpt lat="45.68767553764808" lon="8.559615442870092"><ele>348.0</ele><time>2026-04-05T12:00:46.999Z</time></trkpt><trkpt lat="45.687752162198365" lon="8.55960529297037"><ele>348.0</ele><time>2026-04-05T12:00:47.999Z</time></trkpt><trkpt lat="45.68782830370276" lon="8.559594856929214"><ele>348.7142857142857</ele><time>2026-04-05T12:00:48.999Z</time></trkpt><trkpt lat="45.68790006773684" lon="8.559585020886527"><ele>349.42857142857144</ele><time>2026-04-05T12:00:49.999Z</time></trkpt><trkpt lat="45.68796657616859" lon="8.559575905155327"><ele>350.1428571428571</ele><time>2026-04-05T12:00:50.999Z</time></trkpt><trkpt lat="45.68802767897093" lon="8.559543621221511"><ele>350.8571428571429</ele><time>2026-04-05T12:00:51.999Z</time></trkpt><trkpt lat="45.68809358630469" lon="8.55953353391395"><ele>351.5714285714286</ele><time>2026-04-05T12:00:52.999Z</time></trkpt><trkpt lat="45.68815807104754" lon="8.559527646286352"><ele>352.2857142857143</ele><time>2026-04-05T12:00:53.999Z</time></trkpt><trkpt lat="45.68822873362313" lon="8.55953749732122"><ele>353.0</ele><time>2026-04-05T12:00:54.999Z</time></trkpt><trkpt lat="45.68829978651027" lon="8.55952734208934"><ele>353.0</ele><time>2026-04-05T12:00:55.999Z</time></trkpt><trkpt lat="45.688376129621055" lon="8.559516430762992"><ele>353.0</ele><time>2026-04-05T12:00:56.999Z</time></trkpt><trkpt lat="45.68845718466973" lon="8.559504845997395"><ele>353.0</ele><time>2026-04-05T12:00:57.999Z</time></trkpt><trkpt lat="45.688532311545224" lon="8.559494108494942"><ele>353.0</ele><time>2026-04-05T12:00:58.999Z</time></trkpt><trkpt lat="45.68860333546037" lon="8.559484797914898"><ele>353.0</ele><time>2026-04-05T12:00:59.999Z</time></trkpt><trkpt lat="45.68867905654256" lon="8.559475723918734"><ele>353.0</ele><time>2026-04-05T12:01:00.999Z</time></trkpt><trkpt lat="45.68874927285393" lon="8.55946730953225"><ele>352.79999999999995</ele><time>2026-04-05T12:01:01.998Z</time></trkpt><trkpt lat="45.68881946998767" lon="8.559458897504935"><ele>352.6</ele><time>2026-04-05T12:01:02.998Z</time></trkpt><trkpt lat="45.68893486450379" lon="8.559441113420801"><ele>352.4</ele><time>2026-04-05T12:01:04.998Z</time></trkpt><trkpt lat="45.689048680831434" lon="8.559420547823514"><ele>352.20000000000005</ele><time>2026-04-05T12:01:06.998Z</time></trkpt><trkpt lat="45.689172813334324" lon="8.559396540781394"><ele>352.0</ele><time>2026-04-05T12:01:08.998Z</time></trkpt><trkpt lat="45.68923960968186" lon="8.55938426879035"><ele>352.0</ele><time>2026-04-05T12:01:09.998Z</time></trkpt><trkpt lat="45.68930836706464" lon="8.559373809059448"><ele>352.0</ele><time>2026-04-05T12:01:10.998Z</time></trkpt><trkpt lat="45.689377332356315" lon="8.559365377165335"><ele>352.0</ele><time>2026-04-05T12:01:11.998Z</time></trkpt><trkpt lat="45.6894484624982" lon="8.559338512083995"><ele>352.0</ele><time>2026-04-05T12:01:12.998Z</time></trkpt><trkpt lat="45.6895159260235" lon="8.559351288349726"><ele>352.0</ele><time>2026-04-05T12:01:13.998Z</time></trkpt><trkpt lat="45.68958971375564" lon="8.559320285500581"><ele>352.0</ele><time>2026-04-05T12:01:14.998Z</time></trkpt><trkpt lat="45.689665311540296" lon="8.559310368865141"><ele>352.0</ele><time>2026-04-05T12:01:15.998Z</time></trkpt><trkpt lat="45.68973522134786" lon="8.559306806344784"><ele>352.16666666666663</ele><time>2026-04-05T12:01:16.998Z</time></trkpt><trkpt lat="45.68981102218288" lon="8.559301538301593"><ele>352.3333333333333</ele><time>2026-04-05T12:01:17.998Z</time></trkpt><trkpt lat="45.68988533268926" lon="8.559289594524618"><ele>352.5</ele><time>2026-04-05T12:01:18.998Z</time></trkpt><trkpt lat="45.68996544505262" lon="8.559296156846496"><ele>352.6666666666667</ele><time>2026-04-05T12:01:19.998Z</time></trkpt><trkpt lat="45.69003801032919" lon="8.559286197234446"><ele>352.83333333333337</ele><time>2026-04-05T12:01:20.998Z</time></trkpt><trkpt lat="45.690107265671486" lon="8.55925280004555"><ele>353.0</ele><time>2026-04-05T12:01:21.998Z</time></trkpt><trkpt lat="45.69019909358912" lon="8.559243018585692"><ele>353.0</ele><time>2026-04-05T12:01:23.998Z</time></trkpt><trkpt lat="45.6902666463578" lon="8.559247010706995"><ele>353.0</ele><time>2026-04-05T12:01:26.998Z</time></trkpt><trkpt lat="45.690342209276174" lon="8.55921616482258"><ele>353.0</ele><time>2026-04-05T12:01:28.998Z</time></trkpt><trkpt lat="45.690412516589284" lon="8.559217626298066"><ele>353.0</ele><time>2026-04-05T12:01:29.998Z</time></trkpt><trkpt lat="45.69047677433463" lon="8.55921957896497"><ele>353.0</ele><time>2026-04-05T12:01:30.998Z</time></trkpt><trkpt lat="45.69054045246596" lon="8.559222848342364"><ele>353.0</ele><time>2026-04-05T12:01:31.998Z</time></trkpt><trkpt lat="45.69065946889657" lon="8.559228083612858"><ele>353.0</ele><time>2026-04-05T12:01:33.998Z</time></trkpt><trkpt lat="45.69078595072464" lon="8.559226602828318"><ele>353.0</ele><time>2026-04-05T12:01:35.998Z</time></trkpt><trkpt lat="45.69088699620276" lon="8.559280278999257"><ele>353.0</ele><time>2026-04-05T12:01:37.998Z</time></trkpt><trkpt lat="45.69093430908728" lon="8.559341667401615"><ele>353.0</ele><time>2026-04-05T12:01:38.998Z</time></trkpt><trkpt lat="45.69097727118275" lon="8.559414339637836"><ele>353.0</ele><time>2026-04-05T12:01:39.998Z</time></trkpt><trkpt lat="45.69102733108504" lon="8.559477468567739"><ele>353.0</ele><time>2026-04-05T12:01:40.998Z</time></trkpt><trkpt lat="45.691084061306825" lon="8.55952518660209"><ele>352.6666666666667</ele><time>2026-04-05T12:01:41.998Z</time></trkpt><trkpt lat="45.69120165114468" lon="8.559571064641537"><ele>352.33333333333337</ele><time>2026-04-05T12:01:43.998Z</time></trkpt><trkpt lat="45.691321479492814" lon="8.559594230894222"><ele>352.0</ele><time>2026-04-05T12:01:45.998Z</time></trkpt><trkpt lat="45.6913864615718" lon="8.559614925084853"><ele>351.6666666666667</ele><time>2026-04-05T12:01:46.998Z</time></trkpt><trkpt lat="45.69145108391788" lon="8.55964066807808"><ele>351.3333333333333</ele><time>2026-04-05T12:01:47.998Z</time></trkpt><trkpt lat="45.69152066529268" lon="8.559661917406622"><ele>351.0</ele><time>2026-04-05T12:01:48.998Z</time></trkpt><trkpt lat="45.69158617806141" lon="8.559677721777083"><ele>351.0</ele><time>2026-04-05T12:01:49.998Z</time></trkpt><trkpt lat="45.69165413544874" lon="8.559701958611937"><ele>351.0</ele><time>2026-04-05T12:01:50.998Z</time></trkpt><trkpt lat="45.69171866351394" lon="8.559724445118984"><ele>351.0</ele><time>2026-04-05T12:01:51.998Z</time></trkpt><trkpt lat="45.691845423547925" lon="8.559753361875618"><ele>351.0</ele><time>2026-04-05T12:01:53.998Z</time></trkpt><trkpt lat="45.69196442002739" lon="8.559789949546452"><ele>351.0</ele><time>2026-04-05T12:01:55.998Z</time></trkpt><trkpt lat="45.692081407369564" lon="8.559838619205879"><ele>351.20000000000005</ele><time>2026-04-05T12:01:57.998Z</time></trkpt><trkpt lat="45.69219160717304" lon="8.559901806399257"><ele>351.40000000000003</ele><time>2026-04-05T12:01:59.998Z</time></trkpt><trkpt lat="45.69226521279161" lon="8.56002129945177"><ele>351.6</ele><time>2026-04-05T12:02:01.998Z</time></trkpt><trkpt lat="45.692283491528315" lon="8.560197302693677"><ele>351.8</ele><time>2026-04-05T12:02:03.998Z</time></trkpt><trkpt lat="45.69229129262976" lon="8.560289445067587"><ele>352.0</ele><time>2026-04-05T12:02:04.998Z</time></trkpt><trkpt lat="45.69229822642849" lon="8.560379764336501"><ele>352.3333333333333</ele><time>2026-04-05T12:02:05.998Z</time></trkpt><trkpt lat="45.69233125893925" lon="8.560546382370175"><ele>352.66666666666663</ele><time>2026-04-05T12:02:07.999Z</time></trkpt><trkpt lat="45.69235277492225" lon="8.560634173812575"><ele>353.0</ele><time>2026-04-05T12:02:08.999Z</time></trkpt><trkpt lat="45.69237275721891" lon="8.560725053832853"><ele>353.3333333333333</ele><time>2026-04-05T12:02:09.999Z</time></trkpt><trkpt lat="45.69239475721114" lon="8.560819264785358"><ele>353.6666666666667</ele><time>2026-04-05T12:02:10.999Z</time></trkpt><trkpt lat="45.69241509863435" lon="8.560914986334067"><ele>354.0</ele><time>2026-04-05T12:02:11.999Z</time></trkpt><trkpt lat="45.69243340723669" lon="8.561014518350449"><ele>354.0</ele><time>2026-04-05T12:02:12.999Z</time></trkpt><trkpt lat="45.69245291470683" lon="8.56111350617817"><ele>354.0</ele><time>2026-04-05T12:02:13.999Z</time></trkpt><trkpt lat="45.6924726644532" lon="8.561217882998694"><ele>354.0</ele><time>2026-04-05T12:02:14.999Z</time></trkpt><trkpt lat="45.69249305185927" lon="8.561323542007724"><ele>354.0</ele><time>2026-04-05T12:02:15.999Z</time></trkpt><trkpt lat="45.6925118503045" lon="8.56142691925907"><ele>354.0</ele><time>2026-04-05T12:02:16.999Z</time></trkpt><trkpt lat="45.692536444721306" lon="8.56153660135995"><ele>354.0</ele><time>2026-04-05T12:02:17.999Z</time></trkpt><trkpt lat="45.692559139113314" lon="8.561638062827681"><ele>353.5714285714286</ele><time>2026-04-05T12:02:18.999Z</time></trkpt><trkpt lat="45.69257850980846" lon="8.561735517259052"><ele>353.1428571428571</ele><time>2026-04-05T12:02:19.999Z</time></trkpt><trkpt lat="45.692593058996756" lon="8.561831247137707"><ele>352.7142857142857</ele><time>2026-04-05T12:02:20.999Z</time></trkpt><trkpt lat="45.692610037638275" lon="8.561928862562917"><ele>352.28571428571433</ele><time>2026-04-05T12:02:21.999Z</time></trkpt><trkpt lat="45.69263090669128" lon="8.56202792992599"><ele>351.8571428571429</ele><time>2026-04-05T12:02:22.999Z</time></trkpt><trkpt lat="45.69264355744612" lon="8.562124841664847"><ele>351.42857142857144</ele><time>2026-04-05T12:02:23.999Z</time></trkpt><trkpt lat="45.69265737737795" lon="8.562235704252686"><ele>351.0</ele><time>2026-04-05T12:02:24.999Z</time></trkpt><trkpt lat="45.69266853088507" lon="8.562340918569346"><ele>350.3333333333333</ele><time>2026-04-05T12:02:25.999Z</time></trkpt><trkpt lat="45.69267657081056" lon="8.562448207247702"><ele>349.6666666666667</ele><time>2026-04-05T12:02:26.999Z</time></trkpt><trkpt lat="45.692688851767585" lon="8.562570386589964"><ele>349.0</ele><time>2026-04-05T12:02:27.999Z</time></trkpt><trkpt lat="45.69269794735467" lon="8.562691103390582"><ele>348.33333333333337</ele><time>2026-04-05T12:02:28.999Z</time></trkpt><trkpt lat="45.6927094501785" lon="8.562810939286585"><ele>347.6666666666667</ele><time>2026-04-05T12:02:29.999Z</time></trkpt><trkpt lat="45.69272004044433" lon="8.562919984989685"><ele>347.0</ele><time>2026-04-05T12:02:30.999Z</time></trkpt><trkpt lat="45.69273099409575" lon="8.5630252394738"><ele>346.8571428571429</ele><time>2026-04-05T12:02:31.999Z</time></trkpt><trkpt lat="45.6927475798572" lon="8.563116887108684"><ele>346.71428571428567</ele><time>2026-04-05T12:02:32.999Z</time></trkpt><trkpt lat="45.69276303265419" lon="8.56321305664855"><ele>346.57142857142856</ele><time>2026-04-05T12:02:33.999Z</time></trkpt><trkpt lat="45.69277131753529" lon="8.563315445528907"><ele>346.42857142857144</ele><time>2026-04-05T12:02:34.999Z</time></trkpt><trkpt lat="45.69278080761192" lon="8.563414744996445"><ele>346.28571428571433</ele><time>2026-04-05T12:02:35.999Z</time></trkpt><trkpt lat="45.69279498643264" lon="8.563518633989993"><ele>346.1428571428571</ele><time>2026-04-05T12:02:36.999Z</time></trkpt><trkpt lat="45.692811344892114" lon="8.563619512098734"><ele>346.0</ele><time>2026-04-05T12:02:37.999Z</time></trkpt><trkpt lat="45.69282726127889" lon="8.563714830383752"><ele>346.2857142857143</ele><time>2026-04-05T12:02:38.999Z</time></trkpt><trkpt lat="45.69284649620244" lon="8.563807948125993"><ele>346.5714285714286</ele><time>2026-04-05T12:02:39.999Z</time></trkpt><trkpt lat="45.69286573309311" lon="8.56390328971946"><ele>346.8571428571429</ele><time>2026-04-05T12:02:40.999Z</time></trkpt><trkpt lat="45.69288413479704" lon="8.563994668957186"><ele>347.1428571428571</ele><time>2026-04-05T12:02:41.999Z</time></trkpt><trkpt lat="45.692904574941956" lon="8.564089328041115"><ele>347.42857142857144</ele><time>2026-04-05T12:02:42.999Z</time></trkpt><trkpt lat="45.69292368325133" lon="8.56419379886588"><ele>347.7142857142857</ele><time>2026-04-05T12:02:43.999Z</time></trkpt><trkpt lat="45.69294429012972" lon="8.564297636537674"><ele>348.0</ele><time>2026-04-05T12:02:44.999Z</time></trkpt><trkpt lat="45.69296064989303" lon="8.56438795640462"><ele>348.0</ele><time>2026-04-05T12:02:45.999Z</time></trkpt><trkpt lat="45.69297710257745" lon="8.56448198058436"><ele>348.0</ele><time>2026-04-05T12:02:46.999Z</time></trkpt><trkpt lat="45.6929967680886" lon="8.564570753805242"><ele>348.0</ele><time>2026-04-05T12:02:47.999Z</time></trkpt><trkpt lat="45.6930238607699" lon="8.564652881519189"><ele>348.0</ele><time>2026-04-05T12:02:48.999Z</time></trkpt><trkpt lat="45.69305306850297" lon="8.564820645266428"><ele>348.0</ele><time>2026-04-05T12:02:50.999Z</time></trkpt><trkpt lat="45.69305208273342" lon="8.564984222333504"><ele>348.0</ele><time>2026-04-05T12:02:52.998Z</time></trkpt><trkpt lat="45.69308923289157" lon="8.56512934276508"><ele>347.8333333333333</ele><time>2026-04-05T12:02:54.998Z</time></trkpt><trkpt lat="45.6930945106358" lon="8.565271242293564"><ele>347.6666666666667</ele><time>2026-04-05T12:02:56.998Z</time></trkpt><trkpt lat="45.69310063775151" lon="8.565410088108209"><ele>347.5</ele><time>2026-04-05T12:02:58.998Z</time></trkpt><trkpt lat="45.69317462418962" lon="8.565505666968562"><ele>347.33333333333337</ele><time>2026-04-05T12:03:00.998Z</time></trkpt><trkpt lat="45.693186941467644" lon="8.56560262885542"><ele>347.1666666666667</ele><time>2026-04-05T12:03:02.998Z</time></trkpt><trkpt lat="45.693213715050135" lon="8.565695208101458"><ele>347.0</ele><time>2026-04-05T12:03:05.998Z</time></trkpt><trkpt lat="45.69317568064372" lon="8.565773735935851"><ele>347.0</ele><time>2026-04-05T12:03:07.998Z</time></trkpt><trkpt lat="45.69311762273761" lon="8.565932395146385"><ele>347.0</ele><time>2026-04-05T12:03:09.998Z</time></trkpt><trkpt lat="45.69307726869947" lon="8.566069455315962"><ele>347.0</ele><time>2026-04-05T12:03:11.998Z</time></trkpt><trkpt lat="45.69300954323249" lon="8.566152042384097"><ele>347.0</ele><time>2026-04-05T12:03:13.998Z</time></trkpt><trkpt lat="45.692946261169325" lon="8.566144417740219"><ele>347.0</ele><time>2026-04-05T12:03:14.998Z</time></trkpt><trkpt lat="45.69284823320324" lon="8.566139444025803"><ele>347.20000000000005</ele><time>2026-04-05T12:03:16.998Z</time></trkpt><trkpt lat="45.69280049968461" lon="8.56624674474404"><ele>347.4</ele><time>2026-04-05T12:03:19.998Z</time></trkpt><trkpt lat="45.692815717854764" lon="8.56634895495298"><ele>347.6</ele><time>2026-04-05T12:03:22.998Z</time></trkpt><trkpt lat="45.692828829915065" lon="8.566503972513027"><ele>347.79999999999995</ele><time>2026-04-05T12:03:24.998Z</time></trkpt><trkpt lat="45.69280573679065" lon="8.566635208225426"><ele>348.0</ele><time>2026-04-05T12:03:26.998Z</time></trkpt><trkpt lat="45.692802346485195" lon="8.566769963245441"><ele>348.0</ele><time>2026-04-05T12:03:28.998Z</time></trkpt><trkpt lat="45.69278998172636" lon="8.566923878203383"><ele>348.0</ele><time>2026-04-05T12:03:30.998Z</time></trkpt><trkpt lat="45.692778726600515" lon="8.567077917268897"><ele>348.0</ele><time>2026-04-05T12:03:32.998Z</time></trkpt><trkpt lat="45.692755281006455" lon="8.56720016681878"><ele>348.0</ele><time>2026-04-05T12:03:34.998Z</time></trkpt><trkpt lat="45.69274766315183" lon="8.567352733318028"><ele>348.0</ele><time>2026-04-05T12:03:36.998Z</time></trkpt><trkpt lat="45.692750350947506" lon="8.56749153671269"><ele>347.2</ele><time>2026-04-05T12:03:38.998Z</time></trkpt><trkpt lat="45.692769707531646" lon="8.567613778670886"><ele>346.4</ele><time>2026-04-05T12:03:40.998Z</time></trkpt><trkpt lat="45.692786120351755" lon="8.56773225524865"><ele>345.59999999999997</ele><time>2026-04-05T12:03:42.998Z</time></trkpt><trkpt lat="45.69278514552887" lon="8.56787766513953"><ele>344.79999999999995</ele><time>2026-04-05T12:03:44.998Z</time></trkpt><trkpt lat="45.6927945562091" lon="8.568015308487114"><ele>344.0</ele><time>2026-04-05T12:03:46.998Z</time></trkpt><trkpt lat="45.69281166715298" lon="8.568151109431641"><ele>343.75</ele><time>2026-04-05T12:03:48.998Z</time></trkpt><trkpt lat="45.692826723021206" lon="8.56831423015841"><ele>343.5</ele><time>2026-04-05T12:03:50.998Z</time></trkpt><trkpt lat="45.69283688431837" lon="8.56846416063333"><ele>343.25</ele><time>2026-04-05T12:03:52.998Z</time></trkpt><trkpt lat="45.69283032441254" lon="8.568622481739332"><ele>343.0</ele><time>2026-04-05T12:03:54.998Z</time></trkpt><trkpt lat="45.692829190154335" lon="8.568795884456557"><ele>343.0</ele><time>2026-04-05T12:03:56.998Z</time></trkpt><trkpt lat="45.692836019310946" lon="8.568964488767856"><ele>343.0</ele><time>2026-04-05T12:03:58.998Z</time></trkpt><trkpt lat="45.69285073654787" lon="8.569126701666137"><ele>343.0</ele><time>2026-04-05T12:04:00.998Z</time></trkpt><trkpt lat="45.69289254139252" lon="8.569282484797638"><ele>343.0</ele><time>2026-04-05T12:04:02.998Z</time></trkpt><trkpt lat="45.692940187198154" lon="8.569439274782763"><ele>342.0</ele><time>2026-04-05T12:04:04.998Z</time></trkpt><trkpt lat="45.69299066758148" lon="8.569579114858621"><ele>341.0</ele><time>2026-04-05T12:04:06.998Z</time></trkpt><trkpt lat="45.69304317201433" lon="8.569725812001096"><ele>340.0</ele><time>2026-04-05T12:04:08.998Z</time></trkpt><trkpt lat="45.69307513612466" lon="8.569804774268388"><ele>339.0</ele><time>2026-04-05T12:04:09.998Z</time></trkpt><trkpt lat="45.69311954537132" lon="8.569949399549577"><ele>338.0</ele><time>2026-04-05T12:04:11.998Z</time></trkpt><trkpt lat="45.69316668653931" lon="8.57009602182496"><ele>338.0</ele><time>2026-04-05T12:04:13.998Z</time></trkpt><trkpt lat="45.69320244128554" lon="8.570217649686711"><ele>338.0</ele><time>2026-04-05T12:04:15.998Z</time></trkpt><trkpt lat="45.69323578579781" lon="8.570294713457422"><ele>338.0</ele><time>2026-04-05T12:04:17.998Z</time></trkpt><trkpt lat="45.69327636351934" lon="8.570391539705724"><ele>338.0</ele><time>2026-04-05T12:04:43.999Z</time></trkpt><trkpt lat="45.69329872992286" lon="8.570518370984185"><ele>338.0</ele><time>2026-04-05T12:04:45.999Z</time></trkpt><trkpt lat="45.69327856029615" lon="8.57069886832884"><ele>337.83333333333337</ele><time>2026-04-05T12:04:47.999Z</time></trkpt><trkpt lat="45.693264435583146" lon="8.570823260045062"><ele>337.6666666666667</ele><time>2026-04-05T12:05:20.998Z</time></trkpt><trkpt lat="45.69324015232927" lon="8.570961976678202"><ele>337.5</ele><time>2026-04-05T12:05:22.998Z</time></trkpt><trkpt lat="45.69318517087942" lon="8.571115620145655"><ele>337.3333333333333</ele><time>2026-04-05T12:05:24.998Z</time></trkpt><trkpt lat="45.69314705429045" lon="8.571198684485969"><ele>337.16666666666663</ele><time>2026-04-05T12:05:25.998Z</time></trkpt><trkpt lat="45.69311321802396" lon="8.57128322795201"><ele>337.0</ele><time>2026-04-05T12:05:26.998Z</time></trkpt><trkpt lat="45.693065196162834" lon="8.571442592601697"><ele>337.0</ele><time>2026-04-05T12:05:28.998Z</time></trkpt><trkpt lat="45.69301161045486" lon="8.571587678662185"><ele>337.0</ele><time>2026-04-05T12:05:30.998Z</time></trkpt><trkpt lat="45.692980169439366" lon="8.571727967667474"><ele>337.0</ele><time>2026-04-05T12:05:32.998Z</time></trkpt><trkpt lat="45.69296883749194" lon="8.57188125218439"><ele>337.0</ele><time>2026-04-05T12:05:34.998Z</time></trkpt><trkpt lat="45.69295592047635" lon="8.571970436142454"><ele>337.0</ele><time>2026-04-05T12:05:35.998Z</time></trkpt><trkpt lat="45.6929403133119" lon="8.572065847633166"><ele>336.5714285714286</ele><time>2026-04-05T12:05:36.998Z</time></trkpt><trkpt lat="45.69293513621073" lon="8.572169975221543"><ele>336.14285714285717</ele><time>2026-04-05T12:05:37.998Z</time></trkpt><trkpt lat="45.692930303518786" lon="8.572267818612927"><ele>335.7142857142857</ele><time>2026-04-05T12:05:38.998Z</time></trkpt><trkpt lat="45.692925082393685" lon="8.572377629961455"><ele>335.28571428571433</ele><time>2026-04-05T12:05:39.998Z</time></trkpt><trkpt lat="45.69292243859393" lon="8.572479986058143"><ele>334.8571428571429</ele><time>2026-04-05T12:05:40.998Z</time></trkpt><trkpt lat="45.69292576615622" lon="8.57258540025218"><ele>334.42857142857144</ele><time>2026-04-05T12:05:41.998Z</time></trkpt><trkpt lat="45.69292225252036" lon="8.572685905363926"><ele>334.0</ele><time>2026-04-05T12:05:42.998Z</time></trkpt><trkpt lat="45.6929104523722" lon="8.572803262038452"><ele>334.0</ele><time>2026-04-05T12:05:43.998Z</time></trkpt><trkpt lat="45.69290011812643" lon="8.572908389855593"><ele>334.0</ele><time>2026-04-05T12:05:44.998Z</time></trkpt><trkpt lat="45.69288811064745" lon="8.572998114780589"><ele>334.0</ele><time>2026-04-05T12:05:45.998Z</time></trkpt><trkpt lat="45.692864697866646" lon="8.573142735101694"><ele>334.0</ele><time>2026-04-05T12:05:47.998Z</time></trkpt><trkpt lat="45.6928258840009" lon="8.573236850671865"><ele>334.0</ele><time>2026-04-05T12:05:49.998Z</time></trkpt><trkpt lat="45.69278266478014" lon="8.573349350068161"><ele>334.0</ele><time>2026-04-05T12:05:51.998Z</time></trkpt><trkpt lat="45.69270827181848" lon="8.573426785515869"><ele>334.0</ele><time>2026-04-05T12:05:53.998Z</time></trkpt><trkpt lat="45.692675920691315" lon="8.573588405813812"><ele>334.0</ele><time>2026-04-05T12:05:55.998Z</time></trkpt><trkpt lat="45.69264489078801" lon="8.573675807086584"><ele>334.0</ele><time>2026-04-05T12:05:56.998Z</time></trkpt><trkpt lat="45.692582982274004" lon="8.57384125830527"><ele>334.0</ele><time>2026-04-05T12:05:58.998Z</time></trkpt><trkpt lat="45.69255329993173" lon="8.573932353555694"><ele>334.0</ele><time>2026-04-05T12:05:59.998Z</time></trkpt><trkpt lat="45.69250749078668" lon="8.574091431770912"><ele>333.85714285714283</ele><time>2026-04-05T12:06:01.998Z</time></trkpt><trkpt lat="45.69248185814417" lon="8.574191621767943"><ele>333.7142857142857</ele><time>2026-04-05T12:06:02.998Z</time></trkpt><trkpt lat="45.69246125651091" lon="8.57429157051216"><ele>333.57142857142856</ele><time>2026-04-05T12:06:03.998Z</time></trkpt><trkpt lat="45.69244577684881" lon="8.574385771256354"><ele>333.42857142857144</ele><time>2026-04-05T12:06:04.998Z</time></trkpt><trkpt lat="45.692433782671216" lon="8.574479706699254"><ele>333.2857142857143</ele><time>2026-04-05T12:06:05.998Z</time></trkpt><trkpt lat="45.692420628977295" lon="8.574581558815161"><ele>333.14285714285717</ele><time>2026-04-05T12:06:06.998Z</time></trkpt><trkpt lat="45.69240651782135" lon="8.574684434716177"><ele>333.0</ele><time>2026-04-05T12:06:07.998Z</time></trkpt><trkpt lat="45.69239777118178" lon="8.57478152640529"><ele>333.0</ele><time>2026-04-05T12:06:08.999Z</time></trkpt><trkpt lat="45.69238693386182" lon="8.574944455031591"><ele>333.0</ele><time>2026-04-05T12:06:10.999Z</time></trkpt><trkpt lat="45.69238757002741" lon="8.575063487634987"><ele>333.0</ele><time>2026-04-05T12:06:12.999Z</time></trkpt><trkpt lat="45.69235887959777" lon="8.575180073338267"><ele>333.0</ele><time>2026-04-05T12:06:14.999Z</time></trkpt><trkpt lat="45.692307731211" lon="8.57529508708197"><ele>333.0</ele><time>2026-04-05T12:06:16.999Z</time></trkpt><trkpt lat="45.69225272840189" lon="8.57540994658785"><ele>333.5</ele><time>2026-04-05T12:06:18.999Z</time></trkpt><trkpt lat="45.69219891999507" lon="8.57556210363178"><ele>334.0</ele><time>2026-04-05T12:06:20.999Z</time></trkpt><trkpt lat="45.69214572496895" lon="8.575714347516975"><ele>334.5</ele><time>2026-04-05T12:06:22.999Z</time></trkpt><trkpt lat="45.69210037342818" lon="8.575865246979516"><ele>335.0</ele><time>2026-04-05T12:06:24.999Z</time></trkpt><trkpt lat="45.69206276385763" lon="8.576016113873576"><ele>334.99999999999994</ele><time>2026-04-05T12:06:26.999Z</time></trkpt><trkpt lat="45.692045436067275" lon="8.576105169778652"><ele>335.0</ele><time>2026-04-05T12:06:27.999Z</time></trkpt><trkpt lat="45.692023703645646" lon="8.57619594153734"><ele>335.0</ele><time>2026-04-05T12:06:28.999Z</time></trkpt><trkpt lat="45.692003517687354" lon="8.576287122676687"><ele>335.0</ele><time>2026-04-05T12:06:29.999Z</time></trkpt><trkpt lat="45.69198371132662" lon="8.576379261823151"><ele>335.0</ele><time>2026-04-05T12:06:30.999Z</time></trkpt><trkpt lat="45.6919550456891" lon="8.576478008949955"><ele>334.99999999999994</ele><time>2026-04-05T12:06:31.999Z</time></trkpt><trkpt lat="45.691928743979744" lon="8.576566959029241"><ele>335.0</ele><time>2026-04-05T12:06:32.999Z</time></trkpt><trkpt lat="45.69190592472962" lon="8.576653711481303"><ele>334.2</ele><time>2026-04-05T12:06:33.999Z</time></trkpt><trkpt lat="45.69187128438251" lon="8.576805010553631"><ele>333.4</ele><time>2026-04-05T12:06:35.999Z</time></trkpt><trkpt lat="45.69183779552608" lon="8.576947562377809"><ele>332.6</ele><time>2026-04-05T12:06:37.999Z</time></trkpt><trkpt lat="45.691818737241185" lon="8.577049727266854"><ele>331.8</ele><time>2026-04-05T12:06:39.999Z</time></trkpt><trkpt lat="45.69174909389906" lon="8.577095836418755"><ele>331.0</ele><time>2026-04-05T12:06:44.999Z</time></trkpt><trkpt lat="45.69163129981709" lon="8.577076008774352"><ele>331.0</ele><time>2026-04-05T12:07:49.998Z</time></trkpt><trkpt lat="45.691560649772335" lon="8.577054519717136"><ele>331.0</ele><time>2026-04-05T12:07:50.998Z</time></trkpt><trkpt lat="45.69146063927544" lon="8.576966670948172"><ele>331.0</ele><time>2026-04-05T12:07:52.998Z</time></trkpt><trkpt lat="45.69144793854858" lon="8.576861047166348"><ele>331.0</ele><time>2026-04-05T12:07:53.998Z</time></trkpt><trkpt lat="45.691419529394324" lon="8.576732069077059"><ele>331.0</ele><time>2026-04-05T12:07:54.998Z</time></trkpt><trkpt lat="45.69135890730496" lon="8.57661920119945"><ele>331.0</ele><time>2026-04-05T12:07:55.998Z</time></trkpt><trkpt lat="45.69127654958205" lon="8.576536139856243"><ele>331.0</ele><time>2026-04-05T12:07:56.998Z</time></trkpt><trkpt lat="45.69117998986213" lon="8.576454434415178"><ele>331.0</ele><time>2026-04-05T12:07:57.998Z</time></trkpt><trkpt lat="45.69112781620529" lon="8.576389426169946"><ele>331.0</ele><time>2026-04-05T12:07:58.998Z</time></trkpt><trkpt lat="45.691056851086906" lon="8.576419574797626"><ele>331.0</ele><time>2026-04-05T12:08:00.998Z</time></trkpt><trkpt lat="45.69097671408628" lon="8.576354173577403"><ele>331.0</ele><time>2026-04-05T12:08:02.998Z</time></trkpt><trkpt lat="45.690840979492904" lon="8.576375138884115"><ele>331.6</ele><time>2026-04-05T12:08:04.998Z</time></trkpt><trkpt lat="45.690760645060095" lon="8.57637065397095"><ele>332.20000000000005</ele><time>2026-04-05T12:08:05.998Z</time></trkpt><trkpt lat="45.69068521030128" lon="8.576310348719396"><ele>332.79999999999995</ele><time>2026-04-05T12:08:06.998Z</time></trkpt><trkpt lat="45.69062993333869" lon="8.576240743643037"><ele>333.4</ele><time>2026-04-05T12:08:07.998Z</time></trkpt><trkpt lat="45.690587927456775" lon="8.576120391294896"><ele>334.0</ele><time>2026-04-05T12:08:09.998Z</time></trkpt><trkpt lat="45.69045104103469" lon="8.576072778005228"><ele>334.79999999999995</ele><time>2026-04-05T12:08:11.998Z</time></trkpt><trkpt lat="45.69039117122286" lon="8.576044483300477"><ele>335.59999999999997</ele><time>2026-04-05T12:08:13.998Z</time></trkpt><trkpt lat="45.69030157346929" lon="8.576023265838874"><ele>336.4</ele><time>2026-04-05T12:08:15.999Z</time></trkpt><trkpt lat="45.690213881963" lon="8.576089147801913"><ele>337.2</ele><time>2026-04-05T12:08:17.999Z</time></trkpt><trkpt lat="45.69018166927822" lon="8.57622562699013"><ele>338.0</ele><time>2026-04-05T12:08:19.999Z</time></trkpt><trkpt lat="45.69014154331874" lon="8.5764878480422"><ele>340.0</ele><time>2026-04-05T12:08:20.999Z</time></trkpt><trkpt lat="45.6901070149812" lon="8.576677553340353"><ele>342.0</ele><time>2026-04-05T12:08:21.999Z</time></trkpt><trkpt lat="45.69006847200505" lon="8.576867071538462"><ele>344.0</ele><time>2026-04-05T12:08:22.999Z</time></trkpt><trkpt lat="45.69003124317853" lon="8.57699851729785"><ele>346.0</ele><time>2026-04-05T12:08:23.999Z</time></trkpt><trkpt lat="45.6900111009858" lon="8.577177484534143"><ele>346.0</ele><time>2026-04-05T12:08:24.999Z</time></trkpt><trkpt lat="45.68996772726628" lon="8.577358795229816"><ele>346.0</ele><time>2026-04-05T12:08:25.999Z</time></trkpt><trkpt lat="45.68994725271066" lon="8.577501199167049"><ele>346.0</ele><time>2026-04-05T12:08:26.999Z</time></trkpt><trkpt lat="45.68993685237486" lon="8.577625986837797"><ele>346.0</ele><time>2026-04-05T12:08:27.999Z</time></trkpt><trkpt lat="45.68989931003278" lon="8.577815756253083"><ele>345.3333333333333</ele><time>2026-04-05T12:08:28.999Z</time></trkpt><trkpt lat="45.689873403546905" lon="8.577968756631003"><ele>344.66666666666663</ele><time>2026-04-05T12:08:29.999Z</time></trkpt><trkpt lat="45.68983944367595" lon="8.578068085512545"><ele>344.0</ele><time>2026-04-05T12:08:30.999Z</time></trkpt><trkpt lat="45.68982177920827" lon="8.578166219947237"><ele>343.3333333333333</ele><time>2026-04-05T12:08:31.999Z</time></trkpt><trkpt lat="45.68981106919958" lon="8.578295957151472"><ele>342.6666666666667</ele><time>2026-04-05T12:08:32.999Z</time></trkpt><trkpt lat="45.68980347109251" lon="8.578436996070334"><ele>342.0</ele><time>2026-04-05T12:08:33.999Z</time></trkpt><trkpt lat="45.68977916641472" lon="8.578567597827057"><ele>341.3333333333333</ele><time>2026-04-05T12:08:34.999Z</time></trkpt><trkpt lat="45.6897402700698" lon="8.578709256131907"><ele>340.6666666666667</ele><time>2026-04-05T12:08:35.999Z</time></trkpt><trkpt lat="45.68972269391751" lon="8.57881065817615"><ele>340.0</ele><time>2026-04-05T12:08:36.999Z</time></trkpt><trkpt lat="45.68970561529585" lon="8.578929667152051"><ele>339.33333333333337</ele><time>2026-04-05T12:08:37.999Z</time></trkpt><trkpt lat="45.689688473443056" lon="8.579046697233723"><ele>338.6666666666667</ele><time>2026-04-05T12:08:38.999Z</time></trkpt><trkpt lat="45.68966984228164" lon="8.579137670339016"><ele>338.0</ele><time>2026-04-05T12:08:39.999Z</time></trkpt><trkpt lat="45.68968710961072" lon="8.579245273875852"><ele>338.0</ele><time>2026-04-05T12:08:41.999Z</time></trkpt><trkpt lat="45.68971148110483" lon="8.579332989618212"><ele>338.0</ele><time>2026-04-05T12:08:42.999Z</time></trkpt><trkpt lat="45.689753703456226" lon="8.579423842650359"><ele>338.0</ele><time>2026-04-05T12:08:44.999Z</time></trkpt><trkpt lat="45.68983032163165" lon="8.579421931751476"><ele>338.0</ele><time>2026-04-05T12:08:45.999Z</time></trkpt><trkpt lat="45.68996468536694" lon="8.579450204303916"><ele>338.0</ele><time>2026-04-05T12:08:46.999Z</time></trkpt><trkpt lat="45.69007383255053" lon="8.579484322739647"><ele>338.0</ele><time>2026-04-05T12:08:47.999Z</time></trkpt><trkpt lat="45.69014124008437" lon="8.579504851551805"><ele>338.0</ele><time>2026-04-05T12:08:49.999Z</time></trkpt><trkpt lat="45.69021605563122" lon="8.5795351793066"><ele>338.0</ele><time>2026-04-05T12:08:50.999Z</time></trkpt><trkpt lat="45.69027835579813" lon="8.579600464041658"><ele>338.0</ele><time>2026-04-05T12:08:51.999Z</time></trkpt><trkpt lat="45.690317956114825" lon="8.579683146033892"><ele>338.0</ele><time>2026-04-05T12:08:52.999Z</time></trkpt><trkpt lat="45.69034151964345" lon="8.579780854582697"><ele>338.0</ele><time>2026-04-05T12:08:53.999Z</time></trkpt><trkpt lat="45.6903921339919" lon="8.579877238399126"><ele>335.4</ele><time>2026-04-05T12:08:54.999Z</time></trkpt><trkpt lat="45.69045789687882" lon="8.579976319376119"><ele>332.79999999999995</ele><time>2026-04-05T12:08:55.999Z</time></trkpt><trkpt lat="45.690520305875154" lon="8.580032424150422"><ele>330.2</ele><time>2026-04-05T12:08:56.999Z</time></trkpt><trkpt lat="45.69059597502344" lon="8.58008537346708"><ele>327.6</ele><time>2026-04-05T12:08:57.999Z</time></trkpt><trkpt lat="45.690672096427804" lon="8.580146352584574"><ele>325.0</ele><time>2026-04-05T12:08:58.999Z</time></trkpt><trkpt lat="45.69078029570312" lon="8.580192130795762"><ele>325.0</ele><time>2026-04-05T12:09:00.999Z</time></trkpt><trkpt lat="45.69086028428826" lon="8.580242798133096"><ele>325.0</ele><time>2026-04-05T12:09:01.999Z</time></trkpt><trkpt lat="45.690965012164554" lon="8.580310421458401"><ele>325.0</ele><time>2026-04-05T12:09:02.999Z</time></trkpt><trkpt lat="45.691077169115985" lon="8.58036547886999"><ele>325.0</ele><time>2026-04-05T12:09:03.999Z</time></trkpt><trkpt lat="45.69115629526396" lon="8.580410779678243"><ele>325.0</ele><time>2026-04-05T12:09:04.999Z</time></trkpt><trkpt lat="45.691259149619825" lon="8.580455425420325"><ele>324.8</ele><time>2026-04-05T12:09:06.999Z</time></trkpt><trkpt lat="45.691361638702865" lon="8.580524945500892"><ele>324.6</ele><time>2026-04-05T12:09:08.999Z</time></trkpt><trkpt lat="45.69142559724595" lon="8.580578359576005"><ele>324.4</ele><time>2026-04-05T12:09:12.999Z</time></trkpt><trkpt lat="45.69134350549388" lon="8.580521132040538"><ele>324.2</ele><time>2026-04-05T12:09:25.999Z</time></trkpt><trkpt lat="45.69125800924875" lon="8.580459954250014"><ele>324.0</ele><time>2026-04-05T12:09:28.999Z</time></trkpt><trkpt lat="45.691185391594566" lon="8.580396160689213"><ele>324.0</ele><time>2026-04-05T12:09:30.999Z</time></trkpt><trkpt lat="45.69112436761888" lon="8.580369039939617"><ele>324.0</ele><time>2026-04-05T12:09:31.999Z</time></trkpt><trkpt lat="45.69105364452325" lon="8.580348730114817"><ele>324.0</ele><time>2026-04-05T12:09:32.999Z</time></trkpt><trkpt lat="45.690958290735864" lon="8.580304183951089"><ele>324.0</ele><time>2026-04-05T12:09:34.999Z</time></trkpt><trkpt lat="45.69083668146979" lon="8.580238352092985"><ele>324.0</ele><time>2026-04-05T12:09:36.999Z</time></trkpt><trkpt lat="45.690769911033215" lon="8.580195613372144"><ele>324.0</ele><time>2026-04-05T12:09:37.999Z</time></trkpt><trkpt lat="45.690691520025084" lon="8.580152245032794"><ele>324.1666666666667</ele><time>2026-04-05T12:09:38.999Z</time></trkpt><trkpt lat="45.69062713508585" lon="8.580101429571776"><ele>324.3333333333333</ele><time>2026-04-05T12:09:39.999Z</time></trkpt><trkpt lat="45.690555163647645" lon="8.580024356431148"><ele>324.5</ele><time>2026-04-05T12:09:40.999Z</time></trkpt><trkpt lat="45.69048732422228" lon="8.579956742863525"><ele>324.66666666666663</ele><time>2026-04-05T12:09:41.999Z</time></trkpt><trkpt lat="45.690427686482685" lon="8.579888803196514"><ele>324.8333333333333</ele><time>2026-04-05T12:09:42.999Z</time></trkpt><trkpt lat="45.69037407258717" lon="8.579792550046628"><ele>325.0</ele><time>2026-04-05T12:09:43.999Z</time></trkpt><trkpt lat="45.69033631625251" lon="8.579694702171777"><ele>326.66666666666663</ele><time>2026-04-05T12:09:44.999Z</time></trkpt><trkpt lat="45.690256200627154" lon="8.579567856426618"><ele>328.3333333333333</ele><time>2026-04-05T12:09:46.999Z</time></trkpt><trkpt lat="45.69019530534213" lon="8.579521738713458"><ele>330.0</ele><time>2026-04-05T12:09:47.999Z</time></trkpt><trkpt lat="45.69011499354753" lon="8.579484223754665"><ele>331.6666666666667</ele><time>2026-04-05T12:09:48.999Z</time></trkpt><trkpt lat="45.690048553625054" lon="8.579469240136723"><ele>333.33333333333337</ele><time>2026-04-05T12:09:49.999Z</time></trkpt><trkpt lat="45.689942190934936" lon="8.579464761607186"><ele>335.0</ele><time>2026-04-05T12:09:51.999Z</time></trkpt><trkpt lat="45.68988060022495" lon="8.579423392147529"><ele>335.6</ele><time>2026-04-05T12:09:53.999Z</time></trkpt><trkpt lat="45.689761232898746" lon="8.579387939487328"><ele>336.2</ele><time>2026-04-05T12:09:55.999Z</time></trkpt><trkpt lat="45.689704095140236" lon="8.579265919541177"><ele>336.79999999999995</ele><time>2026-04-05T12:09:57.999Z</time></trkpt><trkpt lat="45.689677797238076" lon="8.579181671035366"><ele>337.4</ele><time>2026-04-05T12:10:22.999Z</time></trkpt><trkpt lat="45.68967192059524" lon="8.57909000030925"><ele>338.0</ele><time>2026-04-05T12:10:23.999Z</time></trkpt><trkpt lat="45.689699660196034" lon="8.578920532911933"><ele>338.0</ele><time>2026-04-05T12:10:25.999Z</time></trkpt><trkpt lat="45.68973492636785" lon="8.578795361362303"><ele>338.0</ele><time>2026-04-05T12:10:26.999Z</time></trkpt><trkpt lat="45.68974928533218" lon="8.578677439847494"><ele>338.0</ele><time>2026-04-05T12:10:27.999Z</time></trkpt><trkpt lat="45.68976884087524" lon="8.578509789418234"><ele>338.0</ele><time>2026-04-05T12:10:29.999Z</time></trkpt><trkpt lat="45.68979318964205" lon="8.57839050487594"><ele>338.0</ele><time>2026-04-05T12:10:30.999Z</time></trkpt><trkpt lat="45.68981979566083" lon="8.578263261322808"><ele>338.79999999999995</ele><time>2026-04-05T12:10:31.999Z</time></trkpt><trkpt lat="45.68983827229548" lon="8.578108678756443"><ele>339.6</ele><time>2026-04-05T12:10:32.999Z</time></trkpt><trkpt lat="45.68983960899295" lon="8.577971949889589"><ele>340.4</ele><time>2026-04-05T12:10:33.999Z</time></trkpt><trkpt lat="45.689873284912885" lon="8.577855741162592"><ele>341.20000000000005</ele><time>2026-04-05T12:10:34.999Z</time></trkpt><trkpt lat="45.68990529725195" lon="8.577730410920338"><ele>342.0</ele><time>2026-04-05T12:10:35.999Z</time></trkpt><trkpt lat="45.68993670725499" lon="8.577599294657395"><ele>342.8</ele><time>2026-04-05T12:10:36.999Z</time></trkpt><trkpt lat="45.68995507809341" lon="8.577462309444607"><ele>343.6</ele><time>2026-04-05T12:10:37.999Z</time></trkpt><trkpt lat="45.68996922325659" lon="8.577364104690961"><ele>344.40000000000003</ele><time>2026-04-05T12:10:38.999Z</time></trkpt><trkpt lat="45.68997724581144" lon="8.577256742123547"><ele>345.20000000000005</ele><time>2026-04-05T12:10:39.999Z</time></trkpt><trkpt lat="45.68999101318095" lon="8.577128897051562"><ele>346.0</ele><time>2026-04-05T12:10:40.999Z</time></trkpt><trkpt lat="45.690033684857816" lon="8.576959731613824"><ele>346.6</ele><time>2026-04-05T12:10:41.999Z</time></trkpt><trkpt lat="45.69007144615408" lon="8.576761413597756"><ele>347.20000000000005</ele><time>2026-04-05T12:10:42.999Z</time></trkpt><trkpt lat="45.690091179440174" lon="8.576632190604196"><ele>347.79999999999995</ele><time>2026-04-05T12:10:43.999Z</time></trkpt><trkpt lat="45.69011464529609" lon="8.576516986198541"><ele>348.4</ele><time>2026-04-05T12:10:44.999Z</time></trkpt><trkpt lat="45.69013838434674" lon="8.57635453721576"><ele>349.0</ele><time>2026-04-05T12:10:45.999Z</time></trkpt><trkpt lat="45.690158494169886" lon="8.57619733100755"><ele>348.8333333333333</ele><time>2026-04-05T12:10:46.999Z</time></trkpt><trkpt lat="45.69018214032608" lon="8.57608417820234"><ele>348.66666666666663</ele><time>2026-04-05T12:10:47.999Z</time></trkpt><trkpt lat="45.69022249362684" lon="8.576012170236568"><ele>348.5</ele><time>2026-04-05T12:10:49.999Z</time></trkpt><trkpt lat="45.69028487887221" lon="8.576043789078703"><ele>348.3333333333333</ele><time>2026-04-05T12:10:51.999Z</time></trkpt><trkpt lat="45.690376584290085" lon="8.576040841620244"><ele>348.1666666666667</ele><time>2026-04-05T12:10:53.999Z</time></trkpt><trkpt lat="45.69043577632618" lon="8.576113929723498"><ele>348.0</ele><time>2026-04-05T12:10:55.999Z</time></trkpt><trkpt lat="45.6904250499004" lon="8.576208722989605"><ele>346.3333333333333</ele><time>2026-04-05T12:11:46.999Z</time></trkpt><trkpt lat="45.69049945410368" lon="8.576155167211285"><ele>344.6666666666667</ele><time>2026-04-05T12:13:10.999Z</time></trkpt><trkpt lat="45.69057379778146" lon="8.576138109419704"><ele>343.0</ele><time>2026-04-05T12:13:13.999Z</time></trkpt><trkpt lat="45.690634568267924" lon="8.576253603941204"><ele>341.33333333333337</ele><time>2026-04-05T12:13:16.999Z</time></trkpt><trkpt lat="45.690703495246524" lon="8.576330823647158"><ele>339.6666666666667</ele><time>2026-04-05T12:13:18.999Z</time></trkpt><trkpt lat="45.69077518337872" lon="8.57636545680718"><ele>338.0</ele><time>2026-04-05T12:13:19.999Z</time></trkpt><trkpt lat="45.690843443163054" lon="8.576380047350348"><ele>337.33333333333337</ele><time>2026-04-05T12:13:20.999Z</time></trkpt><trkpt lat="45.69096455599531" lon="8.5763412212759"><ele>336.6666666666667</ele><time>2026-04-05T12:13:22.999Z</time></trkpt><trkpt lat="45.69103463058844" lon="8.576351373603623"><ele>336.0</ele><time>2026-04-05T12:13:23.999Z</time></trkpt><trkpt lat="45.69110108197015" lon="8.576389006489375"><ele>335.3333333333333</ele><time>2026-04-05T12:13:25.999Z</time></trkpt><trkpt lat="45.691001410520386" lon="8.576369257682359"><ele>334.66666666666663</ele><time>2026-04-05T12:15:10Z</time></trkpt><trkpt lat="45.69092360304014" lon="8.57635850029241"><ele>334.0</ele><time>2026-04-05T12:15:12Z</time></trkpt><trkpt lat="45.69084334370517" lon="8.576365412321515"><ele>334.0</ele><time>2026-04-05T12:15:12.999Z</time></trkpt><trkpt lat="45.690774613812636" lon="8.576361576102425"><ele>334.0</ele><time>2026-04-05T12:15:13.999Z</time></trkpt><trkpt lat="45.69067456426121" lon="8.576278479287845"><ele>334.0</ele><time>2026-04-05T12:15:15.999Z</time></trkpt><trkpt lat="45.69062766838174" lon="8.576177940752869"><ele>338.0</ele><time>2026-04-05T12:15:17.999Z</time></trkpt><trkpt lat="45.69055688000095" lon="8.576103943347588"><ele>338.0</ele><time>2026-04-05T12:15:19.999Z</time></trkpt><trkpt lat="45.69049424574739" lon="8.576087975719169"><ele>338.0</ele><time>2026-04-05T12:15:20.999Z</time></trkpt></trkseg><trkseg><trkpt lat="45.69045601635702" lon="8.576108993798549"><ele>338.0</ele><time>2026-04-05T12:51:02.999Z</time></trkpt><trkpt lat="45.690387638999084" lon="8.57604298846763"><ele>338.0</ele><time>2026-04-05T12:51:52Z</time></trkpt><trkpt lat="45.69031503053894" lon="8.576034205804193"><ele>338.0</ele><time>2026-04-05T12:51:55Z</time></trkpt><trkpt lat="45.69023273640004" lon="8.576043902928982"><ele>338.0</ele><time>2026-04-05T12:51:58Z</time></trkpt><trkpt lat="45.690193309704114" lon="8.57612521377931"><ele>338.0</ele><time>2026-04-05T12:52:00Z</time></trkpt><trkpt lat="45.690179139840815" lon="8.576240831984817"><ele>338.0</ele><time>2026-04-05T12:52:02Z</time></trkpt><trkpt lat="45.69014505152122" lon="8.576328361921965"><ele>339.83333333333337</ele><time>2026-04-05T12:52:05Z</time></trkpt><trkpt lat="45.6901277536434" lon="8.576436450773896"><ele>341.6666666666667</ele><time>2026-04-05T12:52:09Z</time></trkpt><trkpt lat="45.69010362822614" lon="8.576526817747554"><ele>343.5</ele><time>2026-04-05T12:52:12Z</time></trkpt><trkpt lat="45.690082052200204" lon="8.57664499321172"><ele>345.3333333333333</ele><time>2026-04-05T12:52:14.999Z</time></trkpt><trkpt lat="45.69006082866309" lon="8.576764306680314"><ele>347.16666666666663</ele><time>2026-04-05T12:52:17.999Z</time></trkpt><trkpt lat="45.69003014327526" lon="8.576857836888594"><ele>349.0</ele><time>2026-04-05T12:52:19.999Z</time></trkpt><trkpt lat="45.69001036918997" lon="8.57697552844694"><ele>348.5</ele><time>2026-04-05T12:52:21.999Z</time></trkpt><trkpt lat="45.68999230460866" lon="8.577098606666176"><ele>348.0</ele><time>2026-04-05T12:52:23.999Z</time></trkpt><trkpt lat="45.689962933457075" lon="8.577196325557997"><ele>347.5</ele><time>2026-04-05T12:52:25.999Z</time></trkpt><trkpt lat="45.68995354282076" lon="8.577297403154299"><ele>347.0</ele><time>2026-04-05T12:52:28.999Z</time></trkpt><trkpt lat="45.68994009763134" lon="8.577412418034536"><ele>346.5</ele><time>2026-04-05T12:52:31.999Z</time></trkpt><trkpt lat="45.68990998671108" lon="8.577501073447484"><ele>346.0</ele><time>2026-04-05T12:52:34.999Z</time></trkpt><trkpt lat="45.68989729116869" lon="8.577594894435387"><ele>346.0</ele><time>2026-04-05T12:52:37.999Z</time></trkpt><trkpt lat="45.689925485238255" lon="8.577500042900015"><ele>346.0</ele><time>2026-04-05T12:52:58.999Z</time></trkpt><trkpt lat="45.68995709580721" lon="8.577388833005271"><ele>346.0</ele><time>2026-04-05T12:53:03.998Z</time></trkpt><trkpt lat="45.68996357558502" lon="8.577270252289855"><ele>346.0</ele><time>2026-04-05T12:53:08.998Z</time></trkpt><trkpt lat="45.689983763622244" lon="8.577179403020043"><ele>346.0</ele><time>2026-04-05T12:53:11.998Z</time></trkpt><trkpt lat="45.690005301996344" lon="8.577089704662814"><ele>346.0</ele><time>2026-04-05T12:53:14.998Z</time></trkpt><trkpt lat="45.690031683716704" lon="8.576939167083784"><ele>346.5</ele><time>2026-04-05T12:53:16.998Z</time></trkpt><trkpt lat="45.69005305838793" lon="8.576848886774107"><ele>347.0</ele><time>2026-04-05T12:53:21.998Z</time></trkpt><trkpt lat="45.690069304721845" lon="8.576741663243334"><ele>347.5</ele><time>2026-04-05T12:53:26.998Z</time></trkpt><trkpt lat="45.69008971522921" lon="8.57663618889392"><ele>348.0</ele><time>2026-04-05T12:53:32.998Z</time></trkpt><trkpt lat="45.69011093429194" lon="8.576523531037271"><ele>348.5</ele><time>2026-04-05T12:53:37Z</time></trkpt><trkpt lat="45.690120703156516" lon="8.57640939496323"><ele>349.0</ele><time>2026-04-05T12:53:41Z</time></trkpt><trkpt lat="45.69006099572446" lon="8.57633971157193"><ele>349.0</ele><time>2026-04-05T12:53:48Z</time></trkpt><trkpt lat="45.690012343529695" lon="8.57626994486439"><ele>349.0</ele><time>2026-04-05T12:54:06Z</time></trkpt><trkpt lat="45.68990344516481" lon="8.576275849097557"><ele>349.0</ele><time>2026-04-05T12:54:08.999Z</time></trkpt><trkpt lat="45.68981579759278" lon="8.5762675959027"><ele>349.0</ele><time>2026-04-05T12:54:10.999Z</time></trkpt><trkpt lat="45.68973249444679" lon="8.576253313542786"><ele>349.0</ele><time>2026-04-05T12:54:12.999Z</time></trkpt><trkpt lat="45.68964870475927" lon="8.576251319265067"><ele>349.0</ele><time>2026-04-05T12:54:14.999Z</time></trkpt><trkpt lat="45.6895697620689" lon="8.576265646077005"><ele>349.0</ele><time>2026-04-05T12:54:16.999Z</time></trkpt><trkpt lat="45.68948079883564" lon="8.576249996155372"><ele>349.0</ele><time>2026-04-05T12:54:18.999Z</time></trkpt><trkpt lat="45.68941191670083" lon="8.576237468128697"><ele>349.0</ele><time>2026-04-05T12:54:20.999Z</time></trkpt><trkpt lat="45.68932377756188" lon="8.57626492213303"><ele>349.0</ele><time>2026-04-05T12:54:23.999Z</time></trkpt><trkpt lat="45.68924631834368" lon="8.576268774675773"><ele>349.0</ele><time>2026-04-05T12:54:26.999Z</time></trkpt><trkpt lat="45.689172403745225" lon="8.576275162541146"><ele>349.0</ele><time>2026-04-05T12:54:30.999Z</time></trkpt><trkpt lat="45.68911301049861" lon="8.576310956306274"><ele>349.0</ele><time>2026-04-05T12:54:33.999Z</time></trkpt><trkpt lat="45.68904863083915" lon="8.576311176944317"><ele>349.0</ele><time>2026-04-05T12:54:35.999Z</time></trkpt><trkpt lat="45.68897832132874" lon="8.576317243382247"><ele>349.0</ele><time>2026-04-05T12:54:37.999Z</time></trkpt><trkpt lat="45.68888783996844" lon="8.57632094381102"><ele>349.0</ele><time>2026-04-05T12:54:39.999Z</time></trkpt><trkpt lat="45.688800376251436" lon="8.57631955482539"><ele>349.0</ele><time>2026-04-05T12:54:41.999Z</time></trkpt><trkpt lat="45.68873444105327" lon="8.576312270532151"><ele>349.0</ele><time>2026-04-05T12:54:43.999Z</time></trkpt><trkpt lat="45.688642197723944" lon="8.576323954817436"><ele>348.6</ele><time>2026-04-05T12:54:46.999Z</time></trkpt><trkpt lat="45.68856449776865" lon="8.576331665054276"><ele>348.2</ele><time>2026-04-05T12:54:49.999Z</time></trkpt><trkpt lat="45.68847679359855" lon="8.576345172365594"><ele>347.8</ele><time>2026-04-05T12:55:09.998Z</time></trkpt><trkpt lat="45.688367398557055" lon="8.576352106853957"><ele>347.40000000000003</ele><time>2026-04-05T12:55:11.998Z</time></trkpt><trkpt lat="45.688251579054615" lon="8.576342185655914"><ele>347.0</ele><time>2026-04-05T12:55:13.998Z</time></trkpt><trkpt lat="45.688132872712394" lon="8.57634785523888"><ele>347.0</ele><time>2026-04-05T12:55:15.998Z</time></trkpt><trkpt lat="45.68801453345252" lon="8.57634116688056"><ele>347.0</ele><time>2026-04-05T12:55:17.998Z</time></trkpt><trkpt lat="45.68794979248314" lon="8.576335790101057"><ele>347.0</ele><time>2026-04-05T12:55:18.998Z</time></trkpt><trkpt lat="45.68783296530702" lon="8.576317602986057"><ele>347.0</ele><time>2026-04-05T12:55:20.998Z</time></trkpt><trkpt lat="45.687724919905456" lon="8.576324400111943"><ele>347.0</ele><time>2026-04-05T12:55:22.998Z</time></trkpt><trkpt lat="45.687604003627044" lon="8.576297738112135"><ele>348.0</ele><time>2026-04-05T12:55:24.998Z</time></trkpt><trkpt lat="45.68749287295776" lon="8.576287862388295"><ele>349.0</ele><time>2026-04-05T12:55:26.998Z</time></trkpt><trkpt lat="45.687381127119856" lon="8.576289196978182"><ele>350.0</ele><time>2026-04-05T12:55:28.998Z</time></trkpt><trkpt lat="45.687269504026986" lon="8.576295050486953"><ele>351.0</ele><time>2026-04-05T12:55:30.998Z</time></trkpt><trkpt lat="45.68716813311135" lon="8.576286544740771"><ele>352.0</ele><time>2026-04-05T12:55:32.998Z</time></trkpt><trkpt lat="45.68706577155249" lon="8.576280482613724"><ele>352.0</ele><time>2026-04-05T12:55:34.998Z</time></trkpt><trkpt lat="45.686956620093206" lon="8.576278064811216"><ele>352.0</ele><time>2026-04-05T12:55:36.998Z</time></trkpt><trkpt lat="45.68684006824178" lon="8.57626531188369"><ele>352.0</ele><time>2026-04-05T12:55:38.998Z</time></trkpt><trkpt lat="45.68672165416101" lon="8.57625268273949"><ele>352.0</ele><time>2026-04-05T12:55:41Z</time></trkpt><trkpt lat="45.686606565723714" lon="8.576251716442941"><ele>351.6</ele><time>2026-04-05T12:55:43Z</time></trkpt><trkpt lat="45.68648740351703" lon="8.576256361665353"><ele>351.20000000000005</ele><time>2026-04-05T12:55:45Z</time></trkpt><trkpt lat="45.686372088606184" lon="8.576250865340123"><ele>350.8</ele><time>2026-04-05T12:55:47Z</time></trkpt><trkpt lat="45.686262601358074" lon="8.576250067054119"><ele>350.4</ele><time>2026-04-05T12:55:49Z</time></trkpt><trkpt lat="45.68617742226505" lon="8.576241269055847"><ele>350.0</ele><time>2026-04-05T12:55:51Z</time></trkpt><trkpt lat="45.68610060314271" lon="8.576174337794347"><ele>350.75</ele><time>2026-04-05T12:55:53Z</time></trkpt><trkpt lat="45.68602293804514" lon="8.576033266148535"><ele>351.5</ele><time>2026-04-05T12:55:55Z</time></trkpt><trkpt lat="45.68593120983338" lon="8.575928313769749"><ele>352.25</ele><time>2026-04-05T12:55:56.999Z</time></trkpt><trkpt lat="45.68583923666401" lon="8.575813925788074"><ele>353.0</ele><time>2026-04-05T12:55:58.999Z</time></trkpt><trkpt lat="45.68575817259991" lon="8.575708134685943"><ele>353.0</ele><time>2026-04-05T12:56:00.999Z</time></trkpt><trkpt lat="45.6856880959794" lon="8.575616332621603"><ele>353.0</ele><time>2026-04-05T12:56:02.999Z</time></trkpt><trkpt lat="45.68561336566075" lon="8.575530324578812"><ele>353.0</ele><time>2026-04-05T12:56:04.999Z</time></trkpt><trkpt lat="45.685545329470216" lon="8.575424457444125"><ele>353.0</ele><time>2026-04-05T12:56:06.999Z</time></trkpt><trkpt lat="45.68547274405767" lon="8.575294642086709"><ele>353.0</ele><time>2026-04-05T12:56:08.999Z</time></trkpt><trkpt lat="45.68542446477457" lon="8.575231162977145"><ele>353.1666666666667</ele><time>2026-04-05T12:56:09.999Z</time></trkpt><trkpt lat="45.685380753476316" lon="8.57516583658595"><ele>353.33333333333337</ele><time>2026-04-05T12:56:10.999Z</time></trkpt><trkpt lat="45.68533200165523" lon="8.575104945530839"><ele>353.5</ele><time>2026-04-05T12:56:11.999Z</time></trkpt><trkpt lat="45.68528197713393" lon="8.575036416102535"><ele>353.6666666666667</ele><time>2026-04-05T12:56:12.999Z</time></trkpt><trkpt lat="45.68518374022301" lon="8.574927950208258"><ele>353.8333333333333</ele><time>2026-04-05T12:56:14.999Z</time></trkpt><trkpt lat="45.68513996771945" lon="8.57484459296388"><ele>354.0</ele><time>2026-04-05T12:56:15.999Z</time></trkpt><trkpt lat="45.685087980118944" lon="8.57478529413286"><ele>354.8333333333333</ele><time>2026-04-05T12:56:16.999Z</time></trkpt><trkpt lat="45.68502946181383" lon="8.574751827031717"><ele>355.6666666666667</ele><time>2026-04-05T12:56:17.999Z</time></trkpt><trkpt lat="45.68497354009762" lon="8.574704328051565"><ele>356.5</ele><time>2026-04-05T12:56:18.999Z</time></trkpt><trkpt lat="45.684917215784026" lon="8.57464798315944"><ele>357.33333333333337</ele><time>2026-04-05T12:56:19.999Z</time></trkpt><trkpt lat="45.6848068783052" lon="8.574610556911098"><ele>358.1666666666667</ele><time>2026-04-05T12:56:21.999Z</time></trkpt><trkpt lat="45.684736805220794" lon="8.574586868717583"><ele>359.0</ele><time>2026-04-05T12:56:23.999Z</time></trkpt><trkpt lat="45.68462086730932" lon="8.574557772230412"><ele>359.0</ele><time>2026-04-05T12:56:25.999Z</time></trkpt><trkpt lat="45.68455069132646" lon="8.574538048284937"><ele>359.0</ele><time>2026-04-05T12:56:26.999Z</time></trkpt><trkpt lat="45.6844809330451" lon="8.574498225759987"><ele>359.0</ele><time>2026-04-05T12:56:27.999Z</time></trkpt><trkpt lat="45.68440008513898" lon="8.574489596909348"><ele>359.0</ele><time>2026-04-05T12:56:28.999Z</time></trkpt><trkpt lat="45.68432515830938" lon="8.574460529959147"><ele>359.0</ele><time>2026-04-05T12:56:29.999Z</time></trkpt><trkpt lat="45.68424345645752" lon="8.574434788263021"><ele>359.0</ele><time>2026-04-05T12:56:30.999Z</time></trkpt><trkpt lat="45.68415982972306" lon="8.574408924912818"><ele>358.4</ele><time>2026-04-05T12:56:31.999Z</time></trkpt><trkpt lat="45.68407552446179" lon="8.574376065042273"><ele>357.79999999999995</ele><time>2026-04-05T12:56:32.999Z</time></trkpt><trkpt lat="45.68398659300549" lon="8.574345038794947"><ele>357.20000000000005</ele><time>2026-04-05T12:56:33.999Z</time></trkpt><trkpt lat="45.683900275300346" lon="8.574293931383146"><ele>356.6</ele><time>2026-04-05T12:56:34.999Z</time></trkpt><trkpt lat="45.683808451634114" lon="8.574277838679786"><ele>356.0</ele><time>2026-04-05T12:56:35.999Z</time></trkpt><trkpt lat="45.683723396702355" lon="8.574247183846152"><ele>356.0</ele><time>2026-04-05T12:56:36.999Z</time></trkpt><trkpt lat="45.6836458507984" lon="8.574218520262225"><ele>356.0</ele><time>2026-04-05T12:56:37.999Z</time></trkpt><trkpt lat="45.683570041654264" lon="8.574188690245279"><ele>356.0</ele><time>2026-04-05T12:56:38.999Z</time></trkpt><trkpt lat="45.6835033639402" lon="8.574155204764939"><ele>356.0</ele><time>2026-04-05T12:56:39.999Z</time></trkpt><trkpt lat="45.683442104510675" lon="8.574130436472535"><ele>356.0</ele><time>2026-04-05T12:56:40.999Z</time></trkpt><trkpt lat="45.683350243026595" lon="8.57407809797996"><ele>356.0</ele><time>2026-04-05T12:56:42.999Z</time></trkpt><trkpt lat="45.683254754064464" lon="8.574058518418076"><ele>355.8</ele><time>2026-04-05T12:56:45.999Z</time></trkpt><trkpt lat="45.683171882672944" lon="8.57399206332795"><ele>355.6</ele><time>2026-04-05T12:56:47.999Z</time></trkpt><trkpt lat="45.68307065552252" lon="8.57397650471391"><ele>355.4</ele><time>2026-04-05T12:56:49.998Z</time></trkpt><trkpt lat="45.68299614045338" lon="8.573855860628989"><ele>355.2</ele><time>2026-04-05T12:56:51.998Z</time></trkpt><trkpt lat="45.68290013446034" lon="8.573784617010537"><ele>355.0</ele><time>2026-04-05T12:56:53.998Z</time></trkpt><trkpt lat="45.68279329316674" lon="8.573722821663011"><ele>354.6</ele><time>2026-04-05T12:56:55.998Z</time></trkpt><trkpt lat="45.68268783508432" lon="8.57365085430339"><ele>354.2</ele><time>2026-04-05T12:56:57.998Z</time></trkpt><trkpt lat="45.68259824998624" lon="8.573595464931817"><ele>353.79999999999995</ele><time>2026-04-05T12:56:59.998Z</time></trkpt><trkpt lat="45.682521314471266" lon="8.573548622989726"><ele>353.4</ele><time>2026-04-05T12:57:01.998Z</time></trkpt><trkpt lat="45.68245894234059" lon="8.573530903365912"><ele>353.0</ele><time>2026-04-05T12:57:04.998Z</time></trkpt><trkpt lat="45.682395027614" lon="8.573677782316803"><ele>353.0</ele><time>2026-04-05T12:57:07.998Z</time></trkpt><trkpt lat="45.68233852235122" lon="8.573826576995167"><ele>353.0</ele><time>2026-04-05T12:57:09.998Z</time></trkpt><trkpt lat="45.6823089839677" lon="8.573967243088404"><ele>353.0</ele><time>2026-04-05T12:57:11.998Z</time></trkpt><trkpt lat="45.68227387181231" lon="8.57409102288487"><ele>353.0</ele><time>2026-04-05T12:57:13.998Z</time></trkpt><trkpt lat="45.68223748241901" lon="8.574210719586523"><ele>353.0</ele><time>2026-04-05T12:57:15.998Z</time></trkpt><trkpt lat="45.68219277817883" lon="8.574345573584305"><ele>353.0</ele><time>2026-04-05T12:57:17.998Z</time></trkpt><trkpt lat="45.68213630715917" lon="8.57448553363282"><ele>353.0</ele><time>2026-04-05T12:57:19.998Z</time></trkpt><trkpt lat="45.68208773145572" lon="8.574641603296655"><ele>353.0</ele><time>2026-04-05T12:57:21.998Z</time></trkpt><trkpt lat="45.682037399714595" lon="8.574788455671742"><ele>353.0</ele><time>2026-04-05T12:57:23.998Z</time></trkpt><trkpt lat="45.68197920398457" lon="8.574915916866615"><ele>352.59999999999997</ele><time>2026-04-05T12:57:25.998Z</time></trkpt><trkpt lat="45.68189368890768" lon="8.575007572323964"><ele>352.2</ele><time>2026-04-05T12:57:27.998Z</time></trkpt><trkpt lat="45.681799444269295" lon="8.575102878066891"><ele>351.8</ele><time>2026-04-05T12:57:29.998Z</time></trkpt><trkpt lat="45.6817139027833" lon="8.575194189704249"><ele>351.4</ele><time>2026-04-05T12:57:31.998Z</time></trkpt><trkpt lat="45.68163017512728" lon="8.575286224601268"><ele>351.0</ele><time>2026-04-05T12:57:33.998Z</time></trkpt><trkpt lat="45.681548193912064" lon="8.575391339133406"><ele>349.8</ele><time>2026-04-05T12:57:35.998Z</time></trkpt><trkpt lat="45.681489051093735" lon="8.575487376576222"><ele>348.6</ele><time>2026-04-05T12:57:37.998Z</time></trkpt><trkpt lat="45.68142554415822" lon="8.575567783322349"><ele>347.4</ele><time>2026-04-05T12:57:39.998Z</time></trkpt><trkpt lat="45.68136622461373" lon="8.575670037370688"><ele>346.2</ele><time>2026-04-05T12:57:41.997Z</time></trkpt><trkpt lat="45.68131110192995" lon="8.575766809795693"><ele>345.0</ele><time>2026-04-05T12:57:43.997Z</time></trkpt><trkpt lat="45.68127244700219" lon="8.575893906297855"><ele>345.0</ele><time>2026-04-05T12:57:45.999Z</time></trkpt><trkpt lat="45.681224165402874" lon="8.576034603496852"><ele>345.0</ele><time>2026-04-05T12:57:47.999Z</time></trkpt><trkpt lat="45.68117371808963" lon="8.576172361390256"><ele>345.0</ele><time>2026-04-05T12:57:49.999Z</time></trkpt><trkpt lat="45.68112476726144" lon="8.576288999143275"><ele>345.0</ele><time>2026-04-05T12:57:51.999Z</time></trkpt><trkpt lat="45.68107814563581" lon="8.576388019249038"><ele>345.0</ele><time>2026-04-05T12:57:53.999Z</time></trkpt><trkpt lat="45.68100614674045" lon="8.576505433325774"><ele>345.1666666666667</ele><time>2026-04-05T12:57:55.999Z</time></trkpt><trkpt lat="45.6809710630583" lon="8.576624061829984"><ele>345.3333333333333</ele><time>2026-04-05T12:57:57.999Z</time></trkpt><trkpt lat="45.68095026110328" lon="8.576753204026764"><ele>345.5</ele><time>2026-04-05T12:57:59.999Z</time></trkpt><trkpt lat="45.68093241124192" lon="8.576875318828895"><ele>345.66666666666663</ele><time>2026-04-05T12:58:01.999Z</time></trkpt><trkpt lat="45.68091977296385" lon="8.576999960908111"><ele>345.8333333333333</ele><time>2026-04-05T12:58:03.999Z</time></trkpt><trkpt lat="45.68094473231034" lon="8.577117834385387"><ele>346.0</ele><time>2026-04-05T12:58:05.999Z</time></trkpt><trkpt lat="45.68096772943408" lon="8.577241085656398"><ele>345.6</ele><time>2026-04-05T12:58:07.999Z</time></trkpt><trkpt lat="45.680922417728105" lon="8.577365349636853"><ele>345.20000000000005</ele><time>2026-04-05T12:58:09.999Z</time></trkpt><trkpt lat="45.6808678267366" lon="8.577466047919444"><ele>344.79999999999995</ele><time>2026-04-05T12:58:11.999Z</time></trkpt><trkpt lat="45.68080897235794" lon="8.577569625596311"><ele>344.4</ele><time>2026-04-05T12:58:13.999Z</time></trkpt><trkpt lat="45.6807278440588" lon="8.577666690726078"><ele>344.0</ele><time>2026-04-05T12:58:15.999Z</time></trkpt><trkpt lat="45.68064514614522" lon="8.577704809671472"><ele>344.0</ele><time>2026-04-05T12:58:17.999Z</time></trkpt><trkpt lat="45.680566038733076" lon="8.577693379147032"><ele>344.0</ele><time>2026-04-05T12:58:19.999Z</time></trkpt><trkpt lat="45.68047970664432" lon="8.57771306456133"><ele>344.0</ele><time>2026-04-05T12:58:21.999Z</time></trkpt><trkpt lat="45.680413703078266" lon="8.577745422222518"><ele>344.0</ele><time>2026-04-05T12:58:23.999Z</time></trkpt><trkpt lat="45.680340049074864" lon="8.577777826581498"><ele>344.0</ele><time>2026-04-05T12:58:25.999Z</time></trkpt><trkpt lat="45.68026693313365" lon="8.577811434567137"><ele>344.0</ele><time>2026-04-05T12:58:27.999Z</time></trkpt><trkpt lat="45.680182240232504" lon="8.57783419862058"><ele>345.2</ele><time>2026-04-05T12:58:29.999Z</time></trkpt><trkpt lat="45.68010380977122" lon="8.57787250225978"><ele>346.4</ele><time>2026-04-05T12:58:31.999Z</time></trkpt><trkpt lat="45.68001084502948" lon="8.577888581794774"><ele>347.6</ele><time>2026-04-05T12:58:33.999Z</time></trkpt><trkpt lat="45.679921852756166" lon="8.577917791536581"><ele>348.8</ele><time>2026-04-05T12:58:35.999Z</time></trkpt><trkpt lat="45.679822671655685" lon="8.577946016823807"><ele>350.0</ele><time>2026-04-05T12:58:37.999Z</time></trkpt><trkpt lat="45.67972397753242" lon="8.577967183044656"><ele>350.0</ele><time>2026-04-05T12:58:39.999Z</time></trkpt><trkpt lat="45.67962902316684" lon="8.577994223790625"><ele>350.0</ele><time>2026-04-05T12:58:41.999Z</time></trkpt><trkpt lat="45.67956008799304" lon="8.578005145760681"><ele>350.0</ele><time>2026-04-05T12:58:43.999Z</time></trkpt><trkpt lat="45.67948433005746" lon="8.578029706454377"><ele>350.0</ele><time>2026-04-05T12:58:45.999Z</time></trkpt><trkpt lat="45.67937323734003" lon="8.578053654452306"><ele>350.0</ele><time>2026-04-05T12:58:47.999Z</time></trkpt><trkpt lat="45.67927451470822" lon="8.578076396226615"><ele>350.0</ele><time>2026-04-05T12:58:49.998Z</time></trkpt><trkpt lat="45.67915978251729" lon="8.57810329001778"><ele>350.0</ele><time>2026-04-05T12:58:51.998Z</time></trkpt><trkpt lat="45.67903741212438" lon="8.578128766222157"><ele>350.0</ele><time>2026-04-05T12:58:53.998Z</time></trkpt><trkpt lat="45.678940056908544" lon="8.578162964151879"><ele>350.0</ele><time>2026-04-05T12:58:55.998Z</time></trkpt><trkpt lat="45.6788561014203" lon="8.578183133622398"><ele>350.0</ele><time>2026-04-05T12:58:57.998Z</time></trkpt><trkpt lat="45.67879001248882" lon="8.57820902672396"><ele>350.0</ele><time>2026-04-05T12:59:00.998Z</time></trkpt><trkpt lat="45.6787106891368" lon="8.578129697310235"><ele>350.0</ele><time>2026-04-05T12:59:04.998Z</time></trkpt><trkpt lat="45.67867383170826" lon="8.577990730608795"><ele>350.0</ele><time>2026-04-05T12:59:06.998Z</time></trkpt><trkpt lat="45.678609460607646" lon="8.577854385579636"><ele>350.0</ele><time>2026-04-05T12:59:08.998Z</time></trkpt><trkpt lat="45.678547143808565" lon="8.57771384081607"><ele>350.0</ele><time>2026-04-05T12:59:10.998Z</time></trkpt><trkpt lat="45.67851058464457" lon="8.577640320109639"><ele>348.8</ele><time>2026-04-05T12:59:11.998Z</time></trkpt><trkpt lat="45.67844942276105" lon="8.577498324877533"><ele>347.6</ele><time>2026-04-05T12:59:13.998Z</time></trkpt><trkpt lat="45.678419632552185" lon="8.57741422932272"><ele>346.4</ele><time>2026-04-05T12:59:14.998Z</time></trkpt><trkpt lat="45.6783625786476" lon="8.577278799517225"><ele>345.2</ele><time>2026-04-05T12:59:16.998Z</time></trkpt><trkpt lat="45.67830432558108" lon="8.577186797648453"><ele>344.0</ele><time>2026-04-05T12:59:18.998Z</time></trkpt><trkpt lat="45.678241683543085" lon="8.577104186549313"><ele>344.0</ele><time>2026-04-05T12:59:21.998Z</time></trkpt><trkpt lat="45.67817386604463" lon="8.577041264822608"><ele>344.0</ele><time>2026-04-05T12:59:23.998Z</time></trkpt><trkpt lat="45.67811671801612" lon="8.577003308820204"><ele>344.0</ele><time>2026-04-05T12:59:24.998Z</time></trkpt><trkpt lat="45.67799964691657" lon="8.576952344409857"><ele>344.0</ele><time>2026-04-05T12:59:26.998Z</time></trkpt><trkpt lat="45.67792934561503" lon="8.57693179015458"><ele>344.0</ele><time>2026-04-05T12:59:27.998Z</time></trkpt><trkpt lat="45.67786652493125" lon="8.57690719259139"><ele>344.0</ele><time>2026-04-05T12:59:28.998Z</time></trkpt><trkpt lat="45.677802345576175" lon="8.57686931694378"><ele>344.0</ele><time>2026-04-05T12:59:29.998Z</time></trkpt><trkpt lat="45.677739895112246" lon="8.576836171042045"><ele>344.0</ele><time>2026-04-05T12:59:30.998Z</time></trkpt><trkpt lat="45.6776760608855" lon="8.576791319708414"><ele>344.0</ele><time>2026-04-05T12:59:31.998Z</time></trkpt><trkpt lat="45.67761689063544" lon="8.576737744117388"><ele>344.0</ele><time>2026-04-05T12:59:32.998Z</time></trkpt><trkpt lat="45.67755380422311" lon="8.576673344201916"><ele>344.0</ele><time>2026-04-05T12:59:33.998Z</time></trkpt><trkpt lat="45.67749754129467" lon="8.576623394116082"><ele>344.0</ele><time>2026-04-05T12:59:34.998Z</time></trkpt><trkpt lat="45.67739324592078" lon="8.576535823198745"><ele>344.00000000000006</ele><time>2026-04-05T12:59:36.998Z</time></trkpt><trkpt lat="45.6773341893827" lon="8.576490399913594"><ele>344.0</ele><time>2026-04-05T12:59:37.998Z</time></trkpt><trkpt lat="45.67727238340211" lon="8.57644149295762"><ele>344.0</ele><time>2026-04-05T12:59:38.998Z</time></trkpt><trkpt lat="45.67720665468371" lon="8.576385141398998"><ele>344.0</ele><time>2026-04-05T12:59:39.998Z</time></trkpt><trkpt lat="45.67714370536958" lon="8.576331564783109"><ele>344.0</ele><time>2026-04-05T12:59:40.998Z</time></trkpt><trkpt lat="45.67707919111619" lon="8.576281729622051"><ele>344.00000000000006</ele><time>2026-04-05T12:59:41.998Z</time></trkpt><trkpt lat="45.67701976083488" lon="8.57623391205044"><ele>344.0</ele><time>2026-04-05T12:59:42.998Z</time></trkpt><trkpt lat="45.67695643306486" lon="8.57618916956623"><ele>343.7142857142857</ele><time>2026-04-05T12:59:43.997Z</time></trkpt><trkpt lat="45.67689140416955" lon="8.576150888984799"><ele>343.42857142857144</ele><time>2026-04-05T12:59:44.997Z</time></trkpt><trkpt lat="45.676829083434" lon="8.57611419769624"><ele>343.1428571428571</ele><time>2026-04-05T12:59:45.997Z</time></trkpt><trkpt lat="45.67676201627036" lon="8.576072782627767"><ele>342.8571428571429</ele><time>2026-04-05T12:59:46.997Z</time></trkpt><trkpt lat="45.67669453124275" lon="8.576032930278638"><ele>342.57142857142856</ele><time>2026-04-05T12:59:47.997Z</time></trkpt><trkpt lat="45.67662587881238" lon="8.575989917041666"><ele>342.2857142857143</ele><time>2026-04-05T12:59:48.997Z</time></trkpt><trkpt lat="45.676564763756424" lon="8.575947563282465"><ele>342.0</ele><time>2026-04-05T12:59:49.997Z</time></trkpt><trkpt lat="45.67645273090014" lon="8.575867365702122"><ele>342.0</ele><time>2026-04-05T12:59:51.999Z</time></trkpt><trkpt lat="45.67633687451256" lon="8.575803606562138"><ele>342.0</ele><time>2026-04-05T12:59:53.999Z</time></trkpt><trkpt lat="45.67626926938879" lon="8.5757781416161"><ele>342.0</ele><time>2026-04-05T12:59:54.999Z</time></trkpt><trkpt lat="45.676200997549515" lon="8.575749930338528"><ele>342.0</ele><time>2026-04-05T12:59:55.999Z</time></trkpt><trkpt lat="45.67612970802007" lon="8.57572178952168"><ele>342.0</ele><time>2026-04-05T12:59:56.999Z</time></trkpt><trkpt lat="45.67602268467408" lon="8.575677953572521"><ele>341.1666666666667</ele><time>2026-04-05T12:59:58.999Z</time></trkpt><trkpt lat="45.675996157232625" lon="8.57558938316892"><ele>340.3333333333333</ele><time>2026-04-05T13:00:00.999Z</time></trkpt><trkpt lat="45.67602625260172" lon="8.575423349175487"><ele>339.5</ele><time>2026-04-05T13:00:02.999Z</time></trkpt><trkpt lat="45.67603964516121" lon="8.5753239312205"><ele>338.66666666666663</ele><time>2026-04-05T13:00:03.999Z</time></trkpt><trkpt lat="45.67604581885659" lon="8.575226349540655"><ele>337.8333333333333</ele><time>2026-04-05T13:00:04.999Z</time></trkpt><trkpt lat="45.67605114256409" lon="8.575133910789258"><ele>337.0</ele><time>2026-04-05T13:00:05.999Z</time></trkpt><trkpt lat="45.67606704616355" lon="8.5749826914943"><ele>337.0</ele><time>2026-04-05T13:00:07.999Z</time></trkpt><trkpt lat="45.67607273683165" lon="8.574805343691155"><ele>337.0</ele><time>2026-04-05T13:00:10.999Z</time></trkpt><trkpt lat="45.676056261647524" lon="8.574701448033617"><ele>337.0</ele><time>2026-04-05T13:01:14.998Z</time></trkpt><trkpt lat="45.67614337249655" lon="8.574652480540665"><ele>337.0</ele><time>2026-04-05T13:01:17.998Z</time></trkpt><trkpt lat="45.67624189241516" lon="8.574688722510654"><ele>337.0</ele><time>2026-04-05T13:01:19.998Z</time></trkpt><trkpt lat="45.676345034845255" lon="8.574681146440119"><ele>337.6</ele><time>2026-04-05T13:01:21.998Z</time></trkpt><trkpt lat="45.676467201798616" lon="8.574672154157954"><ele>338.20000000000005</ele><time>2026-04-05T13:01:23.998Z</time></trkpt><trkpt lat="45.676531465369166" lon="8.5746674239514"><ele>338.8</ele><time>2026-04-05T13:01:24.998Z</time></trkpt><trkpt lat="45.67665864323027" lon="8.574635346019786"><ele>339.4</ele><time>2026-04-05T13:01:26.998Z</time></trkpt><trkpt lat="45.67672758031254" lon="8.574654886651325"><ele>340.0</ele><time>2026-04-05T13:01:27.998Z</time></trkpt><trkpt lat="45.67679945119583" lon="8.574651984209739"><ele>340.0</ele><time>2026-04-05T13:01:28.998Z</time></trkpt><trkpt lat="45.67687526152066" lon="8.574649961249014"><ele>340.0</ele><time>2026-04-05T13:01:29.998Z</time></trkpt><trkpt lat="45.676948242253324" lon="8.574647045885216"><ele>340.0</ele><time>2026-04-05T13:01:30.998Z</time></trkpt><trkpt lat="45.67701824247995" lon="8.57463941243543"><ele>340.0</ele><time>2026-04-05T13:01:31.998Z</time></trkpt><trkpt lat="45.67708896320316" lon="8.57462304752085"><ele>340.0</ele><time>2026-04-05T13:01:32.998Z</time></trkpt><trkpt lat="45.67715395298062" lon="8.57459826444989"><ele>340.0</ele><time>2026-04-05T13:01:33.998Z</time></trkpt><trkpt lat="45.67722167846397" lon="8.574564955634656"><ele>340.0</ele><time>2026-04-05T13:01:34.998Z</time></trkpt><trkpt lat="45.67729182202981" lon="8.57452858346985"><ele>338.0</ele><time>2026-04-05T13:01:35.998Z</time></trkpt><trkpt lat="45.67736308843386" lon="8.574464941794012"><ele>336.0</ele><time>2026-04-05T13:01:36.998Z</time></trkpt><trkpt lat="45.6774472587315" lon="8.574425951120084"><ele>334.0</ele><time>2026-04-05T13:01:37.998Z</time></trkpt><trkpt lat="45.67753712774224" lon="8.574385489395523"><ele>332.0</ele><time>2026-04-05T13:01:38.998Z</time></trkpt><trkpt lat="45.67763254285784" lon="8.574341512215458"><ele>330.0</ele><time>2026-04-05T13:01:39.998Z</time></trkpt><trkpt lat="45.67772706340455" lon="8.574298867046691"><ele>330.8</ele><time>2026-04-05T13:01:40.998Z</time></trkpt><trkpt lat="45.677818329139214" lon="8.574255855258015"><ele>331.6</ele><time>2026-04-05T13:01:41.998Z</time></trkpt><trkpt lat="45.677907303887" lon="8.574213052153366"><ele>332.4</ele><time>2026-04-05T13:01:42.998Z</time></trkpt><trkpt lat="45.67799292336174" lon="8.574170108427873"><ele>333.2</ele><time>2026-04-05T13:01:43.998Z</time></trkpt><trkpt lat="45.67808263556598" lon="8.574153229810166"><ele>334.0</ele><time>2026-04-05T13:01:44.998Z</time></trkpt><trkpt lat="45.678163237310805" lon="8.574094409415038"><ele>334.0</ele><time>2026-04-05T13:01:45.998Z</time></trkpt><trkpt lat="45.67824840940718" lon="8.57406513559559"><ele>334.0</ele><time>2026-04-05T13:01:46.998Z</time></trkpt><trkpt lat="45.67833175882437" lon="8.574030617157096"><ele>334.0</ele><time>2026-04-05T13:01:47.998Z</time></trkpt><trkpt lat="45.67840271473703" lon="8.57399838422139"><ele>334.0</ele><time>2026-04-05T13:01:48.998Z</time></trkpt><trkpt lat="45.67846306833557" lon="8.57396931399534"><ele>334.0</ele><time>2026-04-05T13:01:49.998Z</time></trkpt><trkpt lat="45.67854000165251" lon="8.573944138865189"><ele>334.0</ele><time>2026-04-05T13:01:51.998Z</time></trkpt><trkpt lat="45.678438704824" lon="8.573551584494593"><ele>333.85714285714283</ele><time>2026-04-05T13:01:55.997Z</time></trkpt><trkpt lat="45.6784270939623" lon="8.573456297872534"><ele>333.7142857142857</ele><time>2026-04-05T13:01:56.997Z</time></trkpt><trkpt lat="45.67840565593297" lon="8.573358317076165"><ele>333.57142857142856</ele><time>2026-04-05T13:01:57.999Z</time></trkpt><trkpt lat="45.6783827089438" lon="8.573270158757516"><ele>333.42857142857144</ele><time>2026-04-05T13:01:58.999Z</time></trkpt><trkpt lat="45.678361892000964" lon="8.573182548348232"><ele>333.2857142857143</ele><time>2026-04-05T13:01:59.999Z</time></trkpt><trkpt lat="45.678343680245" lon="8.573091047770596"><ele>333.14285714285717</ele><time>2026-04-05T13:02:00.999Z</time></trkpt><trkpt lat="45.67832805323097" lon="8.573000464612392"><ele>333.0</ele><time>2026-04-05T13:02:01.999Z</time></trkpt><trkpt lat="45.67831204905094" lon="8.572908567576082"><ele>333.0</ele><time>2026-04-05T13:02:02.999Z</time></trkpt><trkpt lat="45.67829175478321" lon="8.572818240174255"><ele>333.0</ele><time>2026-04-05T13:02:03.999Z</time></trkpt><trkpt lat="45.67826258733305" lon="8.572723208611476"><ele>333.0</ele><time>2026-04-05T13:02:04.999Z</time></trkpt><trkpt lat="45.67823163430268" lon="8.572622382736004"><ele>333.0</ele><time>2026-04-05T13:02:05.999Z</time></trkpt><trkpt lat="45.678204820548984" lon="8.572512753912086"><ele>333.0</ele><time>2026-04-05T13:02:06.999Z</time></trkpt><trkpt lat="45.67818059707986" lon="8.572406426738509"><ele>333.0</ele><time>2026-04-05T13:02:07.999Z</time></trkpt><trkpt lat="45.678160966751754" lon="8.572297697592349"><ele>333.0</ele><time>2026-04-05T13:02:08.999Z</time></trkpt><trkpt lat="45.678148989519734" lon="8.572189519513378"><ele>333.0</ele><time>2026-04-05T13:02:09.999Z</time></trkpt><trkpt lat="45.67813755585103" lon="8.57208132745655"><ele>333.0</ele><time>2026-04-05T13:02:10.999Z</time></trkpt><trkpt lat="45.678120204482056" lon="8.571973746753548"><ele>333.0</ele><time>2026-04-05T13:02:11.999Z</time></trkpt><trkpt lat="45.67809844349618" lon="8.57187210908372"><ele>333.0</ele><time>2026-04-05T13:02:12.999Z</time></trkpt><trkpt lat="45.67807679499999" lon="8.57177861254451"><ele>333.0</ele><time>2026-04-05T13:02:13.999Z</time></trkpt><trkpt lat="45.67806157212945" lon="8.571684148943076"><ele>333.0</ele><time>2026-04-05T13:02:14.999Z</time></trkpt><trkpt lat="45.678061476848995" lon="8.571593857736444"><ele>333.0</ele><time>2026-04-05T13:02:15.999Z</time></trkpt><trkpt lat="45.67807869883006" lon="8.571494113768734"><ele>333.0</ele><time>2026-04-05T13:02:16.999Z</time></trkpt><trkpt lat="45.67812223862273" lon="8.571397393298742"><ele>333.0</ele><time>2026-04-05T13:02:17.999Z</time></trkpt><trkpt lat="45.67816394298196" lon="8.571308108664137"><ele>333.0</ele><time>2026-04-05T13:02:18.999Z</time></trkpt><trkpt lat="45.678195508826136" lon="8.571195716642375"><ele>333.0</ele><time>2026-04-05T13:02:19.999Z</time></trkpt><trkpt lat="45.678192131028396" lon="8.57107819269808"><ele>333.0</ele><time>2026-04-05T13:02:20.999Z</time></trkpt><trkpt lat="45.67816544558163" lon="8.570958495479656"><ele>333.0</ele><time>2026-04-05T13:02:21.999Z</time></trkpt><trkpt lat="45.6781364245815" lon="8.570847097812184"><ele>333.0</ele><time>2026-04-05T13:02:22.999Z</time></trkpt><trkpt lat="45.6781076077324" lon="8.570737711817456"><ele>333.0</ele><time>2026-04-05T13:02:23.999Z</time></trkpt><trkpt lat="45.678091158645664" lon="8.570634530792855"><ele>333.0</ele><time>2026-04-05T13:02:24.999Z</time></trkpt><trkpt lat="45.67808006026524" lon="8.570534532147455"><ele>333.0</ele><time>2026-04-05T13:02:25.999Z</time></trkpt><trkpt lat="45.67807385153456" lon="8.570426613280304"><ele>333.0</ele><time>2026-04-05T13:02:26.999Z</time></trkpt><trkpt lat="45.678067762839035" lon="8.570316480466722"><ele>333.5</ele><time>2026-04-05T13:02:27.999Z</time></trkpt><trkpt lat="45.67805956168753" lon="8.570212145707961"><ele>334.0</ele><time>2026-04-05T13:02:28.999Z</time></trkpt><trkpt lat="45.67805068404014" lon="8.570106504179744"><ele>334.5</ele><time>2026-04-05T13:02:29.999Z</time></trkpt><trkpt lat="45.67803791773215" lon="8.570011421359945"><ele>335.0</ele><time>2026-04-05T13:02:30.999Z</time></trkpt><trkpt lat="45.67802876217411" lon="8.569918752066947"><ele>335.5</ele><time>2026-04-05T13:02:31.999Z</time></trkpt><trkpt lat="45.678019435127204" lon="8.569820981409164"><ele>336.0</ele><time>2026-04-05T13:02:32.999Z</time></trkpt><trkpt lat="45.67801190011343" lon="8.569636797329876"><ele>336.0</ele><time>2026-04-05T13:02:34.999Z</time></trkpt><trkpt lat="45.678012962401596" lon="8.569542936156182"><ele>336.0</ele><time>2026-04-05T13:02:35.999Z</time></trkpt><trkpt lat="45.678012745952536" lon="8.5694490807262"><ele>336.0</ele><time>2026-04-05T13:02:36.999Z</time></trkpt><trkpt lat="45.67800999070005" lon="8.569307500743587"><ele>336.0</ele><time>2026-04-05T13:02:38.999Z</time></trkpt><trkpt lat="45.67801789904784" lon="8.56920035523461"><ele>336.0</ele><time>2026-04-05T13:02:41.999Z</time></trkpt><trkpt lat="45.678081616109814" lon="8.569162041585283"><ele>336.0</ele><time>2026-04-05T13:02:55.999Z</time></trkpt><trkpt lat="45.67804203561325" lon="8.569061998916567"><ele>336.1666666666667</ele><time>2026-04-05T13:03:11.998Z</time></trkpt><trkpt lat="45.67804393489733" lon="8.56891909695396"><ele>336.3333333333333</ele><time>2026-04-05T13:03:13.998Z</time></trkpt><trkpt lat="45.67805974850043" lon="8.56882716409585"><ele>336.5</ele><time>2026-04-05T13:03:14.998Z</time></trkpt><trkpt lat="45.678068781248335" lon="8.568728530607757"><ele>336.66666666666663</ele><time>2026-04-05T13:03:15.998Z</time></trkpt><trkpt lat="45.67807503073757" lon="8.568632929617449"><ele>336.8333333333333</ele><time>2026-04-05T13:03:16.998Z</time></trkpt><trkpt lat="45.67808646162009" lon="8.568527342274702"><ele>337.0</ele><time>2026-04-05T13:03:17.998Z</time></trkpt><trkpt lat="45.67809758501833" lon="8.56842465344993"><ele>336.7142857142857</ele><time>2026-04-05T13:03:18.998Z</time></trkpt><trkpt lat="45.67810781784183" lon="8.56832179463704"><ele>336.42857142857144</ele><time>2026-04-05T13:03:19.998Z</time></trkpt><trkpt lat="45.67811733738222" lon="8.56821754292808"><ele>336.1428571428571</ele><time>2026-04-05T13:03:20.998Z</time></trkpt><trkpt lat="45.67812526020627" lon="8.568119169075365"><ele>335.8571428571429</ele><time>2026-04-05T13:03:21.998Z</time></trkpt><trkpt lat="45.6781340278175" lon="8.568020835508454"><ele>335.57142857142856</ele><time>2026-04-05T13:03:22.998Z</time></trkpt><trkpt lat="45.67814325381708" lon="8.56792449048614"><ele>335.2857142857143</ele><time>2026-04-05T13:03:23.998Z</time></trkpt><trkpt lat="45.67815532593465" lon="8.567831829702397"><ele>335.0</ele><time>2026-04-05T13:03:24.998Z</time></trkpt><trkpt lat="45.67816499301774" lon="8.567741195481306"><ele>334.71428571428567</ele><time>2026-04-05T13:03:25.998Z</time></trkpt><trkpt lat="45.67817188835388" lon="8.567650154458256"><ele>334.42857142857144</ele><time>2026-04-05T13:03:26.998Z</time></trkpt><trkpt lat="45.67817927324365" lon="8.56755840187461"><ele>334.1428571428571</ele><time>2026-04-05T13:03:27.998Z</time></trkpt><trkpt lat="45.67819020197261" lon="8.567468668505352"><ele>333.85714285714283</ele><time>2026-04-05T13:03:28.998Z</time></trkpt><trkpt lat="45.678197499199975" lon="8.56736713570995"><ele>333.57142857142856</ele><time>2026-04-05T13:03:29.998Z</time></trkpt><trkpt lat="45.67820235179274" lon="8.567261897031951"><ele>333.2857142857143</ele><time>2026-04-05T13:03:30.998Z</time></trkpt><trkpt lat="45.678212262569645" lon="8.567153963762847"><ele>333.0</ele><time>2026-04-05T13:03:31.998Z</time></trkpt><trkpt lat="45.67821930978347" lon="8.567045542835356"><ele>333.14285714285717</ele><time>2026-04-05T13:03:32.998Z</time></trkpt><trkpt lat="45.67822673164432" lon="8.56693628716604"><ele>333.2857142857143</ele><time>2026-04-05T13:03:33.998Z</time></trkpt><trkpt lat="45.67823313011615" lon="8.566833415815363"><ele>333.42857142857144</ele><time>2026-04-05T13:03:34.998Z</time></trkpt><trkpt lat="45.6782380344798" lon="8.566735085182613"><ele>333.57142857142856</ele><time>2026-04-05T13:03:35.998Z</time></trkpt><trkpt lat="45.67824503865341" lon="8.566635128593282"><ele>333.7142857142857</ele><time>2026-04-05T13:03:36.998Z</time></trkpt><trkpt lat="45.67825400548922" lon="8.56653929280986"><ele>333.85714285714283</ele><time>2026-04-05T13:03:37.998Z</time></trkpt><trkpt lat="45.67826364794795" lon="8.566449278060343"><ele>334.0</ele><time>2026-04-05T13:03:38.998Z</time></trkpt><trkpt lat="45.67826024705776" lon="8.566320058327616"><ele>334.0</ele><time>2026-04-05T13:03:40.998Z</time></trkpt><trkpt lat="45.67823956420644" lon="8.566234334939038"><ele>334.0</ele><time>2026-04-05T13:03:43.998Z</time></trkpt><trkpt lat="45.678253852391094" lon="8.566341043626789"><ele>334.0</ele><time>2026-04-05T13:04:05.999Z</time></trkpt><trkpt lat="45.67833199173354" lon="8.566370013820837"><ele>334.0</ele><time>2026-04-05T13:04:08.999Z</time></trkpt><trkpt lat="45.67840799020344" lon="8.56637188190043"><ele>334.0</ele><time>2026-04-05T13:04:10.999Z</time></trkpt><trkpt lat="45.678479175615614" lon="8.566387956084682"><ele>334.0</ele><time>2026-04-05T13:04:12.999Z</time></trkpt><trkpt lat="45.67859300880859" lon="8.566386655143539"><ele>333.66666666666663</ele><time>2026-04-05T13:04:15.999Z</time></trkpt><trkpt lat="45.67867089200201" lon="8.566406403722386"><ele>333.3333333333333</ele><time>2026-04-05T13:04:17.999Z</time></trkpt><trkpt lat="45.67873858703952" lon="8.566391366388928"><ele>333.0</ele><time>2026-04-05T13:04:19.999Z</time></trkpt><trkpt lat="45.67881396764835" lon="8.566384579804534"><ele>332.6666666666667</ele><time>2026-04-05T13:04:21.999Z</time></trkpt><trkpt lat="45.67890758977269" lon="8.566363184218487"><ele>332.33333333333337</ele><time>2026-04-05T13:04:24.999Z</time></trkpt><trkpt lat="45.678971964531215" lon="8.56632915234099"><ele>332.0</ele><time>2026-04-05T13:04:26.999Z</time></trkpt><trkpt lat="45.679037708423536" lon="8.566302236013442"><ele>332.0</ele><time>2026-04-05T13:04:28.999Z</time></trkpt><trkpt lat="45.67911092465632" lon="8.566293723733986"><ele>332.0</ele><time>2026-04-05T13:04:30.999Z</time></trkpt><trkpt lat="45.67917395989753" lon="8.56629008795672"><ele>332.0</ele><time>2026-04-05T13:04:32.999Z</time></trkpt><trkpt lat="45.679249161619886" lon="8.566273272331816"><ele>332.0</ele><time>2026-04-05T13:04:34.999Z</time></trkpt><trkpt lat="45.67932281642987" lon="8.566278477517146"><ele>332.0</ele><time>2026-04-05T13:04:36.999Z</time></trkpt><trkpt lat="45.67938625345176" lon="8.566283586001616"><ele>332.0</ele><time>2026-04-05T13:04:38.999Z</time></trkpt><trkpt lat="45.67950568772343" lon="8.566282969759007"><ele>332.1666666666667</ele><time>2026-04-05T13:04:40.999Z</time></trkpt><trkpt lat="45.6796015507975" lon="8.56626728507417"><ele>332.33333333333337</ele><time>2026-04-05T13:04:42.999Z</time></trkpt><trkpt lat="45.679681299510904" lon="8.56626545516836"><ele>332.5</ele><time>2026-04-05T13:04:44.999Z</time></trkpt><trkpt lat="45.679753755265175" lon="8.566295964666116"><ele>332.6666666666667</ele><time>2026-04-05T13:04:46.999Z</time></trkpt><trkpt lat="45.679840969062994" lon="8.566337281971727"><ele>332.8333333333333</ele><time>2026-04-05T13:04:48.999Z</time></trkpt><trkpt lat="45.679929733088926" lon="8.566373753309996"><ele>333.0</ele><time>2026-04-05T13:04:50.999Z</time></trkpt><trkpt lat="45.68000968956109" lon="8.566422510267255"><ele>333.0</ele><time>2026-04-05T13:04:52.999Z</time></trkpt><trkpt lat="45.68010184629725" lon="8.566445131116177"><ele>333.0</ele><time>2026-04-05T13:04:54.999Z</time></trkpt><trkpt lat="45.68019444000031" lon="8.566435111693275"><ele>333.0</ele><time>2026-04-05T13:04:56.999Z</time></trkpt><trkpt lat="45.68028818054999" lon="8.566411948651306"><ele>333.0</ele><time>2026-04-05T13:04:58.999Z</time></trkpt><trkpt lat="45.680383340200294" lon="8.566363733651585"><ele>333.0</ele><time>2026-04-05T13:05:00.999Z</time></trkpt><trkpt lat="45.6804807791944" lon="8.566329194942668"><ele>333.4</ele><time>2026-04-05T13:05:02.999Z</time></trkpt><trkpt lat="45.680581764918394" lon="8.566283246300815"><ele>333.79999999999995</ele><time>2026-04-05T13:05:04.999Z</time></trkpt><trkpt lat="45.680692694183215" lon="8.566239555148819"><ele>334.2</ele><time>2026-04-05T13:05:06.999Z</time></trkpt><trkpt lat="45.68079190269941" lon="8.566204046914097"><ele>334.6</ele><time>2026-04-05T13:05:08.999Z</time></trkpt><trkpt lat="45.68088292861559" lon="8.56614928967656"><ele>335.0</ele><time>2026-04-05T13:05:10.999Z</time></trkpt><trkpt lat="45.680983031014534" lon="8.56610212199408"><ele>335.0</ele><time>2026-04-05T13:05:12.998Z</time></trkpt><trkpt lat="45.6810748677999" lon="8.566052322647607"><ele>335.0</ele><time>2026-04-05T13:05:14.998Z</time></trkpt><trkpt lat="45.68114767732482" lon="8.56596130292482"><ele>335.0</ele><time>2026-04-05T13:05:16.998Z</time></trkpt><trkpt lat="45.681213300182904" lon="8.565863923723592"><ele>335.0</ele><time>2026-04-05T13:05:18.998Z</time></trkpt><trkpt lat="45.68130599573481" lon="8.565817974578907"><ele>335.0</ele><time>2026-04-05T13:05:20.998Z</time></trkpt><trkpt lat="45.68140068804939" lon="8.565794105325786"><ele>335.8</ele><time>2026-04-05T13:05:22.998Z</time></trkpt><trkpt lat="45.68145727616479" lon="8.565720168641091"><ele>336.6</ele><time>2026-04-05T13:05:25.998Z</time></trkpt><trkpt lat="45.68148307134302" lon="8.56558968486698"><ele>337.4</ele><time>2026-04-05T13:05:28.998Z</time></trkpt><trkpt lat="45.6815008035241" lon="8.56543538315837"><ele>338.2</ele><time>2026-04-05T13:05:30.998Z</time></trkpt><trkpt lat="45.68149569562743" lon="8.56525945528764"><ele>339.0</ele><time>2026-04-05T13:05:32.998Z</time></trkpt><trkpt lat="45.68149336476549" lon="8.565164317368115"><ele>339.0</ele><time>2026-04-05T13:05:33.998Z</time></trkpt><trkpt lat="45.681493713437426" lon="8.565064818510615"><ele>339.0</ele><time>2026-04-05T13:05:34.998Z</time></trkpt><trkpt lat="45.68149653486073" lon="8.564936529449934"><ele>339.0</ele><time>2026-04-05T13:05:36.998Z</time></trkpt><trkpt lat="45.68148239842134" lon="8.56476298418796"><ele>339.0</ele><time>2026-04-05T13:05:38.998Z</time></trkpt><trkpt lat="45.681473334541195" lon="8.56463067693371"><ele>339.0</ele><time>2026-04-05T13:05:40.998Z</time></trkpt><trkpt lat="45.68142645641796" lon="8.564492129070747"><ele>339.5</ele><time>2026-04-05T13:05:42.998Z</time></trkpt><trkpt lat="45.6813831853354" lon="8.564409800686066"><ele>340.0</ele><time>2026-04-05T13:05:43.998Z</time></trkpt><trkpt lat="45.68133546159683" lon="8.564317916668386"><ele>340.5</ele><time>2026-04-05T13:05:44.998Z</time></trkpt><trkpt lat="45.68128874926695" lon="8.56422567841116"><ele>341.0</ele><time>2026-04-05T13:05:45.998Z</time></trkpt><trkpt lat="45.68124457275121" lon="8.56412533600472"><ele>341.5</ele><time>2026-04-05T13:05:46.998Z</time></trkpt><trkpt lat="45.6812087842739" lon="8.564017778380919"><ele>342.0</ele><time>2026-04-05T13:05:47.998Z</time></trkpt><trkpt lat="45.68117581408709" lon="8.563904862689183"><ele>342.0</ele><time>2026-04-05T13:05:48.998Z</time></trkpt><trkpt lat="45.681141556074984" lon="8.563790923956239"><ele>342.0</ele><time>2026-04-05T13:05:49.998Z</time></trkpt><trkpt lat="45.68110476639305" lon="8.563675802187497"><ele>342.0</ele><time>2026-04-05T13:05:50.998Z</time></trkpt><trkpt lat="45.681071009785654" lon="8.56355615116904"><ele>342.0</ele><time>2026-04-05T13:05:51.998Z</time></trkpt><trkpt lat="45.68103904073215" lon="8.56343789129408"><ele>342.0</ele><time>2026-04-05T13:05:52.998Z</time></trkpt><trkpt lat="45.6810083999293" lon="8.563322706548789"><ele>342.0</ele><time>2026-04-05T13:05:53.998Z</time></trkpt><trkpt lat="45.680977713161944" lon="8.563206963663921"><ele>342.1666666666667</ele><time>2026-04-05T13:05:54.998Z</time></trkpt><trkpt lat="45.68095240042058" lon="8.563102708064635"><ele>342.3333333333333</ele><time>2026-04-05T13:05:55.998Z</time></trkpt><trkpt lat="45.68093919468496" lon="8.56300414935888"><ele>342.5</ele><time>2026-04-05T13:05:58.998Z</time></trkpt><trkpt lat="45.681029413500006" lon="8.563016279000372"><ele>342.66666666666663</ele><time>2026-04-05T13:06:00.998Z</time></trkpt><trkpt lat="45.6811060502518" lon="8.562997439070728"><ele>342.8333333333333</ele><time>2026-04-05T13:06:02.998Z</time></trkpt><trkpt lat="45.68119589326953" lon="8.562996038606945"><ele>343.0</ele><time>2026-04-05T13:06:04.998Z</time></trkpt><trkpt lat="45.68130594586632" lon="8.563022739246842"><ele>343.0</ele><time>2026-04-05T13:06:06.998Z</time></trkpt><trkpt lat="45.68142777123159" lon="8.563040955346528"><ele>343.0</ele><time>2026-04-05T13:06:08.998Z</time></trkpt><trkpt lat="45.6814901615599" lon="8.56306243553904"><ele>343.0</ele><time>2026-04-05T13:06:09.999Z</time></trkpt><trkpt lat="45.68155813648408" lon="8.563048438880374"><ele>343.0</ele><time>2026-04-05T13:06:10.999Z</time></trkpt><trkpt lat="45.68163193346586" lon="8.563057733835352"><ele>343.0</ele><time>2026-04-05T13:06:11.999Z</time></trkpt><trkpt lat="45.681701794346765" lon="8.563088912002888"><ele>343.0</ele><time>2026-04-05T13:06:12.999Z</time></trkpt><trkpt lat="45.68177643928087" lon="8.563084021424022"><ele>343.0</ele><time>2026-04-05T13:06:13.999Z</time></trkpt><trkpt lat="45.68185206560123" lon="8.563091722972352"><ele>343.0</ele><time>2026-04-05T13:06:14.999Z</time></trkpt><trkpt lat="45.68192207645725" lon="8.563100162997479"><ele>343.0</ele><time>2026-04-05T13:06:15.999Z</time></trkpt><trkpt lat="45.68199452512425" lon="8.563105181659369"><ele>343.0</ele><time>2026-04-05T13:06:16.999Z</time></trkpt><trkpt lat="45.682069092370355" lon="8.563111277235055"><ele>343.0</ele><time>2026-04-05T13:06:17.999Z</time></trkpt><trkpt lat="45.68214990966919" lon="8.563116569011456"><ele>343.0</ele><time>2026-04-05T13:06:18.999Z</time></trkpt><trkpt lat="45.68223185208326" lon="8.563140580296409"><ele>343.66666666666663</ele><time>2026-04-05T13:06:19.999Z</time></trkpt><trkpt lat="45.68231828891923" lon="8.563118089920817"><ele>344.3333333333333</ele><time>2026-04-05T13:06:20.999Z</time></trkpt><trkpt lat="45.6824012744641" lon="8.563112287721914"><ele>345.0</ele><time>2026-04-05T13:06:21.999Z</time></trkpt><trkpt lat="45.68246775147167" lon="8.563094174601211"><ele>345.6666666666667</ele><time>2026-04-05T13:06:22.999Z</time></trkpt><trkpt lat="45.68253212158508" lon="8.56309757034779"><ele>346.33333333333337</ele><time>2026-04-05T13:06:23.999Z</time></trkpt><trkpt lat="45.682628073228024" lon="8.563093479003363"><ele>347.0</ele><time>2026-04-05T13:06:25.999Z</time></trkpt><trkpt lat="45.68271350220372" lon="8.563067810224158"><ele>347.0</ele><time>2026-04-05T13:06:28.999Z</time></trkpt><trkpt lat="45.68260980439874" lon="8.563066093268269"><ele>347.0</ele><time>2026-04-05T13:06:35.999Z</time></trkpt><trkpt lat="45.682504593353116" lon="8.563093583179986"><ele>347.0</ele><time>2026-04-05T13:06:37.999Z</time></trkpt><trkpt lat="45.682381086557626" lon="8.563112947688182"><ele>347.0</ele><time>2026-04-05T13:06:39.999Z</time></trkpt><trkpt lat="45.68230900751712" lon="8.563108843789465"><ele>347.0</ele><time>2026-04-05T13:06:40.999Z</time></trkpt><trkpt lat="45.68224022855546" lon="8.563106662919976"><ele>347.0</ele><time>2026-04-05T13:06:41.999Z</time></trkpt><trkpt lat="45.68217184459565" lon="8.563103658120035"><ele>347.0</ele><time>2026-04-05T13:06:42.999Z</time></trkpt><trkpt lat="45.68209601201727" lon="8.563080911869518"><ele>347.0</ele><time>2026-04-05T13:06:43.999Z</time></trkpt><trkpt lat="45.68201952103355" lon="8.563073488191206"><ele>347.0</ele><time>2026-04-05T13:06:44.999Z</time></trkpt><trkpt lat="45.681947248426404" lon="8.56308963748429"><ele>347.0</ele><time>2026-04-05T13:06:45.999Z</time></trkpt><trkpt lat="45.68186879980631" lon="8.56307821034563"><ele>347.0</ele><time>2026-04-05T13:06:46.999Z</time></trkpt><trkpt lat="45.68179361894922" lon="8.563064412374395"><ele>346.33333333333337</ele><time>2026-04-05T13:06:47.999Z</time></trkpt><trkpt lat="45.68171595690447" lon="8.563059614660794"><ele>345.6666666666667</ele><time>2026-04-05T13:06:48.999Z</time></trkpt><trkpt lat="45.68163583117543" lon="8.56305052654255"><ele>345.0</ele><time>2026-04-05T13:06:49.999Z</time></trkpt><trkpt lat="45.68155009699771" lon="8.563043961978618"><ele>344.3333333333333</ele><time>2026-04-05T13:06:50.999Z</time></trkpt><trkpt lat="45.68147881841444" lon="8.563012934386277"><ele>343.66666666666663</ele><time>2026-04-05T13:06:51.999Z</time></trkpt><trkpt lat="45.681406629030356" lon="8.563001866471607"><ele>343.0</ele><time>2026-04-05T13:06:52.999Z</time></trkpt><trkpt lat="45.681340147094176" lon="8.562988332066563"><ele>343.0</ele><time>2026-04-05T13:06:53.999Z</time></trkpt><trkpt lat="45.681276002840654" lon="8.562974043994812"><ele>343.0</ele><time>2026-04-05T13:06:54.999Z</time></trkpt><trkpt lat="45.681209662202015" lon="8.562961096403122"><ele>343.0</ele><time>2026-04-05T13:06:55.999Z</time></trkpt><trkpt lat="45.68109008415474" lon="8.562942108875205"><ele>343.0</ele><time>2026-04-05T13:06:57.999Z</time></trkpt><trkpt lat="45.68099403306729" lon="8.56297522011555"><ele>343.0</ele><time>2026-04-05T13:06:59.999Z</time></trkpt><trkpt lat="45.68092787074938" lon="8.563008224195931"><ele>343.0</ele><time>2026-04-05T13:07:02.999Z</time></trkpt><trkpt lat="45.680874511868396" lon="8.562819412188832"><ele>342.59999999999997</ele><time>2026-04-05T13:07:04.999Z</time></trkpt><trkpt lat="45.68082608219559" lon="8.562692941582595"><ele>342.2</ele><time>2026-04-05T13:07:06.999Z</time></trkpt><trkpt lat="45.68077569002494" lon="8.562577729283879"><ele>341.8</ele><time>2026-04-05T13:07:08.999Z</time></trkpt><trkpt lat="45.68073316195307" lon="8.562443673624031"><ele>341.4</ele><time>2026-04-05T13:07:10.999Z</time></trkpt><trkpt lat="45.68065991044115" lon="8.562284296773388"><ele>341.0</ele><time>2026-04-05T13:07:12.999Z</time></trkpt><trkpt lat="45.680612068795696" lon="8.562192259083119"><ele>341.0</ele><time>2026-04-05T13:07:13.998Z</time></trkpt><trkpt lat="45.680557432795645" lon="8.562104352364592"><ele>341.0</ele><time>2026-04-05T13:07:14.998Z</time></trkpt><trkpt lat="45.68049719042503" lon="8.562022835786246"><ele>341.0</ele><time>2026-04-05T13:07:15.998Z</time></trkpt><trkpt lat="45.68043272349285" lon="8.561937995624747"><ele>341.0</ele><time>2026-04-05T13:07:16.998Z</time></trkpt><trkpt lat="45.680365507571345" lon="8.56185187727003"><ele>341.0</ele><time>2026-04-05T13:07:17.998Z</time></trkpt><trkpt lat="45.680297559544854" lon="8.56177085469877"><ele>341.0</ele><time>2026-04-05T13:07:18.998Z</time></trkpt><trkpt lat="45.68022910384296" lon="8.561691228595507"><ele>340.6666666666667</ele><time>2026-04-05T13:07:19.998Z</time></trkpt><trkpt lat="45.6801645449285" lon="8.561608980262761"><ele>340.33333333333337</ele><time>2026-04-05T13:07:20.998Z</time></trkpt><trkpt lat="45.680118299175646" lon="8.561509959778817"><ele>340.0</ele><time>2026-04-05T13:07:21.998Z</time></trkpt><trkpt lat="45.68007864812155" lon="8.5614045109457"><ele>339.6666666666667</ele><time>2026-04-05T13:07:22.998Z</time></trkpt><trkpt lat="45.68004657418318" lon="8.561284708023136"><ele>339.3333333333333</ele><time>2026-04-05T13:07:23.998Z</time></trkpt><trkpt lat="45.68002100946942" lon="8.56115198030253"><ele>339.0</ele><time>2026-04-05T13:07:24.998Z</time></trkpt><trkpt lat="45.67999406900337" lon="8.56101400709056"><ele>339.0</ele><time>2026-04-05T13:07:25.998Z</time></trkpt><trkpt lat="45.67996039714273" lon="8.560880406440948"><ele>339.0</ele><time>2026-04-05T13:07:26.998Z</time></trkpt><trkpt lat="45.67991961326825" lon="8.560750058359114"><ele>339.0</ele><time>2026-04-05T13:07:27.998Z</time></trkpt><trkpt lat="45.67986520195612" lon="8.560628113460035"><ele>339.0</ele><time>2026-04-05T13:07:28.998Z</time></trkpt><trkpt lat="45.67979858257138" lon="8.560515073235537"><ele>339.0</ele><time>2026-04-05T13:07:29.998Z</time></trkpt><trkpt lat="45.67972608452225" lon="8.560405759363"><ele>339.0</ele><time>2026-04-05T13:07:30.998Z</time></trkpt><trkpt lat="45.67965086206288" lon="8.560295094883566"><ele>339.0</ele><time>2026-04-05T13:07:31.998Z</time></trkpt><trkpt lat="45.67957645973281" lon="8.560178997178665"><ele>339.0</ele><time>2026-04-05T13:07:32.998Z</time></trkpt><trkpt lat="45.67949856710279" lon="8.560060281589216"><ele>339.0</ele><time>2026-04-05T13:07:33.998Z</time></trkpt><trkpt lat="45.679421728326005" lon="8.55994526817162"><ele>339.0</ele><time>2026-04-05T13:07:34.998Z</time></trkpt><trkpt lat="45.67935455730622" lon="8.559838788850561"><ele>338.6</ele><time>2026-04-05T13:07:35.998Z</time></trkpt><trkpt lat="45.67929157665988" lon="8.559741496510766"><ele>338.2</ele><time>2026-04-05T13:07:36.998Z</time></trkpt><trkpt lat="45.67923351888064" lon="8.55965560722021"><ele>337.8</ele><time>2026-04-05T13:07:37.998Z</time></trkpt><trkpt lat="45.679183102500204" lon="8.559582147975028"><ele>337.40000000000003</ele><time>2026-04-05T13:07:38.998Z</time></trkpt><trkpt lat="45.67912985370719" lon="8.559475169581258"><ele>337.0</ele><time>2026-04-05T13:07:40.998Z</time></trkpt><trkpt lat="45.67927120915773" lon="8.559404744303903"><ele>336.8333333333333</ele><time>2026-04-05T13:07:43.998Z</time></trkpt><trkpt lat="45.67933811241229" lon="8.55938949004965"><ele>336.66666666666663</ele><time>2026-04-05T13:07:44.998Z</time></trkpt><trkpt lat="45.6794084060726" lon="8.559439525076803"><ele>336.5</ele><time>2026-04-05T13:07:45.998Z</time></trkpt><trkpt lat="45.679485442054315" lon="8.55946591027382"><ele>336.3333333333333</ele><time>2026-04-05T13:07:46.998Z</time></trkpt><trkpt lat="45.679560714883195" lon="8.559491896713045"><ele>336.1666666666667</ele><time>2026-04-05T13:07:47.998Z</time></trkpt><trkpt lat="45.67964387190588" lon="8.559497242189677"><ele>336.0</ele><time>2026-04-05T13:07:48.998Z</time></trkpt><trkpt lat="45.67972534534757" lon="8.559526663537698"><ele>336.5</ele><time>2026-04-05T13:07:49.998Z</time></trkpt><trkpt lat="45.679803353493476" lon="8.55957641042353"><ele>337.0</ele><time>2026-04-05T13:07:50.998Z</time></trkpt><trkpt lat="45.679886209156734" lon="8.55960712727255"><ele>337.5</ele><time>2026-04-05T13:07:51.998Z</time></trkpt><trkpt lat="45.679964211370084" lon="8.559639120197872"><ele>338.0</ele><time>2026-04-05T13:07:52.998Z</time></trkpt><trkpt lat="45.68003084043918" lon="8.559669428710562"><ele>338.5</ele><time>2026-04-05T13:07:53.998Z</time></trkpt><trkpt lat="45.680095049772774" lon="8.559676074276666"><ele>339.0</ele><time>2026-04-05T13:07:54.998Z</time></trkpt><trkpt lat="45.68015397225142" lon="8.559709945321464"><ele>339.0</ele><time>2026-04-05T13:07:55.998Z</time></trkpt><trkpt lat="45.680211746089924" lon="8.559758842751148"><ele>339.0</ele><time>2026-04-05T13:07:56.998Z</time></trkpt><trkpt lat="45.680263143443824" lon="8.559839343410768"><ele>339.0</ele><time>2026-04-05T13:07:57.998Z</time></trkpt><trkpt lat="45.68033178380302" lon="8.559851927811902"><ele>339.0</ele><time>2026-04-05T13:07:58.998Z</time></trkpt><trkpt lat="45.68040475290156" lon="8.559891086758096"><ele>339.0</ele><time>2026-04-05T13:07:59.998Z</time></trkpt><trkpt lat="45.680438836271" lon="8.560091072942399"><ele>339.0</ele><time>2026-04-05T13:08:00.998Z</time></trkpt><trkpt lat="45.68050890859684" lon="8.560149731204762"><ele>339.57142857142856</ele><time>2026-04-05T13:08:01.998Z</time></trkpt><trkpt lat="45.68057649317074" lon="8.560202952042005"><ele>340.14285714285717</ele><time>2026-04-05T13:08:02.998Z</time></trkpt><trkpt lat="45.68064231174645" lon="8.560244628082032"><ele>340.7142857142857</ele><time>2026-04-05T13:08:03.998Z</time></trkpt><trkpt lat="45.68070955565026" lon="8.560278198214405"><ele>341.2857142857143</ele><time>2026-04-05T13:08:04.998Z</time></trkpt><trkpt lat="45.68078271380275" lon="8.56029361517791"><ele>341.8571428571429</ele><time>2026-04-05T13:08:05.998Z</time></trkpt><trkpt lat="45.68085331194184" lon="8.560292364894929"><ele>342.42857142857144</ele><time>2026-04-05T13:08:06.998Z</time></trkpt><trkpt lat="45.68092804826731" lon="8.560293277947283"><ele>343.0</ele><time>2026-04-05T13:08:07.998Z</time></trkpt><trkpt lat="45.68100507357026" lon="8.560295114309962"><ele>343.0</ele><time>2026-04-05T13:08:08.998Z</time></trkpt><trkpt lat="45.68107358730335" lon="8.560287806867091"><ele>343.0</ele><time>2026-04-05T13:08:09.998Z</time></trkpt><trkpt lat="45.6811417898051" lon="8.560267548230332"><ele>343.0</ele><time>2026-04-05T13:08:10.998Z</time></trkpt><trkpt lat="45.68120953182039" lon="8.560242370437983"><ele>343.0</ele><time>2026-04-05T13:08:11.998Z</time></trkpt><trkpt lat="45.68127937466865" lon="8.560233700367244"><ele>343.0</ele><time>2026-04-05T13:08:12.998Z</time></trkpt><trkpt lat="45.681412798642356" lon="8.56027550188207"><ele>343.0</ele><time>2026-04-05T13:08:14.998Z</time></trkpt><trkpt lat="45.68148052911295" lon="8.560317802903118"><ele>344.0</ele><time>2026-04-05T13:08:15.999Z</time></trkpt><trkpt lat="45.68154612430836" lon="8.560365390830944"><ele>345.0</ele><time>2026-04-05T13:08:16.999Z</time></trkpt><trkpt lat="45.68161365598185" lon="8.560413739322629"><ele>346.0</ele><time>2026-04-05T13:08:17.999Z</time></trkpt><trkpt lat="45.681684169092286" lon="8.560455041862902"><ele>347.0</ele><time>2026-04-05T13:08:18.999Z</time></trkpt><trkpt lat="45.68175097599584" lon="8.560492966855644"><ele>348.0</ele><time>2026-04-05T13:08:19.999Z</time></trkpt><trkpt lat="45.681810652263344" lon="8.560534516732604"><ele>349.0</ele><time>2026-04-05T13:08:20.999Z</time></trkpt><trkpt lat="45.68187805710665" lon="8.560577507412837"><ele>350.0</ele><time>2026-04-05T13:08:21.999Z</time></trkpt><trkpt lat="45.68194115551894" lon="8.560616902231656"><ele>350.0</ele><time>2026-04-05T13:08:22.999Z</time></trkpt><trkpt lat="45.68199741297306" lon="8.560662700570202"><ele>350.0</ele><time>2026-04-05T13:08:23.999Z</time></trkpt><trkpt lat="45.68210923406919" lon="8.560731809919616"><ele>350.0</ele><time>2026-04-05T13:08:25.999Z</time></trkpt><trkpt lat="45.68220617960492" lon="8.560800200709537"><ele>350.0</ele><time>2026-04-05T13:08:27.999Z</time></trkpt><trkpt lat="45.68223633073829" lon="8.560886055853002"><ele>350.0</ele><time>2026-04-05T13:08:29.999Z</time></trkpt><trkpt lat="45.68231152939685" lon="8.56093496483629"><ele>350.0</ele><time>2026-04-05T13:08:33.999Z</time></trkpt><trkpt lat="45.68240472072049" lon="8.560953619161827"><ele>350.0</ele><time>2026-04-05T13:08:35.999Z</time></trkpt><trkpt lat="45.68248661969127" lon="8.561037290619819"><ele>350.0</ele><time>2026-04-05T13:08:37.999Z</time></trkpt><trkpt lat="45.68260030032861" lon="8.561108158288535"><ele>350.0</ele><time>2026-04-05T13:08:39.999Z</time></trkpt><trkpt lat="45.68270626265072" lon="8.561158447490934"><ele>350.0</ele><time>2026-04-05T13:08:41.999Z</time></trkpt><trkpt lat="45.682806474701856" lon="8.561184461242208"><ele>350.0</ele><time>2026-04-05T13:08:43.999Z</time></trkpt><trkpt lat="45.68293065884833" lon="8.561215564239266"><ele>349.2</ele><time>2026-04-05T13:08:45.999Z</time></trkpt><trkpt lat="45.68303140515173" lon="8.561267565983329"><ele>348.4</ele><time>2026-04-05T13:08:47.999Z</time></trkpt><trkpt lat="45.683143954902405" lon="8.561305693326869"><ele>347.6</ele><time>2026-04-05T13:08:49.999Z</time></trkpt><trkpt lat="45.683250180197426" lon="8.561338477367277"><ele>346.8</ele><time>2026-04-05T13:08:51.999Z</time></trkpt><trkpt lat="45.683361683404456" lon="8.561392071539553"><ele>346.0</ele><time>2026-04-05T13:08:53.999Z</time></trkpt><trkpt lat="45.68342569397291" lon="8.56140725934233"><ele>346.0</ele><time>2026-04-05T13:08:54.999Z</time></trkpt><trkpt lat="45.68349698455599" lon="8.561421137316692"><ele>346.0</ele><time>2026-04-05T13:08:55.999Z</time></trkpt><trkpt lat="45.68356675140389" lon="8.561425295325893"><ele>346.0</ele><time>2026-04-05T13:08:56.999Z</time></trkpt><trkpt lat="45.68363447229667" lon="8.561425361921623"><ele>346.0</ele><time>2026-04-05T13:08:57.999Z</time></trkpt><trkpt lat="45.68370149017704" lon="8.561422637515275"><ele>346.0</ele><time>2026-04-05T13:08:58.999Z</time></trkpt><trkpt lat="45.68376411708036" lon="8.561411112154273"><ele>346.0</ele><time>2026-04-05T13:08:59.999Z</time></trkpt><trkpt lat="45.683876007388996" lon="8.561401559687797"><ele>345.85714285714283</ele><time>2026-04-05T13:09:01.999Z</time></trkpt><trkpt lat="45.68393853509779" lon="8.561420815137266"><ele>345.7142857142857</ele><time>2026-04-05T13:09:02.999Z</time></trkpt><trkpt lat="45.6840040562337" lon="8.561458375063754"><ele>345.57142857142856</ele><time>2026-04-05T13:09:03.999Z</time></trkpt><trkpt lat="45.68406893207488" lon="8.561507914711388"><ele>345.42857142857144</ele><time>2026-04-05T13:09:04.999Z</time></trkpt><trkpt lat="45.68413271321949" lon="8.561562504469435"><ele>345.2857142857143</ele><time>2026-04-05T13:09:05.999Z</time></trkpt><trkpt lat="45.68418850967664" lon="8.561625997883057"><ele>345.14285714285717</ele><time>2026-04-05T13:09:06.999Z</time></trkpt><trkpt lat="45.684243585553084" lon="8.561685669735638"><ele>345.0</ele><time>2026-04-05T13:09:07.999Z</time></trkpt><trkpt lat="45.684302607280394" lon="8.561745966611532"><ele>345.0</ele><time>2026-04-05T13:09:08.999Z</time></trkpt><trkpt lat="45.684374482207986" lon="8.561795765845604"><ele>345.0</ele><time>2026-04-05T13:09:09.999Z</time></trkpt><trkpt lat="45.68444902478372" lon="8.561830219253379"><ele>345.0</ele><time>2026-04-05T13:09:10.999Z</time></trkpt><trkpt lat="45.684523250479764" lon="8.561853995403313"><ele>345.0</ele><time>2026-04-05T13:09:11.999Z</time></trkpt><trkpt lat="45.684599477173045" lon="8.561882407313448"><ele>345.0</ele><time>2026-04-05T13:09:12.999Z</time></trkpt><trkpt lat="45.68467838739154" lon="8.561918879651074"><ele>345.0</ele><time>2026-04-05T13:09:13.999Z</time></trkpt><trkpt lat="45.684747370186265" lon="8.561946988724443"><ele>345.6666666666667</ele><time>2026-04-05T13:09:14.999Z</time></trkpt><trkpt lat="45.68483181838719" lon="8.561978818887095"><ele>346.3333333333333</ele><time>2026-04-05T13:09:15.999Z</time></trkpt><trkpt lat="45.68489973545645" lon="8.562005673089383"><ele>347.0</ele><time>2026-04-05T13:09:16.999Z</time></trkpt><trkpt lat="45.68499480975165" lon="8.562050578333961"><ele>347.66666666666663</ele><time>2026-04-05T13:09:18.999Z</time></trkpt><trkpt lat="45.68498187072155" lon="8.561893616340816"><ele>348.3333333333333</ele><time>2026-04-05T13:09:22.999Z</time></trkpt><trkpt lat="45.68495193259451" lon="8.561802735596673"><ele>349.0</ele><time>2026-04-05T13:09:23.999Z</time></trkpt><trkpt lat="45.684943035336" lon="8.561706323259646"><ele>349.4</ele><time>2026-04-05T13:09:24.998Z</time></trkpt><trkpt lat="45.68494560187014" lon="8.56160924126935"><ele>349.79999999999995</ele><time>2026-04-05T13:09:25.998Z</time></trkpt><trkpt lat="45.68493126135231" lon="8.561445128494567"><ele>350.20000000000005</ele><time>2026-04-05T13:09:27.998Z</time></trkpt><trkpt lat="45.68492753938586" lon="8.561292108351672"><ele>350.6</ele><time>2026-04-05T13:09:29.998Z</time></trkpt><trkpt lat="45.68500834966947" lon="8.561144108167156"><ele>351.0</ele><time>2026-04-05T13:09:31.998Z</time></trkpt><trkpt lat="45.68506574063388" lon="8.561087558174405"><ele>351.20000000000005</ele><time>2026-04-05T13:09:32.998Z</time></trkpt><trkpt lat="45.68515797071899" lon="8.561018452965033"><ele>351.40000000000003</ele><time>2026-04-05T13:09:34.998Z</time></trkpt><trkpt lat="45.68522366137988" lon="8.560924382521481"><ele>351.6</ele><time>2026-04-05T13:09:36.998Z</time></trkpt><trkpt lat="45.68527676343943" lon="8.560779062041671"><ele>351.8</ele><time>2026-04-05T13:09:38.998Z</time></trkpt><trkpt lat="45.685306410459496" lon="8.560690922774299"><ele>352.0</ele><time>2026-04-05T13:09:39.998Z</time></trkpt><trkpt lat="45.68534633076005" lon="8.560604967100664"><ele>353.5</ele><time>2026-04-05T13:09:40.998Z</time></trkpt><trkpt lat="45.68538576098218" lon="8.560522066003102"><ele>355.0</ele><time>2026-04-05T13:09:41.998Z</time></trkpt><trkpt lat="45.685422706962456" lon="8.560444808951864"><ele>356.5</ele><time>2026-04-05T13:09:42.998Z</time></trkpt><trkpt lat="45.68548688995204" lon="8.560321851101014"><ele>358.0</ele><time>2026-04-05T13:09:44.998Z</time></trkpt><trkpt lat="45.68554941848393" lon="8.560238418580338"><ele>359.5</ele><time>2026-04-05T13:09:46.998Z</time></trkpt><trkpt lat="45.685618338790945" lon="8.560250423144748"><ele>361.0</ele><time>2026-04-05T13:09:48.998Z</time></trkpt><trkpt lat="45.68569399664033" lon="8.560295425952077"><ele>361.0</ele><time>2026-04-05T13:09:50.998Z</time></trkpt><trkpt lat="45.68577330601297" lon="8.56025990153361"><ele>361.0</ele><time>2026-04-05T13:09:52.998Z</time></trkpt><trkpt lat="45.685842223081075" lon="8.560194635018414"><ele>361.0</ele><time>2026-04-05T13:09:54.998Z</time></trkpt><trkpt lat="45.68592717235566" lon="8.560140900366388"><ele>361.0</ele><time>2026-04-05T13:09:56.998Z</time></trkpt><trkpt lat="45.68603309476605" lon="8.560086098557827"><ele>361.0</ele><time>2026-04-05T13:09:58.998Z</time></trkpt><trkpt lat="45.68612427963894" lon="8.560022435055547"><ele>360.20000000000005</ele><time>2026-04-05T13:10:00.998Z</time></trkpt><trkpt lat="45.686209664122345" lon="8.55999381390466"><ele>359.40000000000003</ele><time>2026-04-05T13:10:02.998Z</time></trkpt><trkpt lat="45.68631106547729" lon="8.559965232098934"><ele>358.6</ele><time>2026-04-05T13:10:04.998Z</time></trkpt><trkpt lat="45.68643392688355" lon="8.559936189613826"><ele>357.8</ele><time>2026-04-05T13:10:06.998Z</time></trkpt><trkpt lat="45.68649991411705" lon="8.559918838442636"><ele>357.0</ele><time>2026-04-05T13:10:07.998Z</time></trkpt><trkpt lat="45.68660433072109" lon="8.559903641184672"><ele>357.0</ele><time>2026-04-05T13:10:09.998Z</time></trkpt><trkpt lat="45.686678172068085" lon="8.559884735299645"><ele>357.0</ele><time>2026-04-05T13:10:11.998Z</time></trkpt><trkpt lat="45.686750702559166" lon="8.559792577770702"><ele>357.0</ele><time>2026-04-05T13:10:14.998Z</time></trkpt><trkpt lat="45.68677577076783" lon="8.559708345591075"><ele>357.0</ele><time>2026-04-05T13:10:15.998Z</time></trkpt><trkpt lat="45.68679380420082" lon="8.559614016981929"><ele>357.0</ele><time>2026-04-05T13:10:16.998Z</time></trkpt><trkpt lat="45.686817130024075" lon="8.559506170018869"><ele>357.0</ele><time>2026-04-05T13:10:17.998Z</time></trkpt><trkpt lat="45.68684211749798" lon="8.559384941024001"><ele>356.8</ele><time>2026-04-05T13:10:18.998Z</time></trkpt><trkpt lat="45.68686250482448" lon="8.559262904724555"><ele>356.6</ele><time>2026-04-05T13:10:19.998Z</time></trkpt><trkpt lat="45.68687309014517" lon="8.55912723081318"><ele>356.40000000000003</ele><time>2026-04-05T13:10:20.998Z</time></trkpt><trkpt lat="45.6868752057983" lon="8.55898893583028"><ele>356.20000000000005</ele><time>2026-04-05T13:10:21.999Z</time></trkpt><trkpt lat="45.686871195083924" lon="8.558862868423924"><ele>356.0</ele><time>2026-04-05T13:10:22.999Z</time></trkpt><trkpt lat="45.686865955441064" lon="8.55874106069775"><ele>356.0</ele><time>2026-04-05T13:10:23.999Z</time></trkpt><trkpt lat="45.68686000231636" lon="8.55862960888483"><ele>356.0</ele><time>2026-04-05T13:10:24.999Z</time></trkpt><trkpt lat="45.68685664022731" lon="8.558524827960778"><ele>356.0</ele><time>2026-04-05T13:10:25.999Z</time></trkpt><trkpt lat="45.686854562510874" lon="8.55843337035383"><ele>356.0</ele><time>2026-04-05T13:10:26.999Z</time></trkpt><trkpt lat="45.686845497200316" lon="8.558311933750625"><ele>356.0</ele><time>2026-04-05T13:10:28.999Z</time></trkpt><trkpt lat="45.68675723998585" lon="8.558244513388368"><ele>356.0</ele><time>2026-04-05T13:10:31.999Z</time></trkpt><trkpt lat="45.686690212219006" lon="8.558276608937648"><ele>355.99999999999994</ele><time>2026-04-05T13:10:32.999Z</time></trkpt><trkpt lat="45.68662562364333" lon="8.558283831379661"><ele>356.0</ele><time>2026-04-05T13:10:33.999Z</time></trkpt><trkpt lat="45.68655741151229" lon="8.558287178752414"><ele>356.0</ele><time>2026-04-05T13:10:34.999Z</time></trkpt><trkpt lat="45.68648191587383" lon="8.558297863320641"><ele>356.0</ele><time>2026-04-05T13:10:35.999Z</time></trkpt><trkpt lat="45.68641678087917" lon="8.558296589035479"><ele>356.0</ele><time>2026-04-05T13:10:36.999Z</time></trkpt><trkpt lat="45.68634871014135" lon="8.558235308326937"><ele>355.99999999999994</ele><time>2026-04-05T13:10:38.999Z</time></trkpt><trkpt lat="45.68633108812152" lon="8.558108750322448"><ele>356.0</ele><time>2026-04-05T13:10:40.999Z</time></trkpt><trkpt lat="45.686299780818246" lon="8.557952891347892"><ele>357.0</ele><time>2026-04-05T13:10:42.999Z</time></trkpt><trkpt lat="45.68627907880636" lon="8.557829454829756"><ele>358.0</ele><time>2026-04-05T13:10:43.999Z</time></trkpt><trkpt lat="45.68624717810028" lon="8.557661296976331"><ele>359.0</ele><time>2026-04-05T13:10:44.999Z</time></trkpt><trkpt lat="45.686210636940366" lon="8.557471392950363"><ele>360.0</ele><time>2026-04-05T13:10:45.999Z</time></trkpt><trkpt lat="45.68618097001742" lon="8.55732102884271"><ele>360.0</ele><time>2026-04-05T13:10:46.999Z</time></trkpt><trkpt lat="45.68616510220634" lon="8.55721995205611"><ele>360.0</ele><time>2026-04-05T13:10:47.999Z</time></trkpt><trkpt lat="45.68613322219261" lon="8.557087712352287"><ele>360.0</ele><time>2026-04-05T13:10:49.999Z</time></trkpt><trkpt lat="45.68610300887336" lon="8.556985684370344"><ele>360.0</ele><time>2026-04-05T13:10:51.999Z</time></trkpt><trkpt lat="45.68607432643106" lon="8.556858324981354"><ele>360.0</ele><time>2026-04-05T13:10:53.999Z</time></trkpt><trkpt lat="45.686027227266635" lon="8.556720772616774"><ele>360.0</ele><time>2026-04-05T13:10:55.999Z</time></trkpt><trkpt lat="45.6860428869089" lon="8.556581378415824"><ele>361.2</ele><time>2026-04-05T13:10:57.999Z</time></trkpt><trkpt lat="45.68605035430115" lon="8.556465487560612"><ele>362.4</ele><time>2026-04-05T13:10:59.999Z</time></trkpt><trkpt lat="45.686023175788016" lon="8.556351702231252"><ele>363.6</ele><time>2026-04-05T13:11:01.999Z</time></trkpt><trkpt lat="45.686063187242596" lon="8.556215621268072"><ele>364.8</ele><time>2026-04-05T13:11:03.999Z</time></trkpt><trkpt lat="45.686119398289804" lon="8.556050504666135"><ele>366.0</ele><time>2026-04-05T13:11:05.999Z</time></trkpt><trkpt lat="45.686176490651924" lon="8.555907772327538"><ele>366.0</ele><time>2026-04-05T13:11:07.999Z</time></trkpt><trkpt lat="45.68621643816357" lon="8.555790216300084"><ele>366.0</ele><time>2026-04-05T13:11:09.999Z</time></trkpt><trkpt lat="45.686181376269985" lon="8.555656141708122"><ele>366.0</ele><time>2026-04-05T13:11:11.998Z</time></trkpt><trkpt lat="45.686075592815854" lon="8.555630804949915"><ele>366.0</ele><time>2026-04-05T13:11:13.998Z</time></trkpt><trkpt lat="45.68596177809253" lon="8.55563474095511"><ele>366.0</ele><time>2026-04-05T13:11:15.998Z</time></trkpt><trkpt lat="45.68586564989125" lon="8.555606393411187"><ele>366.1666666666667</ele><time>2026-04-05T13:11:18.998Z</time></trkpt><trkpt lat="45.68580217671994" lon="8.555621078828363"><ele>366.3333333333333</ele><time>2026-04-05T13:11:19.998Z</time></trkpt><trkpt lat="45.68572748638493" lon="8.555624623480169"><ele>366.5</ele><time>2026-04-05T13:11:20.998Z</time></trkpt><trkpt lat="45.685654708402545" lon="8.555625198360213"><ele>366.66666666666663</ele><time>2026-04-05T13:11:21.998Z</time></trkpt><trkpt lat="45.68558910981023" lon="8.555623432831148"><ele>366.8333333333333</ele><time>2026-04-05T13:11:22.998Z</time></trkpt><trkpt lat="45.68552012493041" lon="8.555594642061434"><ele>367.0</ele><time>2026-04-05T13:11:23.998Z</time></trkpt><trkpt lat="45.68540529053106" lon="8.555549390260444"><ele>367.0</ele><time>2026-04-05T13:11:25.998Z</time></trkpt><trkpt lat="45.68534143903696" lon="8.555520596091586"><ele>367.0</ele><time>2026-04-05T13:11:26.998Z</time></trkpt><trkpt lat="45.68527976721812" lon="8.555490075194918"><ele>367.0</ele><time>2026-04-05T13:11:27.998Z</time></trkpt><trkpt lat="45.68521569508071" lon="8.555458366401682"><ele>367.0</ele><time>2026-04-05T13:11:28.998Z</time></trkpt><trkpt lat="45.68514773421744" lon="8.555427033711332"><ele>367.0</ele><time>2026-04-05T13:11:29.998Z</time></trkpt><trkpt lat="45.685083442728924" lon="8.555399920082108"><ele>367.0</ele><time>2026-04-05T13:11:30.998Z</time></trkpt><trkpt lat="45.68501485562087" lon="8.55539591178401"><ele>367.0</ele><time>2026-04-05T13:11:31.998Z</time></trkpt><trkpt lat="45.68494515137156" lon="8.555345268617815"><ele>365.57142857142856</ele><time>2026-04-05T13:11:32.998Z</time></trkpt><trkpt lat="45.68487416526638" lon="8.555333932876993"><ele>364.14285714285717</ele><time>2026-04-05T13:11:33.998Z</time></trkpt><trkpt lat="45.684794553176175" lon="8.555310794987815"><ele>362.7142857142857</ele><time>2026-04-05T13:11:34.998Z</time></trkpt><trkpt lat="45.6847230977399" lon="8.555263293246771"><ele>361.2857142857143</ele><time>2026-04-05T13:11:35.998Z</time></trkpt><trkpt lat="45.68464983488985" lon="8.555238910260638"><ele>359.8571428571429</ele><time>2026-04-05T13:11:36.998Z</time></trkpt><trkpt lat="45.68457711449133" lon="8.555237840790575"><ele>358.42857142857144</ele><time>2026-04-05T13:11:37.998Z</time></trkpt><trkpt lat="45.68451092673169" lon="8.555212995470585"><ele>357.0</ele><time>2026-04-05T13:11:38.998Z</time></trkpt><trkpt lat="45.6844490334118" lon="8.555194118214313"><ele>355.8333333333333</ele><time>2026-04-05T13:11:39.998Z</time></trkpt><trkpt lat="45.68437614626614" lon="8.555169468081198"><ele>354.6666666666667</ele><time>2026-04-05T13:11:40.998Z</time></trkpt><trkpt lat="45.684298850341904" lon="8.555146351452876"><ele>353.5</ele><time>2026-04-05T13:11:41.998Z</time></trkpt><trkpt lat="45.68422515294814" lon="8.555118600143636"><ele>352.33333333333337</ele><time>2026-04-05T13:11:42.998Z</time></trkpt><trkpt lat="45.68414494129341" lon="8.555091020366367"><ele>351.1666666666667</ele><time>2026-04-05T13:11:43.998Z</time></trkpt><trkpt lat="45.6840713688052" lon="8.555061169777126"><ele>350.0</ele><time>2026-04-05T13:11:44.998Z</time></trkpt><trkpt lat="45.68400071977528" lon="8.555017151560213"><ele>350.0</ele><time>2026-04-05T13:11:45.998Z</time></trkpt><trkpt lat="45.68392964204329" lon="8.55500848322023"><ele>350.0</ele><time>2026-04-05T13:11:46.998Z</time></trkpt><trkpt lat="45.68385961072281" lon="8.554978213424025"><ele>350.0</ele><time>2026-04-05T13:11:47.998Z</time></trkpt><trkpt lat="45.683793918677715" lon="8.55495399684086"><ele>350.0</ele><time>2026-04-05T13:11:48.998Z</time></trkpt><trkpt lat="45.68371917870418" lon="8.554923219475505"><ele>350.0</ele><time>2026-04-05T13:11:49.998Z</time></trkpt><trkpt lat="45.68364327131945" lon="8.5548981079346"><ele>350.0</ele><time>2026-04-05T13:11:50.998Z</time></trkpt><trkpt lat="45.68357316414994" lon="8.554875893385658"><ele>350.0</ele><time>2026-04-05T13:11:51.998Z</time></trkpt><trkpt lat="45.683510996746" lon="8.554846329956403"><ele>349.25</ele><time>2026-04-05T13:11:52.998Z</time></trkpt><trkpt lat="45.683408064457" lon="8.554787848751156"><ele>348.5</ele><time>2026-04-05T13:11:54.998Z</time></trkpt><trkpt lat="45.68333364761556" lon="8.554774126176026"><ele>347.75</ele><time>2026-04-05T13:11:56.998Z</time></trkpt><trkpt lat="45.68326688095174" lon="8.554719645788325"><ele>347.0</ele><time>2026-04-05T13:11:59.998Z</time></trkpt><trkpt lat="45.68326395835693" lon="8.554386663455915"><ele>347.0</ele><time>2026-04-05T13:12:02.998Z</time></trkpt><trkpt lat="45.68324700666469" lon="8.554237111674677"><ele>347.0</ele><time>2026-04-05T13:12:04.998Z</time></trkpt><trkpt lat="45.68323111982344" lon="8.554090780387469"><ele>347.0</ele><time>2026-04-05T13:12:06.998Z</time></trkpt><trkpt lat="45.6831999152848" lon="8.553946695417032"><ele>347.0</ele><time>2026-04-05T13:12:08.998Z</time></trkpt><trkpt lat="45.683178979827304" lon="8.553857395066023"><ele>347.0</ele><time>2026-04-05T13:12:11.998Z</time></trkpt><trkpt lat="45.68317697749842" lon="8.55376624143878"><ele>347.0</ele><time>2026-04-05T13:12:48.999Z</time></trkpt><trkpt lat="45.68318329050774" lon="8.553660642604806"><ele>347.0</ele><time>2026-04-05T13:12:51.999Z</time></trkpt><trkpt lat="45.68316790596951" lon="8.553767282375441"><ele>347.0</ele><time>2026-04-05T13:13:48.999Z</time></trkpt><trkpt lat="45.68317999250106" lon="8.553883485924901"><ele>347.0</ele><time>2026-04-05T13:13:51.999Z</time></trkpt><trkpt lat="45.68324826694251" lon="8.553955844120075"><ele>347.0</ele><time>2026-04-05T13:13:54.999Z</time></trkpt><trkpt lat="45.683317777843" lon="8.55392103590121"><ele>347.0</ele><time>2026-04-05T13:13:57.999Z</time></trkpt><trkpt lat="45.68340294047888" lon="8.553892169633018"><ele>347.0</ele><time>2026-04-05T13:14:06.999Z</time></trkpt><trkpt lat="45.68346386857056" lon="8.553958786583864"><ele>347.0</ele><time>2026-04-05T13:14:08.999Z</time></trkpt><trkpt lat="45.68351590787632" lon="8.554041177087427"><ele>347.0</ele><time>2026-04-05T13:14:11.999Z</time></trkpt><trkpt lat="45.68353843312569" lon="8.553952049381259"><ele>347.0</ele><time>2026-04-05T13:14:18.999Z</time></trkpt><trkpt lat="45.68346329963887" lon="8.55393878873805"><ele>347.0</ele><time>2026-04-05T13:14:20.999Z</time></trkpt><trkpt lat="45.683385935183885" lon="8.553949111737905"><ele>347.0</ele><time>2026-04-05T13:14:23.999Z</time></trkpt><trkpt lat="45.68335296908902" lon="8.553867773789127"><ele>347.0</ele><time>2026-04-05T13:14:38Z</time></trkpt><trkpt lat="45.68337521862675" lon="8.553765590571544"><ele>347.0</ele><time>2026-04-05T13:14:43Z</time></trkpt><trkpt lat="45.683329196565914" lon="8.553681187586507"><ele>347.1666666666667</ele><time>2026-04-05T13:14:57Z</time></trkpt><trkpt lat="45.683318533721504" lon="8.553579626442898"><ele>347.33333333333337</ele><time>2026-04-05T13:15:19Z</time></trkpt><trkpt lat="45.68332550603848" lon="8.553443721423065"><ele>347.5</ele><time>2026-04-05T13:15:22Z</time></trkpt><trkpt lat="45.68332750678116" lon="8.55331708039804"><ele>347.6666666666667</ele><time>2026-04-05T13:15:29Z</time></trkpt><trkpt lat="45.68333682656765" lon="8.553193486801709"><ele>347.8333333333333</ele><time>2026-04-05T13:15:32Z</time></trkpt><trkpt lat="45.68331499751323" lon="8.553081373128055"><ele>348.0</ele><time>2026-04-05T13:15:37Z</time></trkpt><trkpt lat="45.68331915708979" lon="8.552990694388184"><ele>348.0</ele><time>2026-04-05T13:15:39Z</time></trkpt><trkpt lat="45.68330448801806" lon="8.552899975942669"><ele>348.0</ele><time>2026-04-05T13:15:42Z</time></trkpt><trkpt lat="45.68320377741683" lon="8.552878251642879"><ele>348.0</ele><time>2026-04-05T13:15:45Z</time></trkpt><trkpt lat="45.68312947943987" lon="8.552857670729223"><ele>348.0</ele><time>2026-04-05T13:15:47Z</time></trkpt><trkpt lat="45.683054319463096" lon="8.552853082029657"><ele>348.0</ele><time>2026-04-05T13:15:49Z</time></trkpt><trkpt lat="45.68297887907037" lon="8.552842109688386"><ele>348.0</ele><time>2026-04-05T13:15:51Z</time></trkpt><trkpt lat="45.68284836117731" lon="8.552843971424945"><ele>348.0</ele><time>2026-04-05T13:15:54Z</time></trkpt><trkpt lat="45.68276062020095" lon="8.552836502818103"><ele>348.0</ele><time>2026-04-05T13:15:56Z</time></trkpt><trkpt lat="45.68270733331173" lon="8.552782923284202"><ele>348.0</ele><time>2026-04-05T13:15:58Z</time></trkpt><trkpt lat="45.682766134312864" lon="8.552698026266933"><ele>348.0</ele><time>2026-04-05T13:16:00Z</time></trkpt><trkpt lat="45.68276886280669" lon="8.552578778064513"><ele>348.0</ele><time>2026-04-05T13:16:02Z</time></trkpt><trkpt lat="45.68277686121862" lon="8.55244093443012"><ele>348.0</ele><time>2026-04-05T13:16:04Z</time></trkpt><trkpt lat="45.68278617555952" lon="8.552271017817082"><ele>348.0</ele><time>2026-04-05T13:16:06Z</time></trkpt><trkpt lat="45.68279112060492" lon="8.552177536829955"><ele>348.0</ele><time>2026-04-05T13:16:07Z</time></trkpt><trkpt lat="45.6827966652962" lon="8.552073113534133"><ele>348.0</ele><time>2026-04-05T13:16:08Z</time></trkpt><trkpt lat="45.6828038299752" lon="8.551961542440674"><ele>348.0</ele><time>2026-04-05T13:16:09Z</time></trkpt><trkpt lat="45.682811323091705" lon="8.551851721647173"><ele>348.0</ele><time>2026-04-05T13:16:10Z</time></trkpt><trkpt lat="45.682818865275436" lon="8.551755542638329"><ele>348.0</ele><time>2026-04-05T13:16:11Z</time></trkpt><trkpt lat="45.68284436843691" lon="8.551618954417783"><ele>347.0</ele><time>2026-04-05T13:16:13Z</time></trkpt><trkpt lat="45.68285453140141" lon="8.551494269147696"><ele>346.0</ele><time>2026-04-05T13:16:16Z</time></trkpt><trkpt lat="45.68303088255264" lon="8.551543787877707"><ele>345.0</ele><time>2026-04-05T13:16:18Z</time></trkpt><trkpt lat="45.68315925936991" lon="8.55157114380986"><ele>344.0</ele><time>2026-04-05T13:16:19.999Z</time></trkpt><trkpt lat="45.6832797507647" lon="8.551597445093233"><ele>344.0</ele><time>2026-04-05T13:16:21.999Z</time></trkpt><trkpt lat="45.68334342111808" lon="8.551610904387108"><ele>344.0</ele><time>2026-04-05T13:16:22.999Z</time></trkpt><trkpt lat="45.683464029146975" lon="8.551640108415201"><ele>344.0</ele><time>2026-04-05T13:16:24.999Z</time></trkpt><trkpt lat="45.683588920327644" lon="8.551655787090967"><ele>344.0</ele><time>2026-04-05T13:16:26.999Z</time></trkpt><trkpt lat="45.68365839835614" lon="8.551665056928206"><ele>344.0</ele><time>2026-04-05T13:16:27.999Z</time></trkpt><trkpt lat="45.68376669019502" lon="8.551687098396973"><ele>344.4</ele><time>2026-04-05T13:16:29.999Z</time></trkpt><trkpt lat="45.683863822544254" lon="8.55172910818209"><ele>344.79999999999995</ele><time>2026-04-05T13:16:31.999Z</time></trkpt><trkpt lat="45.683969393286766" lon="8.551774899718902"><ele>345.20000000000005</ele><time>2026-04-05T13:16:33.999Z</time></trkpt><trkpt lat="45.68407504315877" lon="8.551829319899404"><ele>345.6</ele><time>2026-04-05T13:16:35.999Z</time></trkpt><trkpt lat="45.68419079485866" lon="8.551876948917272"><ele>346.0</ele><time>2026-04-05T13:16:37.999Z</time></trkpt><trkpt lat="45.684302603616146" lon="8.55193196779636"><ele>346.0</ele><time>2026-04-05T13:16:40Z</time></trkpt><trkpt lat="45.68440661988552" lon="8.551965448444983"><ele>346.0</ele><time>2026-04-05T13:16:42Z</time></trkpt><trkpt lat="45.68451394794122" lon="8.551926650669893"><ele>346.0</ele><time>2026-04-05T13:16:44Z</time></trkpt><trkpt lat="45.68463036938774" lon="8.5519120507733"><ele>346.0</ele><time>2026-04-05T13:16:46Z</time></trkpt><trkpt lat="45.68473771244931" lon="8.551901827575676"><ele>346.0</ele><time>2026-04-05T13:16:48Z</time></trkpt><trkpt lat="45.68484687797663" lon="8.551868684551383"><ele>346.3333333333333</ele><time>2026-04-05T13:16:50Z</time></trkpt><trkpt lat="45.6849596651194" lon="8.551858455315633"><ele>346.66666666666663</ele><time>2026-04-05T13:16:52Z</time></trkpt><trkpt lat="45.68506897898282" lon="8.551873675609366"><ele>347.0</ele><time>2026-04-05T13:16:54Z</time></trkpt><trkpt lat="45.6851432882423" lon="8.551879959776578"><ele>347.3333333333333</ele><time>2026-04-05T13:16:56Z</time></trkpt><trkpt lat="45.68521307042528" lon="8.551896182168992"><ele>347.6666666666667</ele><time>2026-04-05T13:16:59Z</time></trkpt><trkpt lat="45.68529029236121" lon="8.551914966762272"><ele>348.0</ele><time>2026-04-05T13:17:59Z</time></trkpt><trkpt lat="45.68538102189382" lon="8.551915732418788"><ele>348.0</ele><time>2026-04-05T13:18:02Z</time></trkpt><trkpt lat="45.685443109164005" lon="8.551871507721541"><ele>348.0</ele><time>2026-04-05T13:18:05Z</time></trkpt><trkpt lat="45.68553317017816" lon="8.551910907652003"><ele>348.0</ele><time>2026-04-05T13:18:10Z</time></trkpt><trkpt lat="45.6855938339407" lon="8.55195215542695"><ele>348.0</ele><time>2026-04-05T13:18:12Z</time></trkpt><trkpt lat="45.68565356952683" lon="8.551866792035177"><ele>348.0</ele><time>2026-04-05T13:18:15Z</time></trkpt><trkpt lat="45.685588438885254" lon="8.551737811314851"><ele>348.0</ele><time>2026-04-05T13:18:17Z</time></trkpt><trkpt lat="45.685553121287704" lon="8.551637442519981"><ele>348.0</ele><time>2026-04-05T13:18:18Z</time></trkpt><trkpt lat="45.68552957686824" lon="8.551493042321527"><ele>348.0</ele><time>2026-04-05T13:18:20Z</time></trkpt><trkpt lat="45.68551549449339" lon="8.551349036235248"><ele>348.0</ele><time>2026-04-05T13:18:22Z</time></trkpt><trkpt lat="45.685489707490355" lon="8.551243114833952"><ele>348.0</ele><time>2026-04-05T13:18:25.999Z</time></trkpt><trkpt lat="45.68547155896005" lon="8.551123593049118"><ele>348.0</ele><time>2026-04-05T13:18:28.999Z</time></trkpt><trkpt lat="45.68543186508955" lon="8.55095249500645"><ele>346.2</ele><time>2026-04-05T13:18:31.999Z</time></trkpt><trkpt lat="45.68542153033816" lon="8.550821099192767"><ele>344.4</ele><time>2026-04-05T13:18:32.999Z</time></trkpt><trkpt lat="45.68540258354604" lon="8.55071984920941"><ele>342.59999999999997</ele><time>2026-04-05T13:18:33.999Z</time></trkpt><trkpt lat="45.68539485342693" lon="8.550578286516165"><ele>340.79999999999995</ele><time>2026-04-05T13:18:34.999Z</time></trkpt><trkpt lat="45.685392649636675" lon="8.550463924450119"><ele>339.0</ele><time>2026-04-05T13:18:35.999Z</time></trkpt><trkpt lat="45.68542278095712" lon="8.550319478414414"><ele>339.0</ele><time>2026-04-05T13:18:37.999Z</time></trkpt><trkpt lat="45.68547770182006" lon="8.550412399056555"><ele>339.0</ele><time>2026-04-05T13:18:39.999Z</time></trkpt><trkpt lat="45.685521440655826" lon="8.55048767043933"><ele>339.0</ele><time>2026-04-05T13:18:40.999Z</time></trkpt><trkpt lat="45.68557341484094" lon="8.550585314406296"><ele>339.0</ele><time>2026-04-05T13:18:41.999Z</time></trkpt><trkpt lat="45.685611863642045" lon="8.550657227728331"><ele>339.0</ele><time>2026-04-05T13:18:42.999Z</time></trkpt><trkpt lat="45.68566426108647" lon="8.55070900096576"><ele>339.0</ele><time>2026-04-05T13:18:44Z</time></trkpt><trkpt lat="45.68575888211684" lon="8.550830613020997"><ele>339.0</ele><time>2026-04-05T13:18:46Z</time></trkpt><trkpt lat="45.68580861174712" lon="8.550887300276898"><ele>339.0</ele><time>2026-04-05T13:18:47Z</time></trkpt><trkpt lat="45.68589040952349" lon="8.550980969679218"><ele>339.0</ele><time>2026-04-05T13:18:49Z</time></trkpt><trkpt lat="45.68592216890552" lon="8.55089495501451"><ele>339.0</ele><time>2026-04-05T13:18:58Z</time></trkpt><trkpt lat="45.68596780050234" lon="8.550816599671808"><ele>339.0</ele><time>2026-04-05T13:19:01Z</time></trkpt><trkpt lat="45.68591988249317" lon="8.550885168002907"><ele>339.0</ele><time>2026-04-05T13:20:43.999Z</time></trkpt><trkpt lat="45.685875660006765" lon="8.550958854742136"><ele>339.0</ele><time>2026-04-05T13:20:45.999Z</time></trkpt><trkpt lat="45.685834071366315" lon="8.550890855317368"><ele>339.0</ele><time>2026-04-05T13:20:47.999Z</time></trkpt><trkpt lat="45.68576877501995" lon="8.550781942152609"><ele>339.0</ele><time>2026-04-05T13:20:50Z</time></trkpt><trkpt lat="45.68570294669202" lon="8.55070746788757"><ele>339.0</ele><time>2026-04-05T13:20:52Z</time></trkpt><trkpt lat="45.68564607627485" lon="8.550643398383098"><ele>339.0</ele><time>2026-04-05T13:20:54Z</time></trkpt><trkpt lat="45.68558664981083" lon="8.550567826398778"><ele>339.0</ele><time>2026-04-05T13:20:56Z</time></trkpt><trkpt lat="45.68553068299857" lon="8.55046773668848"><ele>339.0</ele><time>2026-04-05T13:20:58Z</time></trkpt><trkpt lat="45.68557190883442" lon="8.550565261248298"><ele>339.0</ele><time>2026-04-05T13:21:45Z</time></trkpt><trkpt lat="45.68561626145455" lon="8.550636828529056"><ele>339.0</ele><time>2026-04-05T13:21:49Z</time></trkpt><trkpt lat="45.68567839588182" lon="8.550714684516326"><ele>339.0</ele><time>2026-04-05T13:21:52Z</time></trkpt><trkpt lat="45.685733459772905" lon="8.550778166428033"><ele>339.0</ele><time>2026-04-05T13:21:55Z</time></trkpt><trkpt lat="45.685796547168714" lon="8.550851961499728"><ele>339.0</ele><time>2026-04-05T13:21:59Z</time></trkpt><trkpt lat="45.68585113147929" lon="8.550929874051047"><ele>339.0</ele><time>2026-04-05T13:22:03Z</time></trkpt><trkpt lat="45.68591435798051" lon="8.550875063045419"><ele>339.0</ele><time>2026-04-05T13:22:12Z</time></trkpt><trkpt lat="45.685964936472054" lon="8.550812505383698"><ele>339.0</ele><time>2026-04-05T13:22:15Z</time></trkpt><trkpt lat="45.68596915271892" lon="8.550719259016303"><ele>339.0</ele><time>2026-04-05T13:23:14Z</time></trkpt><trkpt lat="45.68596196320395" lon="8.550592378620282"><ele>339.0</ele><time>2026-04-05T13:23:18Z</time></trkpt><trkpt lat="45.68595775064914" lon="8.550477594202059"><ele>339.0</ele><time>2026-04-05T13:23:21Z</time></trkpt><trkpt lat="45.68595677571861" lon="8.550381381059305"><ele>339.0</ele><time>2026-04-05T13:23:29Z</time></trkpt><trkpt lat="45.68595138510151" lon="8.550283793012701"><ele>339.0</ele><time>2026-04-05T13:23:33Z</time></trkpt><trkpt lat="45.68594534586663" lon="8.550172717587612"><ele>338.0</ele><time>2026-04-05T13:23:37Z</time></trkpt><trkpt lat="45.68595184671797" lon="8.550064670678578"><ele>337.0</ele><time>2026-04-05T13:23:41Z</time></trkpt><trkpt lat="45.68596415907412" lon="8.549967992113027"><ele>336.0</ele><time>2026-04-05T13:23:45Z</time></trkpt><trkpt lat="45.685947468007875" lon="8.549877165428295"><ele>335.0</ele><time>2026-04-05T13:23:49Z</time></trkpt><trkpt lat="45.68589225590199" lon="8.549831089399564"><ele>334.0</ele><time>2026-04-05T13:23:54Z</time></trkpt><trkpt lat="45.68594014745657" lon="8.549768212872387"><ele>333.0</ele><time>2026-04-05T13:24:00Z</time></trkpt><trkpt lat="45.68592842517252" lon="8.549653154923165"><ele>332.0</ele><time>2026-04-05T13:24:16Z</time></trkpt><trkpt lat="45.68592276750242" lon="8.549537483161762"><ele>331.1428571428571</ele><time>2026-04-05T13:24:20Z</time></trkpt><trkpt lat="45.68591353286361" lon="8.549435651111727"><ele>330.28571428571433</ele><time>2026-04-05T13:24:24Z</time></trkpt><trkpt lat="45.68590624734388" lon="8.549330520522368"><ele>329.42857142857144</ele><time>2026-04-05T13:24:29Z</time></trkpt><trkpt lat="45.6859115788386" lon="8.54922402792058"><ele>328.57142857142856</ele><time>2026-04-05T13:24:33Z</time></trkpt><trkpt lat="45.685923008633665" lon="8.549128624543046"><ele>327.71428571428567</ele><time>2026-04-05T13:24:36Z</time></trkpt><trkpt lat="45.685931472867004" lon="8.54901378683993"><ele>326.8571428571429</ele><time>2026-04-05T13:24:40Z</time></trkpt><trkpt lat="45.685943040370184" lon="8.548918929439738"><ele>326.0</ele><time>2026-04-05T13:24:43Z</time></trkpt><trkpt lat="45.68595621928321" lon="8.548815822041734"><ele>326.0</ele><time>2026-04-05T13:24:46Z</time></trkpt><trkpt lat="45.68597100456424" lon="8.548716418904284"><ele>326.0</ele><time>2026-04-05T13:24:48.999Z</time></trkpt><trkpt lat="45.685979388806125" lon="8.548618287863695"><ele>326.0</ele><time>2026-04-05T13:24:51.999Z</time></trkpt><trkpt lat="45.685977834329115" lon="8.548523077169197"><ele>326.0</ele><time>2026-04-05T13:24:54.999Z</time></trkpt><trkpt lat="45.68596652593319" lon="8.548432281225612"><ele>326.0</ele><time>2026-04-05T13:24:57.999Z</time></trkpt><trkpt lat="45.6859755377651" lon="8.548335779510671"><ele>326.0</ele><time>2026-04-05T13:25:01Z</time></trkpt><trkpt lat="45.685997277228594" lon="8.54823954822546"><ele>326.0</ele><time>2026-04-05T13:25:04Z</time></trkpt><trkpt lat="45.686010801123295" lon="8.548142367079981"><ele>324.7142857142857</ele><time>2026-04-05T13:25:08Z</time></trkpt><trkpt lat="45.68601247370015" lon="8.548023847546911"><ele>323.4285714285714</ele><time>2026-04-05T13:25:11Z</time></trkpt><trkpt lat="45.686009624740116" lon="8.547933321915416"><ele>322.1428571428571</ele><time>2026-04-05T13:25:15Z</time></trkpt><trkpt lat="45.686033471558616" lon="8.547840896835734"><ele>320.8571428571429</ele><time>2026-04-05T13:25:19Z</time></trkpt><trkpt lat="45.686047872629636" lon="8.547749779296252"><ele>319.57142857142856</ele><time>2026-04-05T13:25:31Z</time></trkpt><trkpt lat="45.68598213818798" lon="8.547729219990755"><ele>318.2857142857143</ele><time>2026-04-05T13:25:34Z</time></trkpt><trkpt lat="45.685977849768406" lon="8.547824150961995"><ele>317.0</ele><time>2026-04-05T13:25:39Z</time></trkpt><trkpt lat="45.686028494132955" lon="8.547883535807992"><ele>316.7142857142857</ele><time>2026-04-05T13:25:42Z</time></trkpt><trkpt lat="45.68609582350798" lon="8.547825881279342"><ele>316.42857142857144</ele><time>2026-04-05T13:25:49Z</time></trkpt><trkpt lat="45.686051222445776" lon="8.547747009374255"><ele>316.1428571428571</ele><time>2026-04-05T13:25:52Z</time></trkpt><trkpt lat="45.685994647802524" lon="8.54779916680293"><ele>315.8571428571429</ele><time>2026-04-05T13:25:57Z</time></trkpt><trkpt lat="45.68605168077145" lon="8.547870701085783"><ele>315.57142857142856</ele><time>2026-04-05T13:26:01Z</time></trkpt><trkpt lat="45.686100446941865" lon="8.54779297743824"><ele>315.2857142857143</ele><time>2026-04-05T13:26:12Z</time></trkpt><trkpt lat="45.686143153259884" lon="8.547701843096938"><ele>315.0</ele><time>2026-04-05T13:26:15Z</time></trkpt><trkpt lat="45.6862020135743" lon="8.547633610846232"><ele>315.0</ele><time>2026-04-05T13:26:27Z</time></trkpt><trkpt lat="45.686265107486136" lon="8.547593396433857"><ele>315.0</ele><time>2026-04-05T13:26:31Z</time></trkpt><trkpt lat="45.68632347016723" lon="8.54755164012977"><ele>315.0</ele><time>2026-04-05T13:26:34Z</time></trkpt><trkpt lat="45.68640567690297" lon="8.547513917279169"><ele>315.0</ele><time>2026-04-05T13:26:37Z</time></trkpt><trkpt lat="45.686489341725384" lon="8.547460546847173"><ele>315.0</ele><time>2026-04-05T13:26:40Z</time></trkpt><trkpt lat="45.68654803868412" lon="8.547422521505567"><ele>315.0</ele><time>2026-04-05T13:26:42Z</time></trkpt><trkpt lat="45.686625197696074" lon="8.547388108577792"><ele>315.0</ele><time>2026-04-05T13:26:45.999Z</time></trkpt><trkpt lat="45.6866962559071" lon="8.547343317765188"><ele>315.0</ele><time>2026-04-05T13:26:49.999Z</time></trkpt><trkpt lat="45.68676049639781" lon="8.547300253446817"><ele>315.0</ele><time>2026-04-05T13:26:51.999Z</time></trkpt><trkpt lat="45.68684128495284" lon="8.547256745174622"><ele>315.0</ele><time>2026-04-05T13:26:53.999Z</time></trkpt><trkpt lat="45.6869102995158" lon="8.547196538478914"><ele>315.0</ele><time>2026-04-05T13:26:55.999Z</time></trkpt><trkpt lat="45.68697061786169" lon="8.547164495781308"><ele>327.0</ele><time>2026-04-05T13:26:57.999Z</time></trkpt><trkpt lat="45.687028675801685" lon="8.547126479018285"><ele>327.0</ele><time>2026-04-05T13:27:00.999Z</time></trkpt></trkseg><trkseg><trkpt lat="45.68301217325872" lon="8.547787369174351"><ele>303.5</ele><time>2026-04-05T13:39:20.999Z</time></trkpt><trkpt lat="45.6830108847211" lon="8.54789662218122"><ele>306.0</ele><time>2026-04-05T13:39:53Z</time></trkpt><trkpt lat="45.68303475468453" lon="8.548071397103355"><ele>308.5</ele><time>2026-04-05T13:39:55Z</time></trkpt><trkpt lat="45.683027368138305" lon="8.54816213652331"><ele>311.0</ele><time>2026-04-05T13:39:56Z</time></trkpt><trkpt lat="45.68299367754346" lon="8.548264757129452"><ele>313.5</ele><time>2026-04-05T13:39:58Z</time></trkpt><trkpt lat="45.683006338334245" lon="8.548357282606668"><ele>316.0</ele><time>2026-04-05T13:40:03Z</time></trkpt><trkpt lat="45.68301301651137" lon="8.54824437386586"><ele>316.0</ele><time>2026-04-05T13:40:50Z</time></trkpt><trkpt lat="45.68303236803959" lon="8.548111240822275"><ele>316.0</ele><time>2026-04-05T13:40:52.999Z</time></trkpt><trkpt lat="45.68302934642598" lon="8.54795921818193"><ele>316.0</ele><time>2026-04-05T13:40:54.999Z</time></trkpt><trkpt lat="45.683031863581455" lon="8.547840610394621"><ele>316.0</ele><time>2026-04-05T13:40:56.999Z</time></trkpt><trkpt lat="45.68302213659305" lon="8.548032179310523"><ele>316.0</ele><time>2026-04-05T13:41:07.999Z</time></trkpt><trkpt lat="45.683024805229024" lon="8.548126742748265"><ele>316.00000000000006</ele><time>2026-04-05T13:41:08.999Z</time></trkpt><trkpt lat="45.68299740087842" lon="8.548262189738887"><ele>316.0</ele><time>2026-04-05T13:41:10.999Z</time></trkpt><trkpt lat="45.68299630227824" lon="8.54836140847003"><ele>316.0</ele><time>2026-04-05T13:41:13.999Z</time></trkpt><trkpt lat="45.682991285502155" lon="8.548458164831368"><ele>316.0</ele><time>2026-04-05T13:41:18.999Z</time></trkpt><trkpt lat="45.68300450842543" lon="8.54855641670928"><ele>316.0</ele><time>2026-04-05T13:41:23.999Z</time></trkpt><trkpt lat="45.68299176731262" lon="8.548654739382812"><ele>316.00000000000006</ele><time>2026-04-05T13:41:29.999Z</time></trkpt><trkpt lat="45.68299168294322" lon="8.548757385365382"><ele>316.0</ele><time>2026-04-05T13:41:33.999Z</time></trkpt><trkpt lat="45.682981160552146" lon="8.548858809643441"><ele>316.0</ele><time>2026-04-05T13:41:36.999Z</time></trkpt><trkpt lat="45.6829976871802" lon="8.54873607141872"><ele>316.0</ele><time>2026-04-05T13:43:03.999Z</time></trkpt><trkpt lat="45.68299790720122" lon="8.54863468083024"><ele>316.0</ele><time>2026-04-05T13:43:06.999Z</time></trkpt><trkpt lat="45.68300683074766" lon="8.54851754918964"><ele>316.0</ele><time>2026-04-05T13:43:11.999Z</time></trkpt><trkpt lat="45.68300278963267" lon="8.548427303877606"><ele>316.0</ele><time>2026-04-05T13:43:15.999Z</time></trkpt><trkpt lat="45.68301094031486" lon="8.548331155863934"><ele>316.0</ele><time>2026-04-05T13:43:18.999Z</time></trkpt><trkpt lat="45.68302348474195" lon="8.548185747514633"><ele>316.0</ele><time>2026-04-05T13:43:21.999Z</time></trkpt><trkpt lat="45.683037007586876" lon="8.548030740959076"><ele>316.0</ele><time>2026-04-05T13:43:23.999Z</time></trkpt><trkpt lat="45.68301864913963" lon="8.547901283647757"><ele>316.0</ele><time>2026-04-05T13:43:25.999Z</time></trkpt><trkpt lat="45.68299962094761" lon="8.54780191084024"><ele>316.0</ele><time>2026-04-05T13:44:22.999Z</time></trkpt><trkpt lat="45.682898992787145" lon="8.547754997915384"><ele>316.0</ele><time>2026-04-05T13:44:40.999Z</time></trkpt><trkpt lat="45.68282927055684" lon="8.547693347538177"><ele>313.6</ele><time>2026-04-05T13:44:42.999Z</time></trkpt><trkpt lat="45.682739067777334" lon="8.547640180927772"><ele>311.20000000000005</ele><time>2026-04-05T13:44:44.999Z</time></trkpt><trkpt lat="45.68263293464711" lon="8.547565805935298"><ele>308.79999999999995</ele><time>2026-04-05T13:44:46.999Z</time></trkpt><trkpt lat="45.68253429756745" lon="8.547488098352613"><ele>306.4</ele><time>2026-04-05T13:44:48.999Z</time></trkpt><trkpt lat="45.682426278497076" lon="8.547413354472011"><ele>304.0</ele><time>2026-04-05T13:44:50.999Z</time></trkpt><trkpt lat="45.68236675679004" lon="8.547369449771118"><ele>304.0</ele><time>2026-04-05T13:44:51.999Z</time></trkpt><trkpt lat="45.6823092173496" lon="8.547317662078742"><ele>304.0</ele><time>2026-04-05T13:44:52.999Z</time></trkpt><trkpt lat="45.68225107006044" lon="8.547271156189195"><ele>304.0</ele><time>2026-04-05T13:44:53.999Z</time></trkpt><trkpt lat="45.68219457983588" lon="8.547227181081539"><ele>304.0</ele><time>2026-04-05T13:44:54.999Z</time></trkpt><trkpt lat="45.68208834631488" lon="8.54713817469051"><ele>304.0</ele><time>2026-04-05T13:44:56.999Z</time></trkpt><trkpt lat="45.68202923768544" lon="8.547100254397739"><ele>304.0</ele><time>2026-04-05T13:44:57.999Z</time></trkpt><trkpt lat="45.68196976943151" lon="8.547053506656475"><ele>302.8</ele><time>2026-04-05T13:44:58.999Z</time></trkpt><trkpt lat="45.681871653421105" lon="8.546975865336904"><ele>301.59999999999997</ele><time>2026-04-05T13:45:00.999Z</time></trkpt><trkpt lat="45.68177824268645" lon="8.546935347840199"><ele>300.4</ele><time>2026-04-05T13:45:02.999Z</time></trkpt><trkpt lat="45.68166987934386" lon="8.546892224646813"><ele>299.2</ele><time>2026-04-05T13:45:04.999Z</time></trkpt><trkpt lat="45.68156201590391" lon="8.546840634321132"><ele>298.0</ele><time>2026-04-05T13:45:06.999Z</time></trkpt><trkpt lat="45.68144829225298" lon="8.546774403459612"><ele>298.0</ele><time>2026-04-05T13:45:08.999Z</time></trkpt><trkpt lat="45.681328669901944" lon="8.546718491581561"><ele>298.0</ele><time>2026-04-05T13:45:10.999Z</time></trkpt><trkpt lat="45.68120898341117" lon="8.546711777565994"><ele>298.0</ele><time>2026-04-05T13:45:12.999Z</time></trkpt><trkpt lat="45.68109085655936" lon="8.54671637300599"><ele>298.0</ele><time>2026-04-05T13:45:14.999Z</time></trkpt><trkpt lat="45.680976293453284" lon="8.546713945418352"><ele>298.25</ele><time>2026-04-05T13:45:16.999Z</time></trkpt><trkpt lat="45.680871941962536" lon="8.546747395220462"><ele>298.5</ele><time>2026-04-05T13:45:18.999Z</time></trkpt><trkpt lat="45.680772846562036" lon="8.5468412406852"><ele>298.75</ele><time>2026-04-05T13:45:20.999Z</time></trkpt><trkpt lat="45.68067969023746" lon="8.546967022821827"><ele>299.0</ele><time>2026-04-05T13:45:22.999Z</time></trkpt><trkpt lat="45.680570098803464" lon="8.547037259397605"><ele>299.0</ele><time>2026-04-05T13:45:24.999Z</time></trkpt><trkpt lat="45.68045154798892" lon="8.5470178475219"><ele>299.0</ele><time>2026-04-05T13:45:26.999Z</time></trkpt><trkpt lat="45.680327999826645" lon="8.54698960115886"><ele>299.0</ele><time>2026-04-05T13:45:28.999Z</time></trkpt><trkpt lat="45.680219789028776" lon="8.546993030081055"><ele>299.0</ele><time>2026-04-05T13:45:30.999Z</time></trkpt><trkpt lat="45.68012478116237" lon="8.546987588353925"><ele>299.0</ele><time>2026-04-05T13:45:32.999Z</time></trkpt><trkpt lat="45.68004252574632" lon="8.547048795694053"><ele>299.1666666666667</ele><time>2026-04-05T13:45:35.999Z</time></trkpt><trkpt lat="45.67996748027873" lon="8.54706608237069"><ele>299.33333333333337</ele><time>2026-04-05T13:45:37.999Z</time></trkpt><trkpt lat="45.67989373975642" lon="8.54703833799873"><ele>299.5</ele><time>2026-04-05T13:45:39.999Z</time></trkpt><trkpt lat="45.67980527799051" lon="8.547010547629217"><ele>299.6666666666667</ele><time>2026-04-05T13:45:41.999Z</time></trkpt><trkpt lat="45.6797313510395" lon="8.546974658369884"><ele>299.8333333333333</ele><time>2026-04-05T13:45:43.999Z</time></trkpt><trkpt lat="45.67965015086658" lon="8.546968676153682"><ele>300.0</ele><time>2026-04-05T13:45:45.999Z</time></trkpt><trkpt lat="45.67957336193074" lon="8.547043808072576"><ele>302.0</ele><time>2026-04-05T13:45:47.998Z</time></trkpt><trkpt lat="45.67947999766421" lon="8.547099805062427"><ele>304.0</ele><time>2026-04-05T13:45:49.998Z</time></trkpt><trkpt lat="45.67938241155348" lon="8.547101708404368"><ele>306.0</ele><time>2026-04-05T13:45:51.998Z</time></trkpt><trkpt lat="45.67930018794188" lon="8.547102348656992"><ele>308.0</ele><time>2026-04-05T13:45:53.998Z</time></trkpt><trkpt lat="45.67925928908091" lon="8.547189689320328"><ele>310.0</ele><time>2026-04-05T13:45:55.998Z</time></trkpt><trkpt lat="45.67930366150696" lon="8.547114614039065"><ele>312.0</ele><time>2026-04-05T13:47:38.999Z</time></trkpt><trkpt lat="45.67940595997744" lon="8.54710434338425"><ele>312.0</ele><time>2026-04-05T13:47:41.999Z</time></trkpt><trkpt lat="45.6794842855783" lon="8.54708115198134"><ele>312.0</ele><time>2026-04-05T13:47:43.999Z</time></trkpt><trkpt lat="45.67955133330996" lon="8.547037228149923"><ele>312.0</ele><time>2026-04-05T13:47:45.999Z</time></trkpt><trkpt lat="45.67961134869819" lon="8.546995670150658"><ele>312.0</ele><time>2026-04-05T13:47:47.999Z</time></trkpt><trkpt lat="45.6796756551664" lon="8.546988557020395"><ele>312.0</ele><time>2026-04-05T13:47:49.999Z</time></trkpt><trkpt lat="45.67974430086553" lon="8.547023912834982"><ele>312.0</ele><time>2026-04-05T13:47:51.999Z</time></trkpt><trkpt lat="45.67980811361447" lon="8.547037503572325"><ele>312.0</ele><time>2026-04-05T13:47:53.998Z</time></trkpt><trkpt lat="45.67988379909974" lon="8.547057655059758"><ele>312.0</ele><time>2026-04-05T13:47:55.998Z</time></trkpt><trkpt lat="45.67997101537584" lon="8.547061343663866"><ele>312.0</ele><time>2026-04-05T13:47:57.998Z</time></trkpt><trkpt lat="45.680043298084215" lon="8.547006942751583"><ele>312.0</ele><time>2026-04-05T13:48:00.998Z</time></trkpt><trkpt lat="45.68000543628427" lon="8.54692284598335"><ele>312.0</ele><time>2026-04-05T13:48:03.998Z</time></trkpt><trkpt lat="45.67989409479494" lon="8.546863479703804"><ele>312.0</ele><time>2026-04-05T13:48:05.999Z</time></trkpt><trkpt lat="45.67979576867123" lon="8.546804470421174"><ele>311.4</ele><time>2026-04-05T13:48:07.999Z</time></trkpt><trkpt lat="45.67969631901294" lon="8.54673222737318"><ele>310.79999999999995</ele><time>2026-04-05T13:48:09.999Z</time></trkpt><trkpt lat="45.679590987851896" lon="8.546670531015307"><ele>310.2</ele><time>2026-04-05T13:48:11.999Z</time></trkpt><trkpt lat="45.679490462332886" lon="8.54660663610665"><ele>309.59999999999997</ele><time>2026-04-05T13:48:13.999Z</time></trkpt><trkpt lat="45.67940643011749" lon="8.54654739971852"><ele>309.0</ele><time>2026-04-05T13:48:15.999Z</time></trkpt><trkpt lat="45.67931056352851" lon="8.546482811166195"><ele>309.0</ele><time>2026-04-05T13:48:17.999Z</time></trkpt><trkpt lat="45.679215319332755" lon="8.546411505403274"><ele>309.0</ele><time>2026-04-05T13:48:19.999Z</time></trkpt><trkpt lat="45.67911536275969" lon="8.54632284983193"><ele>309.0</ele><time>2026-04-05T13:48:21.999Z</time></trkpt><trkpt lat="45.67900785414251" lon="8.546236602333703"><ele>309.0</ele><time>2026-04-05T13:48:23.999Z</time></trkpt><trkpt lat="45.67891039190757" lon="8.5461301526005"><ele>308.0</ele><time>2026-04-05T13:48:25.999Z</time></trkpt><trkpt lat="45.67880662098194" lon="8.546060676569347"><ele>307.0</ele><time>2026-04-05T13:48:27.999Z</time></trkpt><trkpt lat="45.678744642556204" lon="8.546039385241007"><ele>306.0</ele><time>2026-04-05T13:48:28.999Z</time></trkpt><trkpt lat="45.6786863407891" lon="8.545998543465428"><ele>305.0</ele><time>2026-04-05T13:48:29.999Z</time></trkpt><trkpt lat="45.67863060792605" lon="8.545951599984354"><ele>304.0</ele><time>2026-04-05T13:48:30.999Z</time></trkpt><trkpt lat="45.678575124358225" lon="8.545906279224505"><ele>303.0</ele><time>2026-04-05T13:48:31.999Z</time></trkpt><trkpt lat="45.67846150557857" lon="8.545833418147476"><ele>303.0</ele><time>2026-04-05T13:48:33.999Z</time></trkpt><trkpt lat="45.678359371827746" lon="8.545770509965386"><ele>303.0</ele><time>2026-04-05T13:48:35.999Z</time></trkpt><trkpt lat="45.678253516880076" lon="8.545712192933147"><ele>303.0</ele><time>2026-04-05T13:48:37.999Z</time></trkpt><trkpt lat="45.67814328081531" lon="8.545661133391578"><ele>303.0</ele><time>2026-04-05T13:48:39.999Z</time></trkpt><trkpt lat="45.6780823750568" lon="8.545634417947875"><ele>303.0</ele><time>2026-04-05T13:48:40.999Z</time></trkpt><trkpt lat="45.678022483160255" lon="8.545599691028823"><ele>303.0</ele><time>2026-04-05T13:48:41.999Z</time></trkpt><trkpt lat="45.67795908478784" lon="8.54557115069411"><ele>303.0</ele><time>2026-04-05T13:48:42.999Z</time></trkpt><trkpt lat="45.67789773503254" lon="8.545542815638555"><ele>303.0</ele><time>2026-04-05T13:48:43.999Z</time></trkpt><trkpt lat="45.6778346406677" lon="8.545502712796011"><ele>303.0</ele><time>2026-04-05T13:48:44.999Z</time></trkpt><trkpt lat="45.67778171093614" lon="8.545448294609562"><ele>303.0</ele><time>2026-04-05T13:48:45.999Z</time></trkpt><trkpt lat="45.67772046181826" lon="8.545391617453145"><ele>303.0</ele><time>2026-04-05T13:48:46.999Z</time></trkpt><trkpt lat="45.67765766047481" lon="8.545350162182087"><ele>303.0</ele><time>2026-04-05T13:48:47.999Z</time></trkpt><trkpt lat="45.67755751362136" lon="8.545275785067927"><ele>302.0</ele><time>2026-04-05T13:48:49.999Z</time></trkpt><trkpt lat="45.67745211094518" lon="8.54520340129197"><ele>301.0</ele><time>2026-04-05T13:48:51.999Z</time></trkpt><trkpt lat="45.67733837251723" lon="8.545139176646744"><ele>300.0</ele><time>2026-04-05T13:48:53.999Z</time></trkpt><trkpt lat="45.6772427465143" lon="8.545075207385436"><ele>299.0</ele><time>2026-04-05T13:48:55.999Z</time></trkpt><trkpt lat="45.67712808892879" lon="8.545031264350046"><ele>299.0</ele><time>2026-04-05T13:48:57.999Z</time></trkpt><trkpt lat="45.67700526172615" lon="8.544985152407227"><ele>299.0</ele><time>2026-04-05T13:48:59.999Z</time></trkpt><trkpt lat="45.67694193040506" lon="8.544967837621613"><ele>299.0</ele><time>2026-04-05T13:49:00.999Z</time></trkpt><trkpt lat="45.67683553339682" lon="8.544957564554846"><ele>299.0</ele><time>2026-04-05T13:49:02.999Z</time></trkpt><trkpt lat="45.67671690980083" lon="8.544941888734245"><ele>299.0</ele><time>2026-04-05T13:49:04.999Z</time></trkpt><trkpt lat="45.676652414561175" lon="8.544933994490481"><ele>300.1428571428571</ele><time>2026-04-05T13:49:05.999Z</time></trkpt><trkpt lat="45.676534331101315" lon="8.54493464703035"><ele>301.2857142857143</ele><time>2026-04-05T13:49:07.999Z</time></trkpt><trkpt lat="45.67646972435414" lon="8.544927909084343"><ele>302.42857142857144</ele><time>2026-04-05T13:49:08.999Z</time></trkpt><trkpt lat="45.67640349847504" lon="8.544913352578366"><ele>303.57142857142856</ele><time>2026-04-05T13:49:09.999Z</time></trkpt><trkpt lat="45.67633545326497" lon="8.544901048954511"><ele>304.7142857142857</ele><time>2026-04-05T13:49:10.999Z</time></trkpt><trkpt lat="45.676270550894195" lon="8.544883586299623"><ele>305.85714285714283</ele><time>2026-04-05T13:49:11.999Z</time></trkpt><trkpt lat="45.67620755147965" lon="8.544861015925937"><ele>307.0</ele><time>2026-04-05T13:49:12.999Z</time></trkpt><trkpt lat="45.67609053018287" lon="8.544831361329285"><ele>307.2</ele><time>2026-04-05T13:49:14.999Z</time></trkpt><trkpt lat="45.67598920073178" lon="8.544814193424626"><ele>307.4</ele><time>2026-04-05T13:49:16.999Z</time></trkpt><trkpt lat="45.67593195843185" lon="8.544899952672436"><ele>307.6</ele><time>2026-04-05T13:49:19.999Z</time></trkpt><trkpt lat="45.675893293505936" lon="8.545060368609803"><ele>307.8</ele><time>2026-04-05T13:49:21.999Z</time></trkpt><trkpt lat="45.6758388983342" lon="8.545214309023216"><ele>308.0</ele><time>2026-04-05T13:49:23.999Z</time></trkpt><trkpt lat="45.67581561253769" lon="8.545303291251416"><ele>309.2</ele><time>2026-04-05T13:49:24.999Z</time></trkpt><trkpt lat="45.67578898876317" lon="8.545399049506225"><ele>310.4</ele><time>2026-04-05T13:49:25.999Z</time></trkpt><trkpt lat="45.67573557700058" lon="8.545538176213585"><ele>311.59999999999997</ele><time>2026-04-05T13:49:27.999Z</time></trkpt><trkpt lat="45.67570174766143" lon="8.545664229708049"><ele>312.8</ele><time>2026-04-05T13:49:29.999Z</time></trkpt><trkpt lat="45.67565614307516" lon="8.545803823173223"><ele>314.0</ele><time>2026-04-05T13:49:31.999Z</time></trkpt><trkpt lat="45.675632415602465" lon="8.545944799506852"><ele>314.0</ele><time>2026-04-05T13:49:33.999Z</time></trkpt><trkpt lat="45.675631815712826" lon="8.546106747852383"><ele>314.0</ele><time>2026-04-05T13:49:35.999Z</time></trkpt><trkpt lat="45.67565263219613" lon="8.546268768980378"><ele>314.0</ele><time>2026-04-05T13:49:37.999Z</time></trkpt><trkpt lat="45.67569049511542" lon="8.546415407277967"><ele>314.0</ele><time>2026-04-05T13:49:39.999Z</time></trkpt><trkpt lat="45.67572096739" lon="8.546572197851125"><ele>316.0</ele><time>2026-04-05T13:49:41.999Z</time></trkpt><trkpt lat="45.675727658110375" lon="8.546662631354598"><ele>318.0</ele><time>2026-04-05T13:49:42.999Z</time></trkpt><trkpt lat="45.6757268209804" lon="8.546761009220674"><ele>320.0</ele><time>2026-04-05T13:49:43.999Z</time></trkpt><trkpt lat="45.67575321465846" lon="8.546914453633683"><ele>322.0</ele><time>2026-04-05T13:49:45.999Z</time></trkpt><trkpt lat="45.67579159803617" lon="8.547060883394593"><ele>324.0</ele><time>2026-04-05T13:49:47.999Z</time></trkpt><trkpt lat="45.67586627820531" lon="8.547212646021816"><ele>325.0</ele><time>2026-04-05T13:49:49.999Z</time></trkpt><trkpt lat="45.67590896353565" lon="8.54730289566669"><ele>326.0</ele><time>2026-04-05T13:49:50.999Z</time></trkpt><trkpt lat="45.675935221776605" lon="8.547391343632325"><ele>327.0</ele><time>2026-04-05T13:49:51.999Z</time></trkpt><trkpt lat="45.67595427856394" lon="8.547483000956957"><ele>328.0</ele><time>2026-04-05T13:49:52.999Z</time></trkpt><trkpt lat="45.675970924591454" lon="8.547590210125332"><ele>329.0</ele><time>2026-04-05T13:49:53.999Z</time></trkpt><trkpt lat="45.67598674418689" lon="8.547691344348364"><ele>330.0</ele><time>2026-04-05T13:49:54.999Z</time></trkpt><trkpt lat="45.67599551876012" lon="8.54779268534999"><ele>331.0</ele><time>2026-04-05T13:49:55.999Z</time></trkpt><trkpt lat="45.67600991289788" lon="8.547883361206516"><ele>331.3333333333333</ele><time>2026-04-05T13:49:56.999Z</time></trkpt><trkpt lat="45.676029955226014" lon="8.548062666905937"><ele>331.66666666666663</ele><time>2026-04-05T13:49:58.999Z</time></trkpt><trkpt lat="45.67603183020882" lon="8.548162144473313"><ele>332.0</ele><time>2026-04-05T13:49:59.999Z</time></trkpt><trkpt lat="45.67603382531167" lon="8.548259021362277"><ele>332.3333333333333</ele><time>2026-04-05T13:50:00.999Z</time></trkpt><trkpt lat="45.67603784196605" lon="8.548351232355659"><ele>332.6666666666667</ele><time>2026-04-05T13:50:01.999Z</time></trkpt><trkpt lat="45.676041370444345" lon="8.548448370730247"><ele>333.0</ele><time>2026-04-05T13:50:02.999Z</time></trkpt><trkpt lat="45.67604512789215" lon="8.548546727807175"><ele>333.0</ele><time>2026-04-05T13:50:03.999Z</time></trkpt><trkpt lat="45.676042529651035" lon="8.548708208534103"><ele>333.0</ele><time>2026-04-05T13:50:05.998Z</time></trkpt><trkpt lat="45.67604813256012" lon="8.54879902926659"><ele>333.0</ele><time>2026-04-05T13:50:07.998Z</time></trkpt><trkpt lat="45.67605872114444" lon="8.548899027840955"><ele>333.0</ele><time>2026-04-05T13:50:12.999Z</time></trkpt><trkpt lat="45.67608843762781" lon="8.548981944159133"><ele>333.0</ele><time>2026-04-05T13:50:15.999Z</time></trkpt><trkpt lat="45.67610289730489" lon="8.549105523947404"><ele>333.0</ele><time>2026-04-05T13:50:17.999Z</time></trkpt><trkpt lat="45.67611241800867" lon="8.549256475194335"><ele>333.0</ele><time>2026-04-05T13:50:19.999Z</time></trkpt><trkpt lat="45.67613007263594" lon="8.549398953535896"><ele>333.0</ele><time>2026-04-05T13:50:21.999Z</time></trkpt><trkpt lat="45.676133601783505" lon="8.54953959625434"><ele>333.0</ele><time>2026-04-05T13:50:23.999Z</time></trkpt><trkpt lat="45.676144868816074" lon="8.54965771393951"><ele>333.0</ele><time>2026-04-05T13:50:25.999Z</time></trkpt><trkpt lat="45.676146865399666" lon="8.549753986379818"><ele>333.0</ele><time>2026-04-05T13:50:27.999Z</time></trkpt><trkpt lat="45.67619031701764" lon="8.549838789011275"><ele>333.0</ele><time>2026-04-05T13:50:30.999Z</time></trkpt><trkpt lat="45.676237270144405" lon="8.549748756721906"><ele>333.0</ele><time>2026-04-05T13:50:33.999Z</time></trkpt><trkpt lat="45.676175225670235" lon="8.549630766706503"><ele>333.0</ele><time>2026-04-05T13:50:36.999Z</time></trkpt><trkpt lat="45.67614683836738" lon="8.54951579841711"><ele>333.0</ele><time>2026-04-05T13:50:38.999Z</time></trkpt><trkpt lat="45.67613441066091" lon="8.549359594872112"><ele>333.0</ele><time>2026-04-05T13:50:40.999Z</time></trkpt><trkpt lat="45.67611000313445" lon="8.549196227405899"><ele>333.0</ele><time>2026-04-05T13:50:42.999Z</time></trkpt><trkpt lat="45.6760921050773" lon="8.549033907867317"><ele>332.8333333333333</ele><time>2026-04-05T13:50:44.999Z</time></trkpt><trkpt lat="45.67605406761399" lon="8.548906281992508"><ele>332.6666666666667</ele><time>2026-04-05T13:50:46.999Z</time></trkpt><trkpt lat="45.6759993047083" lon="8.548816128307559"><ele>332.5</ele><time>2026-04-05T13:50:48.999Z</time></trkpt><trkpt lat="45.675919039845844" lon="8.548755771936426"><ele>332.33333333333337</ele><time>2026-04-05T13:50:50.999Z</time></trkpt><trkpt lat="45.67585454067211" lon="8.54875657913095"><ele>332.1666666666667</ele><time>2026-04-05T13:50:51.999Z</time></trkpt><trkpt lat="45.675788207668084" lon="8.548743794231235"><ele>332.0</ele><time>2026-04-05T13:50:52.999Z</time></trkpt><trkpt lat="45.6757202053177" lon="8.548726253193644"><ele>332.0</ele><time>2026-04-05T13:50:53.999Z</time></trkpt><trkpt lat="45.675648338643725" lon="8.548714036167555"><ele>332.0</ele><time>2026-04-05T13:50:54.999Z</time></trkpt><trkpt lat="45.675574289701665" lon="8.548701496564977"><ele>332.0</ele><time>2026-04-05T13:50:55.999Z</time></trkpt><trkpt lat="45.67550577247386" lon="8.548691805280896"><ele>332.0</ele><time>2026-04-05T13:50:56.999Z</time></trkpt><trkpt lat="45.675439710010025" lon="8.548684248191105"><ele>332.0</ele><time>2026-04-05T13:50:57.999Z</time></trkpt><trkpt lat="45.6753723481818" lon="8.548684720880257"><ele>332.0</ele><time>2026-04-05T13:50:58.999Z</time></trkpt><trkpt lat="45.67530301152842" lon="8.54868580690267"><ele>332.0</ele><time>2026-04-05T13:50:59.999Z</time></trkpt><trkpt lat="45.675231022732426" lon="8.54868212916868"><ele>331.85714285714283</ele><time>2026-04-05T13:51:00.999Z</time></trkpt><trkpt lat="45.67516078642883" lon="8.548682140248326"><ele>331.7142857142857</ele><time>2026-04-05T13:51:01.999Z</time></trkpt><trkpt lat="45.675092030238034" lon="8.548686560960792"><ele>331.57142857142856</ele><time>2026-04-05T13:51:02.999Z</time></trkpt><trkpt lat="45.675023901989086" lon="8.54869429699747"><ele>331.42857142857144</ele><time>2026-04-05T13:51:03.999Z</time></trkpt><trkpt lat="45.674957045912976" lon="8.54870071192438"><ele>331.2857142857143</ele><time>2026-04-05T13:51:04.999Z</time></trkpt><trkpt lat="45.674887582040036" lon="8.548685962771454"><ele>331.14285714285717</ele><time>2026-04-05T13:51:05.999Z</time></trkpt><trkpt lat="45.67482058002404" lon="8.54872008534496"><ele>331.0</ele><time>2026-04-05T13:51:06.999Z</time></trkpt><trkpt lat="45.674746661105246" lon="8.548730835010021"><ele>330.7142857142857</ele><time>2026-04-05T13:51:07.999Z</time></trkpt><trkpt lat="45.67467093801159" lon="8.54873771134253"><ele>330.42857142857144</ele><time>2026-04-05T13:51:08.999Z</time></trkpt><trkpt lat="45.6745926788271" lon="8.548745835136978"><ele>330.1428571428571</ele><time>2026-04-05T13:51:09.999Z</time></trkpt><trkpt lat="45.67452332402171" lon="8.548744496631128"><ele>329.8571428571429</ele><time>2026-04-05T13:51:10.999Z</time></trkpt><trkpt lat="45.67445625742517" lon="8.548748146200207"><ele>329.57142857142856</ele><time>2026-04-05T13:51:11.999Z</time></trkpt><trkpt lat="45.674391446392676" lon="8.548752531309358"><ele>329.2857142857143</ele><time>2026-04-05T13:51:12.999Z</time></trkpt><trkpt lat="45.67432353287223" lon="8.54872584388905"><ele>329.0</ele><time>2026-04-05T13:51:13.999Z</time></trkpt><trkpt lat="45.674254908550125" lon="8.548745321422961"><ele>329.0</ele><time>2026-04-05T13:51:14.999Z</time></trkpt><trkpt lat="45.67418516372434" lon="8.548738222428916"><ele>329.0</ele><time>2026-04-05T13:51:15.999Z</time></trkpt><trkpt lat="45.67411490811163" lon="8.548738473441231"><ele>329.0</ele><time>2026-04-05T13:51:16.999Z</time></trkpt><trkpt lat="45.674043802447464" lon="8.54873822155748"><ele>329.0</ele><time>2026-04-05T13:51:17.999Z</time></trkpt><trkpt lat="45.67397028777899" lon="8.548734943948764"><ele>329.0</ele><time>2026-04-05T13:51:18.999Z</time></trkpt><trkpt lat="45.67390497840348" lon="8.5487109989163"><ele>329.0</ele><time>2026-04-05T13:51:19.999Z</time></trkpt><trkpt lat="45.6738399017608" lon="8.548707552168638"><ele>329.0</ele><time>2026-04-05T13:51:20.999Z</time></trkpt><trkpt lat="45.67371491277112" lon="8.548699860257175"><ele>328.79999999999995</ele><time>2026-04-05T13:51:22.999Z</time></trkpt><trkpt lat="45.673594287462166" lon="8.548716646224719"><ele>328.59999999999997</ele><time>2026-04-05T13:51:24.999Z</time></trkpt><trkpt lat="45.67349949218841" lon="8.548706384356292"><ele>328.4</ele><time>2026-04-05T13:51:26.999Z</time></trkpt><trkpt lat="45.67343829432801" lon="8.54882001847612"><ele>328.2</ele><time>2026-04-05T13:51:28.999Z</time></trkpt><trkpt lat="45.67342621840705" lon="8.549001819573125"><ele>328.0</ele><time>2026-04-05T13:51:30.999Z</time></trkpt><trkpt lat="45.67340389971108" lon="8.54911238751776"><ele>327.66666666666663</ele><time>2026-04-05T13:51:31.999Z</time></trkpt><trkpt lat="45.673380550966066" lon="8.549226501057849"><ele>327.3333333333333</ele><time>2026-04-05T13:51:32.999Z</time></trkpt><trkpt lat="45.673362836038656" lon="8.549341071136443"><ele>327.0</ele><time>2026-04-05T13:51:33.999Z</time></trkpt><trkpt lat="45.673350169711945" lon="8.549452486118419"><ele>326.6666666666667</ele><time>2026-04-05T13:51:34.999Z</time></trkpt><trkpt lat="45.67333505740491" lon="8.549563568775506"><ele>326.33333333333337</ele><time>2026-04-05T13:51:35.999Z</time></trkpt><trkpt lat="45.67331881426838" lon="8.549665344651872"><ele>326.0</ele><time>2026-04-05T13:51:36.999Z</time></trkpt><trkpt lat="45.67329520175902" lon="8.549754449204745"><ele>326.0</ele><time>2026-04-05T13:51:37.999Z</time></trkpt><trkpt lat="45.67326824091242" lon="8.549913442799493"><ele>326.0</ele><time>2026-04-05T13:51:39.999Z</time></trkpt><trkpt lat="45.67324150715281" lon="8.550017210249827"><ele>326.0</ele><time>2026-04-05T13:51:42.999Z</time></trkpt><trkpt lat="45.67337193909428" lon="8.550074743092557"><ele>326.0</ele><time>2026-04-05T13:51:43.999Z</time></trkpt><trkpt lat="45.67344027270629" lon="8.550076647013979"><ele>326.0</ele><time>2026-04-05T13:51:44.999Z</time></trkpt><trkpt lat="45.67351523397588" lon="8.550076329957655"><ele>326.0</ele><time>2026-04-05T13:51:45.999Z</time></trkpt><trkpt lat="45.673598443830485" lon="8.550074430729332"><ele>326.0</ele><time>2026-04-05T13:51:46.999Z</time></trkpt><trkpt lat="45.67367517046745" lon="8.550073040005376"><ele>326.0</ele><time>2026-04-05T13:51:47.999Z</time></trkpt><trkpt lat="45.673746587000345" lon="8.550062970541434"><ele>326.0</ele><time>2026-04-05T13:51:48.999Z</time></trkpt><trkpt lat="45.67382227259298" lon="8.550069980207258"><ele>326.0</ele><time>2026-04-05T13:51:49.999Z</time></trkpt><trkpt lat="45.67390241744403" lon="8.550063841065024"><ele>326.0</ele><time>2026-04-05T13:51:50.999Z</time></trkpt><trkpt lat="45.673985167556076" lon="8.550060165144707"><ele>326.5</ele><time>2026-04-05T13:51:51.999Z</time></trkpt><trkpt lat="45.67405849010291" lon="8.55005655060632"><ele>327.0</ele><time>2026-04-05T13:51:52.999Z</time></trkpt><trkpt lat="45.6741281273696" lon="8.55006022308339"><ele>327.5</ele><time>2026-04-05T13:51:53.999Z</time></trkpt><trkpt lat="45.67419305707028" lon="8.550075282647539"><ele>328.0</ele><time>2026-04-05T13:51:54.999Z</time></trkpt><trkpt lat="45.67424780955683" lon="8.550130251819187"><ele>328.5</ele><time>2026-04-05T13:51:55.999Z</time></trkpt><trkpt lat="45.674297281656166" lon="8.550298265788475"><ele>329.0</ele><time>2026-04-05T13:51:57.999Z</time></trkpt><trkpt lat="45.67431053321066" lon="8.550423244633176"><ele>329.2</ele><time>2026-04-05T13:51:58.999Z</time></trkpt><trkpt lat="45.674327788975916" lon="8.550556688649833"><ele>329.4</ele><time>2026-04-05T13:51:59.999Z</time></trkpt><trkpt lat="45.674331859083345" lon="8.550694026407076"><ele>329.6</ele><time>2026-04-05T13:52:00.999Z</time></trkpt><trkpt lat="45.67435479356787" lon="8.55082177835085"><ele>329.8</ele><time>2026-04-05T13:52:01.999Z</time></trkpt><trkpt lat="45.674365824559615" lon="8.55093019832201"><ele>330.0</ele><time>2026-04-05T13:52:02.999Z</time></trkpt><trkpt lat="45.674360917179996" lon="8.5510961855418"><ele>330.0</ele><time>2026-04-05T13:52:04.999Z</time></trkpt><trkpt lat="45.67438386215032" lon="8.551185624417403"><ele>330.0</ele><time>2026-04-05T13:52:06.999Z</time></trkpt><trkpt lat="45.6743896691642" lon="8.551304318040296"><ele>330.0</ele><time>2026-04-05T13:52:35.999Z</time></trkpt><trkpt lat="45.67450818690572" lon="8.551387484889075"><ele>330.0</ele><time>2026-04-05T13:52:37.999Z</time></trkpt><trkpt lat="45.67457073290572" lon="8.551425642726544"><ele>330.0</ele><time>2026-04-05T13:52:38.999Z</time></trkpt><trkpt lat="45.67464050848938" lon="8.551478374719265"><ele>330.0</ele><time>2026-04-05T13:52:39.999Z</time></trkpt><trkpt lat="45.67471525923055" lon="8.55154041624314"><ele>330.2</ele><time>2026-04-05T13:52:40.999Z</time></trkpt><trkpt lat="45.674787048554606" lon="8.551605087781697"><ele>330.4</ele><time>2026-04-05T13:52:41.999Z</time></trkpt><trkpt lat="45.674865920931204" lon="8.551669516219608"><ele>330.6</ele><time>2026-04-05T13:52:42.999Z</time></trkpt><trkpt lat="45.67494878587399" lon="8.551736145588688"><ele>330.8</ele><time>2026-04-05T13:52:43.999Z</time></trkpt><trkpt lat="45.675034651520406" lon="8.551806559497837"><ele>331.0</ele><time>2026-04-05T13:52:44.999Z</time></trkpt><trkpt lat="45.67512271185297" lon="8.55187303752376"><ele>331.0</ele><time>2026-04-05T13:52:45.999Z</time></trkpt><trkpt lat="45.675205575810416" lon="8.551932583161763"><ele>331.0</ele><time>2026-04-05T13:52:46.999Z</time></trkpt><trkpt lat="45.67528187930305" lon="8.551984713431718"><ele>331.0</ele><time>2026-04-05T13:52:47.999Z</time></trkpt><trkpt lat="45.67535722301374" lon="8.552033693142482"><ele>331.0</ele><time>2026-04-05T13:52:48.999Z</time></trkpt><trkpt lat="45.67543467309839" lon="8.552082441568377"><ele>331.0</ele><time>2026-04-05T13:52:49.999Z</time></trkpt><trkpt lat="45.67551709390117" lon="8.552124787262247"><ele>331.0</ele><time>2026-04-05T13:52:50.999Z</time></trkpt><trkpt lat="45.67560460860691" lon="8.552155603749318"><ele>331.3333333333333</ele><time>2026-04-05T13:52:51.999Z</time></trkpt><trkpt lat="45.675692905704175" lon="8.552170326045838"><ele>331.66666666666663</ele><time>2026-04-05T13:52:52.999Z</time></trkpt><trkpt lat="45.67578346794883" lon="8.552180507612668"><ele>332.0</ele><time>2026-04-05T13:52:53.999Z</time></trkpt><trkpt lat="45.67587226561854" lon="8.552222218622294"><ele>332.3333333333333</ele><time>2026-04-05T13:52:54.999Z</time></trkpt><trkpt lat="45.67596054601057" lon="8.55221375265709"><ele>332.6666666666667</ele><time>2026-04-05T13:52:55.999Z</time></trkpt><trkpt lat="45.67604371777708" lon="8.552227504100959"><ele>333.0</ele><time>2026-04-05T13:52:56.999Z</time></trkpt><trkpt lat="45.6761271026914" lon="8.552252802772779"><ele>333.6666666666667</ele><time>2026-04-05T13:52:57.999Z</time></trkpt><trkpt lat="45.67620492284673" lon="8.552301561418089"><ele>334.3333333333333</ele><time>2026-04-05T13:52:58.999Z</time></trkpt><trkpt lat="45.67627400394467" lon="8.552357053503604"><ele>335.0</ele><time>2026-04-05T13:52:59.999Z</time></trkpt><trkpt lat="45.676347602333465" lon="8.55242549513223"><ele>335.66666666666663</ele><time>2026-04-05T13:53:00.999Z</time></trkpt><trkpt lat="45.67641779396816" lon="8.55249889138816"><ele>336.3333333333333</ele><time>2026-04-05T13:53:01.999Z</time></trkpt><trkpt lat="45.67648635344435" lon="8.552574466365694"><ele>337.0</ele><time>2026-04-05T13:53:02.999Z</time></trkpt><trkpt lat="45.67654436517844" lon="8.552651378422029"><ele>337.0</ele><time>2026-04-05T13:53:03.999Z</time></trkpt><trkpt lat="45.6765998127062" lon="8.552715090321321"><ele>337.0</ele><time>2026-04-05T13:53:04.999Z</time></trkpt><trkpt lat="45.6766591344874" lon="8.55275662897871"><ele>337.0</ele><time>2026-04-05T13:53:05.999Z</time></trkpt><trkpt lat="45.67673516035487" lon="8.552771952026054"><ele>337.0</ele><time>2026-04-05T13:53:06.999Z</time></trkpt><trkpt lat="45.676814746488155" lon="8.552770894580616"><ele>337.0</ele><time>2026-04-05T13:53:07.999Z</time></trkpt><trkpt lat="45.676900647230696" lon="8.552765750201651"><ele>337.0</ele><time>2026-04-05T13:53:08.999Z</time></trkpt><trkpt lat="45.67699789336451" lon="8.552763573613255"><ele>337.16666666666663</ele><time>2026-04-05T13:53:09.999Z</time></trkpt><trkpt lat="45.67708996500873" lon="8.552758296130245"><ele>337.3333333333333</ele><time>2026-04-05T13:53:10.999Z</time></trkpt><trkpt lat="45.677180609528435" lon="8.55274642208002"><ele>337.5</ele><time>2026-04-05T13:53:11.999Z</time></trkpt><trkpt lat="45.67726437180016" lon="8.552737153758548"><ele>337.6666666666667</ele><time>2026-04-05T13:53:12.999Z</time></trkpt><trkpt lat="45.677348419753656" lon="8.552737382680169"><ele>337.83333333333337</ele><time>2026-04-05T13:53:13.999Z</time></trkpt><trkpt lat="45.67743677969932" lon="8.552756730780752"><ele>338.0</ele><time>2026-04-05T13:53:14.999Z</time></trkpt><trkpt lat="45.677528207787475" lon="8.552791003589366"><ele>338.0</ele><time>2026-04-05T13:53:15.999Z</time></trkpt><trkpt lat="45.67761659605953" lon="8.55283315703936"><ele>338.0</ele><time>2026-04-05T13:53:16.999Z</time></trkpt><trkpt lat="45.67770594098099" lon="8.552879767917874"><ele>338.0</ele><time>2026-04-05T13:53:17.999Z</time></trkpt><trkpt lat="45.677800763378194" lon="8.552930764398909"><ele>338.0</ele><time>2026-04-05T13:53:18.999Z</time></trkpt><trkpt lat="45.67789862618755" lon="8.552981429626884"><ele>338.0</ele><time>2026-04-05T13:53:19.999Z</time></trkpt><trkpt lat="45.67799861580376" lon="8.553029098131056"><ele>338.4</ele><time>2026-04-05T13:53:20.999Z</time></trkpt><trkpt lat="45.67810358944813" lon="8.553060892557145"><ele>338.79999999999995</ele><time>2026-04-05T13:53:21.999Z</time></trkpt><trkpt lat="45.67821031106999" lon="8.553093748819252"><ele>339.2</ele><time>2026-04-05T13:53:22.999Z</time></trkpt><trkpt lat="45.678321476937796" lon="8.553129598435332"><ele>339.6</ele><time>2026-04-05T13:53:23.999Z</time></trkpt><trkpt lat="45.67843450463704" lon="8.553169016590653"><ele>340.0</ele><time>2026-04-05T13:53:24.999Z</time></trkpt><trkpt lat="45.67854854768102" lon="8.553215849105246"><ele>340.25</ele><time>2026-04-05T13:53:25.999Z</time></trkpt><trkpt lat="45.67866148978339" lon="8.553252802246975"><ele>340.5</ele><time>2026-04-05T13:53:26.999Z</time></trkpt><trkpt lat="45.678772696312855" lon="8.553293106526628"><ele>340.75</ele><time>2026-04-05T13:53:27.999Z</time></trkpt><trkpt lat="45.67888420299649" lon="8.553327864711296"><ele>341.0</ele><time>2026-04-05T13:53:28.999Z</time></trkpt><trkpt lat="45.67899811946128" lon="8.55336851926938"><ele>341.0</ele><time>2026-04-05T13:53:29.999Z</time></trkpt><trkpt lat="45.67911048218437" lon="8.553407025793751"><ele>341.0</ele><time>2026-04-05T13:53:30.999Z</time></trkpt><trkpt lat="45.6792252805765" lon="8.553457933286687"><ele>341.0</ele><time>2026-04-05T13:53:31.999Z</time></trkpt><trkpt lat="45.679343132861916" lon="8.553507945980842"><ele>341.0</ele><time>2026-04-05T13:53:32.999Z</time></trkpt><trkpt lat="45.67945673982457" lon="8.553548224244807"><ele>341.20000000000005</ele><time>2026-04-05T13:53:33.999Z</time></trkpt><trkpt lat="45.67956717665548" lon="8.553582105751344"><ele>341.40000000000003</ele><time>2026-04-05T13:53:34.999Z</time></trkpt><trkpt lat="45.67967850983962" lon="8.553613004943701"><ele>341.6</ele><time>2026-04-05T13:53:35.999Z</time></trkpt><trkpt lat="45.67978856851948" lon="8.553641565198303"><ele>341.8</ele><time>2026-04-05T13:53:36.999Z</time></trkpt><trkpt lat="45.67989488600987" lon="8.553663552652193"><ele>342.0</ele><time>2026-04-05T13:53:37.999Z</time></trkpt><trkpt lat="45.679999343324226" lon="8.553690562241787"><ele>341.6</ele><time>2026-04-05T13:53:38.999Z</time></trkpt><trkpt lat="45.68010257765903" lon="8.553714574827591"><ele>341.20000000000005</ele><time>2026-04-05T13:53:39.999Z</time></trkpt><trkpt lat="45.68020175736159" lon="8.553732816515065"><ele>340.8</ele><time>2026-04-05T13:53:40.999Z</time></trkpt><trkpt lat="45.68029405315277" lon="8.553756779334906"><ele>340.4</ele><time>2026-04-05T13:53:41.999Z</time></trkpt><trkpt lat="45.68037874446502" lon="8.553777669404052"><ele>340.0</ele><time>2026-04-05T13:53:42.999Z</time></trkpt><trkpt lat="45.6804576069724" lon="8.553794599496493"><ele>340.0</ele><time>2026-04-05T13:53:43.999Z</time></trkpt><trkpt lat="45.680524215647324" lon="8.553806455525244"><ele>340.0</ele><time>2026-04-05T13:53:44.999Z</time></trkpt><trkpt lat="45.68062544346071" lon="8.553810898972646"><ele>340.0</ele><time>2026-04-05T13:53:46.999Z</time></trkpt></trkseg><trkseg><trkpt lat="45.68077687676217" lon="8.55376608414629"><ele>340.0</ele><time>2026-04-05T14:08:19.004Z</time></trkpt><trkpt lat="45.680701869030095" lon="8.553788146442155"><ele>340.0</ele><time>2026-04-05T14:08:28.002Z</time></trkpt><trkpt lat="45.680639104611586" lon="8.553810992838583"><ele>340.0</ele><time>2026-04-05T14:08:30.002Z</time></trkpt><trkpt lat="45.68052825581486" lon="8.553775579143382"><ele>340.0</ele><time>2026-04-05T14:08:32.002Z</time></trkpt><trkpt lat="45.6804505209281" lon="8.553752253621862"><ele>340.0</ele><time>2026-04-05T14:08:35.001Z</time></trkpt><trkpt lat="45.680384597129816" lon="8.55374921386137"><ele>340.0</ele><time>2026-04-05T14:08:36.001Z</time></trkpt><trkpt lat="45.68030686450008" lon="8.553734352199301"><ele>339.8333333333333</ele><time>2026-04-05T14:08:37.001Z</time></trkpt><trkpt lat="45.68023075468419" lon="8.553721705684048"><ele>339.66666666666663</ele><time>2026-04-05T14:08:38.001Z</time></trkpt><trkpt lat="45.680154830960504" lon="8.553689675893041"><ele>339.5</ele><time>2026-04-05T14:08:39.001Z</time></trkpt><trkpt lat="45.68008002839627" lon="8.553674207460343"><ele>339.3333333333333</ele><time>2026-04-05T14:08:40.001Z</time></trkpt><trkpt lat="45.68000086902693" lon="8.553678970149404"><ele>339.1666666666667</ele><time>2026-04-05T14:08:41.001Z</time></trkpt><trkpt lat="45.679921364307575" lon="8.5536604289119"><ele>339.0</ele><time>2026-04-05T14:08:42.001Z</time></trkpt><trkpt lat="45.67984589129379" lon="8.553625487370944"><ele>339.4</ele><time>2026-04-05T14:08:43.001Z</time></trkpt><trkpt lat="45.67976316828315" lon="8.553628086085759"><ele>339.79999999999995</ele><time>2026-04-05T14:08:44Z</time></trkpt><trkpt lat="45.67968032504781" lon="8.553600901393319"><ele>340.20000000000005</ele><time>2026-04-05T14:08:45Z</time></trkpt><trkpt lat="45.67959227416617" lon="8.553569159647216"><ele>340.6</ele><time>2026-04-05T14:08:46Z</time></trkpt><trkpt lat="45.679498120931" lon="8.553543467543577"><ele>341.0</ele><time>2026-04-05T14:08:47Z</time></trkpt><trkpt lat="45.67940300625919" lon="8.553514923575404"><ele>341.0</ele><time>2026-04-05T14:08:48Z</time></trkpt><trkpt lat="45.679311737726735" lon="8.553477168997262"><ele>341.0</ele><time>2026-04-05T14:08:49Z</time></trkpt><trkpt lat="45.679219823912625" lon="8.553437496714224"><ele>341.0</ele><time>2026-04-05T14:08:50Z</time></trkpt><trkpt lat="45.67912455970717" lon="8.553398221369761"><ele>341.0</ele><time>2026-04-05T14:08:51Z</time></trkpt><trkpt lat="45.67902481204195" lon="8.55336126395747"><ele>341.0</ele><time>2026-04-05T14:08:52Z</time></trkpt><trkpt lat="45.67892519317472" lon="8.55332381140836"><ele>341.0</ele><time>2026-04-05T14:08:53Z</time></trkpt><trkpt lat="45.67882382296409" lon="8.553283222346137"><ele>341.0</ele><time>2026-04-05T14:08:54Z</time></trkpt><trkpt lat="45.67872042860045" lon="8.553240525175587"><ele>341.0</ele><time>2026-04-05T14:08:55Z</time></trkpt><trkpt lat="45.67861771583332" lon="8.553198660243318"><ele>341.0</ele><time>2026-04-05T14:08:56Z</time></trkpt><trkpt lat="45.67851192009542" lon="8.553172679461763"><ele>341.0</ele><time>2026-04-05T14:08:57Z</time></trkpt><trkpt lat="45.678402236695305" lon="8.553131904580797"><ele>340.8</ele><time>2026-04-05T14:08:58Z</time></trkpt><trkpt lat="45.67829589276322" lon="8.553087078022553"><ele>340.6</ele><time>2026-04-05T14:08:59Z</time></trkpt><trkpt lat="45.67818637712441" lon="8.553052967130059"><ele>340.4</ele><time>2026-04-05T14:09:00Z</time></trkpt><trkpt lat="45.678077259649584" lon="8.553035725693166"><ele>340.2</ele><time>2026-04-05T14:09:01Z</time></trkpt><trkpt lat="45.67797272925301" lon="8.552981326169206"><ele>340.0</ele><time>2026-04-05T14:09:02Z</time></trkpt><trkpt lat="45.677873423484534" lon="8.552928662906192"><ele>339.6</ele><time>2026-04-05T14:09:03Z</time></trkpt><trkpt lat="45.677757100381754" lon="8.552864133073195"><ele>339.2</ele><time>2026-04-05T14:09:04Z</time></trkpt><trkpt lat="45.67767256306745" lon="8.55281471936972"><ele>338.79999999999995</ele><time>2026-04-05T14:09:04.999Z</time></trkpt><trkpt lat="45.67759013463598" lon="8.552790254432356"><ele>338.4</ele><time>2026-04-05T14:09:05.999Z</time></trkpt><trkpt lat="45.67751433127758" lon="8.552746289573841"><ele>338.0</ele><time>2026-04-05T14:09:06.999Z</time></trkpt><trkpt lat="45.6774346252794" lon="8.552732144684782"><ele>338.0</ele><time>2026-04-05T14:09:07.999Z</time></trkpt><trkpt lat="45.67734484444448" lon="8.552702358955209"><ele>338.0</ele><time>2026-04-05T14:09:08.999Z</time></trkpt><trkpt lat="45.677253851777905" lon="8.552704417318692"><ele>338.0</ele><time>2026-04-05T14:09:09.999Z</time></trkpt><trkpt lat="45.67716495672298" lon="8.55270051388261"><ele>338.0</ele><time>2026-04-05T14:09:10.999Z</time></trkpt><trkpt lat="45.677069171610654" lon="8.552731039456388"><ele>338.0</ele><time>2026-04-05T14:09:11.999Z</time></trkpt><trkpt lat="45.676993136062706" lon="8.552737990232773"><ele>338.0</ele><time>2026-04-05T14:09:12.999Z</time></trkpt><trkpt lat="45.67683669664212" lon="8.552732285419054"><ele>337.83333333333337</ele><time>2026-04-05T14:09:14.999Z</time></trkpt><trkpt lat="45.67677795001582" lon="8.552699274771088"><ele>337.6666666666667</ele><time>2026-04-05T14:09:16.999Z</time></trkpt><trkpt lat="45.67671286469773" lon="8.552679793776086"><ele>337.5</ele><time>2026-04-05T14:09:21.999Z</time></trkpt><trkpt lat="45.67659874797498" lon="8.552604944986527"><ele>337.3333333333333</ele><time>2026-04-05T14:09:23.999Z</time></trkpt><trkpt lat="45.676526773109224" lon="8.552570768440205"><ele>337.16666666666663</ele><time>2026-04-05T14:09:24.999Z</time></trkpt><trkpt lat="45.67642862368062" lon="8.552490727412815"><ele>337.0</ele><time>2026-04-05T14:09:26.999Z</time></trkpt><trkpt lat="45.67635951007198" lon="8.552411011446582"><ele>337.0</ele><time>2026-04-05T14:09:28.999Z</time></trkpt><trkpt lat="45.67627729614886" lon="8.552314301838676"><ele>337.0</ele><time>2026-04-05T14:09:30.999Z</time></trkpt><trkpt lat="45.67621581517711" lon="8.552259455444245"><ele>337.0</ele><time>2026-04-05T14:09:32.999Z</time></trkpt><trkpt lat="45.676163772162795" lon="8.552394988874738"><ele>337.0</ele><time>2026-04-05T14:09:33.999Z</time></trkpt><trkpt lat="45.6761534373797" lon="8.552496553677733"><ele>337.0</ele><time>2026-04-05T14:09:34.999Z</time></trkpt><trkpt lat="45.67614001738981" lon="8.552604078442451"><ele>337.0</ele><time>2026-04-05T14:09:35.999Z</time></trkpt><trkpt lat="45.67610193720838" lon="8.552694100074529"><ele>336.3333333333333</ele><time>2026-04-05T14:09:36.999Z</time></trkpt><trkpt lat="45.67609116166629" lon="8.552790937144454"><ele>335.66666666666663</ele><time>2026-04-05T14:09:37.999Z</time></trkpt><trkpt lat="45.6760602469748" lon="8.55288047771162"><ele>335.0</ele><time>2026-04-05T14:09:38.999Z</time></trkpt><trkpt lat="45.67602826608398" lon="8.552978771507567"><ele>334.3333333333333</ele><time>2026-04-05T14:09:39.999Z</time></trkpt><trkpt lat="45.67599956674767" lon="8.553088095990248"><ele>333.6666666666667</ele><time>2026-04-05T14:09:40.999Z</time></trkpt><trkpt lat="45.67597906077772" lon="8.55317803076794"><ele>333.0</ele><time>2026-04-05T14:09:41.999Z</time></trkpt><trkpt lat="45.67591529304172" lon="8.553291426140861"><ele>333.0</ele><time>2026-04-05T14:09:43.999Z</time></trkpt><trkpt lat="45.67582711654125" lon="8.553349474306252"><ele>333.0</ele><time>2026-04-05T14:09:45.999Z</time></trkpt><trkpt lat="45.675756096441305" lon="8.553350055133677"><ele>333.0</ele><time>2026-04-05T14:09:46.998Z</time></trkpt><trkpt lat="45.675675053263994" lon="8.553352730906294"><ele>333.0</ele><time>2026-04-05T14:09:47.998Z</time></trkpt><trkpt lat="45.67559871866679" lon="8.55337111199423"><ele>333.0</ele><time>2026-04-05T14:09:48.998Z</time></trkpt><trkpt lat="45.67549534229241" lon="8.55343247545825"><ele>333.0</ele><time>2026-04-05T14:09:50.998Z</time></trkpt><trkpt lat="45.67543740697031" lon="8.553556292275388"><ele>332.2</ele><time>2026-04-05T14:09:52.998Z</time></trkpt><trkpt lat="45.67536653544791" lon="8.553709214064547"><ele>331.4</ele><time>2026-04-05T14:09:54.998Z</time></trkpt><trkpt lat="45.675330866447275" lon="8.553827779457611"><ele>330.59999999999997</ele><time>2026-04-05T14:09:55.998Z</time></trkpt><trkpt lat="45.67528553067559" lon="8.553949928746249"><ele>329.79999999999995</ele><time>2026-04-05T14:09:56.998Z</time></trkpt><trkpt lat="45.67523331169176" lon="8.554086161536569"><ele>329.0</ele><time>2026-04-05T14:09:57.998Z</time></trkpt><trkpt lat="45.67517505733305" lon="8.554212003282656"><ele>328.5</ele><time>2026-04-05T14:09:58.998Z</time></trkpt><trkpt lat="45.67512644563924" lon="8.554329056643512"><ele>328.0</ele><time>2026-04-05T14:09:59.998Z</time></trkpt><trkpt lat="45.67508095224977" lon="8.554432766633454"><ele>327.5</ele><time>2026-04-05T14:10:00.998Z</time></trkpt><trkpt lat="45.67504290851043" lon="8.554528002543138"><ele>327.0</ele><time>2026-04-05T14:10:01.998Z</time></trkpt><trkpt lat="45.67501752601472" lon="8.55463302305361"><ele>326.5</ele><time>2026-04-05T14:10:02.998Z</time></trkpt><trkpt lat="45.67499229041942" lon="8.554733845562003"><ele>326.0</ele><time>2026-04-05T14:10:03.998Z</time></trkpt><trkpt lat="45.674959480361316" lon="8.554817442476217"><ele>326.0</ele><time>2026-04-05T14:10:04.998Z</time></trkpt><trkpt lat="45.674887745392994" lon="8.554927052499611"><ele>326.0</ele><time>2026-04-05T14:10:06.998Z</time></trkpt><trkpt lat="45.67483292119994" lon="8.554880930525115"><ele>326.0</ele><time>2026-04-05T14:10:07.998Z</time></trkpt><trkpt lat="45.67475740891333" lon="8.554878321415208"><ele>326.0</ele><time>2026-04-05T14:10:08.998Z</time></trkpt><trkpt lat="45.674689421089894" lon="8.55486019545286"><ele>326.0</ele><time>2026-04-05T14:10:09.998Z</time></trkpt><trkpt lat="45.67460807919396" lon="8.554852150165821"><ele>326.0</ele><time>2026-04-05T14:10:11Z</time></trkpt><trkpt lat="45.67452348760095" lon="8.55483209838882"><ele>326.20000000000005</ele><time>2026-04-05T14:10:12Z</time></trkpt><trkpt lat="45.674427906133474" lon="8.55481111578805"><ele>326.40000000000003</ele><time>2026-04-05T14:10:13Z</time></trkpt><trkpt lat="45.67433038181938" lon="8.554774410430847"><ele>326.6</ele><time>2026-04-05T14:10:14Z</time></trkpt><trkpt lat="45.6742297507646" lon="8.554771673643316"><ele>326.8</ele><time>2026-04-05T14:10:15Z</time></trkpt><trkpt lat="45.674128924607416" lon="8.554753743051723"><ele>327.0</ele><time>2026-04-05T14:10:16Z</time></trkpt><trkpt lat="45.67402364736507" lon="8.55473354202837"><ele>327.0</ele><time>2026-04-05T14:10:17Z</time></trkpt><trkpt lat="45.6739152902343" lon="8.554719573545219"><ele>327.0</ele><time>2026-04-05T14:10:18Z</time></trkpt><trkpt lat="45.67380491562756" lon="8.554700029594553"><ele>327.0</ele><time>2026-04-05T14:10:19Z</time></trkpt><trkpt lat="45.67369808507825" lon="8.554675700650293"><ele>327.0</ele><time>2026-04-05T14:10:20Z</time></trkpt><trkpt lat="45.67360401033218" lon="8.554663128277479"><ele>327.0</ele><time>2026-04-05T14:10:21Z</time></trkpt><trkpt lat="45.67351663398736" lon="8.554654895471032"><ele>326.8333333333333</ele><time>2026-04-05T14:10:22Z</time></trkpt><trkpt lat="45.67343285900604" lon="8.554653099740689"><ele>326.6666666666667</ele><time>2026-04-05T14:10:23Z</time></trkpt><trkpt lat="45.67336265674764" lon="8.554667018210985"><ele>326.5</ele><time>2026-04-05T14:10:24Z</time></trkpt><trkpt lat="45.67325387827594" lon="8.554755880414806"><ele>326.33333333333337</ele><time>2026-04-05T14:10:26Z</time></trkpt><trkpt lat="45.673217045610635" lon="8.554843520314149"><ele>326.1666666666667</ele><time>2026-04-05T14:10:27Z</time></trkpt><trkpt lat="45.67319495943286" lon="8.554968972001323"><ele>326.0</ele><time>2026-04-05T14:10:28Z</time></trkpt><trkpt lat="45.67318357171635" lon="8.55510383905976"><ele>326.0</ele><time>2026-04-05T14:10:29Z</time></trkpt><trkpt lat="45.67317311789548" lon="8.555250712200198"><ele>326.0</ele><time>2026-04-05T14:10:30Z</time></trkpt><trkpt lat="45.67316028708089" lon="8.555399025067276"><ele>326.0</ele><time>2026-04-05T14:10:31Z</time></trkpt><trkpt lat="45.673147711082514" lon="8.555547953122934"><ele>326.0</ele><time>2026-04-05T14:10:32Z</time></trkpt><trkpt lat="45.67314009134242" lon="8.555699542883733"><ele>326.0</ele><time>2026-04-05T14:10:33Z</time></trkpt><trkpt lat="45.673133408225105" lon="8.555853555750666"><ele>326.8</ele><time>2026-04-05T14:10:34Z</time></trkpt><trkpt lat="45.673118645772846" lon="8.556004025750804"><ele>327.6</ele><time>2026-04-05T14:10:35Z</time></trkpt><trkpt lat="45.67309967157099" lon="8.556150875245395"><ele>328.4</ele><time>2026-04-05T14:10:36Z</time></trkpt><trkpt lat="45.673083863021034" lon="8.556303014638534"><ele>329.2</ele><time>2026-04-05T14:10:37Z</time></trkpt><trkpt lat="45.67307281091805" lon="8.556458001816896"><ele>330.0</ele><time>2026-04-05T14:10:38Z</time></trkpt><trkpt lat="45.673062926398345" lon="8.556616580803542"><ele>330.2</ele><time>2026-04-05T14:10:39Z</time></trkpt><trkpt lat="45.673053784722136" lon="8.556776887132047"><ele>330.4</ele><time>2026-04-05T14:10:39.999Z</time></trkpt><trkpt lat="45.67304100557717" lon="8.5569420492994"><ele>330.6</ele><time>2026-04-05T14:10:40.999Z</time></trkpt><trkpt lat="45.67303993215725" lon="8.557106037822281"><ele>330.8</ele><time>2026-04-05T14:10:41.999Z</time></trkpt><trkpt lat="45.67304715848396" lon="8.557244341289703"><ele>331.0</ele><time>2026-04-05T14:10:42.999Z</time></trkpt><trkpt lat="45.6730510883042" lon="8.557358392524087"><ele>331.66666666666663</ele><time>2026-04-05T14:10:43.999Z</time></trkpt><trkpt lat="45.673035894288155" lon="8.557460727189603"><ele>332.3333333333333</ele><time>2026-04-05T14:10:44.999Z</time></trkpt><trkpt lat="45.672986833398326" lon="8.557534808985721"><ele>333.0</ele><time>2026-04-05T14:10:45.999Z</time></trkpt><trkpt lat="45.672919952214144" lon="8.557582886163589"><ele>333.6666666666667</ele><time>2026-04-05T14:10:46.999Z</time></trkpt><trkpt lat="45.67284800539318" lon="8.55760014817353"><ele>334.33333333333337</ele><time>2026-04-05T14:10:47.999Z</time></trkpt><trkpt lat="45.672761645143204" lon="8.557601818164239"><ele>335.0</ele><time>2026-04-05T14:10:48.999Z</time></trkpt><trkpt lat="45.67267979450304" lon="8.557604890622716"><ele>335.2</ele><time>2026-04-05T14:10:49.999Z</time></trkpt><trkpt lat="45.67259109312448" lon="8.557622691327753"><ele>335.4</ele><time>2026-04-05T14:10:50.999Z</time></trkpt><trkpt lat="45.67250297138532" lon="8.557645277664337"><ele>335.6</ele><time>2026-04-05T14:10:51.999Z</time></trkpt><trkpt lat="45.672409135794545" lon="8.557663786927444"><ele>335.8</ele><time>2026-04-05T14:10:52.999Z</time></trkpt><trkpt lat="45.672305438439" lon="8.557677522640533"><ele>336.0</ele><time>2026-04-05T14:10:53.999Z</time></trkpt><trkpt lat="45.67219943540203" lon="8.557691913572521"><ele>336.0</ele><time>2026-04-05T14:10:54.999Z</time></trkpt><trkpt lat="45.67209735204603" lon="8.557710259993822"><ele>336.0</ele><time>2026-04-05T14:10:55.999Z</time></trkpt><trkpt lat="45.67199049267508" lon="8.557727664369194"><ele>336.0</ele><time>2026-04-05T14:10:56.999Z</time></trkpt><trkpt lat="45.671881945960294" lon="8.557747469006452"><ele>336.0</ele><time>2026-04-05T14:10:57.999Z</time></trkpt><trkpt lat="45.67177883703379" lon="8.557776452828774"><ele>336.0</ele><time>2026-04-05T14:10:58.999Z</time></trkpt><trkpt lat="45.67167808187725" lon="8.557811125092696"><ele>335.20000000000005</ele><time>2026-04-05T14:10:59.999Z</time></trkpt><trkpt lat="45.67158188967593" lon="8.55784061215024"><ele>334.40000000000003</ele><time>2026-04-05T14:11:00.999Z</time></trkpt><trkpt lat="45.67149152065612" lon="8.557867298258625"><ele>333.6</ele><time>2026-04-05T14:11:01.999Z</time></trkpt><trkpt lat="45.671405654712416" lon="8.557896017299992"><ele>332.8</ele><time>2026-04-05T14:11:02.999Z</time></trkpt><trkpt lat="45.67131817724315" lon="8.557922055956539"><ele>332.0</ele><time>2026-04-05T14:11:03.999Z</time></trkpt><trkpt lat="45.671227231618836" lon="8.557898412720562"><ele>332.0</ele><time>2026-04-05T14:11:04.999Z</time></trkpt><trkpt lat="45.67115132116239" lon="8.557969663534747"><ele>332.0</ele><time>2026-04-05T14:11:05.999Z</time></trkpt><trkpt lat="45.67110083367398" lon="8.557684486789297"><ele>332.0</ele><time>2026-04-05T14:11:06.999Z</time></trkpt><trkpt lat="45.6710268590697" lon="8.55756075049628"><ele>332.0</ele><time>2026-04-05T14:11:07.999Z</time></trkpt><trkpt lat="45.67095494994646" lon="8.55743166607305"><ele>331.0</ele><time>2026-04-05T14:11:08.999Z</time></trkpt><trkpt lat="45.67085842298957" lon="8.55732894940007"><ele>330.0</ele><time>2026-04-05T14:11:09.999Z</time></trkpt><trkpt lat="45.67074552874589" lon="8.557252298056628"><ele>329.0</ele><time>2026-04-05T14:11:10.999Z</time></trkpt><trkpt lat="45.67062470280745" lon="8.557189889218334"><ele>328.0</ele><time>2026-04-05T14:11:11.999Z</time></trkpt><trkpt lat="45.670502343583394" lon="8.557141837976227"><ele>328.0</ele><time>2026-04-05T14:11:12.999Z</time></trkpt><trkpt lat="45.67038228822516" lon="8.55711106696233"><ele>328.0</ele><time>2026-04-05T14:11:13.999Z</time></trkpt><trkpt lat="45.670261182024994" lon="8.557089012454608"><ele>328.0</ele><time>2026-04-05T14:11:14.999Z</time></trkpt><trkpt lat="45.67013175434524" lon="8.557059274021467"><ele>328.0</ele><time>2026-04-05T14:11:15.999Z</time></trkpt><trkpt lat="45.670002670014526" lon="8.557022143047602"><ele>327.75</ele><time>2026-04-05T14:11:16.999Z</time></trkpt><trkpt lat="45.669876172492785" lon="8.556992561150164"><ele>327.5</ele><time>2026-04-05T14:11:17.999Z</time></trkpt><trkpt lat="45.6697499786427" lon="8.55696887338889"><ele>327.25</ele><time>2026-04-05T14:11:18.999Z</time></trkpt><trkpt lat="45.66962831519979" lon="8.556948383768388"><ele>327.0</ele><time>2026-04-05T14:11:19.999Z</time></trkpt><trkpt lat="45.669507080141365" lon="8.55693160098052"><ele>327.25</ele><time>2026-04-05T14:11:20.999Z</time></trkpt><trkpt lat="45.669390051707644" lon="8.556906215654047"><ele>327.5</ele><time>2026-04-05T14:11:21.999Z</time></trkpt><trkpt lat="45.669276439934855" lon="8.556882676712315"><ele>327.75</ele><time>2026-04-05T14:11:22.999Z</time></trkpt><trkpt lat="45.66917042457058" lon="8.556852244581487"><ele>328.0</ele><time>2026-04-05T14:11:23.999Z</time></trkpt><trkpt lat="45.66906016631925" lon="8.556822029712748"><ele>328.0</ele><time>2026-04-05T14:11:24.999Z</time></trkpt><trkpt lat="45.66895467772442" lon="8.55681240892935"><ele>328.0</ele><time>2026-04-05T14:11:25.998Z</time></trkpt><trkpt lat="45.66885203523069" lon="8.556825982704398"><ele>328.0</ele><time>2026-04-05T14:11:26.998Z</time></trkpt><trkpt lat="45.668752182142384" lon="8.55686121935558"><ele>328.0</ele><time>2026-04-05T14:11:27.998Z</time></trkpt><trkpt lat="45.66865504727366" lon="8.55690346512298"><ele>328.0</ele><time>2026-04-05T14:11:28.998Z</time></trkpt><trkpt lat="45.66855394248016" lon="8.556912277814142"><ele>328.0</ele><time>2026-04-05T14:11:29.998Z</time></trkpt><trkpt lat="45.668456326269265" lon="8.5569507756597"><ele>328.0</ele><time>2026-04-05T14:11:30.998Z</time></trkpt><trkpt lat="45.66835291709307" lon="8.556919985859542"><ele>328.0</ele><time>2026-04-05T14:11:31.998Z</time></trkpt><trkpt lat="45.66824767688566" lon="8.556900458469855"><ele>328.0</ele><time>2026-04-05T14:11:32.998Z</time></trkpt><trkpt lat="45.66814237965305" lon="8.556879672915686"><ele>328.0</ele><time>2026-04-05T14:11:33.998Z</time></trkpt><trkpt lat="45.66804115234928" lon="8.556858599186025"><ele>328.0</ele><time>2026-04-05T14:11:34.998Z</time></trkpt><trkpt lat="45.66793953372518" lon="8.55683555838508"><ele>328.0</ele><time>2026-04-05T14:11:35.998Z</time></trkpt><trkpt lat="45.667842427640885" lon="8.556812166747905"><ele>328.0</ele><time>2026-04-05T14:11:36.998Z</time></trkpt><trkpt lat="45.667750121930894" lon="8.556789135401955"><ele>328.0</ele><time>2026-04-05T14:11:37.998Z</time></trkpt><trkpt lat="45.66765455070808" lon="8.55678501960044"><ele>328.0</ele><time>2026-04-05T14:11:38.998Z</time></trkpt><trkpt lat="45.66755961987224" lon="8.55676270156082"><ele>328.59999999999997</ele><time>2026-04-05T14:11:39.998Z</time></trkpt><trkpt lat="45.667468575522236" lon="8.55671784875056"><ele>329.2</ele><time>2026-04-05T14:11:40.998Z</time></trkpt><trkpt lat="45.66736819286684" lon="8.556714934846692"><ele>329.8</ele><time>2026-04-05T14:11:41.998Z</time></trkpt><trkpt lat="45.66727487501946" lon="8.556686471495047"><ele>330.4</ele><time>2026-04-05T14:11:42.998Z</time></trkpt><trkpt lat="45.66718155316429" lon="8.556662490834968"><ele>331.0</ele><time>2026-04-05T14:11:43.998Z</time></trkpt><trkpt lat="45.66709033884091" lon="8.55664049168471"><ele>331.0</ele><time>2026-04-05T14:11:44.998Z</time></trkpt><trkpt lat="45.66699416581031" lon="8.556629917337926"><ele>331.0</ele><time>2026-04-05T14:11:45.998Z</time></trkpt><trkpt lat="45.66689657421446" lon="8.556626047606876"><ele>331.0</ele><time>2026-04-05T14:11:46.998Z</time></trkpt><trkpt lat="45.66679586268268" lon="8.556632118807663"><ele>331.0</ele><time>2026-04-05T14:11:47.998Z</time></trkpt><trkpt lat="45.66668805184978" lon="8.556636513715286"><ele>331.0</ele><time>2026-04-05T14:11:48.998Z</time></trkpt><trkpt lat="45.66657968556782" lon="8.556644498934267"><ele>330.5</ele><time>2026-04-05T14:11:49.998Z</time></trkpt><trkpt lat="45.66648691860699" lon="8.556656544473741"><ele>330.0</ele><time>2026-04-05T14:11:50.998Z</time></trkpt><trkpt lat="45.666401219538486" lon="8.556664836748407"><ele>329.5</ele><time>2026-04-05T14:11:51.998Z</time></trkpt><trkpt lat="45.66631881205734" lon="8.556667621289147"><ele>329.0</ele><time>2026-04-05T14:11:52.998Z</time></trkpt><trkpt lat="45.66624334651819" lon="8.556667505500403"><ele>328.5</ele><time>2026-04-05T14:11:53.998Z</time></trkpt><trkpt lat="45.66615645328322" lon="8.556641019235633"><ele>328.0</ele><time>2026-04-05T14:11:55.998Z</time></trkpt><trkpt lat="45.66611114442079" lon="8.55678191509839"><ele>328.0</ele><time>2026-04-05T14:11:58.998Z</time></trkpt><trkpt lat="45.666167682947766" lon="8.556665563042575"><ele>328.0</ele><time>2026-04-05T14:11:59.998Z</time></trkpt><trkpt lat="45.66612022586028" lon="8.556734746911243"><ele>328.0</ele><time>2026-04-05T14:12:00.998Z</time></trkpt><trkpt lat="45.666171109257355" lon="8.556663294564641"><ele>328.0</ele><time>2026-04-05T14:12:01.998Z</time></trkpt><trkpt lat="45.66612984604884" lon="8.556553487138078"><ele>328.0</ele><time>2026-04-05T14:12:02.998Z</time></trkpt><trkpt lat="45.66611790010685" lon="8.55639206534063"><ele>328.0</ele><time>2026-04-05T14:12:04.998Z</time></trkpt><trkpt lat="45.6661049881947" lon="8.556266762017916"><ele>328.0</ele><time>2026-04-05T14:12:06.998Z</time></trkpt><trkpt lat="45.66607100304694" lon="8.556167052794388"><ele>328.0</ele><time>2026-04-05T14:12:09.998Z</time></trkpt><trkpt lat="45.66611221063004" lon="8.556470823694498"><ele>328.0</ele><time>2026-04-05T14:12:14.997Z</time></trkpt><trkpt lat="45.66611723998716" lon="8.556610992700865"><ele>328.0</ele><time>2026-04-05T14:12:15.997Z</time></trkpt><trkpt lat="45.666118294621604" lon="8.556718601252"><ele>328.0</ele><time>2026-04-05T14:12:16.999Z</time></trkpt><trkpt lat="45.66612409853035" lon="8.556818250424271"><ele>328.0</ele><time>2026-04-05T14:12:17.999Z</time></trkpt><trkpt lat="45.666118576544115" lon="8.556919310292349"><ele>328.0</ele><time>2026-04-05T14:12:18.999Z</time></trkpt><trkpt lat="45.66605676681973" lon="8.557035729212808"><ele>328.0</ele><time>2026-04-05T14:12:20.999Z</time></trkpt><trkpt lat="45.665991093490796" lon="8.557043663657515"><ele>328.0</ele><time>2026-04-05T14:12:21.999Z</time></trkpt><trkpt lat="45.66589404507203" lon="8.55702552287666"><ele>328.0</ele><time>2026-04-05T14:12:22.999Z</time></trkpt><trkpt lat="45.66577427910265" lon="8.557001133764436"><ele>327.25</ele><time>2026-04-05T14:12:24Z</time></trkpt><trkpt lat="45.665634861624284" lon="8.556996430664135"><ele>326.5</ele><time>2026-04-05T14:12:25Z</time></trkpt><trkpt lat="45.66550056310635" lon="8.556981406278256"><ele>325.75</ele><time>2026-04-05T14:12:26Z</time></trkpt><trkpt lat="45.66536548413349" lon="8.556968848254506"><ele>325.0</ele><time>2026-04-05T14:12:27Z</time></trkpt><trkpt lat="45.665232999425356" lon="8.556942618756558"><ele>324.75</ele><time>2026-04-05T14:12:28Z</time></trkpt><trkpt lat="45.66510158048464" lon="8.556915768837273"><ele>324.5</ele><time>2026-04-05T14:12:29Z</time></trkpt><trkpt lat="45.66497206199323" lon="8.556885000422557"><ele>324.25</ele><time>2026-04-05T14:12:30Z</time></trkpt><trkpt lat="45.66486031852149" lon="8.556862634649967"><ele>324.0</ele><time>2026-04-05T14:12:31Z</time></trkpt><trkpt lat="45.66476253907227" lon="8.556853698701058"><ele>324.0</ele><time>2026-04-05T14:12:32Z</time></trkpt><trkpt lat="45.66466718789611" lon="8.55687443966626"><ele>324.0</ele><time>2026-04-05T14:12:33Z</time></trkpt><trkpt lat="45.664586423886924" lon="8.556916185724223"><ele>324.0</ele><time>2026-04-05T14:12:34Z</time></trkpt><trkpt lat="45.664525621682785" lon="8.556970055962736"><ele>324.0</ele><time>2026-04-05T14:12:35Z</time></trkpt><trkpt lat="45.664442296880004" lon="8.557027228522083"><ele>324.0</ele><time>2026-04-05T14:12:37Z</time></trkpt><trkpt lat="45.66438031523077" lon="8.55708292896565"><ele>324.0</ele><time>2026-04-05T14:12:39Z</time></trkpt><trkpt lat="45.664311339293" lon="8.55712831617753"><ele>324.0</ele><time>2026-04-05T14:12:41Z</time></trkpt><trkpt lat="45.66412565107824" lon="8.55697454198797"><ele>324.0</ele><time>2026-04-05T14:12:43Z</time></trkpt><trkpt lat="45.664058430122324" lon="8.556965050316602"><ele>324.0</ele><time>2026-04-05T14:12:44Z</time></trkpt><trkpt lat="45.66397947827293" lon="8.55696229235964"><ele>324.0</ele><time>2026-04-05T14:12:45Z</time></trkpt><trkpt lat="45.66390842487682" lon="8.55694966722017"><ele>324.0</ele><time>2026-04-05T14:12:46Z</time></trkpt><trkpt lat="45.663793013503145" lon="8.556925808788078"><ele>324.0</ele><time>2026-04-05T14:12:48Z</time></trkpt><trkpt lat="45.663690100113485" lon="8.556902065196935"><ele>324.0</ele><time>2026-04-05T14:12:50Z</time></trkpt><trkpt lat="45.66358547254598" lon="8.55688200501198"><ele>324.0</ele><time>2026-04-05T14:12:52Z</time></trkpt><trkpt lat="45.66350362808371" lon="8.556856638283744"><ele>324.0</ele><time>2026-04-05T14:12:54Z</time></trkpt><trkpt lat="45.66342993957028" lon="8.556847724256167"><ele>324.0</ele><time>2026-04-05T14:12:55Z</time></trkpt><trkpt lat="45.66333639480209" lon="8.556848885605984"><ele>323.8333333333333</ele><time>2026-04-05T14:12:56Z</time></trkpt><trkpt lat="45.66323602449743" lon="8.556834331064705"><ele>323.6666666666667</ele><time>2026-04-05T14:12:58Z</time></trkpt><trkpt lat="45.663135504370004" lon="8.556830417519187"><ele>323.5</ele><time>2026-04-05T14:13:00Z</time></trkpt><trkpt lat="45.663055413646546" lon="8.556804730784833"><ele>323.33333333333337</ele><time>2026-04-05T14:13:01Z</time></trkpt><trkpt lat="45.662984343179126" lon="8.556782017968057"><ele>323.1666666666667</ele><time>2026-04-05T14:13:02Z</time></trkpt><trkpt lat="45.66291973701859" lon="8.556781956383524"><ele>323.0</ele><time>2026-04-05T14:13:03Z</time></trkpt><trkpt lat="45.662818796516696" lon="8.55679355579271"><ele>322.1666666666667</ele><time>2026-04-05T14:13:05Z</time></trkpt><trkpt lat="45.6627477593686" lon="8.556788138767315"><ele>321.33333333333337</ele><time>2026-04-05T14:13:06Z</time></trkpt><trkpt lat="45.662675238465894" lon="8.556782094368275"><ele>320.5</ele><time>2026-04-05T14:13:06.999Z</time></trkpt><trkpt lat="45.66259943972371" lon="8.55676838237964"><ele>319.6666666666667</ele><time>2026-04-05T14:13:07.999Z</time></trkpt><trkpt lat="45.662525919604725" lon="8.556748779541163"><ele>318.8333333333333</ele><time>2026-04-05T14:13:08.999Z</time></trkpt><trkpt lat="45.66245980160851" lon="8.55673135677824"><ele>318.0</ele><time>2026-04-05T14:13:09.999Z</time></trkpt><trkpt lat="45.66235361715442" lon="8.556677504420719"><ele>318.0</ele><time>2026-04-05T14:13:11.999Z</time></trkpt><trkpt lat="45.66227924558881" lon="8.55664363135622"><ele>318.0</ele><time>2026-04-05T14:13:12.999Z</time></trkpt><trkpt lat="45.66214981318937" lon="8.556607930336805"><ele>318.0</ele><time>2026-04-05T14:13:14.999Z</time></trkpt><trkpt lat="45.662073460620114" lon="8.556581690097126"><ele>318.0</ele><time>2026-04-05T14:13:15.999Z</time></trkpt><trkpt lat="45.661992946825" lon="8.556538605072717"><ele>318.0</ele><time>2026-04-05T14:13:16.999Z</time></trkpt><trkpt lat="45.66192944779982" lon="8.556511427494764"><ele>318.0</ele><time>2026-04-05T14:13:17.999Z</time></trkpt><trkpt lat="45.66183361478596" lon="8.556475156009725"><ele>317.8</ele><time>2026-04-05T14:13:19.999Z</time></trkpt><trkpt lat="45.66175924880102" lon="8.556454423290385"><ele>317.6</ele><time>2026-04-05T14:13:22.999Z</time></trkpt><trkpt lat="45.66167077558696" lon="8.55651916692472"><ele>317.4</ele><time>2026-04-05T14:13:33.999Z</time></trkpt><trkpt lat="45.66159522067859" lon="8.556658260387826"><ele>317.2</ele><time>2026-04-05T14:13:35.999Z</time></trkpt><trkpt lat="45.66154405942916" lon="8.556753554300077"><ele>317.0</ele><time>2026-04-05T14:13:36.999Z</time></trkpt><trkpt lat="45.66148149257266" lon="8.5568797233741"><ele>317.0</ele><time>2026-04-05T14:13:38.999Z</time></trkpt><trkpt lat="45.66145030179772" lon="8.556960949570788"><ele>317.0</ele><time>2026-04-05T14:13:40.999Z</time></trkpt><trkpt lat="45.661416380234094" lon="8.557060143616642"><ele>317.0</ele><time>2026-04-05T14:13:43.999Z</time></trkpt><trkpt lat="45.6613697707492" lon="8.557183514171445"><ele>317.0</ele><time>2026-04-05T14:13:47.999Z</time></trkpt><trkpt lat="45.66133495389278" lon="8.557266496555217"><ele>317.0</ele><time>2026-04-05T14:13:49.999Z</time></trkpt><trkpt lat="45.661286583096064" lon="8.557411922563114"><ele>317.0</ele><time>2026-04-05T14:13:51.999Z</time></trkpt><trkpt lat="45.66127680094808" lon="8.55752564855912"><ele>316.6666666666667</ele><time>2026-04-05T14:13:53.999Z</time></trkpt><trkpt lat="45.661257450054876" lon="8.557621323644367"><ele>316.33333333333337</ele><time>2026-04-05T14:13:56.998Z</time></trkpt><trkpt lat="45.661199436651614" lon="8.557680950305956"><ele>316.0</ele><time>2026-04-05T14:13:59.998Z</time></trkpt><trkpt lat="45.6610987485331" lon="8.557684966701023"><ele>315.6666666666667</ele><time>2026-04-05T14:14:01.998Z</time></trkpt><trkpt lat="45.66102253526902" lon="8.55769962339696"><ele>315.3333333333333</ele><time>2026-04-05T14:14:04.998Z</time></trkpt><trkpt lat="45.660966362450345" lon="8.557645090113533"><ele>315.0</ele><time>2026-04-05T14:14:06.998Z</time></trkpt><trkpt lat="45.66090926873841" lon="8.557593538903031"><ele>315.8333333333333</ele><time>2026-04-05T14:14:07.998Z</time></trkpt><trkpt lat="45.66084395865296" lon="8.557546339925073"><ele>316.6666666666667</ele><time>2026-04-05T14:14:09.998Z</time></trkpt><trkpt lat="45.660765319362724" lon="8.55750540086771"><ele>317.5</ele><time>2026-04-05T14:14:11.998Z</time></trkpt><trkpt lat="45.66067792298978" lon="8.557456550126412"><ele>318.33333333333337</ele><time>2026-04-05T14:14:13.998Z</time></trkpt><trkpt lat="45.66058144642993" lon="8.557387107159734"><ele>319.1666666666667</ele><time>2026-04-05T14:14:15.998Z</time></trkpt><trkpt lat="45.66051800769595" lon="8.55733820897194"><ele>320.0</ele><time>2026-04-05T14:14:16.998Z</time></trkpt><trkpt lat="45.66040303308232" lon="8.557280350493054"><ele>320.0</ele><time>2026-04-05T14:14:18.998Z</time></trkpt><trkpt lat="45.66033878419049" lon="8.557241081512478"><ele>320.0</ele><time>2026-04-05T14:14:19.998Z</time></trkpt><trkpt lat="45.66024536152886" lon="8.557175015000501"><ele>320.0</ele><time>2026-04-05T14:14:22Z</time></trkpt><trkpt lat="45.66014875137977" lon="8.5571194810723"><ele>320.0</ele><time>2026-04-05T14:14:24Z</time></trkpt><trkpt lat="45.66004772622922" lon="8.557071237113044"><ele>320.0</ele><time>2026-04-05T14:14:26Z</time></trkpt><trkpt lat="45.65998071802196" lon="8.55701958819602"><ele>320.5</ele><time>2026-04-05T14:14:27Z</time></trkpt><trkpt lat="45.65992393134504" lon="8.556978064490322"><ele>321.0</ele><time>2026-04-05T14:14:28Z</time></trkpt><trkpt lat="45.65986173504072" lon="8.556932408015092"><ele>321.5</ele><time>2026-04-05T14:14:29Z</time></trkpt><trkpt lat="45.65980078276467" lon="8.55689304241391"><ele>322.0</ele><time>2026-04-05T14:14:30Z</time></trkpt><trkpt lat="45.65970947871572" lon="8.556840059183207"><ele>322.5</ele><time>2026-04-05T14:14:32Z</time></trkpt><trkpt lat="45.659648233508456" lon="8.556803983994174"><ele>323.0</ele><time>2026-04-05T14:14:33Z</time></trkpt><trkpt lat="45.659539636123114" lon="8.55672611604444"><ele>323.0</ele><time>2026-04-05T14:14:35Z</time></trkpt><trkpt lat="45.65947712002241" lon="8.5566868893501"><ele>323.0</ele><time>2026-04-05T14:14:36Z</time></trkpt><trkpt lat="45.65940456429281" lon="8.5566405701235"><ele>323.0</ele><time>2026-04-05T14:14:37Z</time></trkpt><trkpt lat="45.65934150537794" lon="8.556602344821375"><ele>323.0</ele><time>2026-04-05T14:14:38Z</time></trkpt><trkpt lat="45.65927142777235" lon="8.556567839966531"><ele>323.0</ele><time>2026-04-05T14:14:39Z</time></trkpt><trkpt lat="45.65917501070373" lon="8.55651628265416"><ele>323.0</ele><time>2026-04-05T14:14:41Z</time></trkpt><trkpt lat="45.65911069147035" lon="8.556496545665043"><ele>323.0</ele><time>2026-04-05T14:14:42Z</time></trkpt><trkpt lat="45.65903887170647" lon="8.556488915067758"><ele>323.0</ele><time>2026-04-05T14:14:43Z</time></trkpt><trkpt lat="45.65897337458302" lon="8.556492679570962"><ele>323.0</ele><time>2026-04-05T14:14:44Z</time></trkpt><trkpt lat="45.658884313614024" lon="8.556491950501256"><ele>323.0</ele><time>2026-04-05T14:14:46Z</time></trkpt><trkpt lat="45.65878041065447" lon="8.556488062549487"><ele>323.0</ele><time>2026-04-05T14:14:48Z</time></trkpt><trkpt lat="45.658661632975075" lon="8.556495658172413"><ele>323.0</ele><time>2026-04-05T14:14:50Z</time></trkpt><trkpt lat="45.658581352272485" lon="8.556518676504323"><ele>323.0</ele><time>2026-04-05T14:14:53Z</time></trkpt><trkpt lat="45.658504871160034" lon="8.556544069167813"><ele>323.0</ele><time>2026-04-05T14:15:08Z</time></trkpt><trkpt lat="45.65840270022629" lon="8.556502165610748"><ele>323.0</ele><time>2026-04-05T14:15:11Z</time></trkpt><trkpt lat="45.65825083498287" lon="8.556514048253586"><ele>323.0</ele><time>2026-04-05T14:15:13Z</time></trkpt><trkpt lat="45.65816420363652" lon="8.556511073770968"><ele>323.0</ele><time>2026-04-05T14:15:14Z</time></trkpt><trkpt lat="45.65806188497446" lon="8.556488030002072"><ele>323.0</ele><time>2026-04-05T14:15:15.999Z</time></trkpt><trkpt lat="45.65795459495705" lon="8.556482836621026"><ele>323.0</ele><time>2026-04-05T14:15:17.999Z</time></trkpt><trkpt lat="45.65785214291046" lon="8.556482118589422"><ele>323.0</ele><time>2026-04-05T14:15:18.999Z</time></trkpt><trkpt lat="45.65775085387222" lon="8.556472509970211"><ele>323.0</ele><time>2026-04-05T14:15:19.999Z</time></trkpt><trkpt lat="45.65767013507" lon="8.556465981120622"><ele>323.0</ele><time>2026-04-05T14:15:20.999Z</time></trkpt><trkpt lat="45.65760471314815" lon="8.556450426847746"><ele>323.0</ele><time>2026-04-05T14:15:21.999Z</time></trkpt><trkpt lat="45.6574973607689" lon="8.556436167537647"><ele>323.0</ele><time>2026-04-05T14:15:23.999Z</time></trkpt><trkpt lat="45.65741980963982" lon="8.556437392547839"><ele>323.0</ele><time>2026-04-05T14:15:24.999Z</time></trkpt><trkpt lat="45.65731527363418" lon="8.556445251641325"><ele>323.0</ele><time>2026-04-05T14:15:26.999Z</time></trkpt><trkpt lat="45.65720568848802" lon="8.556457486546291"><ele>323.0</ele><time>2026-04-05T14:15:28.999Z</time></trkpt><trkpt lat="45.65714334959464" lon="8.55647931699954"><ele>323.0</ele><time>2026-04-05T14:15:29.999Z</time></trkpt><trkpt lat="45.65705257417437" lon="8.556426425054179"><ele>323.0</ele><time>2026-04-05T14:15:31.999Z</time></trkpt><trkpt lat="45.656990985694556" lon="8.556379079355008"><ele>323.0</ele><time>2026-04-05T14:15:32.999Z</time></trkpt><trkpt lat="45.656925819530485" lon="8.55635193585359"><ele>323.0</ele><time>2026-04-05T14:15:33.999Z</time></trkpt><trkpt lat="45.656860214967566" lon="8.556302078674868"><ele>323.0</ele><time>2026-04-05T14:15:34.999Z</time></trkpt><trkpt lat="45.65677715950266" lon="8.556245537111172"><ele>323.0</ele><time>2026-04-05T14:15:35.999Z</time></trkpt><trkpt lat="45.65670495254558" lon="8.55620394438671"><ele>322.5</ele><time>2026-04-05T14:15:36.999Z</time></trkpt><trkpt lat="45.65663185963905" lon="8.556163463776704"><ele>322.0</ele><time>2026-04-05T14:15:37.999Z</time></trkpt><trkpt lat="45.65655708499004" lon="8.55612336960327"><ele>321.5</ele><time>2026-04-05T14:15:38.999Z</time></trkpt><trkpt lat="45.65646798463866" lon="8.55607802511253"><ele>321.0</ele><time>2026-04-05T14:15:39.999Z</time></trkpt><trkpt lat="45.65639867212423" lon="8.556058057225139"><ele>320.5</ele><time>2026-04-05T14:15:40.999Z</time></trkpt><trkpt lat="45.65633289725553" lon="8.556045134524075"><ele>320.0</ele><time>2026-04-05T14:15:41.999Z</time></trkpt><trkpt lat="45.656263636436925" lon="8.556031628748272"><ele>320.0</ele><time>2026-04-05T14:15:42.999Z</time></trkpt><trkpt lat="45.65618944034491" lon="8.5560205079195"><ele>320.0</ele><time>2026-04-05T14:15:43.999Z</time></trkpt><trkpt lat="45.6561164575723" lon="8.556013214746766"><ele>320.0</ele><time>2026-04-05T14:15:44.999Z</time></trkpt><trkpt lat="45.65604418716682" lon="8.55599642320364"><ele>320.0</ele><time>2026-04-05T14:15:45.999Z</time></trkpt><trkpt lat="45.65590509705658" lon="8.555995532554716"><ele>320.0</ele><time>2026-04-05T14:15:47.999Z</time></trkpt><trkpt lat="45.65582373579392" lon="8.55599319213573"><ele>320.0</ele><time>2026-04-05T14:15:48.999Z</time></trkpt><trkpt lat="45.65575074563089" lon="8.555989066084692"><ele>319.4</ele><time>2026-04-05T14:15:49.999Z</time></trkpt><trkpt lat="45.65561404974922" lon="8.555987045456503"><ele>318.8</ele><time>2026-04-05T14:15:51.999Z</time></trkpt><trkpt lat="45.65552011959475" lon="8.555982235617604"><ele>318.2</ele><time>2026-04-05T14:15:52.999Z</time></trkpt><trkpt lat="45.655436753356895" lon="8.555979411644207"><ele>317.6</ele><time>2026-04-05T14:15:53.999Z</time></trkpt><trkpt lat="45.65536742598098" lon="8.555980899402048"><ele>317.0</ele><time>2026-04-05T14:15:54.999Z</time></trkpt><trkpt lat="45.65526135176336" lon="8.555963852225126"><ele>316.6</ele><time>2026-04-05T14:15:56.999Z</time></trkpt><trkpt lat="45.655167579498766" lon="8.556026213445092"><ele>316.2</ele><time>2026-04-05T14:15:58.999Z</time></trkpt><trkpt lat="45.65503335831648" lon="8.555993370199129"><ele>315.8</ele><time>2026-04-05T14:16:00.999Z</time></trkpt><trkpt lat="45.654945035309865" lon="8.555966896522683"><ele>315.4</ele><time>2026-04-05T14:16:01.999Z</time></trkpt><trkpt lat="45.65484153490061" lon="8.555959275277866"><ele>315.0</ele><time>2026-04-05T14:16:02.999Z</time></trkpt><trkpt lat="45.65474398560285" lon="8.55594994019995"><ele>315.0</ele><time>2026-04-05T14:16:03.999Z</time></trkpt><trkpt lat="45.654649714156946" lon="8.555934560739427"><ele>315.0</ele><time>2026-04-05T14:16:04.999Z</time></trkpt><trkpt lat="45.6545621861644" lon="8.555934146276243"><ele>315.0</ele><time>2026-04-05T14:16:05.999Z</time></trkpt><trkpt lat="45.65447091134797" lon="8.555921378361557"><ele>315.0</ele><time>2026-04-05T14:16:06.999Z</time></trkpt><trkpt lat="45.65438748622001" lon="8.555907057104763"><ele>315.0</ele><time>2026-04-05T14:16:07.999Z</time></trkpt><trkpt lat="45.65431685933974" lon="8.555893637855972"><ele>315.0</ele><time>2026-04-05T14:16:08.998Z</time></trkpt><trkpt lat="45.654196635761686" lon="8.555866228754596"><ele>315.0</ele><time>2026-04-05T14:16:10.998Z</time></trkpt><trkpt lat="45.65410282338007" lon="8.555895152665098"><ele>315.0</ele><time>2026-04-05T14:16:12.998Z</time></trkpt><trkpt lat="45.654035051196665" lon="8.555913763255939"><ele>315.0</ele><time>2026-04-05T14:16:13.998Z</time></trkpt><trkpt lat="45.653936377181374" lon="8.555867154481714"><ele>315.0</ele><time>2026-04-05T14:16:15.998Z</time></trkpt><trkpt lat="45.65382438941233" lon="8.555826520732557"><ele>315.0</ele><time>2026-04-05T14:16:17.998Z</time></trkpt><trkpt lat="45.65374622460257" lon="8.555802034334377"><ele>315.0</ele><time>2026-04-05T14:16:18.998Z</time></trkpt><trkpt lat="45.65366267259614" lon="8.555764873637333"><ele>315.0</ele><time>2026-04-05T14:16:20.998Z</time></trkpt><trkpt lat="45.65360036012132" lon="8.555742153292687"><ele>315.0</ele><time>2026-04-05T14:16:22.998Z</time></trkpt><trkpt lat="45.653524091326375" lon="8.555720083721"><ele>315.0</ele><time>2026-04-05T14:16:26.998Z</time></trkpt><trkpt lat="45.653459661718664" lon="8.555700126572102"><ele>315.0</ele><time>2026-04-05T14:16:29Z</time></trkpt><trkpt lat="45.653398125639036" lon="8.555663823317376"><ele>315.0</ele><time>2026-04-05T14:16:32Z</time></trkpt><trkpt lat="45.653293740073664" lon="8.555734205415945"><ele>315.1666666666667</ele><time>2026-04-05T14:16:34Z</time></trkpt><trkpt lat="45.65320995503813" lon="8.555785407806898"><ele>315.3333333333333</ele><time>2026-04-05T14:16:35Z</time></trkpt><trkpt lat="45.653136070315604" lon="8.55582902422939"><ele>315.5</ele><time>2026-04-05T14:16:36Z</time></trkpt><trkpt lat="45.653032273470764" lon="8.555890344832314"><ele>315.66666666666663</ele><time>2026-04-05T14:16:38Z</time></trkpt><trkpt lat="45.65295930702331" lon="8.555920984971067"><ele>315.8333333333333</ele><time>2026-04-05T14:16:40Z</time></trkpt><trkpt lat="45.65287878235159" lon="8.555939993450215"><ele>316.0</ele><time>2026-04-05T14:16:43Z</time></trkpt><trkpt lat="45.65280082005062" lon="8.555975851012471"><ele>315.66666666666663</ele><time>2026-04-05T14:16:46Z</time></trkpt><trkpt lat="45.65273355888525" lon="8.555982263934414"><ele>315.3333333333333</ele><time>2026-04-05T14:16:48Z</time></trkpt><trkpt lat="45.65264895801758" lon="8.555998224043371"><ele>315.0</ele><time>2026-04-05T14:16:51Z</time></trkpt><trkpt lat="45.65259365347198" lon="8.556046376535013"><ele>314.6666666666667</ele><time>2026-04-05T14:16:53Z</time></trkpt><trkpt lat="45.652548898005804" lon="8.556143410119564"><ele>314.33333333333337</ele><time>2026-04-05T14:16:56Z</time></trkpt><trkpt lat="45.65248100613889" lon="8.556197866509946"><ele>314.0</ele><time>2026-04-05T14:16:58Z</time></trkpt><trkpt lat="45.65240373098309" lon="8.556198969652634"><ele>314.2</ele><time>2026-04-05T14:17:01Z</time></trkpt><trkpt lat="45.65233093915021" lon="8.556259426199299"><ele>314.4</ele><time>2026-04-05T14:17:04Z</time></trkpt><trkpt lat="45.652280899739466" lon="8.556357365637497"><ele>314.6</ele><time>2026-04-05T14:17:06Z</time></trkpt><trkpt lat="45.6521931808833" lon="8.556396895371426"><ele>314.8</ele><time>2026-04-05T14:17:08Z</time></trkpt><trkpt lat="45.6520990454761" lon="8.55644536304846"><ele>315.0</ele><time>2026-04-05T14:17:10Z</time></trkpt><trkpt lat="45.65199526306189" lon="8.556515511657361"><ele>314.2</ele><time>2026-04-05T14:17:12Z</time></trkpt><trkpt lat="45.65189187096528" lon="8.556574684868172"><ele>313.4</ele><time>2026-04-05T14:17:14Z</time></trkpt><trkpt lat="45.65178477413208" lon="8.556645725452489"><ele>312.6</ele><time>2026-04-05T14:17:16Z</time></trkpt><trkpt lat="45.65173022708243" lon="8.556693598073421"><ele>311.8</ele><time>2026-04-05T14:17:17Z</time></trkpt><trkpt lat="45.65162554980301" lon="8.556744690216282"><ele>311.0</ele><time>2026-04-05T14:17:18.999Z</time></trkpt><trkpt lat="45.651510453083006" lon="8.556811935500043"><ele>311.0</ele><time>2026-04-05T14:17:20.999Z</time></trkpt><trkpt lat="45.65141126692606" lon="8.556856191616147"><ele>311.0</ele><time>2026-04-05T14:17:22.999Z</time></trkpt><trkpt lat="45.65132552517077" lon="8.556939825968342"><ele>311.0</ele><time>2026-04-05T14:17:24.999Z</time></trkpt><trkpt lat="45.65120491704652" lon="8.556988972589734"><ele>311.0</ele><time>2026-04-05T14:17:26.999Z</time></trkpt><trkpt lat="45.65109806949923" lon="8.557086553765826"><ele>310.6</ele><time>2026-04-05T14:17:28.999Z</time></trkpt><trkpt lat="45.65098913167319" lon="8.55714685561136"><ele>310.20000000000005</ele><time>2026-04-05T14:17:30.999Z</time></trkpt><trkpt lat="45.650865057730144" lon="8.557227994052074"><ele>309.79999999999995</ele><time>2026-04-05T14:17:32.999Z</time></trkpt><trkpt lat="45.65080390527236" lon="8.557273457572697"><ele>309.4</ele><time>2026-04-05T14:17:33.999Z</time></trkpt><trkpt lat="45.65074399313896" lon="8.557307106036724"><ele>309.0</ele><time>2026-04-05T14:17:34.999Z</time></trkpt><trkpt lat="45.650681102825935" lon="8.557351312619906"><ele>309.0</ele><time>2026-04-05T14:17:35.999Z</time></trkpt><trkpt lat="45.65062536558374" lon="8.557396633558117"><ele>309.0</ele><time>2026-04-05T14:17:36.999Z</time></trkpt><trkpt lat="45.65053502539057" lon="8.557471756887168"><ele>309.0</ele><time>2026-04-05T14:17:38.999Z</time></trkpt><trkpt lat="45.650430158604266" lon="8.557536083967454"><ele>309.0</ele><time>2026-04-05T14:17:40.999Z</time></trkpt><trkpt lat="45.650321703260815" lon="8.557599859337678"><ele>309.0</ele><time>2026-04-05T14:17:42.999Z</time></trkpt><trkpt lat="45.650226320255946" lon="8.557704107673764"><ele>307.59999999999997</ele><time>2026-04-05T14:17:44.999Z</time></trkpt><trkpt lat="45.65015925336912" lon="8.557743236472724"><ele>306.2</ele><time>2026-04-05T14:17:45.999Z</time></trkpt><trkpt lat="45.65006255918447" lon="8.557802415423462"><ele>304.79999999999995</ele><time>2026-04-05T14:17:47.999Z</time></trkpt><trkpt lat="45.64997315337656" lon="8.557873132707018"><ele>303.4</ele><time>2026-04-05T14:17:49.999Z</time></trkpt><trkpt lat="45.649915452449335" lon="8.557914382922357"><ele>302.0</ele><time>2026-04-05T14:17:50.999Z</time></trkpt><trkpt lat="45.649821308604295" lon="8.557991858763458"><ele>300.5</ele><time>2026-04-05T14:17:52.999Z</time></trkpt><trkpt lat="45.64976435170904" lon="8.558046522912399"><ele>299.0</ele><time>2026-04-05T14:17:54.999Z</time></trkpt><trkpt lat="45.64969734844126" lon="8.5581171361727"><ele>297.5</ele><time>2026-04-05T14:17:56.999Z</time></trkpt><trkpt lat="45.64960841108804" lon="8.558180939137603"><ele>296.0</ele><time>2026-04-05T14:17:58.999Z</time></trkpt><trkpt lat="45.64953136196171" lon="8.558227503568352"><ele>294.5</ele><time>2026-04-05T14:17:59.999Z</time></trkpt><trkpt lat="45.64943974371264" lon="8.558302866695222"><ele>293.0</ele><time>2026-04-05T14:18:00.999Z</time></trkpt><trkpt lat="45.649345710572064" lon="8.558363131476403"><ele>291.6</ele><time>2026-04-05T14:18:01.999Z</time></trkpt><trkpt lat="45.64926032966856" lon="8.558416612257005"><ele>290.20000000000005</ele><time>2026-04-05T14:18:02.999Z</time></trkpt><trkpt lat="45.649184785443765" lon="8.558476447295211"><ele>288.8</ele><time>2026-04-05T14:18:03.999Z</time></trkpt><trkpt lat="45.6491155281767" lon="8.55854075613151"><ele>287.40000000000003</ele><time>2026-04-05T14:18:04.999Z</time></trkpt><trkpt lat="45.64901974951674" lon="8.558627152472386"><ele>286.0</ele><time>2026-04-05T14:18:06.999Z</time></trkpt><trkpt lat="45.648959445431004" lon="8.558689369450754"><ele>286.0</ele><time>2026-04-05T14:18:16.998Z</time></trkpt><trkpt lat="45.6488930267128" lon="8.558728000198474"><ele>286.0</ele><time>2026-04-05T14:18:19.998Z</time></trkpt><trkpt lat="45.648753461677" lon="8.558830954632686"><ele>286.0</ele><time>2026-04-05T14:18:21.998Z</time></trkpt><trkpt lat="45.64868444256573" lon="8.558884739838733"><ele>286.0</ele><time>2026-04-05T14:18:23.998Z</time></trkpt><trkpt lat="45.64862584640759" lon="8.55894036237174"><ele>286.0</ele><time>2026-04-05T14:18:27.998Z</time></trkpt><trkpt lat="45.6485497969119" lon="8.558987983258579"><ele>286.0</ele><time>2026-04-05T14:18:29.998Z</time></trkpt><trkpt lat="45.64849466873883" lon="8.559046289869157"><ele>286.0</ele><time>2026-04-05T14:18:30.998Z</time></trkpt><trkpt lat="45.648431325144244" lon="8.559100155990066"><ele>286.0</ele><time>2026-04-05T14:18:31.998Z</time></trkpt><trkpt lat="45.64835855969256" lon="8.559153100244027"><ele>286.0</ele><time>2026-04-05T14:18:32.998Z</time></trkpt><trkpt lat="45.64828040281334" lon="8.559205586744582"><ele>286.0</ele><time>2026-04-05T14:18:34Z</time></trkpt><trkpt lat="45.648233272633995" lon="8.559277268200015"><ele>286.0</ele><time>2026-04-05T14:18:40Z</time></trkpt><trkpt lat="45.64820525490955" lon="8.559457421072343"><ele>287.16666666666663</ele><time>2026-04-05T14:18:42Z</time></trkpt><trkpt lat="45.64818125254919" lon="8.559574967417145"><ele>288.3333333333333</ele><time>2026-04-05T14:18:43Z</time></trkpt><trkpt lat="45.648156870416884" lon="8.559683899048999"><ele>289.5</ele><time>2026-04-05T14:18:44Z</time></trkpt><trkpt lat="45.64813241666877" lon="8.559778295156873"><ele>290.6666666666667</ele><time>2026-04-05T14:18:45Z</time></trkpt><trkpt lat="45.64810687478489" lon="8.55989145706177"><ele>291.83333333333337</ele><time>2026-04-05T14:18:46Z</time></trkpt><trkpt lat="45.648081767616645" lon="8.560010816653783"><ele>293.0</ele><time>2026-04-05T14:18:47Z</time></trkpt><trkpt lat="45.648054341952864" lon="8.560134096162866"><ele>293.0</ele><time>2026-04-05T14:18:48Z</time></trkpt><trkpt lat="45.648030083134344" lon="8.560254175113913"><ele>293.0</ele><time>2026-04-05T14:18:49Z</time></trkpt><trkpt lat="45.64802612473807" lon="8.56038241634038"><ele>293.0</ele><time>2026-04-05T14:18:50Z</time></trkpt><trkpt lat="45.64803492896522" lon="8.560503755316436"><ele>293.0</ele><time>2026-04-05T14:18:51Z</time></trkpt><trkpt lat="45.64806073848005" lon="8.560627545771586"><ele>293.0</ele><time>2026-04-05T14:18:52Z</time></trkpt><trkpt lat="45.64809556234844" lon="8.560747608057062"><ele>293.0</ele><time>2026-04-05T14:18:53Z</time></trkpt><trkpt lat="45.64813309970759" lon="8.560868610726734"><ele>293.33333333333337</ele><time>2026-04-05T14:18:54Z</time></trkpt><trkpt lat="45.6481851989115" lon="8.560971918765352"><ele>293.6666666666667</ele><time>2026-04-05T14:18:55Z</time></trkpt><trkpt lat="45.64824640797954" lon="8.561072312987205"><ele>294.0</ele><time>2026-04-05T14:18:56Z</time></trkpt><trkpt lat="45.648297157488486" lon="8.56116913669002"><ele>294.3333333333333</ele><time>2026-04-05T14:18:57Z</time></trkpt><trkpt lat="45.648343568332265" lon="8.561262021494183"><ele>294.66666666666663</ele><time>2026-04-05T14:18:58Z</time></trkpt><trkpt lat="45.648393305270176" lon="8.561345383869613"><ele>295.0</ele><time>2026-04-05T14:18:59Z</time></trkpt><trkpt lat="45.64841405190922" lon="8.561445629292516"><ele>296.6</ele><time>2026-04-05T14:19:00Z</time></trkpt><trkpt lat="45.64844276757535" lon="8.561535406774095"><ele>298.2</ele><time>2026-04-05T14:19:02Z</time></trkpt><trkpt lat="45.648310053343195" lon="8.56167871066763"><ele>299.8</ele><time>2026-04-05T14:19:04Z</time></trkpt><trkpt lat="45.64823526358247" lon="8.56175130752029"><ele>301.4</ele><time>2026-04-05T14:19:05Z</time></trkpt><trkpt lat="45.64820882368924" lon="8.561834778174083"><ele>303.0</ele><time>2026-04-05T14:19:06Z</time></trkpt><trkpt lat="45.64819121389582" lon="8.561976414115046"><ele>304.4</ele><time>2026-04-05T14:19:07Z</time></trkpt><trkpt lat="45.64817788053437" lon="8.562140649757076"><ele>305.8</ele><time>2026-04-05T14:19:08Z</time></trkpt><trkpt lat="45.64814524935313" lon="8.5622331945519"><ele>307.2</ele><time>2026-04-05T14:19:09Z</time></trkpt><trkpt lat="45.64811439928971" lon="8.562340764824224"><ele>308.6</ele><time>2026-04-05T14:19:10Z</time></trkpt><trkpt lat="45.64809153087228" lon="8.56248177629075"><ele>310.0</ele><time>2026-04-05T14:19:11Z</time></trkpt><trkpt lat="45.648056167960306" lon="8.562631623593704"><ele>310.0</ele><time>2026-04-05T14:19:12Z</time></trkpt><trkpt lat="45.648015346775125" lon="8.562752809931295"><ele>310.0</ele><time>2026-04-05T14:19:14Z</time></trkpt><trkpt lat="45.647954901842425" lon="8.562786746476338"><ele>310.0</ele><time>2026-04-05T14:19:16Z</time></trkpt><trkpt lat="45.64786159903452" lon="8.562777568355486"><ele>310.0</ele><time>2026-04-05T14:19:24Z</time></trkpt><trkpt lat="45.64777033837767" lon="8.562762924445718"><ele>310.0</ele><time>2026-04-05T14:19:25Z</time></trkpt><trkpt lat="45.64768342407874" lon="8.562733685168823"><ele>310.0</ele><time>2026-04-05T14:19:26Z</time></trkpt><trkpt lat="45.64758163562623" lon="8.562714731490862"><ele>309.2</ele><time>2026-04-05T14:19:27Z</time></trkpt><trkpt lat="45.647484003611176" lon="8.562703713007757"><ele>308.4</ele><time>2026-04-05T14:19:28Z</time></trkpt><trkpt lat="45.647387976300564" lon="8.5626879251125"><ele>307.6</ele><time>2026-04-05T14:19:29Z</time></trkpt><trkpt lat="45.64729353301895" lon="8.562664562989891"><ele>306.8</ele><time>2026-04-05T14:19:30Z</time></trkpt><trkpt lat="45.647202828833855" lon="8.56264691600112"><ele>306.0</ele><time>2026-04-05T14:19:31Z</time></trkpt><trkpt lat="45.64711083799144" lon="8.562629791995578"><ele>306.0</ele><time>2026-04-05T14:19:32Z</time></trkpt><trkpt lat="45.647027159058474" lon="8.562598668157769"><ele>306.0</ele><time>2026-04-05T14:19:33Z</time></trkpt><trkpt lat="45.64693715513872" lon="8.562544811628184"><ele>306.0</ele><time>2026-04-05T14:19:33.999Z</time></trkpt><trkpt lat="45.646829631172416" lon="8.56247913825874"><ele>306.0</ele><time>2026-04-05T14:19:34.999Z</time></trkpt><trkpt lat="45.6467246422974" lon="8.562429926458796"><ele>306.0</ele><time>2026-04-05T14:19:35.999Z</time></trkpt><trkpt lat="45.64663809012536" lon="8.56239875884795"><ele>305.6</ele><time>2026-04-05T14:19:36.999Z</time></trkpt><trkpt lat="45.64647473958954" lon="8.562357821837606"><ele>305.20000000000005</ele><time>2026-04-05T14:19:38.999Z</time></trkpt><trkpt lat="45.646387888346936" lon="8.562350935621497"><ele>304.79999999999995</ele><time>2026-04-05T14:19:39.999Z</time></trkpt><trkpt lat="45.64631907884535" lon="8.5623657645697"><ele>304.4</ele><time>2026-04-05T14:19:40.999Z</time></trkpt><trkpt lat="45.64625291702405" lon="8.562394351806304"><ele>304.0</ele><time>2026-04-05T14:19:41.999Z</time></trkpt><trkpt lat="45.64619395484884" lon="8.562447476846094"><ele>304.0</ele><time>2026-04-05T14:19:42.999Z</time></trkpt><trkpt lat="45.64613102443528" lon="8.562534407097912"><ele>304.0</ele><time>2026-04-05T14:19:43.999Z</time></trkpt><trkpt lat="45.64608077642045" lon="8.562619231747245"><ele>304.0</ele><time>2026-04-05T14:19:44.999Z</time></trkpt><trkpt lat="45.646030212554585" lon="8.562686839376928"><ele>304.0</ele><time>2026-04-05T14:19:45.999Z</time></trkpt><trkpt lat="45.64597645013644" lon="8.562755348410743"><ele>304.0</ele><time>2026-04-05T14:19:46.999Z</time></trkpt><trkpt lat="45.645923123468705" lon="8.562828423750911"><ele>304.0</ele><time>2026-04-05T14:19:47.999Z</time></trkpt><trkpt lat="45.64587002903029" lon="8.562913977412688"><ele>302.4</ele><time>2026-04-05T14:19:48.999Z</time></trkpt><trkpt lat="45.64581785610295" lon="8.563013346469612"><ele>300.79999999999995</ele><time>2026-04-05T14:19:49.999Z</time></trkpt><trkpt lat="45.645769872606365" lon="8.563110433897423"><ele>299.20000000000005</ele><time>2026-04-05T14:19:50.999Z</time></trkpt><trkpt lat="45.645719305770605" lon="8.563213655398002"><ele>297.6</ele><time>2026-04-05T14:19:51.999Z</time></trkpt><trkpt lat="45.64566442240234" lon="8.563320771505614"><ele>296.0</ele><time>2026-04-05T14:19:52.999Z</time></trkpt><trkpt lat="45.64560301398641" lon="8.563431905538152"><ele>296.0</ele><time>2026-04-05T14:19:53.999Z</time></trkpt><trkpt lat="45.645542286385016" lon="8.563532742633852"><ele>296.0</ele><time>2026-04-05T14:19:54.999Z</time></trkpt><trkpt lat="45.64548239946546" lon="8.563613320026365"><ele>296.0</ele><time>2026-04-05T14:19:55.999Z</time></trkpt><trkpt lat="45.64539140774501" lon="8.563704100458468"><ele>296.0</ele><time>2026-04-05T14:19:57.999Z</time></trkpt><trkpt lat="45.645346470321826" lon="8.563798259030355"><ele>296.0</ele><time>2026-04-05T14:20:00.999Z</time></trkpt><trkpt lat="45.64526733453298" lon="8.563941371132612"><ele>295.1666666666667</ele><time>2026-04-05T14:20:02.999Z</time></trkpt><trkpt lat="45.64522165630496" lon="8.564070786105075"><ele>294.33333333333337</ele><time>2026-04-05T14:20:03.999Z</time></trkpt><trkpt lat="45.6451911248405" lon="8.564184175356003"><ele>293.5</ele><time>2026-04-05T14:20:04.999Z</time></trkpt><trkpt lat="45.645187472614424" lon="8.564288523052213"><ele>292.6666666666667</ele><time>2026-04-05T14:20:05.999Z</time></trkpt><trkpt lat="45.64520743202915" lon="8.564388908892344"><ele>291.8333333333333</ele><time>2026-04-05T14:20:07.999Z</time></trkpt><trkpt lat="45.645130579507075" lon="8.564434563690991"><ele>291.0</ele><time>2026-04-05T14:20:10.999Z</time></trkpt><trkpt lat="45.64506434116188" lon="8.564533918320732"><ele>291.0</ele><time>2026-04-05T14:20:12.999Z</time></trkpt><trkpt lat="45.64499308241411" lon="8.564618957836142"><ele>291.0</ele><time>2026-04-05T14:20:13.999Z</time></trkpt><trkpt lat="45.644930994601424" lon="8.56472519389119"><ele>291.0</ele><time>2026-04-05T14:20:14.999Z</time></trkpt><trkpt lat="45.644899843187716" lon="8.564820857968844"><ele>291.0</ele><time>2026-04-05T14:20:15.999Z</time></trkpt><trkpt lat="45.644861017579665" lon="8.564929529427905"><ele>291.0</ele><time>2026-04-05T14:20:29.999Z</time></trkpt><trkpt lat="45.64482913761055" lon="8.56502214815067"><ele>291.0</ele><time>2026-04-05T14:20:30.999Z</time></trkpt><trkpt lat="45.64480617321685" lon="8.5651160353969"><ele>291.0</ele><time>2026-04-05T14:20:31.999Z</time></trkpt><trkpt lat="45.64477426107094" lon="8.565256602300463"><ele>291.0</ele><time>2026-04-05T14:20:33.998Z</time></trkpt><trkpt lat="45.64473835686971" lon="8.565371163076982"><ele>291.0</ele><time>2026-04-05T14:20:35.998Z</time></trkpt><trkpt lat="45.644721601095995" lon="8.565469011998708"><ele>291.0</ele><time>2026-04-05T14:21:49.999Z</time></trkpt><trkpt lat="45.64471365196818" lon="8.565564385293635"><ele>291.0</ele><time>2026-04-05T14:22:31.999Z</time></trkpt><trkpt lat="45.64466956971661" lon="8.565635393923122"><ele>291.0</ele><time>2026-04-05T14:22:43.998Z</time></trkpt><trkpt lat="45.644659963953366" lon="8.565761076785728"><ele>292.0</ele><time>2026-04-05T14:22:54Z</time></trkpt><trkpt lat="45.64460717069744" lon="8.565844915984911"><ele>293.0</ele><time>2026-04-05T14:23:00Z</time></trkpt><trkpt lat="45.64452050814859" lon="8.565891011296388"><ele>294.0</ele><time>2026-04-05T14:23:06Z</time></trkpt><trkpt lat="45.644436692243495" lon="8.565872001261559"><ele>295.0</ele><time>2026-04-05T14:23:08Z</time></trkpt><trkpt lat="45.64434664699234" lon="8.56584354805389"><ele>296.0</ele><time>2026-04-05T14:23:10Z</time></trkpt><trkpt lat="45.64427044299465" lon="8.565819824466583"><ele>297.0</ele><time>2026-04-05T14:23:11Z</time></trkpt><trkpt lat="45.64420200427979" lon="8.565850509126859"><ele>297.5</ele><time>2026-04-05T14:23:13Z</time></trkpt><trkpt lat="45.64418813834881" lon="8.56594513785243"><ele>298.0</ele><time>2026-04-05T14:23:15Z</time></trkpt><trkpt lat="45.644221307994556" lon="8.566078512211117"><ele>298.5</ele><time>2026-04-05T14:23:16Z</time></trkpt><trkpt lat="45.6442296787274" lon="8.56619070577681"><ele>299.0</ele><time>2026-04-05T14:23:17Z</time></trkpt><trkpt lat="45.64423533530971" lon="8.566320438869758"><ele>299.5</ele><time>2026-04-05T14:23:18Z</time></trkpt><trkpt lat="45.64424992013922" lon="8.566430816084821"><ele>300.0</ele><time>2026-04-05T14:23:19Z</time></trkpt><trkpt lat="45.64424431250471" lon="8.56652940830347"><ele>300.5</ele><time>2026-04-05T14:23:20Z</time></trkpt><trkpt lat="45.64420395885828" lon="8.566608412647206"><ele>301.0</ele><time>2026-04-05T14:23:21Z</time></trkpt><trkpt lat="45.644145288780855" lon="8.566675317944727"><ele>301.5</ele><time>2026-04-05T14:23:22Z</time></trkpt><trkpt lat="45.644118010757275" lon="8.566762017372573"><ele>302.0</ele><time>2026-04-05T14:23:23Z</time></trkpt><trkpt lat="45.64410980608612" lon="8.566861464235577"><ele>302.5</ele><time>2026-04-05T14:23:24Z</time></trkpt><trkpt lat="45.644095127048445" lon="8.566975163131382"><ele>303.0</ele><time>2026-04-05T14:23:25Z</time></trkpt><trkpt lat="45.644077650000106" lon="8.56709981259657"><ele>303.3333333333333</ele><time>2026-04-05T14:23:26Z</time></trkpt><trkpt lat="45.64406025166844" lon="8.567212470766735"><ele>303.6666666666667</ele><time>2026-04-05T14:23:27Z</time></trkpt><trkpt lat="45.6440444927608" lon="8.567337578220068"><ele>304.0</ele><time>2026-04-05T14:23:28Z</time></trkpt><trkpt lat="45.64403191723989" lon="8.567440634908278"><ele>304.33333333333337</ele><time>2026-04-05T14:23:29Z</time></trkpt><trkpt lat="45.64402547562379" lon="8.56755609204536"><ele>304.6666666666667</ele><time>2026-04-05T14:23:30Z</time></trkpt><trkpt lat="45.64400957475707" lon="8.567660682953838"><ele>305.0</ele><time>2026-04-05T14:23:31Z</time></trkpt><trkpt lat="45.643979691478044" lon="8.567823885070467"><ele>304.5</ele><time>2026-04-05T14:23:33Z</time></trkpt><trkpt lat="45.64396563826374" lon="8.567920758586837"><ele>304.0</ele><time>2026-04-05T14:23:34Z</time></trkpt><trkpt lat="45.64394969721563" lon="8.568033950565518"><ele>303.5</ele><time>2026-04-05T14:23:35Z</time></trkpt><trkpt lat="45.64392642866699" lon="8.568130342837447"><ele>303.0</ele><time>2026-04-05T14:23:36Z</time></trkpt><trkpt lat="45.64389786109981" lon="8.56821155783184"><ele>302.5</ele><time>2026-04-05T14:23:37Z</time></trkpt><trkpt lat="45.643854597599386" lon="8.568314051191411"><ele>302.0</ele><time>2026-04-05T14:23:39Z</time></trkpt><trkpt lat="45.643875352900594" lon="8.568437343875233"><ele>302.0</ele><time>2026-04-05T14:23:42.999Z</time></trkpt><trkpt lat="45.643928549961046" lon="8.568564551722979"><ele>302.0</ele><time>2026-04-05T14:23:44.999Z</time></trkpt><trkpt lat="45.64391367296847" lon="8.568677495041554"><ele>302.0</ele><time>2026-04-05T14:23:46.999Z</time></trkpt><trkpt lat="45.64378317917195" lon="8.5687864702787"><ele>302.0</ele><time>2026-04-05T14:23:48.999Z</time></trkpt><trkpt lat="45.643666009064404" lon="8.568878265814917"><ele>302.33333333333337</ele><time>2026-04-05T14:23:49.999Z</time></trkpt><trkpt lat="45.64353008608042" lon="8.569004688222494"><ele>302.6666666666667</ele><time>2026-04-05T14:23:50.999Z</time></trkpt><trkpt lat="45.64340206088791" lon="8.569124775309419"><ele>303.0</ele><time>2026-04-05T14:23:51.999Z</time></trkpt><trkpt lat="45.64328296460077" lon="8.569227312752519"><ele>303.0</ele><time>2026-04-05T14:23:52.999Z</time></trkpt><trkpt lat="45.64317751812056" lon="8.569335909862618"><ele>303.0</ele><time>2026-04-05T14:23:53.999Z</time></trkpt><trkpt lat="45.64307702700869" lon="8.56944535456849"><ele>303.0</ele><time>2026-04-05T14:23:54.999Z</time></trkpt><trkpt lat="45.64297026981423" lon="8.56955258125852"><ele>303.0</ele><time>2026-04-05T14:23:55.999Z</time></trkpt><trkpt lat="45.64286392343059" lon="8.569655704537265"><ele>302.0</ele><time>2026-04-05T14:23:56.999Z</time></trkpt><trkpt lat="45.642760971441284" lon="8.569753222879848"><ele>301.0</ele><time>2026-04-05T14:23:57.999Z</time></trkpt><trkpt lat="45.64265571828719" lon="8.569851820892385"><ele>300.0</ele><time>2026-04-05T14:23:58.999Z</time></trkpt><trkpt lat="45.64254393857331" lon="8.56995691330859"><ele>299.0</ele><time>2026-04-05T14:23:59.999Z</time></trkpt><trkpt lat="45.64242900114769" lon="8.570060797847123"><ele>299.0</ele><time>2026-04-05T14:24:00.999Z</time></trkpt><trkpt lat="45.642314896558595" lon="8.57016703748767"><ele>299.0</ele><time>2026-04-05T14:24:01.999Z</time></trkpt><trkpt lat="45.6422164630655" lon="8.570258468932844"><ele>299.0</ele><time>2026-04-05T14:24:02.999Z</time></trkpt><trkpt lat="45.642129900011746" lon="8.570344528661648"><ele>299.0</ele><time>2026-04-05T14:24:03.999Z</time></trkpt><trkpt lat="45.6420407568646" lon="8.570428737954433"><ele>299.0</ele><time>2026-04-05T14:24:04.999Z</time></trkpt><trkpt lat="45.64191711416595" lon="8.570538730361447"><ele>299.0</ele><time>2026-04-05T14:24:05.999Z</time></trkpt><trkpt lat="45.64179566948395" lon="8.570649758142455"><ele>299.0</ele><time>2026-04-05T14:24:06.999Z</time></trkpt><trkpt lat="45.64167628685205" lon="8.57074258169487"><ele>299.0</ele><time>2026-04-05T14:24:07.999Z</time></trkpt><trkpt lat="45.64158629172926" lon="8.570824914008874"><ele>299.0</ele><time>2026-04-05T14:24:08.999Z</time></trkpt><trkpt lat="45.641515576547334" lon="8.570903520299938"><ele>299.0</ele><time>2026-04-05T14:24:09.999Z</time></trkpt><trkpt lat="45.641432396113416" lon="8.57099049731878"><ele>299.0</ele><time>2026-04-05T14:24:11.999Z</time></trkpt><trkpt lat="45.641399730363794" lon="8.571119415118517"><ele>299.0</ele><time>2026-04-05T14:24:17.999Z</time></trkpt><trkpt lat="45.641444470445485" lon="8.571243695832953"><ele>299.0</ele><time>2026-04-05T14:24:18.999Z</time></trkpt><trkpt lat="45.64149618326402" lon="8.571434488468325"><ele>298.59999999999997</ele><time>2026-04-05T14:24:19.999Z</time></trkpt><trkpt lat="45.64154692776684" lon="8.571605868825719"><ele>298.2</ele><time>2026-04-05T14:24:20.999Z</time></trkpt><trkpt lat="45.64158562462458" lon="8.571732821433883"><ele>297.79999999999995</ele><time>2026-04-05T14:24:21.999Z</time></trkpt><trkpt lat="45.64158905828324" lon="8.571880956040228"><ele>297.4</ele><time>2026-04-05T14:24:23.999Z</time></trkpt><trkpt lat="45.64153757954641" lon="8.571950539924911"><ele>297.0</ele><time>2026-04-05T14:24:24.999Z</time></trkpt><trkpt lat="45.641446494142784" lon="8.572028849861338"><ele>296.5</ele><time>2026-04-05T14:24:25.999Z</time></trkpt><trkpt lat="45.64133247320679" lon="8.572142089845412"><ele>296.0</ele><time>2026-04-05T14:24:26.999Z</time></trkpt><trkpt lat="45.64121191578025" lon="8.572277112867104"><ele>295.5</ele><time>2026-04-05T14:24:27.999Z</time></trkpt><trkpt lat="45.64110244224001" lon="8.572404581915432"><ele>295.0</ele><time>2026-04-05T14:24:28.999Z</time></trkpt><trkpt lat="45.64098547298831" lon="8.572540077153112"><ele>295.0</ele><time>2026-04-05T14:24:29.999Z</time></trkpt><trkpt lat="45.64087687798314" lon="8.572673221481887"><ele>295.0</ele><time>2026-04-05T14:24:30.999Z</time></trkpt><trkpt lat="45.64077299253107" lon="8.572790643533578"><ele>295.0</ele><time>2026-04-05T14:24:31.999Z</time></trkpt><trkpt lat="45.64066585366513" lon="8.572896752384938"><ele>295.0</ele><time>2026-04-05T14:24:32.999Z</time></trkpt><trkpt lat="45.64056687117169" lon="8.573006183399125"><ele>296.0</ele><time>2026-04-05T14:24:33.999Z</time></trkpt><trkpt lat="45.640475811863446" lon="8.573118883959488"><ele>297.0</ele><time>2026-04-05T14:24:34.999Z</time></trkpt><trkpt lat="45.64038515273473" lon="8.573229952743983"><ele>298.0</ele><time>2026-04-05T14:24:35.999Z</time></trkpt><trkpt lat="45.640282314685884" lon="8.573312856105542"><ele>299.0</ele><time>2026-04-05T14:24:36.999Z</time></trkpt><trkpt lat="45.64016512545448" lon="8.573358895011285"><ele>299.0</ele><time>2026-04-05T14:24:37.999Z</time></trkpt><trkpt lat="45.64004658657914" lon="8.573416884235172"><ele>299.0</ele><time>2026-04-05T14:24:38.999Z</time></trkpt><trkpt lat="45.63992464049071" lon="8.57348584859446"><ele>299.0</ele><time>2026-04-05T14:24:39.999Z</time></trkpt><trkpt lat="45.63980273707011" lon="8.573556610321242"><ele>299.0</ele><time>2026-04-05T14:24:40.999Z</time></trkpt><trkpt lat="45.63968365565454" lon="8.573629253294023"><ele>299.25</ele><time>2026-04-05T14:24:41.999Z</time></trkpt><trkpt lat="45.639565688786845" lon="8.573697411415903"><ele>299.5</ele><time>2026-04-05T14:24:42.999Z</time></trkpt><trkpt lat="45.63944198549399" lon="8.573766264366142"><ele>299.75</ele><time>2026-04-05T14:24:43.999Z</time></trkpt><trkpt lat="45.63931672085546" lon="8.573829432819721"><ele>300.0</ele><time>2026-04-05T14:24:44.999Z</time></trkpt><trkpt lat="45.63919289626961" lon="8.573896069403617"><ele>300.0</ele><time>2026-04-05T14:24:45.999Z</time></trkpt><trkpt lat="45.63906512462566" lon="8.573962954311025"><ele>300.0</ele><time>2026-04-05T14:24:46.998Z</time></trkpt><trkpt lat="45.63893961558858" lon="8.57402890193535"><ele>300.0</ele><time>2026-04-05T14:24:47.998Z</time></trkpt><trkpt lat="45.63880671957202" lon="8.574076870449176"><ele>300.0</ele><time>2026-04-05T14:24:48.998Z</time></trkpt><trkpt lat="45.63868421407872" lon="8.574158056588676"><ele>298.75</ele><time>2026-04-05T14:24:49.998Z</time></trkpt><trkpt lat="45.638561808919235" lon="8.57421665447865"><ele>297.5</ele><time>2026-04-05T14:24:51Z</time></trkpt><trkpt lat="45.638441480220095" lon="8.574297691901922"><ele>296.25</ele><time>2026-04-05T14:24:52Z</time></trkpt><trkpt lat="45.63832756323562" lon="8.574359116691456"><ele>295.0</ele><time>2026-04-05T14:24:53Z</time></trkpt><trkpt lat="45.638221611600535" lon="8.574413975003818"><ele>295.0</ele><time>2026-04-05T14:24:54Z</time></trkpt><trkpt lat="45.638123092839095" lon="8.574465587913831"><ele>295.0</ele><time>2026-04-05T14:24:55Z</time></trkpt><trkpt lat="45.63797234029795" lon="8.574545030298125"><ele>295.0</ele><time>2026-04-05T14:24:57Z</time></trkpt><trkpt lat="45.63789751544913" lon="8.574577802153364"><ele>295.0</ele><time>2026-04-05T14:25:00Z</time></trkpt><trkpt lat="45.63790387819679" lon="8.574802447421302"><ele>296.5</ele><time>2026-04-05T14:25:03Z</time></trkpt><trkpt lat="45.63792066068803" lon="8.57496858177574"><ele>298.0</ele><time>2026-04-05T14:25:04Z</time></trkpt><trkpt lat="45.63793165129063" lon="8.575185914887527"><ele>299.5</ele><time>2026-04-05T14:25:05Z</time></trkpt><trkpt lat="45.63794579952457" lon="8.575430344018338"><ele>301.0</ele><time>2026-04-05T14:25:06Z</time></trkpt><trkpt lat="45.63794585469472" lon="8.57566837200857"><ele>301.3333333333333</ele><time>2026-04-05T14:25:07Z</time></trkpt><trkpt lat="45.637962253334884" lon="8.57593099963549"><ele>301.6666666666667</ele><time>2026-04-05T14:25:08Z</time></trkpt><trkpt lat="45.63797922277615" lon="8.576189660460571"><ele>302.0</ele><time>2026-04-05T14:25:09Z</time></trkpt><trkpt lat="45.63799316263967" lon="8.576393251930163"><ele>302.0</ele><time>2026-04-05T14:25:10Z</time></trkpt><trkpt lat="45.63800300305343" lon="8.576545335398285"><ele>302.0</ele><time>2026-04-05T14:25:11Z</time></trkpt><trkpt lat="45.638010498846455" lon="8.576679749211353"><ele>302.0</ele><time>2026-04-05T14:25:12Z</time></trkpt><trkpt lat="45.63802056015589" lon="8.576822323939002"><ele>302.0</ele><time>2026-04-05T14:25:13Z</time></trkpt><trkpt lat="45.63803063297777" lon="8.57694669624278"><ele>302.0</ele><time>2026-04-05T14:25:14Z</time></trkpt><trkpt lat="45.63802516428983" lon="8.577143749766767"><ele>302.2</ele><time>2026-04-05T14:25:16Z</time></trkpt><trkpt lat="45.638003190770974" lon="8.57730903617438"><ele>302.4</ele><time>2026-04-05T14:25:18Z</time></trkpt><trkpt lat="45.6379883638822" lon="8.577428349071715"><ele>302.6</ele><time>2026-04-05T14:25:19Z</time></trkpt><trkpt lat="45.63794941639431" lon="8.57751411641897"><ele>302.8</ele><time>2026-04-05T14:25:20Z</time></trkpt><trkpt lat="45.637929148186146" lon="8.577606102903886"><ele>303.0</ele><time>2026-04-05T14:25:21Z</time></trkpt><trkpt lat="45.63809454875021" lon="8.577801798304083"><ele>303.3333333333333</ele><time>2026-04-05T14:25:22Z</time></trkpt><trkpt lat="45.638103807809784" lon="8.577946243391082"><ele>303.6666666666667</ele><time>2026-04-05T14:25:23Z</time></trkpt><trkpt lat="45.638114528900076" lon="8.578078258376099"><ele>304.0</ele><time>2026-04-05T14:25:24Z</time></trkpt><trkpt lat="45.63811786277977" lon="8.578200797414059"><ele>304.33333333333337</ele><time>2026-04-05T14:25:25Z</time></trkpt><trkpt lat="45.638117112114685" lon="8.578300689335245"><ele>304.6666666666667</ele><time>2026-04-05T14:25:26Z</time></trkpt><trkpt lat="45.63812403437398" lon="8.578404237695327"><ele>305.0</ele><time>2026-04-05T14:25:27Z</time></trkpt><trkpt lat="45.63813575436237" lon="8.578503436935637"><ele>305.0</ele><time>2026-04-05T14:25:28Z</time></trkpt><trkpt lat="45.63816094074543" lon="8.578659460799987"><ele>305.0</ele><time>2026-04-05T14:25:30Z</time></trkpt><trkpt lat="45.638169298899406" lon="8.578748920217118"><ele>305.0</ele><time>2026-04-05T14:25:31Z</time></trkpt><trkpt lat="45.63817081605764" lon="8.57891950015453"><ele>305.0</ele><time>2026-04-05T14:25:33Z</time></trkpt><trkpt lat="45.63817415820948" lon="8.579019311121545"><ele>305.0</ele><time>2026-04-05T14:25:34Z</time></trkpt><trkpt lat="45.63818253322383" lon="8.57912795459184"><ele>305.0</ele><time>2026-04-05T14:25:35Z</time></trkpt><trkpt lat="45.63818076647828" lon="8.579227449373635"><ele>304.33333333333337</ele><time>2026-04-05T14:25:36Z</time></trkpt><trkpt lat="45.638186136399845" lon="8.579333561030014"><ele>303.6666666666667</ele><time>2026-04-05T14:25:37Z</time></trkpt><trkpt lat="45.638187168307596" lon="8.579428343640876"><ele>303.0</ele><time>2026-04-05T14:25:38Z</time></trkpt><trkpt lat="45.63818936872263" lon="8.579519955922837"><ele>302.3333333333333</ele><time>2026-04-05T14:25:39Z</time></trkpt><trkpt lat="45.638182794287346" lon="8.57966293188328"><ele>301.66666666666663</ele><time>2026-04-05T14:25:41Z</time></trkpt><trkpt lat="45.63809458396418" lon="8.579710598819965"><ele>301.0</ele><time>2026-04-05T14:25:44Z</time></trkpt><trkpt lat="45.638003535374835" lon="8.579724997061161"><ele>300.6</ele><time>2026-04-05T14:25:45.999Z</time></trkpt><trkpt lat="45.63791923394087" lon="8.579764671400506"><ele>300.20000000000005</ele><time>2026-04-05T14:25:47.999Z</time></trkpt><trkpt lat="45.63787117249906" lon="8.579927380926986"><ele>299.79999999999995</ele><time>2026-04-05T14:25:49.999Z</time></trkpt><trkpt lat="45.63784728619466" lon="8.580060759901237"><ele>299.4</ele><time>2026-04-05T14:25:50.999Z</time></trkpt><trkpt lat="45.63782120218985" lon="8.580182636773198"><ele>299.0</ele><time>2026-04-05T14:25:51.999Z</time></trkpt><trkpt lat="45.637787576297946" lon="8.580291365068087"><ele>298.6666666666667</ele><time>2026-04-05T14:25:52.999Z</time></trkpt><trkpt lat="45.637751907199856" lon="8.580395005294033"><ele>298.33333333333337</ele><time>2026-04-05T14:25:53.999Z</time></trkpt><trkpt lat="45.63772216900454" lon="8.580493184855317"><ele>298.0</ele><time>2026-04-05T14:25:54.999Z</time></trkpt><trkpt lat="45.63769876501555" lon="8.580592491435523"><ele>297.6666666666667</ele><time>2026-04-05T14:25:55.999Z</time></trkpt><trkpt lat="45.63771196776787" lon="8.580741877620126"><ele>297.3333333333333</ele><time>2026-04-05T14:25:57.999Z</time></trkpt><trkpt lat="45.63771691386528" lon="8.580833632759921"><ele>297.0</ele><time>2026-04-05T14:25:58.999Z</time></trkpt><trkpt lat="45.637723277359335" lon="8.580966283702402"><ele>297.0</ele><time>2026-04-05T14:25:59.999Z</time></trkpt><trkpt lat="45.63772907994017" lon="8.581095129011713"><ele>297.0</ele><time>2026-04-05T14:26:00.999Z</time></trkpt><trkpt lat="45.63775126152814" lon="8.581217662611314"><ele>297.0</ele><time>2026-04-05T14:26:01.999Z</time></trkpt><trkpt lat="45.63777529370366" lon="8.58133708257054"><ele>297.0</ele><time>2026-04-05T14:26:02.999Z</time></trkpt><trkpt lat="45.63779573782382" lon="8.581454175606076"><ele>297.0</ele><time>2026-04-05T14:26:03.999Z</time></trkpt><trkpt lat="45.63780769559811" lon="8.581564657160628"><ele>297.0</ele><time>2026-04-05T14:26:04.999Z</time></trkpt><trkpt lat="45.637809271764965" lon="8.581726137792508"><ele>296.2</ele><time>2026-04-05T14:26:06.999Z</time></trkpt><trkpt lat="45.63777129619434" lon="8.581874458436081"><ele>295.4</ele><time>2026-04-05T14:26:08.999Z</time></trkpt><trkpt lat="45.637740380160615" lon="8.581974524443446"><ele>294.6</ele><time>2026-04-05T14:26:11.999Z</time></trkpt><trkpt lat="45.6377575376841" lon="8.582132735726633"><ele>293.8</ele><time>2026-04-05T14:26:14.999Z</time></trkpt><trkpt lat="45.6377813309155" lon="8.582264089944935"><ele>293.0</ele><time>2026-04-05T14:26:16.999Z</time></trkpt><trkpt lat="45.63778848582782" lon="8.58243012101582"><ele>292.1666666666667</ele><time>2026-04-05T14:26:18.999Z</time></trkpt><trkpt lat="45.63778212094702" lon="8.582586208216828"><ele>291.33333333333337</ele><time>2026-04-05T14:26:20.999Z</time></trkpt><trkpt lat="45.63769714736689" lon="8.582598641113377"><ele>290.5</ele><time>2026-04-05T14:26:22.999Z</time></trkpt><trkpt lat="45.637631008416584" lon="8.582551278853078"><ele>289.6666666666667</ele><time>2026-04-05T14:26:23.999Z</time></trkpt><trkpt lat="45.637565994737635" lon="8.582529038516853"><ele>288.8333333333333</ele><time>2026-04-05T14:26:24.999Z</time></trkpt><trkpt lat="45.63748011294939" lon="8.582576196599637"><ele>288.0</ele><time>2026-04-05T14:26:26.999Z</time></trkpt><trkpt lat="45.63744697319894" lon="8.582666961636207"><ele>288.0</ele><time>2026-04-05T14:26:28.999Z</time></trkpt><trkpt lat="45.637410423215364" lon="8.582811352142599"><ele>288.0</ele><time>2026-04-05T14:26:30.999Z</time></trkpt><trkpt lat="45.63730604392958" lon="8.582781652000858"><ele>288.0</ele><time>2026-04-05T14:26:32.999Z</time></trkpt><trkpt lat="45.637211560004545" lon="8.582752015227753"><ele>288.0</ele><time>2026-04-05T14:26:34.999Z</time></trkpt><trkpt lat="45.637142649121145" lon="8.582793181301696"><ele>288.0</ele><time>2026-04-05T14:26:36.999Z</time></trkpt><trkpt lat="45.63706814495644" lon="8.582871386719527"><ele>287.3333333333333</ele><time>2026-04-05T14:26:38.999Z</time></trkpt><trkpt lat="45.63696120319674" lon="8.58283539314582"><ele>286.6666666666667</ele><time>2026-04-05T14:26:40.999Z</time></trkpt><trkpt lat="45.63687717350125" lon="8.582922199033858"><ele>286.0</ele><time>2026-04-05T14:26:42.999Z</time></trkpt><trkpt lat="45.63681436480785" lon="8.582930186938887"><ele>285.33333333333337</ele><time>2026-04-05T14:26:44.999Z</time></trkpt><trkpt lat="45.636744967487886" lon="8.582916333914472"><ele>284.6666666666667</ele><time>2026-04-05T14:26:46.999Z</time></trkpt><trkpt lat="45.63665975913473" lon="8.582916114497177"><ele>284.0</ele><time>2026-04-05T14:26:47.999Z</time></trkpt><trkpt lat="45.636595946914504" lon="8.582917374668805"><ele>285.33333333333337</ele><time>2026-04-05T14:26:48.999Z</time></trkpt><trkpt lat="45.63653273436587" lon="8.582914334111"><ele>286.6666666666667</ele><time>2026-04-05T14:26:49.999Z</time></trkpt><trkpt lat="45.63644198604015" lon="8.582906418005564"><ele>288.0</ele><time>2026-04-05T14:26:51.999Z</time></trkpt><trkpt lat="45.636385303982046" lon="8.58300718938069"><ele>289.3333333333333</ele><time>2026-04-05T14:26:53.998Z</time></trkpt><trkpt lat="45.63636861701766" lon="8.583135178951204"><ele>290.66666666666663</ele><time>2026-04-05T14:26:54.998Z</time></trkpt><trkpt lat="45.63634996661163" lon="8.583278162464568"><ele>292.0</ele><time>2026-04-05T14:26:56Z</time></trkpt><trkpt lat="45.63636944467264" lon="8.583404227306227"><ele>292.0</ele><time>2026-04-05T14:26:58Z</time></trkpt><trkpt lat="45.636401418075344" lon="8.583535368728322"><ele>292.0</ele><time>2026-04-05T14:27:00Z</time></trkpt><trkpt lat="45.636441328918835" lon="8.583647504478712"><ele>292.0</ele><time>2026-04-05T14:27:02Z</time></trkpt><trkpt lat="45.636525699311385" lon="8.583763544988846"><ele>292.0</ele><time>2026-04-05T14:27:04Z</time></trkpt><trkpt lat="45.63660719101059" lon="8.583808652304851"><ele>292.0</ele><time>2026-04-05T14:27:06Z</time></trkpt><trkpt lat="45.636731295037286" lon="8.583835676431729"><ele>293.4</ele><time>2026-04-05T14:27:08Z</time></trkpt><trkpt lat="45.6367604244719" lon="8.583946940996432"><ele>294.79999999999995</ele><time>2026-04-05T14:27:10Z</time></trkpt><trkpt lat="45.63685365467917" lon="8.584067812465811"><ele>296.2</ele><time>2026-04-05T14:27:13Z</time></trkpt><trkpt lat="45.636964419625016" lon="8.584102715597911"><ele>297.59999999999997</ele><time>2026-04-05T14:27:15Z</time></trkpt><trkpt lat="45.63703381171542" lon="8.584065147596641"><ele>299.0</ele><time>2026-04-05T14:27:17Z</time></trkpt><trkpt lat="45.63713811801189" lon="8.584043319622358"><ele>299.83333333333337</ele><time>2026-04-05T14:27:19Z</time></trkpt><trkpt lat="45.63720709197521" lon="8.58409210514527"><ele>300.6666666666667</ele><time>2026-04-05T14:27:22Z</time></trkpt><trkpt lat="45.637286052037865" lon="8.584035256824137"><ele>301.5</ele><time>2026-04-05T14:27:25Z</time></trkpt><trkpt lat="45.63732553081462" lon="8.583964859469024"><ele>302.3333333333333</ele><time>2026-04-05T14:27:28Z</time></trkpt><trkpt lat="45.63743225111352" lon="8.58394642419117"><ele>303.16666666666663</ele><time>2026-04-05T14:27:30Z</time></trkpt><trkpt lat="45.637515439911645" lon="8.583954561326546"><ele>304.0</ele><time>2026-04-05T14:27:32Z</time></trkpt><trkpt lat="45.63755628656434" lon="8.584053737459206"><ele>304.0</ele><time>2026-04-05T14:27:35Z</time></trkpt><trkpt lat="45.637594721256114" lon="8.584228268787054"><ele>304.0</ele><time>2026-04-05T14:27:37Z</time></trkpt><trkpt lat="45.63765225780834" lon="8.584373509034876"><ele>304.0</ele><time>2026-04-05T14:27:39Z</time></trkpt><trkpt lat="45.63770451740224" lon="8.584444754869063"><ele>304.0</ele><time>2026-04-05T14:27:41Z</time></trkpt><trkpt lat="45.63772871827026" lon="8.584558965249016"><ele>304.0</ele><time>2026-04-05T14:27:44Z</time></trkpt><trkpt lat="45.637720520094504" lon="8.584705683779662"><ele>304.16666666666663</ele><time>2026-04-05T14:27:46.999Z</time></trkpt><trkpt lat="45.63776189431727" lon="8.584814561355387"><ele>304.3333333333333</ele><time>2026-04-05T14:27:48.999Z</time></trkpt><trkpt lat="45.637796584214094" lon="8.584954611696741"><ele>304.5</ele><time>2026-04-05T14:27:50.999Z</time></trkpt><trkpt lat="45.63782104673032" lon="8.585039071048307"><ele>304.6666666666667</ele><time>2026-04-05T14:27:51.999Z</time></trkpt><trkpt lat="45.63784977591731" lon="8.585143731941672"><ele>304.83333333333337</ele><time>2026-04-05T14:27:52.999Z</time></trkpt><trkpt lat="45.63788325360762" lon="8.585292605462334"><ele>305.0</ele><time>2026-04-05T14:27:53.999Z</time></trkpt><trkpt lat="45.63792037192965" lon="8.58546070652402"><ele>305.6</ele><time>2026-04-05T14:27:54.999Z</time></trkpt><trkpt lat="45.63794732099651" lon="8.585597906773781"><ele>306.2</ele><time>2026-04-05T14:27:55.999Z</time></trkpt><trkpt lat="45.637978326498384" lon="8.585745963234883"><ele>306.8</ele><time>2026-04-05T14:27:56.999Z</time></trkpt><trkpt lat="45.63800561038815" lon="8.585882762562349"><ele>307.4</ele><time>2026-04-05T14:27:57.999Z</time></trkpt><trkpt lat="45.638024265189344" lon="8.586040483818902"><ele>308.0</ele><time>2026-04-05T14:27:58.999Z</time></trkpt><trkpt lat="45.638055054990836" lon="8.586221457709255"><ele>308.0</ele><time>2026-04-05T14:27:59.999Z</time></trkpt><trkpt lat="45.638106284550155" lon="8.586391908965162"><ele>308.0</ele><time>2026-04-05T14:28:00.999Z</time></trkpt><trkpt lat="45.6381512882847" lon="8.586569698824523"><ele>308.0</ele><time>2026-04-05T14:28:01.999Z</time></trkpt><trkpt lat="45.63818495860682" lon="8.586708764183648"><ele>308.0</ele><time>2026-04-05T14:28:02.999Z</time></trkpt><trkpt lat="45.6381963357194" lon="8.586802584898269"><ele>308.0</ele><time>2026-04-05T14:28:03.999Z</time></trkpt><trkpt lat="45.63813348574327" lon="8.586942829754495"><ele>308.0</ele><time>2026-04-05T14:28:05.999Z</time></trkpt><trkpt lat="45.63804903818986" lon="8.586991596771895"><ele>308.0</ele><time>2026-04-05T14:28:06.999Z</time></trkpt><trkpt lat="45.63793301991316" lon="8.587055477609525"><ele>308.0</ele><time>2026-04-05T14:28:07.999Z</time></trkpt><trkpt lat="45.6377803097385" lon="8.587134932238742"><ele>308.0</ele><time>2026-04-05T14:28:08.999Z</time></trkpt><trkpt lat="45.63761203348364" lon="8.587224515193652"><ele>307.2</ele><time>2026-04-05T14:28:09.999Z</time></trkpt><trkpt lat="45.637502030404036" lon="8.587292447039552"><ele>306.4</ele><time>2026-04-05T14:28:10.999Z</time></trkpt><trkpt lat="45.6374045695636" lon="8.587349741175812"><ele>305.59999999999997</ele><time>2026-04-05T14:28:11.999Z</time></trkpt><trkpt lat="45.637319495509324" lon="8.587388917040085"><ele>304.8</ele><time>2026-04-05T14:28:12.999Z</time></trkpt><trkpt lat="45.637239231993725" lon="8.587508583940368"><ele>304.0</ele><time>2026-04-05T14:28:14.999Z</time></trkpt><trkpt lat="45.637249087734595" lon="8.587640528856175"><ele>304.0</ele><time>2026-04-05T14:28:15.999Z</time></trkpt><trkpt lat="45.637278968991566" lon="8.587832566841435"><ele>304.0</ele><time>2026-04-05T14:28:16.999Z</time></trkpt><trkpt lat="45.63729226936352" lon="8.588044669866585"><ele>304.0</ele><time>2026-04-05T14:28:17.999Z</time></trkpt><trkpt lat="45.637297902879695" lon="8.588204753711686"><ele>304.0</ele><time>2026-04-05T14:28:18.999Z</time></trkpt><trkpt lat="45.63729941131032" lon="8.588329917729244"><ele>304.59999999999997</ele><time>2026-04-05T14:28:19.999Z</time></trkpt><trkpt lat="45.63730385556023" lon="8.588456821265746"><ele>305.2</ele><time>2026-04-05T14:28:20.999Z</time></trkpt><trkpt lat="45.63730262149027" lon="8.588590169050693"><ele>305.79999999999995</ele><time>2026-04-05T14:28:21.999Z</time></trkpt><trkpt lat="45.63729963265866" lon="8.58879075188892"><ele>306.4</ele><time>2026-04-05T14:28:23.999Z</time></trkpt><trkpt lat="45.637211444556996" lon="8.588896802830691"><ele>307.0</ele><time>2026-04-05T14:28:25.999Z</time></trkpt><trkpt lat="45.63710462630077" lon="8.588926673062026"><ele>307.3333333333333</ele><time>2026-04-05T14:28:26.999Z</time></trkpt><trkpt lat="45.63697391585838" lon="8.588957902006612"><ele>307.6666666666667</ele><time>2026-04-05T14:28:27.999Z</time></trkpt><trkpt lat="45.63680106141342" lon="8.589004620334938"><ele>308.0</ele><time>2026-04-05T14:28:28.999Z</time></trkpt><trkpt lat="45.63663598517426" lon="8.589065455385938"><ele>308.25</ele><time>2026-04-05T14:28:29.999Z</time></trkpt><trkpt lat="45.63649215065303" lon="8.589112122169126"><ele>308.5</ele><time>2026-04-05T14:28:30.999Z</time></trkpt><trkpt lat="45.636358143176516" lon="8.589155648177666"><ele>308.75</ele><time>2026-04-05T14:28:31.999Z</time></trkpt><trkpt lat="45.636231950085715" lon="8.589198037939303"><ele>309.0</ele><time>2026-04-05T14:28:32.999Z</time></trkpt><trkpt lat="45.636117390302" lon="8.58923883618032"><ele>308.25</ele><time>2026-04-05T14:28:33.999Z</time></trkpt><trkpt lat="45.63600196330003" lon="8.589279888693838"><ele>307.5</ele><time>2026-04-05T14:28:34.999Z</time></trkpt><trkpt lat="45.63587780623399" lon="8.58931959284511"><ele>306.75</ele><time>2026-04-05T14:28:35.999Z</time></trkpt><trkpt lat="45.635762525201095" lon="8.589345750774063"><ele>306.0</ele><time>2026-04-05T14:28:36.999Z</time></trkpt><trkpt lat="45.63564306486262" lon="8.58938845971654"><ele>306.0</ele><time>2026-04-05T14:28:37.999Z</time></trkpt><trkpt lat="45.63552406133872" lon="8.589446642101336"><ele>306.0</ele><time>2026-04-05T14:28:38.999Z</time></trkpt><trkpt lat="45.63540854754137" lon="8.58947881835088"><ele>306.0</ele><time>2026-04-05T14:28:39.999Z</time></trkpt><trkpt lat="45.63529646000808" lon="8.589494189221467"><ele>306.0</ele><time>2026-04-05T14:28:40.999Z</time></trkpt><trkpt lat="45.63519992986537" lon="8.58954461035919"><ele>305.8333333333333</ele><time>2026-04-05T14:28:41.999Z</time></trkpt><trkpt lat="45.63512729569116" lon="8.589560629926469"><ele>305.6666666666667</ele><time>2026-04-05T14:28:42.999Z</time></trkpt><trkpt lat="45.63506305113181" lon="8.589649106182584"><ele>305.5</ele><time>2026-04-05T14:28:44.999Z</time></trkpt><trkpt lat="45.635053058103004" lon="8.58974057238605"><ele>305.33333333333337</ele><time>2026-04-05T14:28:45.999Z</time></trkpt><trkpt lat="45.63506784615166" lon="8.589865556268872"><ele>305.1666666666667</ele><time>2026-04-05T14:28:46.999Z</time></trkpt><trkpt lat="45.635080852599394" lon="8.590023478107298"><ele>305.0</ele><time>2026-04-05T14:28:47.999Z</time></trkpt><trkpt lat="45.63507767888987" lon="8.59013232700608"><ele>305.0</ele><time>2026-04-05T14:28:48.999Z</time></trkpt><trkpt lat="45.63500746803443" lon="8.590262783405409"><ele>305.0</ele><time>2026-04-05T14:28:50.999Z</time></trkpt><trkpt lat="45.63489698738121" lon="8.590231541429091"><ele>305.0</ele><time>2026-04-05T14:28:51.999Z</time></trkpt><trkpt lat="45.63476298296901" lon="8.590252897161376"><ele>305.0</ele><time>2026-04-05T14:28:52.999Z</time></trkpt><trkpt lat="45.63459917626397" lon="8.590307801235047"><ele>304.5</ele><time>2026-04-05T14:28:53.999Z</time></trkpt><trkpt lat="45.63443102047411" lon="8.590366914496338"><ele>304.0</ele><time>2026-04-05T14:28:54.999Z</time></trkpt><trkpt lat="45.63427942969299" lon="8.590414614599293"><ele>303.5</ele><time>2026-04-05T14:28:55.999Z</time></trkpt><trkpt lat="45.634161508978735" lon="8.59044508886087"><ele>303.0</ele><time>2026-04-05T14:28:56.999Z</time></trkpt><trkpt lat="45.63404946474343" lon="8.59046448135392"><ele>303.0</ele><time>2026-04-05T14:28:57.999Z</time></trkpt><trkpt lat="45.63393010738406" lon="8.590482204528133"><ele>303.0</ele><time>2026-04-05T14:28:58.998Z</time></trkpt><trkpt lat="45.633785856164636" lon="8.590521873406267"><ele>303.0</ele><time>2026-04-05T14:28:59.998Z</time></trkpt><trkpt lat="45.63364142165763" lon="8.590605649002699"><ele>303.0</ele><time>2026-04-05T14:29:00.998Z</time></trkpt><trkpt lat="45.63347660289623" lon="8.590646049778584"><ele>302.6666666666667</ele><time>2026-04-05T14:29:02Z</time></trkpt><trkpt lat="45.6333076856614" lon="8.590727806918228"><ele>302.33333333333337</ele><time>2026-04-05T14:29:03Z</time></trkpt><trkpt lat="45.63315452640492" lon="8.590751361100182"><ele>302.0</ele><time>2026-04-05T14:29:04Z</time></trkpt><trkpt lat="45.633034606254824" lon="8.59078324608705"><ele>302.0</ele><time>2026-04-05T14:29:05Z</time></trkpt><trkpt lat="45.63295185407829" lon="8.590811528636381"><ele>302.0</ele><time>2026-04-05T14:29:06Z</time></trkpt><trkpt lat="45.63285756569392" lon="8.590862268422548"><ele>302.0</ele><time>2026-04-05T14:29:08Z</time></trkpt><trkpt lat="45.63284542047322" lon="8.590955094053605"><ele>302.0</ele><time>2026-04-05T14:29:09Z</time></trkpt><trkpt lat="45.6328534160205" lon="8.591096727538993"><ele>302.0</ele><time>2026-04-05T14:29:10Z</time></trkpt><trkpt lat="45.632875576737234" lon="8.591204183903589"><ele>302.0</ele><time>2026-04-05T14:29:11Z</time></trkpt><trkpt lat="45.632892533544336" lon="8.591373616171856"><ele>301.83333333333337</ele><time>2026-04-05T14:29:13Z</time></trkpt><trkpt lat="45.632902004684155" lon="8.59153426116915"><ele>301.6666666666667</ele><time>2026-04-05T14:29:15Z</time></trkpt><trkpt lat="45.632906965282515" lon="8.591626549900889"><ele>301.5</ele><time>2026-04-05T14:29:16Z</time></trkpt><trkpt lat="45.63290996112877" lon="8.591717551539618"><ele>301.3333333333333</ele><time>2026-04-05T14:29:17Z</time></trkpt><trkpt lat="45.63292622038223" lon="8.591865924788413"><ele>301.16666666666663</ele><time>2026-04-05T14:29:19Z</time></trkpt><trkpt lat="45.63293241632094" lon="8.59198300284825"><ele>301.0</ele><time>2026-04-05T14:29:21Z</time></trkpt><trkpt lat="45.632922355747446" lon="8.59208950428215"><ele>301.0</ele><time>2026-04-05T14:29:23Z</time></trkpt><trkpt lat="45.63284297566914" lon="8.592152051123982"><ele>301.0</ele><time>2026-04-05T14:29:26Z</time></trkpt><trkpt lat="45.63274004946143" lon="8.592226870567806"><ele>301.0</ele><time>2026-04-05T14:29:28Z</time></trkpt><trkpt lat="45.63261665136906" lon="8.59226563807457"><ele>301.0</ele><time>2026-04-05T14:29:30Z</time></trkpt><trkpt lat="45.63255544041099" lon="8.59229551395678"><ele>301.0</ele><time>2026-04-05T14:29:31Z</time></trkpt><trkpt lat="45.63244902061366" lon="8.592347378042335"><ele>300.5</ele><time>2026-04-05T14:29:33Z</time></trkpt><trkpt lat="45.63235150905239" lon="8.592394043992279"><ele>300.0</ele><time>2026-04-05T14:29:35Z</time></trkpt><trkpt lat="45.632289305678746" lon="8.592425296449864"><ele>299.5</ele><time>2026-04-05T14:29:36Z</time></trkpt><trkpt lat="45.632219095426" lon="8.59246057177454"><ele>299.0</ele><time>2026-04-05T14:29:37Z</time></trkpt><trkpt lat="45.632147084844746" lon="8.592497535536287"><ele>298.5</ele><time>2026-04-05T14:29:38Z</time></trkpt><trkpt lat="45.63208141595003" lon="8.59253196010163"><ele>298.0</ele><time>2026-04-05T14:29:39Z</time></trkpt><trkpt lat="45.63202329172969" lon="8.592576766477292"><ele>297.66666666666663</ele><time>2026-04-05T14:29:40Z</time></trkpt><trkpt lat="45.6319023732345" lon="8.592623499394554"><ele>297.3333333333333</ele><time>2026-04-05T14:29:42Z</time></trkpt><trkpt lat="45.63184175543354" lon="8.592652181396346"><ele>297.0</ele><time>2026-04-05T14:29:43Z</time></trkpt><trkpt lat="45.63177681746803" lon="8.59268290752708"><ele>296.6666666666667</ele><time>2026-04-05T14:29:44Z</time></trkpt><trkpt lat="45.63170942689326" lon="8.592714794205213"><ele>296.33333333333337</ele><time>2026-04-05T14:29:45Z</time></trkpt><trkpt lat="45.63164290387931" lon="8.592747185722851"><ele>296.0</ele><time>2026-04-05T14:29:46Z</time></trkpt><trkpt lat="45.631580014153926" lon="8.592778686445666"><ele>296.0</ele><time>2026-04-05T14:29:47Z</time></trkpt><trkpt lat="45.63152086254972" lon="8.592809911404368"><ele>296.0</ele><time>2026-04-05T14:29:48Z</time></trkpt><trkpt lat="45.631412040862884" lon="8.592871832225589"><ele>296.0</ele><time>2026-04-05T14:29:50Z</time></trkpt><trkpt lat="45.63131879302416" lon="8.592929171912864"><ele>296.0</ele><time>2026-04-05T14:29:52Z</time></trkpt><trkpt lat="45.63122699321363" lon="8.59299434151264"><ele>296.0</ele><time>2026-04-05T14:29:54Z</time></trkpt><trkpt lat="45.63114717787426" lon="8.59305108795365"><ele>295.5</ele><time>2026-04-05T14:29:56Z</time></trkpt><trkpt lat="45.63106527037034" lon="8.593026782564987"><ele>295.0</ele><time>2026-04-05T14:29:58Z</time></trkpt><trkpt lat="45.631007641022144" lon="8.592886274403169"><ele>294.5</ele><time>2026-04-05T14:30:00Z</time></trkpt><trkpt lat="45.631000447826814" lon="8.592792678797727"><ele>294.0</ele><time>2026-04-05T14:30:01Z</time></trkpt><trkpt lat="45.63098223588717" lon="8.59268941234922"><ele>293.5</ele><time>2026-04-05T14:30:02Z</time></trkpt><trkpt lat="45.63096423930458" lon="8.592598609224595"><ele>293.0</ele><time>2026-04-05T14:30:03Z</time></trkpt><trkpt lat="45.63092658255723" lon="8.592475121588484"><ele>293.0</ele><time>2026-04-05T14:30:05Z</time></trkpt><trkpt lat="45.63086425895673" lon="8.592455671999124"><ele>293.0</ele><time>2026-04-05T14:30:06Z</time></trkpt><trkpt lat="45.63078185388219" lon="8.592542488614336"><ele>293.0</ele><time>2026-04-05T14:30:07Z</time></trkpt><trkpt lat="45.63066915908908" lon="8.592604305437526"><ele>293.0</ele><time>2026-04-05T14:30:08Z</time></trkpt><trkpt lat="45.63052285223035" lon="8.592702484148024"><ele>293.0</ele><time>2026-04-05T14:30:09Z</time></trkpt><trkpt lat="45.630359034668366" lon="8.592807650281163"><ele>292.0</ele><time>2026-04-05T14:30:10Z</time></trkpt><trkpt lat="45.63018549320718" lon="8.592923022011863"><ele>291.0</ele><time>2026-04-05T14:30:10.999Z</time></trkpt><trkpt lat="45.63001220048514" lon="8.59306897309547"><ele>290.0</ele><time>2026-04-05T14:30:11.999Z</time></trkpt><trkpt lat="45.62981690088148" lon="8.593199745856039"><ele>290.0</ele><time>2026-04-05T14:30:12.999Z</time></trkpt><trkpt lat="45.62960906985423" lon="8.59335112103675"><ele>290.0</ele><time>2026-04-05T14:30:13.999Z</time></trkpt><trkpt lat="45.629401701425465" lon="8.593489969734403"><ele>290.0</ele><time>2026-04-05T14:30:14.999Z</time></trkpt><trkpt lat="45.62920939295146" lon="8.593581479759601"><ele>290.0</ele><time>2026-04-05T14:30:15.999Z</time></trkpt><trkpt lat="45.629051384982695" lon="8.593676687290264"><ele>290.0</ele><time>2026-04-05T14:30:16.999Z</time></trkpt><trkpt lat="45.628937546488686" lon="8.593747314084602"><ele>290.0</ele><time>2026-04-05T14:30:17.999Z</time></trkpt><trkpt lat="45.62883704180939" lon="8.593810341351313"><ele>290.0</ele><time>2026-04-05T14:30:18.999Z</time></trkpt><trkpt lat="45.628751356997604" lon="8.593885577030543"><ele>290.0</ele><time>2026-04-05T14:30:19.999Z</time></trkpt><trkpt lat="45.62864086323097" lon="8.593949324012383"><ele>290.0</ele><time>2026-04-05T14:30:21.999Z</time></trkpt><trkpt lat="45.628579545889465" lon="8.593983607144004"><ele>290.0</ele><time>2026-04-05T14:30:23.999Z</time></trkpt><trkpt lat="45.62850146267515" lon="8.594006355031976"><ele>289.8</ele><time>2026-04-05T14:30:28.999Z</time></trkpt><trkpt lat="45.628569754932656" lon="8.594183713635513"><ele>289.6</ele><time>2026-04-05T14:30:32.999Z</time></trkpt><trkpt lat="45.62857161695769" lon="8.594057446866804"><ele>289.4</ele><time>2026-04-05T14:30:35.999Z</time></trkpt><trkpt lat="45.62855220661815" lon="8.593880303365045"><ele>289.2</ele><time>2026-04-05T14:30:37.999Z</time></trkpt><trkpt lat="45.62852055109093" lon="8.593771321583477"><ele>289.0</ele><time>2026-04-05T14:30:38.999Z</time></trkpt><trkpt lat="45.62848634728857" lon="8.593589785778837"><ele>289.0</ele><time>2026-04-05T14:30:39.999Z</time></trkpt><trkpt lat="45.62843316141826" lon="8.593392229170426"><ele>289.0</ele><time>2026-04-05T14:30:40.999Z</time></trkpt><trkpt lat="45.62839849698245" lon="8.593247260141155"><ele>289.0</ele><time>2026-04-05T14:30:41.999Z</time></trkpt><trkpt lat="45.62837221026156" lon="8.593138927887033"><ele>289.0</ele><time>2026-04-05T14:30:42.999Z</time></trkpt><trkpt lat="45.62830282119801" lon="8.59301007543003"><ele>289.0</ele><time>2026-04-05T14:30:44.999Z</time></trkpt><trkpt lat="45.62822854075238" lon="8.592996521354568"><ele>289.0</ele><time>2026-04-05T14:30:45.999Z</time></trkpt><trkpt lat="45.62814307415217" lon="8.593030938041041"><ele>289.0</ele><time>2026-04-05T14:30:46.999Z</time></trkpt><trkpt lat="45.62804190470862" lon="8.593115175891981"><ele>289.0</ele><time>2026-04-05T14:30:47.999Z</time></trkpt><trkpt lat="45.62789929634865" lon="8.59320758841998"><ele>289.0</ele><time>2026-04-05T14:30:48.999Z</time></trkpt><trkpt lat="45.627759640123855" lon="8.593315864173572"><ele>289.0</ele><time>2026-04-05T14:30:49.999Z</time></trkpt><trkpt lat="45.627583819713486" lon="8.593475521883581"><ele>289.0</ele><time>2026-04-05T14:30:50.999Z</time></trkpt><trkpt lat="45.627424944075486" lon="8.59365440717589"><ele>289.0</ele><time>2026-04-05T14:30:51.999Z</time></trkpt><trkpt lat="45.62728257850009" lon="8.593744646517111"><ele>289.0</ele><time>2026-04-05T14:30:52.999Z</time></trkpt><trkpt lat="45.6271680217021" lon="8.593808983061358"><ele>289.0</ele><time>2026-04-05T14:30:53.999Z</time></trkpt><trkpt lat="45.62708619799128" lon="8.59385126587889"><ele>289.0</ele><time>2026-04-05T14:30:54.999Z</time></trkpt><trkpt lat="45.62701786278371" lon="8.59390940677951"><ele>289.0</ele><time>2026-04-05T14:30:56.999Z</time></trkpt><trkpt lat="45.62695643930759" lon="8.593930064803084"><ele>289.0</ele><time>2026-04-05T14:31:00.999Z</time></trkpt><trkpt lat="45.62685414299925" lon="8.593982039154527"><ele>289.0</ele><time>2026-04-05T14:31:03.999Z</time></trkpt><trkpt lat="45.62674006461713" lon="8.59403855684595"><ele>289.0</ele><time>2026-04-05T14:31:05.999Z</time></trkpt><trkpt lat="45.62662708747789" lon="8.594094067795469"><ele>289.0</ele><time>2026-04-05T14:31:08Z</time></trkpt><trkpt lat="45.62652447283725" lon="8.594150884206876"><ele>289.0</ele><time>2026-04-05T14:31:10Z</time></trkpt><trkpt lat="45.626410881450305" lon="8.594193741108146"><ele>289.0</ele><time>2026-04-05T14:31:12Z</time></trkpt><trkpt lat="45.626292907756806" lon="8.594255365715753"><ele>289.0</ele><time>2026-04-05T14:31:14Z</time></trkpt><trkpt lat="45.62616460280254" lon="8.594321544187931"><ele>289.0</ele><time>2026-04-05T14:31:16Z</time></trkpt><trkpt lat="45.62608004488444" lon="8.59436624981479"><ele>289.0</ele><time>2026-04-05T14:31:17Z</time></trkpt><trkpt lat="45.62600723954174" lon="8.594406485602125"><ele>289.0</ele><time>2026-04-05T14:31:18Z</time></trkpt><trkpt lat="45.625897377200715" lon="8.594458937136656"><ele>288.0</ele><time>2026-04-05T14:31:20Z</time></trkpt><trkpt lat="45.625798526917144" lon="8.594485925248037"><ele>287.0</ele><time>2026-04-05T14:31:22Z</time></trkpt><trkpt lat="45.625734550541296" lon="8.594431850736513"><ele>286.0</ele><time>2026-04-05T14:31:24Z</time></trkpt><trkpt lat="45.62566180765836" lon="8.59461914323228"><ele>285.0</ele><time>2026-04-05T14:31:25Z</time></trkpt><trkpt lat="45.62560262131414" lon="8.594669048858979"><ele>284.0</ele><time>2026-04-05T14:31:26Z</time></trkpt><trkpt lat="45.625505706742935" lon="8.594702957974052"><ele>284.0</ele><time>2026-04-05T14:31:28Z</time></trkpt><trkpt lat="45.62542805829404" lon="8.594647313447748"><ele>284.0</ele><time>2026-04-05T14:31:30Z</time></trkpt><trkpt lat="45.62539290012193" lon="8.59450366664373"><ele>284.0</ele><time>2026-04-05T14:31:32Z</time></trkpt><trkpt lat="45.62538291037656" lon="8.594329361226958"><ele>284.0</ele><time>2026-04-05T14:31:34Z</time></trkpt><trkpt lat="45.625360855321645" lon="8.594173776733303"><ele>284.0</ele><time>2026-04-05T14:31:36Z</time></trkpt><trkpt lat="45.62519112470779" lon="8.594137479979237"><ele>283.83333333333337</ele><time>2026-04-05T14:31:40Z</time></trkpt><trkpt lat="45.62511398063744" lon="8.59416249835371"><ele>283.6666666666667</ele><time>2026-04-05T14:31:42Z</time></trkpt><trkpt lat="45.625042258778144" lon="8.594184898840403"><ele>283.5</ele><time>2026-04-05T14:31:44Z</time></trkpt><trkpt lat="45.624961995224346" lon="8.594208895293622"><ele>283.3333333333333</ele><time>2026-04-05T14:31:46Z</time></trkpt><trkpt lat="45.624887194777834" lon="8.594235199723956"><ele>283.16666666666663</ele><time>2026-04-05T14:31:48Z</time></trkpt><trkpt lat="45.624785113505844" lon="8.594241281312183"><ele>283.0</ele><time>2026-04-05T14:31:50Z</time></trkpt><trkpt lat="45.62466637427907" lon="8.594276131056676"><ele>283.0</ele><time>2026-04-05T14:31:52Z</time></trkpt><trkpt lat="45.62459961629637" lon="8.594295649720202"><ele>283.0</ele><time>2026-04-05T14:31:53Z</time></trkpt><trkpt lat="45.624539440038426" lon="8.594327247395569"><ele>283.0</ele><time>2026-04-05T14:31:54Z</time></trkpt><trkpt lat="45.62447702211151" lon="8.594346042322359"><ele>283.0</ele><time>2026-04-05T14:31:55Z</time></trkpt><trkpt lat="45.62434556412688" lon="8.594385948700602"><ele>283.0</ele><time>2026-04-05T14:31:57Z</time></trkpt><trkpt lat="45.624278607787886" lon="8.594411425800226"><ele>283.0</ele><time>2026-04-05T14:31:58Z</time></trkpt><trkpt lat="45.62415301464701" lon="8.59443221811969"><ele>283.2</ele><time>2026-04-05T14:32:00Z</time></trkpt><trkpt lat="45.624053355126705" lon="8.594452510397879"><ele>283.4</ele><time>2026-04-05T14:32:02Z</time></trkpt><trkpt lat="45.62396024776254" lon="8.594490313850894"><ele>283.59999999999997</ele><time>2026-04-05T14:32:04Z</time></trkpt><trkpt lat="45.62384132324155" lon="8.594524568885273"><ele>283.8</ele><time>2026-04-05T14:32:06Z</time></trkpt><trkpt lat="45.62375677122303" lon="8.594549220208659"><ele>284.0</ele><time>2026-04-05T14:32:07Z</time></trkpt><trkpt lat="45.62365628061234" lon="8.594580874674525"><ele>283.4</ele><time>2026-04-05T14:32:07.999Z</time></trkpt><trkpt lat="45.62355517936182" lon="8.594615279062234"><ele>282.79999999999995</ele><time>2026-04-05T14:32:08.999Z</time></trkpt><trkpt lat="45.62344565567286" lon="8.5946470419058"><ele>282.20000000000005</ele><time>2026-04-05T14:32:09.999Z</time></trkpt><trkpt lat="45.62333342598697" lon="8.59464687960975"><ele>281.6</ele><time>2026-04-05T14:32:10.999Z</time></trkpt><trkpt lat="45.6232254395851" lon="8.59466611290409"><ele>281.0</ele><time>2026-04-05T14:32:11.999Z</time></trkpt><trkpt lat="45.62313141695045" lon="8.59467640603651"><ele>281.0</ele><time>2026-04-05T14:32:12.999Z</time></trkpt><trkpt lat="45.623055814157865" lon="8.594680294076117"><ele>281.0</ele><time>2026-04-05T14:32:13.999Z</time></trkpt><trkpt lat="45.62298861723289" lon="8.59468263815379"><ele>281.0</ele><time>2026-04-05T14:32:14.999Z</time></trkpt><trkpt lat="45.62292240439546" lon="8.594684523383068"><ele>281.0</ele><time>2026-04-05T14:32:15.999Z</time></trkpt><trkpt lat="45.62285919388436" lon="8.594685988283532"><ele>281.0</ele><time>2026-04-05T14:32:16.999Z</time></trkpt><trkpt lat="45.622746736779355" lon="8.594698010713264"><ele>281.0</ele><time>2026-04-05T14:32:18.999Z</time></trkpt><trkpt lat="45.6226521626583" lon="8.59470313633585"><ele>280.6</ele><time>2026-04-05T14:32:20.999Z</time></trkpt><trkpt lat="45.62256059674228" lon="8.594707827966626"><ele>280.20000000000005</ele><time>2026-04-05T14:32:22.999Z</time></trkpt><trkpt lat="45.622467654577" lon="8.594707357777025"><ele>279.79999999999995</ele><time>2026-04-05T14:32:24.999Z</time></trkpt><trkpt lat="45.62236595227836" lon="8.594718350467623"><ele>279.4</ele><time>2026-04-05T14:32:26.999Z</time></trkpt><trkpt lat="45.622240535551725" lon="8.594726846019856"><ele>279.0</ele><time>2026-04-05T14:32:28.999Z</time></trkpt><trkpt lat="45.62216324788773" lon="8.594735016221266"><ele>279.0</ele><time>2026-04-05T14:32:29.999Z</time></trkpt><trkpt lat="45.6220757546194" lon="8.594749584840145"><ele>279.0</ele><time>2026-04-05T14:32:30.999Z</time></trkpt><trkpt lat="45.621995287944095" lon="8.594770951837218"><ele>279.0</ele><time>2026-04-05T14:32:31.999Z</time></trkpt><trkpt lat="45.621911715113505" lon="8.594787343655968"><ele>279.0</ele><time>2026-04-05T14:32:32.999Z</time></trkpt><trkpt lat="45.62182046041624" lon="8.594808186544228"><ele>279.0</ele><time>2026-04-05T14:32:33.999Z</time></trkpt><trkpt lat="45.62173951357422" lon="8.594828269243777"><ele>279.0</ele><time>2026-04-05T14:32:34.999Z</time></trkpt><trkpt lat="45.62167516419249" lon="8.594841871334149"><ele>278.2</ele><time>2026-04-05T14:32:35.999Z</time></trkpt><trkpt lat="45.62157506444321" lon="8.594852003225833"><ele>277.4</ele><time>2026-04-05T14:32:37.999Z</time></trkpt><trkpt lat="45.62147899904839" lon="8.594899132638908"><ele>276.6</ele><time>2026-04-05T14:32:39.999Z</time></trkpt><trkpt lat="45.621386796577546" lon="8.594924846811335"><ele>275.8</ele><time>2026-04-05T14:32:41.999Z</time></trkpt><trkpt lat="45.62130888908549" lon="8.594955388485076"><ele>275.0</ele><time>2026-04-05T14:32:43.999Z</time></trkpt><trkpt lat="45.62121668240664" lon="8.59500862500026"><ele>275.2</ele><time>2026-04-05T14:32:45.999Z</time></trkpt><trkpt lat="45.62112335654569" lon="8.595061819526814"><ele>275.4</ele><time>2026-04-05T14:32:47.999Z</time></trkpt><trkpt lat="45.62103515099536" lon="8.59514355584299"><ele>275.6</ele><time>2026-04-05T14:32:49.999Z</time></trkpt><trkpt lat="45.62092276103498" lon="8.595201489282227"><ele>275.8</ele><time>2026-04-05T14:32:51.999Z</time></trkpt><trkpt lat="45.620862225529216" lon="8.595240499385358"><ele>276.0</ele><time>2026-04-05T14:32:52.999Z</time></trkpt><trkpt lat="45.62079074493721" lon="8.595278967447584"><ele>276.0</ele><time>2026-04-05T14:32:53.999Z</time></trkpt><trkpt lat="45.620730684219716" lon="8.5953095525195"><ele>276.0</ele><time>2026-04-05T14:32:54.999Z</time></trkpt><trkpt lat="45.6206630319847" lon="8.595341945122431"><ele>276.0</ele><time>2026-04-05T14:32:55.999Z</time></trkpt><trkpt lat="45.6205973533298" lon="8.595375522234152"><ele>276.0</ele><time>2026-04-05T14:32:56.999Z</time></trkpt><trkpt lat="45.62051171597387" lon="8.595416558984802"><ele>276.0</ele><time>2026-04-05T14:32:57.999Z</time></trkpt><trkpt lat="45.6204370083416" lon="8.595447399304883"><ele>276.0</ele><time>2026-04-05T14:32:58.999Z</time></trkpt><trkpt lat="45.62035327513845" lon="8.595482336667164"><ele>276.0</ele><time>2026-04-05T14:32:59.999Z</time></trkpt><trkpt lat="45.62027527104505" lon="8.595513545805812"><ele>276.0</ele><time>2026-04-05T14:33:00.999Z</time></trkpt><trkpt lat="45.62020887942005" lon="8.595538708408734"><ele>276.0</ele><time>2026-04-05T14:33:01.999Z</time></trkpt><trkpt lat="45.62014430557836" lon="8.595559535447059"><ele>276.0</ele><time>2026-04-05T14:33:02.999Z</time></trkpt><trkpt lat="45.62007858415725" lon="8.59559418596589"><ele>276.0</ele><time>2026-04-05T14:33:03.999Z</time></trkpt><trkpt lat="45.620003518338656" lon="8.595603979914953"><ele>276.0</ele><time>2026-04-05T14:33:04.999Z</time></trkpt><trkpt lat="45.61992692881124" lon="8.59563224754172"><ele>276.0</ele><time>2026-04-05T14:33:05.999Z</time></trkpt><trkpt lat="45.619838343406954" lon="8.595664234903218"><ele>276.0</ele><time>2026-04-05T14:33:06.999Z</time></trkpt><trkpt lat="45.61976556916878" lon="8.595691714377768"><ele>276.0</ele><time>2026-04-05T14:33:07.999Z</time></trkpt><trkpt lat="45.61970062442222" lon="8.595716799901851"><ele>276.0</ele><time>2026-04-05T14:33:08.999Z</time></trkpt><trkpt lat="45.61960320017443" lon="8.59575791132812"><ele>276.0</ele><time>2026-04-05T14:33:10.999Z</time></trkpt><trkpt lat="45.619550521844374" lon="8.595609568089966"><ele>276.0</ele><time>2026-04-05T14:33:12.999Z</time></trkpt><trkpt lat="45.61955223024637" lon="8.595467138399174"><ele>275.8333333333333</ele><time>2026-04-05T14:33:14Z</time></trkpt><trkpt lat="45.61955663934601" lon="8.595321182978706"><ele>275.6666666666667</ele><time>2026-04-05T14:33:15Z</time></trkpt><trkpt lat="45.61957425553049" lon="8.595217267365342"><ele>275.5</ele><time>2026-04-05T14:33:17Z</time></trkpt><trkpt lat="45.61960754992492" lon="8.595136337257692"><ele>275.33333333333337</ele><time>2026-04-05T14:33:19Z</time></trkpt><trkpt lat="45.619566703152344" lon="8.595051205534837"><ele>275.1666666666667</ele><time>2026-04-05T14:33:21Z</time></trkpt><trkpt lat="45.6195388692096" lon="8.594888841235917"><ele>275.0</ele><time>2026-04-05T14:33:23Z</time></trkpt><trkpt lat="45.619534056758745" lon="8.594722627441842"><ele>275.0</ele><time>2026-04-05T14:33:25Z</time></trkpt><trkpt lat="45.61949923882776" lon="8.59455146475368"><ele>275.0</ele><time>2026-04-05T14:33:27Z</time></trkpt><trkpt lat="45.61946263224449" lon="8.59446609647214"><ele>275.0</ele><time>2026-04-05T14:33:28Z</time></trkpt><trkpt lat="45.61941906027543" lon="8.594395148736577"><ele>275.0</ele><time>2026-04-05T14:33:29Z</time></trkpt><trkpt lat="45.61934744569014" lon="8.594288170496757"><ele>275.0</ele><time>2026-04-05T14:33:31Z</time></trkpt><trkpt lat="45.61926699527364" lon="8.594332709429468"><ele>275.2</ele><time>2026-04-05T14:33:33Z</time></trkpt><trkpt lat="45.61917138777967" lon="8.594389533869316"><ele>275.4</ele><time>2026-04-05T14:33:34Z</time></trkpt><trkpt lat="45.619058088589256" lon="8.594464569702609"><ele>275.6</ele><time>2026-04-05T14:33:35Z</time></trkpt><trkpt lat="45.6189586381465" lon="8.594543865743312"><ele>275.8</ele><time>2026-04-05T14:33:36Z</time></trkpt><trkpt lat="45.61889255374343" lon="8.594580548524464"><ele>276.0</ele><time>2026-04-05T14:33:37Z</time></trkpt><trkpt lat="45.61882234974683" lon="8.59458735224672"><ele>276.0</ele><time>2026-04-05T14:33:38Z</time></trkpt><trkpt lat="45.618721040964736" lon="8.59455882247497"><ele>276.0</ele><time>2026-04-05T14:33:39Z</time></trkpt><trkpt lat="45.61861679763025" lon="8.594562903144723"><ele>276.0</ele><time>2026-04-05T14:33:40Z</time></trkpt><trkpt lat="45.61854196066155" lon="8.594587777624676"><ele>276.0</ele><time>2026-04-05T14:33:41Z</time></trkpt><trkpt lat="45.6184726527837" lon="8.59462001128961"><ele>276.0</ele><time>2026-04-05T14:33:42Z</time></trkpt><trkpt lat="45.61836220859942" lon="8.594671418759892"><ele>274.8</ele><time>2026-04-05T14:33:44Z</time></trkpt><trkpt lat="45.61827890598526" lon="8.594709095359411"><ele>273.6</ele><time>2026-04-05T14:33:45Z</time></trkpt><trkpt lat="45.618209080310784" lon="8.594746298912455"><ele>272.4</ele><time>2026-04-05T14:33:46Z</time></trkpt><trkpt lat="45.61814017960142" lon="8.594891857481304"><ele>271.2</ele><time>2026-04-05T14:33:48Z</time></trkpt><trkpt lat="45.61809098846842" lon="8.595035066785236"><ele>270.0</ele><time>2026-04-05T14:33:50Z</time></trkpt><trkpt lat="45.61802896301517" lon="8.595109648395988"><ele>270.0</ele><time>2026-04-05T14:33:51Z</time></trkpt><trkpt lat="45.61796417753544" lon="8.595143764314987"><ele>270.0</ele><time>2026-04-05T14:33:52Z</time></trkpt><trkpt lat="45.61785412611591" lon="8.595232312154257"><ele>270.0</ele><time>2026-04-05T14:33:54Z</time></trkpt><trkpt lat="45.617793497195" lon="8.595279741274885"><ele>270.0</ele><time>2026-04-05T14:33:55Z</time></trkpt><trkpt lat="45.61767843408899" lon="8.595249727434842"><ele>270.0</ele><time>2026-04-05T14:33:57Z</time></trkpt><trkpt lat="45.617625829290844" lon="8.595180718157225"><ele>270.0</ele><time>2026-04-05T14:33:58Z</time></trkpt><trkpt lat="45.61756115227429" lon="8.595143019455607"><ele>270.0</ele><time>2026-04-05T14:33:59Z</time></trkpt><trkpt lat="45.617470051552274" lon="8.595233528585567"><ele>270.0</ele><time>2026-04-05T14:34:01Z</time></trkpt><trkpt lat="45.61741830244282" lon="8.595339543074841"><ele>270.0</ele><time>2026-04-05T14:34:02Z</time></trkpt><trkpt lat="45.6173451681603" lon="8.595433800401231"><ele>270.0</ele><time>2026-04-05T14:34:03Z</time></trkpt><trkpt lat="45.61726711903739" lon="8.595463721995566"><ele>270.0</ele><time>2026-04-05T14:34:04Z</time></trkpt><trkpt lat="45.61717289860862" lon="8.595501748547576"><ele>270.0</ele><time>2026-04-05T14:34:05Z</time></trkpt><trkpt lat="45.61707296272045" lon="8.595523514437545"><ele>270.0</ele><time>2026-04-05T14:34:06Z</time></trkpt><trkpt lat="45.61699353453603" lon="8.595568672531195"><ele>270.0</ele><time>2026-04-05T14:34:07Z</time></trkpt><trkpt lat="45.61690979009974" lon="8.59561971233279"><ele>270.0</ele><time>2026-04-05T14:34:07.999Z</time></trkpt><trkpt lat="45.616849893815996" lon="8.59569219228046"><ele>268.8333333333333</ele><time>2026-04-05T14:34:08.999Z</time></trkpt><trkpt lat="45.61677173081521" lon="8.595713123214356"><ele>267.6666666666667</ele><time>2026-04-05T14:34:10.999Z</time></trkpt><trkpt lat="45.61666290797014" lon="8.59574357515728"><ele>266.5</ele><time>2026-04-05T14:34:12.999Z</time></trkpt><trkpt lat="45.61659590579905" lon="8.595774267856118"><ele>265.33333333333337</ele><time>2026-04-05T14:34:16.999Z</time></trkpt><trkpt lat="45.61651387753305" lon="8.595876379045382"><ele>264.1666666666667</ele><time>2026-04-05T14:34:18.999Z</time></trkpt><trkpt lat="45.61644760672587" lon="8.595913236646542"><ele>263.0</ele><time>2026-04-05T14:34:20.999Z</time></trkpt><trkpt lat="45.616401958617544" lon="8.596033918461796"><ele>263.0</ele><time>2026-04-05T14:34:22.999Z</time></trkpt><trkpt lat="45.61632462844691" lon="8.596147325789374"><ele>263.0</ele><time>2026-04-05T14:34:24.999Z</time></trkpt><trkpt lat="45.61629430963389" lon="8.59623469431922"><ele>263.0</ele><time>2026-04-05T14:34:26.999Z</time></trkpt><trkpt lat="45.61628397563354" lon="8.596376677095238"><ele>263.0</ele><time>2026-04-05T14:34:28.999Z</time></trkpt><trkpt lat="45.616298440678115" lon="8.596473454646516"><ele>263.0</ele><time>2026-04-05T14:34:30.999Z</time></trkpt><trkpt lat="45.616279089482795" lon="8.596611475155882"><ele>263.0</ele><time>2026-04-05T14:34:32.999Z</time></trkpt><trkpt lat="45.61619532318648" lon="8.596676626974403"><ele>263.0</ele><time>2026-04-05T14:34:35.999Z</time></trkpt><trkpt lat="45.61615625704607" lon="8.596777771778333"><ele>263.0</ele><time>2026-04-05T14:34:37.999Z</time></trkpt><trkpt lat="45.61609740034441" lon="8.59691411387842"><ele>263.0</ele><time>2026-04-05T14:34:39.999Z</time></trkpt><trkpt lat="45.61604763412805" lon="8.597020927941978"><ele>263.0</ele><time>2026-04-05T14:34:41.999Z</time></trkpt><trkpt lat="45.61596740000256" lon="8.597089245586902"><ele>263.0</ele><time>2026-04-05T14:34:43.999Z</time></trkpt><trkpt lat="45.6158857716713" lon="8.597155030039717"><ele>261.25</ele><time>2026-04-05T14:34:45.999Z</time></trkpt><trkpt lat="45.61580460367866" lon="8.597225733503171"><ele>259.5</ele><time>2026-04-05T14:34:47.999Z</time></trkpt><trkpt lat="45.61569478980283" lon="8.597266028949106"><ele>257.75</ele><time>2026-04-05T14:34:49.999Z</time></trkpt><trkpt lat="45.61562266735742" lon="8.597311470532295"><ele>256.0</ele><time>2026-04-05T14:34:51.999Z</time></trkpt><trkpt lat="45.615428260340444" lon="8.597255533692467"><ele>256.0</ele><time>2026-04-05T14:34:53.999Z</time></trkpt><trkpt lat="45.61538502947969" lon="8.597331580565106"><ele>256.0</ele><time>2026-04-05T14:34:55.999Z</time></trkpt><trkpt lat="45.615308969877574" lon="8.597468681992696"><ele>256.0</ele><time>2026-04-05T14:34:57.999Z</time></trkpt><trkpt lat="45.61524643746006" lon="8.597583671574517"><ele>256.0</ele><time>2026-04-05T14:35:00.999Z</time></trkpt><trkpt lat="45.61520819042265" lon="8.597669937817273"><ele>256.0</ele><time>2026-04-05T14:35:02.999Z</time></trkpt><trkpt lat="45.61516371109149" lon="8.5977790333103"><ele>255.0</ele><time>2026-04-05T14:35:04.999Z</time></trkpt><trkpt lat="45.61512966878246" lon="8.597866040448208"><ele>254.00000000000003</ele><time>2026-04-05T14:35:07.999Z</time></trkpt><trkpt lat="45.61510079030388" lon="8.597947810543193"><ele>253.00000000000003</ele><time>2026-04-05T14:35:09.999Z</time></trkpt><trkpt lat="45.61503646737096" lon="8.598214691812478"><ele>252.0</ele><time>2026-04-05T14:35:11.999Z</time></trkpt><trkpt lat="45.61505573304044" lon="8.598339966119168"><ele>251.0</ele><time>2026-04-05T14:35:14.999Z</time></trkpt><trkpt lat="45.61511897259993" lon="8.59847707608283"><ele>251.00000000000003</ele><time>2026-04-05T14:35:16.999Z</time></trkpt><trkpt lat="45.61513743437049" lon="8.598574449563916"><ele>251.0</ele><time>2026-04-05T14:35:18.999Z</time></trkpt><trkpt lat="45.6151253509789" lon="8.598486091613438"><ele>251.0</ele><time>2026-04-05T14:35:22Z</time></trkpt><trkpt lat="45.615088381375514" lon="8.598382604438761"><ele>251.0</ele><time>2026-04-05T14:35:25Z</time></trkpt><trkpt lat="45.61497959586458" lon="8.598468274014687"><ele>251.00000000000003</ele><time>2026-04-05T14:35:28Z</time></trkpt><trkpt lat="45.61489878507279" lon="8.598542067307168"><ele>251.0</ele><time>2026-04-05T14:35:29Z</time></trkpt><trkpt lat="45.61480940758967" lon="8.598589366322967"><ele>251.0</ele><time>2026-04-05T14:35:30Z</time></trkpt><trkpt lat="45.614706614768366" lon="8.59862758861057"><ele>251.00000000000003</ele><time>2026-04-05T14:35:31Z</time></trkpt><trkpt lat="45.61459055873666" lon="8.598660823379795"><ele>251.00000000000003</ele><time>2026-04-05T14:35:32Z</time></trkpt><trkpt lat="45.61448149997335" lon="8.598703530335994"><ele>251.0</ele><time>2026-04-05T14:35:33Z</time></trkpt><trkpt lat="45.61438340161066" lon="8.598711682128243"><ele>251.0</ele><time>2026-04-05T14:35:34Z</time></trkpt><trkpt lat="45.61428134920837" lon="8.59870436335786"><ele>251.25</ele><time>2026-04-05T14:35:35Z</time></trkpt><trkpt lat="45.61416786026341" lon="8.598702291630495"><ele>251.5</ele><time>2026-04-05T14:35:36Z</time></trkpt><trkpt lat="45.61404251534682" lon="8.598704540408965"><ele>251.75</ele><time>2026-04-05T14:35:37Z</time></trkpt><trkpt lat="45.613925209378124" lon="8.598724478857143"><ele>252.0</ele><time>2026-04-05T14:35:38Z</time></trkpt><trkpt lat="45.61382535762598" lon="8.598741230114042"><ele>252.0</ele><time>2026-04-05T14:35:39Z</time></trkpt><trkpt lat="45.61373473391628" lon="8.598769264364622"><ele>252.0</ele><time>2026-04-05T14:35:40Z</time></trkpt><trkpt lat="45.61364119343144" lon="8.59879657718765"><ele>252.0</ele><time>2026-04-05T14:35:41Z</time></trkpt><trkpt lat="45.61353155719839" lon="8.598829496729895"><ele>252.0</ele><time>2026-04-05T14:35:42Z</time></trkpt><trkpt lat="45.61341098421431" lon="8.59885822298041"><ele>252.0</ele><time>2026-04-05T14:35:43Z</time></trkpt><trkpt lat="45.61329664718378" lon="8.5988883512833"><ele>252.16666666666666</ele><time>2026-04-05T14:35:44Z</time></trkpt><trkpt lat="45.61320677608526" lon="8.598914088809941"><ele>252.33333333333331</ele><time>2026-04-05T14:35:45Z</time></trkpt><trkpt lat="45.61312639998258" lon="8.59892461938508"><ele>252.5</ele><time>2026-04-05T14:35:46Z</time></trkpt><trkpt lat="45.61305107093065" lon="8.59891640902466"><ele>252.66666666666666</ele><time>2026-04-05T14:35:47Z</time></trkpt><trkpt lat="45.61298630148642" lon="8.598914304490298"><ele>252.83333333333331</ele><time>2026-04-05T14:35:48Z</time></trkpt><trkpt lat="45.612904660456806" lon="8.598918150094711"><ele>253.0</ele><time>2026-04-05T14:35:49Z</time></trkpt><trkpt lat="45.612808679696315" lon="8.59890058953504"><ele>252.66666666666666</ele><time>2026-04-05T14:35:50Z</time></trkpt><trkpt lat="45.61270580803981" lon="8.59887230335661"><ele>252.33333333333331</ele><time>2026-04-05T14:35:51Z</time></trkpt><trkpt lat="45.612615020178445" lon="8.598846854317822"><ele>252.0</ele><time>2026-04-05T14:35:52Z</time></trkpt><trkpt lat="45.612522205689594" lon="8.598828531285521"><ele>251.66666666666669</ele><time>2026-04-05T14:35:53Z</time></trkpt><trkpt lat="45.61243940269131" lon="8.598832297935642"><ele>251.33333333333334</ele><time>2026-04-05T14:35:54Z</time></trkpt><trkpt lat="45.61237463807948" lon="8.598832523251618"><ele>251.0</ele><time>2026-04-05T14:35:55Z</time></trkpt><trkpt lat="45.61225256616823" lon="8.598797385535354"><ele>251.0</ele><time>2026-04-05T14:35:57Z</time></trkpt><trkpt lat="45.61223016522737" lon="8.598696995263234"><ele>251.00000000000003</ele><time>2026-04-05T14:36:00Z</time></trkpt><trkpt lat="45.61218651901495" lon="8.598560500021868"><ele>251.00000000000003</ele><time>2026-04-05T14:36:02Z</time></trkpt><trkpt lat="45.612073516941365" lon="8.598561423887785"><ele>251.0</ele><time>2026-04-05T14:36:04Z</time></trkpt><trkpt lat="45.61197777966697" lon="8.598631212351597"><ele>251.0</ele><time>2026-04-05T14:36:05Z</time></trkpt><trkpt lat="45.61188623390566" lon="8.598684384579292"><ele>251.20000000000002</ele><time>2026-04-05T14:36:06Z</time></trkpt><trkpt lat="45.611795685894265" lon="8.59870159908159"><ele>251.40000000000003</ele><time>2026-04-05T14:36:07Z</time></trkpt><trkpt lat="45.61168997895437" lon="8.59873303970624"><ele>251.6</ele><time>2026-04-05T14:36:09Z</time></trkpt><trkpt lat="45.61162035070399" lon="8.598812794385982"><ele>251.8</ele><time>2026-04-05T14:36:10Z</time></trkpt><trkpt lat="45.611550987407355" lon="8.598862558148918"><ele>252.0</ele><time>2026-04-05T14:36:11Z</time></trkpt><trkpt lat="45.61146493201153" lon="8.5988895409721"><ele>252.0</ele><time>2026-04-05T14:36:12Z</time></trkpt><trkpt lat="45.61138278474475" lon="8.598900882210353"><ele>252.0</ele><time>2026-04-05T14:36:13Z</time></trkpt><trkpt lat="45.61132124331671" lon="8.59894222069451"><ele>252.0</ele><time>2026-04-05T14:36:15Z</time></trkpt><trkpt lat="45.61124150702343" lon="8.598957330959617"><ele>252.0</ele><time>2026-04-05T14:36:17.999Z</time></trkpt><trkpt lat="45.61116993055868" lon="8.598967521449605"><ele>252.0</ele><time>2026-04-05T14:36:19.999Z</time></trkpt><trkpt lat="45.611107445454" lon="8.599004106831334"><ele>252.0</ele><time>2026-04-05T14:36:21.999Z</time></trkpt><trkpt lat="45.61104129380028" lon="8.599081087815645"><ele>251.8</ele><time>2026-04-05T14:36:24.999Z</time></trkpt><trkpt lat="45.61093779309218" lon="8.5990944287717"><ele>251.6</ele><time>2026-04-05T14:36:27.999Z</time></trkpt><trkpt lat="45.610845010386825" lon="8.59901162802881"><ele>251.40000000000003</ele><time>2026-04-05T14:36:29.999Z</time></trkpt><trkpt lat="45.61083697656442" lon="8.598868322354035"><ele>251.20000000000002</ele><time>2026-04-05T14:36:31.999Z</time></trkpt><trkpt lat="45.61089071324489" lon="8.598774585479184"><ele>251.0</ele><time>2026-04-05T14:36:33.999Z</time></trkpt><trkpt lat="45.61088967468466" lon="8.59859251640352"><ele>251.0</ele><time>2026-04-05T14:36:35.999Z</time></trkpt><trkpt lat="45.610866839131276" lon="8.59846586280352"><ele>251.00000000000003</ele><time>2026-04-05T14:36:38.999Z</time></trkpt><trkpt lat="45.61085264620333" lon="8.598314920673417"><ele>251.00000000000003</ele><time>2026-04-05T14:36:41.999Z</time></trkpt><trkpt lat="45.61083310602639" lon="8.598124999542456"><ele>251.0</ele><time>2026-04-05T14:36:44.999Z</time></trkpt><trkpt lat="45.610792982837246" lon="8.597999013323195"><ele>251.0</ele><time>2026-04-05T14:36:45.999Z</time></trkpt><trkpt lat="45.6107457785396" lon="8.597937631405625"><ele>251.0</ele><time>2026-04-05T14:36:46.999Z</time></trkpt><trkpt lat="45.61069830019912" lon="8.597858534985118"><ele>251.00000000000003</ele><time>2026-04-05T14:36:47.999Z</time></trkpt><trkpt lat="45.6106905453091" lon="8.5977263017439"><ele>251.00000000000003</ele><time>2026-04-05T14:36:48.999Z</time></trkpt><trkpt lat="45.61067936832104" lon="8.597529757106715"><ele>251.0</ele><time>2026-04-05T14:36:49.999Z</time></trkpt><trkpt lat="45.61064342472906" lon="8.597329068426449"><ele>251.0</ele><time>2026-04-05T14:36:50.999Z</time></trkpt><trkpt lat="45.61059130612284" lon="8.597129756444678"><ele>252.8</ele><time>2026-04-05T14:36:51.999Z</time></trkpt><trkpt lat="45.61055233384655" lon="8.596965796711757"><ele>254.60000000000002</ele><time>2026-04-05T14:36:52.999Z</time></trkpt><trkpt lat="45.610523954616696" lon="8.596835124050171"><ele>256.4</ele><time>2026-04-05T14:36:53.999Z</time></trkpt><trkpt lat="45.610504208312136" lon="8.596709270797172"><ele>258.2</ele><time>2026-04-05T14:36:54.999Z</time></trkpt><trkpt lat="45.61047466031796" lon="8.596576605788243"><ele>260.0</ele><time>2026-04-05T14:36:55.999Z</time></trkpt><trkpt lat="45.6104385939057" lon="8.596433439697133"><ele>260.0</ele><time>2026-04-05T14:36:56.999Z</time></trkpt><trkpt lat="45.61040361942311" lon="8.596285297803044"><ele>260.0</ele><time>2026-04-05T14:36:57.999Z</time></trkpt><trkpt lat="45.61037088022027" lon="8.596137217174475"><ele>260.0</ele><time>2026-04-05T14:36:58.999Z</time></trkpt><trkpt lat="45.61034438689373" lon="8.595992994697088"><ele>260.0</ele><time>2026-04-05T14:36:59.999Z</time></trkpt><trkpt lat="45.61032318999039" lon="8.595867447082956"><ele>260.0</ele><time>2026-04-05T14:37:00.999Z</time></trkpt><trkpt lat="45.61030617626482" lon="8.595778902776937"><ele>261.0</ele><time>2026-04-05T14:37:01.999Z</time></trkpt><trkpt lat="45.61026243598085" lon="8.595694007132328"><ele>262.0</ele><time>2026-04-05T14:37:03.999Z</time></trkpt><trkpt lat="45.610141373675816" lon="8.595724438855775"><ele>263.0</ele><time>2026-04-05T14:37:05.999Z</time></trkpt><trkpt lat="45.61002257227316" lon="8.595771724147616"><ele>264.0</ele><time>2026-04-05T14:37:06.999Z</time></trkpt><trkpt lat="45.60988715147252" lon="8.5958149429141"><ele>264.0</ele><time>2026-04-05T14:37:07.999Z</time></trkpt><trkpt lat="45.609730836332965" lon="8.5958650011369"><ele>264.0</ele><time>2026-04-05T14:37:08.999Z</time></trkpt><trkpt lat="45.60955564600114" lon="8.595919164762787"><ele>264.0</ele><time>2026-04-05T14:37:09.999Z</time></trkpt><trkpt lat="45.609408449993595" lon="8.595969628388795"><ele>262.5</ele><time>2026-04-05T14:37:10.999Z</time></trkpt><trkpt lat="45.609273431534" lon="8.596013890184532"><ele>261.0</ele><time>2026-04-05T14:37:11.999Z</time></trkpt><trkpt lat="45.60913567234614" lon="8.596060897013356"><ele>259.5</ele><time>2026-04-05T14:37:12.999Z</time></trkpt><trkpt lat="45.60900720397554" lon="8.596102062989631"><ele>258.0</ele><time>2026-04-05T14:37:13.999Z</time></trkpt><trkpt lat="45.608875006337925" lon="8.596151884048272"><ele>256.75</ele><time>2026-04-05T14:37:14.999Z</time></trkpt><trkpt lat="45.608740823033614" lon="8.59618909674755"><ele>255.5</ele><time>2026-04-05T14:37:15.999Z</time></trkpt><trkpt lat="45.608607059519244" lon="8.596232207001908"><ele>254.25</ele><time>2026-04-05T14:37:16.999Z</time></trkpt><trkpt lat="45.60847457443683" lon="8.596278558715474"><ele>253.0</ele><time>2026-04-05T14:37:17.999Z</time></trkpt><trkpt lat="45.608346777096955" lon="8.5963181001653"><ele>251.0</ele><time>2026-04-05T14:37:18.999Z</time></trkpt><trkpt lat="45.60821911717" lon="8.596359912043752"><ele>249.0</ele><time>2026-04-05T14:37:19.999Z</time></trkpt><trkpt lat="45.608092195770446" lon="8.596407159923265"><ele>247.0</ele><time>2026-04-05T14:37:20.999Z</time></trkpt><trkpt lat="45.6079556524639" lon="8.596455304480958"><ele>245.0</ele><time>2026-04-05T14:37:21.999Z</time></trkpt><trkpt lat="45.607821296928776" lon="8.596504665485293"><ele>243.4</ele><time>2026-04-05T14:37:22.999Z</time></trkpt><trkpt lat="45.60770518089166" lon="8.596552712688792"><ele>241.8</ele><time>2026-04-05T14:37:23.999Z</time></trkpt><trkpt lat="45.60759943042818" lon="8.596570065309871"><ele>240.2</ele><time>2026-04-05T14:37:24.999Z</time></trkpt><trkpt lat="45.607524468834505" lon="8.59662478833226"><ele>238.6</ele><time>2026-04-05T14:37:26Z</time></trkpt><trkpt lat="45.60745497502389" lon="8.596648302473605"><ele>237.0</ele><time>2026-04-05T14:37:27Z</time></trkpt><trkpt lat="45.60736300167113" lon="8.596658323571246"><ele>237.0</ele><time>2026-04-05T14:37:29Z</time></trkpt><trkpt lat="45.607274085843954" lon="8.596643962208153"><ele>237.0</ele><time>2026-04-05T14:37:31Z</time></trkpt><trkpt lat="45.60721252242587" lon="8.596711112468997"><ele>237.0</ele><time>2026-04-05T14:37:33Z</time></trkpt><trkpt lat="45.607179645016906" lon="8.596850788860015"><ele>237.0</ele><time>2026-04-05T14:37:35Z</time></trkpt><trkpt lat="45.607172879342095" lon="8.596969722969067"><ele>237.0</ele><time>2026-04-05T14:37:36Z</time></trkpt><trkpt lat="45.60718339194023" lon="8.597110041866317"><ele>237.2</ele><time>2026-04-05T14:37:37Z</time></trkpt><trkpt lat="45.607194702373775" lon="8.597254322957665"><ele>237.39999999999998</ele><time>2026-04-05T14:37:38Z</time></trkpt><trkpt lat="45.60719859444244" lon="8.597404811431918"><ele>237.60000000000002</ele><time>2026-04-05T14:37:39Z</time></trkpt><trkpt lat="45.607187751370915" lon="8.597564361133514"><ele>237.8</ele><time>2026-04-05T14:37:40Z</time></trkpt><trkpt lat="45.607171179414905" lon="8.59773630877027"><ele>238.0</ele><time>2026-04-05T14:37:41Z</time></trkpt><trkpt lat="45.60714009843832" lon="8.597917018721104"><ele>238.25</ele><time>2026-04-05T14:37:42Z</time></trkpt><trkpt lat="45.60707750050689" lon="8.598090954444022"><ele>238.5</ele><time>2026-04-05T14:37:43Z</time></trkpt><trkpt lat="45.60701771815288" lon="8.598267751912159"><ele>238.75</ele><time>2026-04-05T14:37:44Z</time></trkpt><trkpt lat="45.60696464214428" lon="8.59846760728395"><ele>239.0</ele><time>2026-04-05T14:37:45Z</time></trkpt><trkpt lat="45.60689622045005" lon="8.59869829873607"><ele>238.0</ele><time>2026-04-05T14:37:46Z</time></trkpt><trkpt lat="45.60683768688263" lon="8.598951802492373"><ele>237.0</ele><time>2026-04-05T14:37:47Z</time></trkpt><trkpt lat="45.60678808009292" lon="8.599166884023001"><ele>236.0</ele><time>2026-04-05T14:37:48Z</time></trkpt><trkpt lat="45.60674219394154" lon="8.599371567679547"><ele>235.66666666666669</ele><time>2026-04-05T14:37:49Z</time></trkpt><trkpt lat="45.606695219865685" lon="8.599591675971116"><ele>235.33333333333331</ele><time>2026-04-05T14:37:50Z</time></trkpt><trkpt lat="45.606635732139814" lon="8.599789417692255"><ele>235.0</ele><time>2026-04-05T14:37:51Z</time></trkpt><trkpt lat="45.60658370334919" lon="8.600010210146712"><ele>235.0</ele><time>2026-04-05T14:37:52Z</time></trkpt><trkpt lat="45.606527705512896" lon="8.600248765897051"><ele>235.0</ele><time>2026-04-05T14:37:53Z</time></trkpt><trkpt lat="45.60648171412324" lon="8.600450672620607"><ele>235.0</ele><time>2026-04-05T14:37:54Z</time></trkpt><trkpt lat="45.60644502867401" lon="8.600682320110991"><ele>234.66666666666666</ele><time>2026-04-05T14:37:55Z</time></trkpt><trkpt lat="45.606389111864964" lon="8.600908884878104"><ele>234.33333333333331</ele><time>2026-04-05T14:37:56Z</time></trkpt><trkpt lat="45.60633735016326" lon="8.60114545628543"><ele>234.0</ele><time>2026-04-05T14:37:57Z</time></trkpt><trkpt lat="45.60627738553414" lon="8.601386981893118"><ele>234.0</ele><time>2026-04-05T14:37:58Z</time></trkpt><trkpt lat="45.6062220072112" lon="8.60163256338052"><ele>234.0</ele><time>2026-04-05T14:37:59Z</time></trkpt><trkpt lat="45.60616392559689" lon="8.601885063108975"><ele>234.0</ele><time>2026-04-05T14:38:00Z</time></trkpt><trkpt lat="45.60609819042225" lon="8.60212602922587"><ele>233.33333333333331</ele><time>2026-04-05T14:38:01Z</time></trkpt><trkpt lat="45.60604823163571" lon="8.602364748284188"><ele>232.66666666666666</ele><time>2026-04-05T14:38:02Z</time></trkpt><trkpt lat="45.60597938580065" lon="8.602586486062341"><ele>232.0</ele><time>2026-04-05T14:38:03Z</time></trkpt><trkpt lat="45.60592411431266" lon="8.602817778581485"><ele>232.33333333333331</ele><time>2026-04-05T14:38:04Z</time></trkpt><trkpt lat="45.60586446875648" lon="8.603069500943764"><ele>232.66666666666669</ele><time>2026-04-05T14:38:05Z</time></trkpt><trkpt lat="45.605806474320076" lon="8.60331225472186"><ele>233.0</ele><time>2026-04-05T14:38:06Z</time></trkpt><trkpt lat="45.60574930285262" lon="8.603551176792655"><ele>232.0</ele><time>2026-04-05T14:38:07Z</time></trkpt><trkpt lat="45.605694378506186" lon="8.60378161184353"><ele>231.0</ele><time>2026-04-05T14:38:08Z</time></trkpt><trkpt lat="45.605653274294255" lon="8.604022518845923"><ele>230.0</ele><time>2026-04-05T14:38:09Z</time></trkpt><trkpt lat="45.60558142001061" lon="8.604254165615933"><ele>230.0</ele><time>2026-04-05T14:38:10Z</time></trkpt><trkpt lat="45.605538221201726" lon="8.604493833240005"><ele>230.0</ele><time>2026-04-05T14:38:11Z</time></trkpt><trkpt lat="45.60548230341268" lon="8.60472530181296"><ele>230.0</ele><time>2026-04-05T14:38:12Z</time></trkpt><trkpt lat="45.60542133274857" lon="8.604967093022195"><ele>229.66666666666669</ele><time>2026-04-05T14:38:13Z</time></trkpt><trkpt lat="45.60535979084041" lon="8.605216360303713"><ele>229.33333333333331</ele><time>2026-04-05T14:38:14Z</time></trkpt><trkpt lat="45.60529451353173" lon="8.605487129901995"><ele>229.0</ele><time>2026-04-05T14:38:15Z</time></trkpt><trkpt lat="45.605235433557496" lon="8.605746944271592"><ele>229.66666666666666</ele><time>2026-04-05T14:38:16Z</time></trkpt><trkpt lat="45.605181366684015" lon="8.605995676564591"><ele>230.33333333333331</ele><time>2026-04-05T14:38:17Z</time></trkpt><trkpt lat="45.60511869443338" lon="8.606250032399576"><ele>231.0</ele><time>2026-04-05T14:38:18Z</time></trkpt><trkpt lat="45.60504862766201" lon="8.606519889583659"><ele>231.33333333333331</ele><time>2026-04-05T14:38:19Z</time></trkpt><trkpt lat="45.60499076093962" lon="8.606777351869857"><ele>231.66666666666666</ele><time>2026-04-05T14:38:20Z</time></trkpt><trkpt lat="45.604939253482684" lon="8.607030930356796"><ele>232.0</ele><time>2026-04-05T14:38:21Z</time></trkpt><trkpt lat="45.60486397766892" lon="8.607273667495352"><ele>232.0</ele><time>2026-04-05T14:38:22Z</time></trkpt><trkpt lat="45.60481929424411" lon="8.607526145307194"><ele>232.0</ele><time>2026-04-05T14:38:23Z</time></trkpt><trkpt lat="45.60476077697935" lon="8.607765973641875"><ele>232.0</ele><time>2026-04-05T14:38:24Z</time></trkpt><trkpt lat="45.604705824590724" lon="8.607997526083828"><ele>233.0</ele><time>2026-04-05T14:38:25Z</time></trkpt><trkpt lat="45.60465039982895" lon="8.608221940887027"><ele>234.0</ele><time>2026-04-05T14:38:26Z</time></trkpt><trkpt lat="45.604595400098304" lon="8.608445945607707"><ele>235.0</ele><time>2026-04-05T14:38:27Z</time></trkpt><trkpt lat="45.6045449898921" lon="8.608664565454374"><ele>235.66666666666666</ele><time>2026-04-05T14:38:28Z</time></trkpt><trkpt lat="45.60449368048038" lon="8.60888556590496"><ele>236.33333333333331</ele><time>2026-04-05T14:38:29Z</time></trkpt><trkpt lat="45.60444074631988" lon="8.609107175678568"><ele>237.0</ele><time>2026-04-05T14:38:30Z</time></trkpt><trkpt lat="45.60438931431635" lon="8.609324628357909"><ele>236.66666666666669</ele><time>2026-04-05T14:38:31Z</time></trkpt><trkpt lat="45.604332524274405" lon="8.609545795169561"><ele>236.33333333333334</ele><time>2026-04-05T14:38:32Z</time></trkpt><trkpt lat="45.60428108222956" lon="8.609770643266797"><ele>236.0</ele><time>2026-04-05T14:38:33Z</time></trkpt><trkpt lat="45.604227456482896" lon="8.609997030415778"><ele>236.0</ele><time>2026-04-05T14:38:33.999Z</time></trkpt><trkpt lat="45.60417273382691" lon="8.61022811624379"><ele>236.0</ele><time>2026-04-05T14:38:34.999Z</time></trkpt><trkpt lat="45.60411684951987" lon="8.610461403165615"><ele>236.0</ele><time>2026-04-05T14:38:35.999Z</time></trkpt><trkpt lat="45.604060828526144" lon="8.610697948306266"><ele>236.33333333333334</ele><time>2026-04-05T14:38:36.999Z</time></trkpt><trkpt lat="45.6039982754233" lon="8.610939863453119"><ele>236.66666666666669</ele><time>2026-04-05T14:38:37.999Z</time></trkpt><trkpt lat="45.6039447605462" lon="8.611188064387902"><ele>237.0</ele><time>2026-04-05T14:38:38.999Z</time></trkpt><trkpt lat="45.60388859827123" lon="8.61143851132781"><ele>237.0</ele><time>2026-04-05T14:38:39.999Z</time></trkpt><trkpt lat="45.60382787894572" lon="8.611676548942787"><ele>237.0</ele><time>2026-04-05T14:38:40.999Z</time></trkpt><trkpt lat="45.60378085624877" lon="8.61188707873841"><ele>237.0</ele><time>2026-04-05T14:38:41.999Z</time></trkpt><trkpt lat="45.60372202564976" lon="8.6120850092089"><ele>236.75</ele><time>2026-04-05T14:38:42.999Z</time></trkpt><trkpt lat="45.603662268419995" lon="8.612272192417535"><ele>236.5</ele><time>2026-04-05T14:38:43.999Z</time></trkpt><trkpt lat="45.603635344095984" lon="8.612484340960215"><ele>236.25</ele><time>2026-04-05T14:38:44.999Z</time></trkpt><trkpt lat="45.60360061646283" lon="8.612660058801765"><ele>236.0</ele><time>2026-04-05T14:38:45.999Z</time></trkpt><trkpt lat="45.60356687280811" lon="8.612825345490732"><ele>236.0</ele><time>2026-04-05T14:38:46.999Z</time></trkpt><trkpt lat="45.60354330565311" lon="8.612983890572378"><ele>236.0</ele><time>2026-04-05T14:38:47.999Z</time></trkpt><trkpt lat="45.60353042735728" lon="8.613150895055574"><ele>236.0</ele><time>2026-04-05T14:38:48.999Z</time></trkpt><trkpt lat="45.6035188927438" lon="8.613321546241792"><ele>236.0</ele><time>2026-04-05T14:38:49.999Z</time></trkpt><trkpt lat="45.603516130895805" lon="8.613498167982836"><ele>235.75</ele><time>2026-04-05T14:38:50.999Z</time></trkpt><trkpt lat="45.60351928870709" lon="8.613681068946837"><ele>235.5</ele><time>2026-04-05T14:38:51.999Z</time></trkpt><trkpt lat="45.60352586745385" lon="8.613870840162935"><ele>235.25</ele><time>2026-04-05T14:38:52.999Z</time></trkpt><trkpt lat="45.603530906409674" lon="8.614067567624451"><ele>235.0</ele><time>2026-04-05T14:38:53.999Z</time></trkpt><trkpt lat="45.60353442640243" lon="8.614261233915405"><ele>235.0</ele><time>2026-04-05T14:38:54.999Z</time></trkpt><trkpt lat="45.60352246479116" lon="8.61443226950665"><ele>235.0</ele><time>2026-04-05T14:38:55.999Z</time></trkpt><trkpt lat="45.603504457342396" lon="8.614589877091285"><ele>235.0</ele><time>2026-04-05T14:38:56.999Z</time></trkpt><trkpt lat="45.603466398922926" lon="8.614741008650439"><ele>235.0</ele><time>2026-04-05T14:38:57.999Z</time></trkpt><trkpt lat="45.60340772109356" lon="8.614884539306852"><ele>235.0</ele><time>2026-04-05T14:38:58.999Z</time></trkpt><trkpt lat="45.60336110835188" lon="8.615049682677814"><ele>235.0</ele><time>2026-04-05T14:38:59.999Z</time></trkpt><trkpt lat="45.60330716491213" lon="8.615192453729208"><ele>235.0</ele><time>2026-04-05T14:39:00.999Z</time></trkpt><trkpt lat="45.60328066997561" lon="8.615356322554687"><ele>235.0</ele><time>2026-04-05T14:39:01.999Z</time></trkpt><trkpt lat="45.603277173512666" lon="8.615533948554786"><ele>234.75</ele><time>2026-04-05T14:39:02.999Z</time></trkpt><trkpt lat="45.603285393741395" lon="8.61571786406475"><ele>234.5</ele><time>2026-04-05T14:39:03.999Z</time></trkpt><trkpt lat="45.60329226540562" lon="8.615889065810256"><ele>234.25</ele><time>2026-04-05T14:39:04.999Z</time></trkpt><trkpt lat="45.60329508151189" lon="8.616053594076416"><ele>234.0</ele><time>2026-04-05T14:39:05.999Z</time></trkpt><trkpt lat="45.603250673473376" lon="8.616188994278684"><ele>233.6</ele><time>2026-04-05T14:39:06.999Z</time></trkpt><trkpt lat="45.60321444066144" lon="8.61632544583522"><ele>233.2</ele><time>2026-04-05T14:39:07.999Z</time></trkpt><trkpt lat="45.60311465057607" lon="8.61640671355915"><ele>232.79999999999998</ele><time>2026-04-05T14:39:08.999Z</time></trkpt><trkpt lat="45.60301751756077" lon="8.6164892599777"><ele>232.39999999999998</ele><time>2026-04-05T14:39:09.999Z</time></trkpt><trkpt lat="45.60292237740126" lon="8.616585878716899"><ele>232.0</ele><time>2026-04-05T14:39:10.999Z</time></trkpt><trkpt lat="45.60281838552903" lon="8.616683893529517"><ele>232.0</ele><time>2026-04-05T14:39:11.999Z</time></trkpt><trkpt lat="45.60272266134761" lon="8.616799992677368"><ele>232.0</ele><time>2026-04-05T14:39:12.999Z</time></trkpt><trkpt lat="45.60263548319986" lon="8.616934955695372"><ele>232.0</ele><time>2026-04-05T14:39:13.999Z</time></trkpt><trkpt lat="45.602568610617666" lon="8.617099479777002"><ele>232.0</ele><time>2026-04-05T14:39:14.999Z</time></trkpt><trkpt lat="45.60250301700795" lon="8.617264418158241"><ele>231.5</ele><time>2026-04-05T14:39:15.999Z</time></trkpt><trkpt lat="45.60243381570254" lon="8.617414148808786"><ele>231.0</ele><time>2026-04-05T14:39:16.999Z</time></trkpt><trkpt lat="45.602358317599844" lon="8.61755531166837"><ele>230.5</ele><time>2026-04-05T14:39:17.999Z</time></trkpt><trkpt lat="45.60228149231528" lon="8.617701418314336"><ele>230.0</ele><time>2026-04-05T14:39:18.999Z</time></trkpt><trkpt lat="45.60220167317557" lon="8.617841412311348"><ele>229.75</ele><time>2026-04-05T14:39:19.999Z</time></trkpt><trkpt lat="45.60211627530292" lon="8.617978306106728"><ele>229.5</ele><time>2026-04-05T14:39:20.999Z</time></trkpt><trkpt lat="45.602031383355424" lon="8.618119670673842"><ele>229.25</ele><time>2026-04-05T14:39:21.999Z</time></trkpt><trkpt lat="45.60194697494414" lon="8.618262247395956"><ele>229.0</ele><time>2026-04-05T14:39:22.999Z</time></trkpt><trkpt lat="45.60186972067771" lon="8.618406303556034"><ele>229.0</ele><time>2026-04-05T14:39:23.999Z</time></trkpt><trkpt lat="45.60181074001479" lon="8.618567029270475"><ele>229.0</ele><time>2026-04-05T14:39:24.999Z</time></trkpt><trkpt lat="45.60177305799766" lon="8.618741193038398"><ele>229.0</ele><time>2026-04-05T14:39:25.999Z</time></trkpt><trkpt lat="45.60175193574548" lon="8.618920393011045"><ele>229.0</ele><time>2026-04-05T14:39:26.999Z</time></trkpt><trkpt lat="45.60175912895127" lon="8.619099711339784"><ele>229.25</ele><time>2026-04-05T14:39:27.999Z</time></trkpt><trkpt lat="45.60178455069792" lon="8.619275660109952"><ele>229.5</ele><time>2026-04-05T14:39:28.999Z</time></trkpt><trkpt lat="45.60182734419075" lon="8.619446254212123"><ele>229.75</ele><time>2026-04-05T14:39:29.999Z</time></trkpt><trkpt lat="45.60187417017878" lon="8.619616109449803"><ele>230.0</ele><time>2026-04-05T14:39:30.999Z</time></trkpt><trkpt lat="45.60191755767567" lon="8.619790292047105"><ele>230.0</ele><time>2026-04-05T14:39:32Z</time></trkpt><trkpt lat="45.601960154076345" lon="8.61996951338899"><ele>230.0</ele><time>2026-04-05T14:39:33Z</time></trkpt><trkpt lat="45.60200187547996" lon="8.620149364857376"><ele>230.0</ele><time>2026-04-05T14:39:34Z</time></trkpt><trkpt lat="45.60204302432671" lon="8.620336786142015"><ele>230.0</ele><time>2026-04-05T14:39:35Z</time></trkpt><trkpt lat="45.60208445278382" lon="8.620526502762639"><ele>230.0</ele><time>2026-04-05T14:39:36Z</time></trkpt><trkpt lat="45.60212827053635" lon="8.620708935183261"><ele>230.0</ele><time>2026-04-05T14:39:37Z</time></trkpt><trkpt lat="45.60217427190951" lon="8.620895103789609"><ele>230.0</ele><time>2026-04-05T14:39:38Z</time></trkpt><trkpt lat="45.60222224693718" lon="8.62108887244129"><ele>230.0</ele><time>2026-04-05T14:39:39Z</time></trkpt><trkpt lat="45.60226539938684" lon="8.62128202915214"><ele>230.0</ele><time>2026-04-05T14:39:40Z</time></trkpt><trkpt lat="45.602309773227574" lon="8.621472040589822"><ele>230.0</ele><time>2026-04-05T14:39:41Z</time></trkpt><trkpt lat="45.60234974725026" lon="8.621659214121614"><ele>230.0</ele><time>2026-04-05T14:39:42Z</time></trkpt><trkpt lat="45.602390381296665" lon="8.621831442721419"><ele>230.0</ele><time>2026-04-05T14:39:43Z</time></trkpt><trkpt lat="45.602429114098676" lon="8.621989304679843"><ele>230.25</ele><time>2026-04-05T14:39:44Z</time></trkpt><trkpt lat="45.60246735023725" lon="8.622138409718032"><ele>230.5</ele><time>2026-04-05T14:39:45Z</time></trkpt><trkpt lat="45.602503068921536" lon="8.62229298029241"><ele>230.75</ele><time>2026-04-05T14:39:46Z</time></trkpt><trkpt lat="45.602535905626105" lon="8.622447973568194"><ele>231.0</ele><time>2026-04-05T14:39:47Z</time></trkpt><trkpt lat="45.60256658378529" lon="8.62260488039718"><ele>231.0</ele><time>2026-04-05T14:39:48Z</time></trkpt><trkpt lat="45.60259830578211" lon="8.622743594658274"><ele>231.0</ele><time>2026-04-05T14:39:49Z</time></trkpt><trkpt lat="45.60263154662656" lon="8.622871310370652"><ele>231.0</ele><time>2026-04-05T14:39:50Z</time></trkpt><trkpt lat="45.60265950810267" lon="8.622985889585326"><ele>231.0</ele><time>2026-04-05T14:39:51Z</time></trkpt><trkpt lat="45.60268248336057" lon="8.623094472762318"><ele>231.0</ele><time>2026-04-05T14:39:52Z</time></trkpt><trkpt lat="45.602701160378686" lon="8.623189785936171"><ele>231.0</ele><time>2026-04-05T14:39:53Z</time></trkpt><trkpt lat="45.60272517929138" lon="8.623311333545866"><ele>231.20000000000002</ele><time>2026-04-05T14:39:55Z</time></trkpt><trkpt lat="45.60275385406204" lon="8.623421284504511"><ele>231.40000000000003</ele><time>2026-04-05T14:39:57Z</time></trkpt><trkpt lat="45.60280564630109" lon="8.623581593680056"><ele>231.6</ele><time>2026-04-05T14:39:59Z</time></trkpt><trkpt lat="45.60283137569928" lon="8.623688444546854"><ele>231.8</ele><time>2026-04-05T14:40:00Z</time></trkpt><trkpt lat="45.60285497987166" lon="8.623814791291526"><ele>232.0</ele><time>2026-04-05T14:40:01Z</time></trkpt><trkpt lat="45.602882541530704" lon="8.623951081577204"><ele>232.0</ele><time>2026-04-05T14:40:02Z</time></trkpt><trkpt lat="45.602908434161186" lon="8.624082556106606"><ele>232.0</ele><time>2026-04-05T14:40:03Z</time></trkpt><trkpt lat="45.60294014724205" lon="8.624225251304537"><ele>232.0</ele><time>2026-04-05T14:40:04Z</time></trkpt><trkpt lat="45.60297195160526" lon="8.624366462035463"><ele>232.0</ele><time>2026-04-05T14:40:05Z</time></trkpt><trkpt lat="45.60300253793541" lon="8.624503717439099"><ele>232.0</ele><time>2026-04-05T14:40:06Z</time></trkpt><trkpt lat="45.60303280646477" lon="8.624642914127811"><ele>232.0</ele><time>2026-04-05T14:40:07Z</time></trkpt><trkpt lat="45.603061424901874" lon="8.624775580047965"><ele>232.0</ele><time>2026-04-05T14:40:08Z</time></trkpt><trkpt lat="45.60309348747324" lon="8.624915089723594"><ele>232.0</ele><time>2026-04-05T14:40:09Z</time></trkpt><trkpt lat="45.603125167665695" lon="8.625060150880335"><ele>232.0</ele><time>2026-04-05T14:40:10Z</time></trkpt><trkpt lat="45.60315942431467" lon="8.625203223428885"><ele>232.0</ele><time>2026-04-05T14:40:11Z</time></trkpt><trkpt lat="45.60320023470458" lon="8.62535092298488"><ele>232.0</ele><time>2026-04-05T14:40:12Z</time></trkpt><trkpt lat="45.60324088886128" lon="8.625502477636118"><ele>232.0</ele><time>2026-04-05T14:40:13Z</time></trkpt><trkpt lat="45.60327429449525" lon="8.62564976666838"><ele>232.0</ele><time>2026-04-05T14:40:14Z</time></trkpt><trkpt lat="45.60330748200498" lon="8.62578758856407"><ele>232.0</ele><time>2026-04-05T14:40:15Z</time></trkpt><trkpt lat="45.60334088428103" lon="8.6259109542973"><ele>232.0</ele><time>2026-04-05T14:40:16Z</time></trkpt><trkpt lat="45.603372711852" lon="8.626019570781537"><ele>232.00000000000003</ele><time>2026-04-05T14:40:17Z</time></trkpt><trkpt lat="45.60340293931604" lon="8.626128307122098"><ele>232.0</ele><time>2026-04-05T14:40:18Z</time></trkpt><trkpt lat="45.60342861344254" lon="8.626230796206857"><ele>232.00000000000003</ele><time>2026-04-05T14:40:19Z</time></trkpt><trkpt lat="45.603451454191976" lon="8.626320862340016"><ele>232.00000000000003</ele><time>2026-04-05T14:40:20Z</time></trkpt><trkpt lat="45.60347331494092" lon="8.626406560139682"><ele>232.0</ele><time>2026-04-05T14:40:21Z</time></trkpt><trkpt lat="45.60349678582424" lon="8.626490792304125"><ele>232.00000000000003</ele><time>2026-04-05T14:40:22Z</time></trkpt><trkpt lat="45.60351838184752" lon="8.626584535147234"><ele>232.00000000000003</ele><time>2026-04-05T14:40:23Z</time></trkpt><trkpt lat="45.60354296362528" lon="8.62668571339744"><ele>232.0</ele><time>2026-04-05T14:40:24Z</time></trkpt><trkpt lat="45.603566615150314" lon="8.626794939757795"><ele>232.0</ele><time>2026-04-05T14:40:25Z</time></trkpt><trkpt lat="45.60360585811998" lon="8.626913257438565"><ele>232.0</ele><time>2026-04-05T14:40:26Z</time></trkpt><trkpt lat="45.60364616749396" lon="8.627019809417998"><ele>232.0</ele><time>2026-04-05T14:40:27Z</time></trkpt><trkpt lat="45.60369075414027" lon="8.627139840832685"><ele>232.0</ele><time>2026-04-05T14:40:28Z</time></trkpt><trkpt lat="45.60374017382018" lon="8.627262898004195"><ele>232.8</ele><time>2026-04-05T14:40:29Z</time></trkpt><trkpt lat="45.603788621040394" lon="8.627390785252812"><ele>233.6</ele><time>2026-04-05T14:40:30Z</time></trkpt><trkpt lat="45.603832926796635" lon="8.627528153745079"><ele>234.40000000000003</ele><time>2026-04-05T14:40:31Z</time></trkpt><trkpt lat="45.60386200151136" lon="8.627679020449365"><ele>235.20000000000002</ele><time>2026-04-05T14:40:32Z</time></trkpt><trkpt lat="45.60387317502465" lon="8.627831489635728"><ele>236.0</ele><time>2026-04-05T14:40:33Z</time></trkpt><trkpt lat="45.603881135890425" lon="8.627980184363722"><ele>236.0</ele><time>2026-04-05T14:40:34Z</time></trkpt><trkpt lat="45.60388699774194" lon="8.628137536551131"><ele>236.00000000000003</ele><time>2026-04-05T14:40:35Z</time></trkpt><trkpt lat="45.603885599481764" lon="8.628287676446424"><ele>236.00000000000003</ele><time>2026-04-05T14:40:36Z</time></trkpt><trkpt lat="45.603875827170214" lon="8.628439993792993"><ele>236.0</ele><time>2026-04-05T14:40:36.999Z</time></trkpt><trkpt lat="45.60385814863779" lon="8.62859578261571"><ele>236.0</ele><time>2026-04-05T14:40:37.999Z</time></trkpt><trkpt lat="45.603836809797734" lon="8.628750071361326"><ele>236.0</ele><time>2026-04-05T14:40:38.999Z</time></trkpt><trkpt lat="45.60380694733304" lon="8.62890198144891"><ele>236.00000000000003</ele><time>2026-04-05T14:40:39.999Z</time></trkpt><trkpt lat="45.60377425884654" lon="8.629054822085452"><ele>236.00000000000003</ele><time>2026-04-05T14:40:40.999Z</time></trkpt><trkpt lat="45.60374820949288" lon="8.629206298088546"><ele>236.0</ele><time>2026-04-05T14:40:41.999Z</time></trkpt><trkpt lat="45.60371725527641" lon="8.629358104326005"><ele>236.0</ele><time>2026-04-05T14:40:42.999Z</time></trkpt><trkpt lat="45.60368163086329" lon="8.62950261419418"><ele>236.20000000000002</ele><time>2026-04-05T14:40:43.999Z</time></trkpt><trkpt lat="45.60365428261061" lon="8.62965150975641"><ele>236.40000000000003</ele><time>2026-04-05T14:40:44.999Z</time></trkpt><trkpt lat="45.603629773347244" lon="8.629790074176992"><ele>236.6</ele><time>2026-04-05T14:40:45.999Z</time></trkpt><trkpt lat="45.603608936037055" lon="8.629927105700174"><ele>236.8</ele><time>2026-04-05T14:40:46.999Z</time></trkpt><trkpt lat="45.6035882729739" lon="8.630062688491424"><ele>237.0</ele><time>2026-04-05T14:40:47.999Z</time></trkpt><trkpt lat="45.60356471229501" lon="8.630186005203736"><ele>237.0</ele><time>2026-04-05T14:40:48.999Z</time></trkpt><trkpt lat="45.6035072982436" lon="8.630270930612895"><ele>237.0</ele><time>2026-04-05T14:40:49.999Z</time></trkpt><trkpt lat="45.60344996143259" lon="8.630351464751284"><ele>237.0</ele><time>2026-04-05T14:40:50.999Z</time></trkpt><trkpt lat="45.603396227118424" lon="8.630459616966828"><ele>237.0</ele><time>2026-04-05T14:40:51.999Z</time></trkpt><trkpt lat="45.60333476574551" lon="8.630547862501512"><ele>237.0</ele><time>2026-04-05T14:40:52.999Z</time></trkpt><trkpt lat="45.60329517219995" lon="8.630652214604844"><ele>237.0</ele><time>2026-04-05T14:40:53.999Z</time></trkpt><trkpt lat="45.60328448958194" lon="8.630775110769855"><ele>237.33333333333334</ele><time>2026-04-05T14:40:54.999Z</time></trkpt><trkpt lat="45.60328370176695" lon="8.63089623055263"><ele>237.66666666666669</ele><time>2026-04-05T14:40:55.999Z</time></trkpt><trkpt lat="45.60327918993734" lon="8.631016487441153"><ele>238.0</ele><time>2026-04-05T14:40:56.999Z</time></trkpt><trkpt lat="45.603269444761004" lon="8.631139517046586"><ele>238.33333333333334</ele><time>2026-04-05T14:40:57.999Z</time></trkpt><trkpt lat="45.603261261893515" lon="8.631265382440315"><ele>238.66666666666669</ele><time>2026-04-05T14:40:58.999Z</time></trkpt><trkpt lat="45.603256426315994" lon="8.631402007130294"><ele>239.0</ele><time>2026-04-05T14:40:59.999Z</time></trkpt><trkpt lat="45.60325236240415" lon="8.631522637571578"><ele>239.00000000000003</ele><time>2026-04-05T14:41:00.999Z</time></trkpt><trkpt lat="45.603246934903275" lon="8.631630745554622"><ele>239.0</ele><time>2026-04-05T14:41:01.999Z</time></trkpt><trkpt lat="45.603241802764096" lon="8.631728116797953"><ele>239.00000000000003</ele><time>2026-04-05T14:41:02.999Z</time></trkpt><trkpt lat="45.60323665983355" lon="8.63181995786701"><ele>239.00000000000003</ele><time>2026-04-05T14:41:03.999Z</time></trkpt><trkpt lat="45.60322546414162" lon="8.631965047898536"><ele>239.0</ele><time>2026-04-05T14:41:05.999Z</time></trkpt><trkpt lat="45.60318631735759" lon="8.632044933831631"><ele>239.00000000000003</ele><time>2026-04-05T14:41:09.999Z</time></trkpt><trkpt lat="45.60311764128249" lon="8.632038469373477"><ele>239.00000000000003</ele><time>2026-04-05T14:41:11.999Z</time></trkpt><trkpt lat="45.60298366921885" lon="8.63206312111092"><ele>239.00000000000003</ele><time>2026-04-05T14:41:13.999Z</time></trkpt><trkpt lat="45.60290145536472" lon="8.632096588787952"><ele>239.0</ele><time>2026-04-05T14:41:14.999Z</time></trkpt><trkpt lat="45.60281096205774" lon="8.632117714871292"><ele>239.0</ele><time>2026-04-05T14:41:15.999Z</time></trkpt><trkpt lat="45.602721702050566" lon="8.63214063339111"><ele>239.0</ele><time>2026-04-05T14:41:16.999Z</time></trkpt><trkpt lat="45.602648814345365" lon="8.632155575282887"><ele>239.00000000000003</ele><time>2026-04-05T14:41:17.999Z</time></trkpt><trkpt lat="45.602568943287885" lon="8.632169894215258"><ele>239.0</ele><time>2026-04-05T14:41:18.999Z</time></trkpt><trkpt lat="45.60249039731593" lon="8.632179195321722"><ele>239.00000000000003</ele><time>2026-04-05T14:41:19.999Z</time></trkpt><trkpt lat="45.60241531316732" lon="8.632191973770581"><ele>239.0</ele><time>2026-04-05T14:41:20.999Z</time></trkpt><trkpt lat="45.602346088087124" lon="8.632204267916933"><ele>239.0</ele><time>2026-04-05T14:41:21.999Z</time></trkpt><trkpt lat="45.602235611279205" lon="8.63225928713863"><ele>239.0</ele><time>2026-04-05T14:41:23.999Z</time></trkpt><trkpt lat="45.60218954744437" lon="8.632411575112322"><ele>239.00000000000003</ele><time>2026-04-05T14:41:25.999Z</time></trkpt><trkpt lat="45.602189814232595" lon="8.632506285983675"><ele>239.0</ele><time>2026-04-05T14:41:26.999Z</time></trkpt><trkpt lat="45.602180124407205" lon="8.63260809024985"><ele>239.00000000000003</ele><time>2026-04-05T14:41:27.999Z</time></trkpt><trkpt lat="45.60216551155338" lon="8.632720122729829"><ele>239.0</ele><time>2026-04-05T14:41:28.999Z</time></trkpt><trkpt lat="45.602148006176144" lon="8.632834338491596"><ele>239.0</ele><time>2026-04-05T14:41:29.999Z</time></trkpt><trkpt lat="45.602118379675325" lon="8.632928583737685"><ele>239.0</ele><time>2026-04-05T14:41:30.999Z</time></trkpt><trkpt lat="45.602070476138856" lon="8.633011646656525"><ele>239.00000000000003</ele><time>2026-04-05T14:41:31.999Z</time></trkpt><trkpt lat="45.60200774320595" lon="8.633085838901048"><ele>239.0</ele><time>2026-04-05T14:41:32.999Z</time></trkpt><trkpt lat="45.601938810363606" lon="8.63315313220846"><ele>238.83333333333334</ele><time>2026-04-05T14:41:33.999Z</time></trkpt><trkpt lat="45.60187943524521" lon="8.633229089632009"><ele>238.66666666666669</ele><time>2026-04-05T14:41:34.999Z</time></trkpt><trkpt lat="45.60182486621386" lon="8.633303389041298"><ele>238.5</ele><time>2026-04-05T14:41:36.999Z</time></trkpt><trkpt lat="45.60177196003868" lon="8.633235687980525"><ele>238.33333333333331</ele><time>2026-04-05T14:41:39Z</time></trkpt><trkpt lat="45.601656832217984" lon="8.633211177406741"><ele>238.16666666666666</ele><time>2026-04-05T14:41:41Z</time></trkpt><trkpt lat="45.60158209083788" lon="8.633211890976018"><ele>238.0</ele><time>2026-04-05T14:41:42Z</time></trkpt><trkpt lat="45.6015112029385" lon="8.633212386993284"><ele>237.99999999999997</ele><time>2026-04-05T14:41:43Z</time></trkpt><trkpt lat="45.601396672170395" lon="8.633201740833465"><ele>238.0</ele><time>2026-04-05T14:41:45Z</time></trkpt><trkpt lat="45.60130312005191" lon="8.633186182522627"><ele>238.0</ele><time>2026-04-05T14:41:47Z</time></trkpt><trkpt lat="45.60122995748922" lon="8.63317061642793"><ele>238.0</ele><time>2026-04-05T14:42:58.999Z</time></trkpt><trkpt lat="45.60114727268578" lon="8.633164844184943"><ele>237.99999999999997</ele><time>2026-04-05T14:43:00.999Z</time></trkpt><trkpt lat="45.60108002992592" lon="8.633160149987814"><ele>238.0</ele><time>2026-04-05T14:43:01.999Z</time></trkpt><trkpt lat="45.60101600913435" lon="8.633156768568986"><ele>238.0</ele><time>2026-04-05T14:43:02.999Z</time></trkpt><trkpt lat="45.60095018529012" lon="8.633153187474639"><ele>238.0</ele><time>2026-04-05T14:43:03.999Z</time></trkpt><trkpt lat="45.60087588306457" lon="8.633149145128224"><ele>238.0</ele><time>2026-04-05T14:43:04.999Z</time></trkpt><trkpt lat="45.60079568282697" lon="8.633144781959958"><ele>238.0</ele><time>2026-04-05T14:43:05.999Z</time></trkpt><trkpt lat="45.60071374507906" lon="8.633140773480227"><ele>238.0</ele><time>2026-04-05T14:43:06.999Z</time></trkpt><trkpt lat="45.600636003204876" lon="8.63313688457937"><ele>238.0</ele><time>2026-04-05T14:43:07.999Z</time></trkpt><trkpt lat="45.60056997085901" lon="8.633134084865809"><ele>238.0</ele><time>2026-04-05T14:43:08.999Z</time></trkpt><trkpt lat="45.60050574544755" lon="8.633131938612557"><ele>238.0</ele><time>2026-04-05T14:43:09.999Z</time></trkpt><trkpt lat="45.60043905401188" lon="8.633129709971753"><ele>238.0</ele><time>2026-04-05T14:43:10.999Z</time></trkpt><trkpt lat="45.60037168125893" lon="8.633145396713692"><ele>238.0</ele><time>2026-04-05T14:43:11.999Z</time></trkpt><trkpt lat="45.60030193378913" lon="8.633137424973988"><ele>238.0</ele><time>2026-04-05T14:43:12.999Z</time></trkpt><trkpt lat="45.600232272494225" lon="8.633142939609723"><ele>238.0</ele><time>2026-04-05T14:43:13.999Z</time></trkpt><trkpt lat="45.60015753835362" lon="8.63314944979342"><ele>238.0</ele><time>2026-04-05T14:43:14.999Z</time></trkpt><trkpt lat="45.60008277134428" lon="8.633163555609695"><ele>238.0</ele><time>2026-04-05T14:43:15.999Z</time></trkpt><trkpt lat="45.60000428175163" lon="8.633185856374856"><ele>237.83333333333331</ele><time>2026-04-05T14:43:16.999Z</time></trkpt><trkpt lat="45.59992450049884" lon="8.633210791925539"><ele>237.66666666666666</ele><time>2026-04-05T14:43:17.999Z</time></trkpt><trkpt lat="45.59985029447463" lon="8.63322854196849"><ele>237.5</ele><time>2026-04-05T14:43:18.999Z</time></trkpt><trkpt lat="45.5997807836366" lon="8.633245262924234"><ele>237.33333333333331</ele><time>2026-04-05T14:43:19.999Z</time></trkpt><trkpt lat="45.59971638825917" lon="8.633236318388509"><ele>237.16666666666666</ele><time>2026-04-05T14:43:20.999Z</time></trkpt><trkpt lat="45.59961159189274" lon="8.633278675210645"><ele>237.0</ele><time>2026-04-05T14:43:22.999Z</time></trkpt><trkpt lat="45.59953362429393" lon="8.633288119477937"><ele>237.0</ele><time>2026-04-05T14:43:24.999Z</time></trkpt><trkpt lat="45.599463907832515" lon="8.633290504615816"><ele>237.0</ele><time>2026-04-05T14:43:31.999Z</time></trkpt><trkpt lat="45.59939344171044" lon="8.633303292371462"><ele>237.0</ele><time>2026-04-05T14:43:32.999Z</time></trkpt><trkpt lat="45.59931355447792" lon="8.633327254323897"><ele>237.0</ele><time>2026-04-05T14:43:33.999Z</time></trkpt><trkpt lat="45.59922713908507" lon="8.633347642949126"><ele>237.0</ele><time>2026-04-05T14:43:34.999Z</time></trkpt><trkpt lat="45.59913425531046" lon="8.633372463962052"><ele>237.0</ele><time>2026-04-05T14:43:35.999Z</time></trkpt><trkpt lat="45.59904707309408" lon="8.633399808479156"><ele>236.99999999999997</ele><time>2026-04-05T14:43:36.999Z</time></trkpt><trkpt lat="45.59896751225044" lon="8.633423571669596"><ele>237.0</ele><time>2026-04-05T14:43:37.999Z</time></trkpt><trkpt lat="45.59889167825748" lon="8.633444656705942"><ele>236.99999999999997</ele><time>2026-04-05T14:43:38.999Z</time></trkpt><trkpt lat="45.59881967906461" lon="8.633462745663417"><ele>236.99999999999997</ele><time>2026-04-05T14:43:39.999Z</time></trkpt><trkpt lat="45.59874877875612" lon="8.633485077109986"><ele>237.0</ele><time>2026-04-05T14:43:40.999Z</time></trkpt><trkpt lat="45.59868069167335" lon="8.63350804574575"><ele>236.99999999999997</ele><time>2026-04-05T14:43:41.999Z</time></trkpt><trkpt lat="45.59861392267586" lon="8.633521161281283"><ele>236.99999999999997</ele><time>2026-04-05T14:43:43Z</time></trkpt><trkpt lat="45.59851440454766" lon="8.633537721377571"><ele>237.0</ele><time>2026-04-05T14:43:45Z</time></trkpt><trkpt lat="45.59852268534783" lon="8.633731088731981"><ele>237.0</ele><time>2026-04-05T14:43:49Z</time></trkpt><trkpt lat="45.59858778666087" lon="8.63381382350786"><ele>237.0</ele><time>2026-04-05T14:43:50Z</time></trkpt><trkpt lat="45.598643401241084" lon="8.633901961661413"><ele>237.0</ele><time>2026-04-05T14:43:51Z</time></trkpt><trkpt lat="45.59869986593252" lon="8.633986939104467"><ele>237.0</ele><time>2026-04-05T14:43:52Z</time></trkpt><trkpt lat="45.59875442918875" lon="8.634070651502082"><ele>237.0</ele><time>2026-04-05T14:43:53Z</time></trkpt><trkpt lat="45.59881611255574" lon="8.634155875158841"><ele>237.0</ele><time>2026-04-05T14:43:54Z</time></trkpt><trkpt lat="45.59887560134926" lon="8.634245386898426"><ele>237.0</ele><time>2026-04-05T14:43:55Z</time></trkpt><trkpt lat="45.59893605198443" lon="8.634336010917789"><ele>237.0</ele><time>2026-04-05T14:43:56Z</time></trkpt><trkpt lat="45.598996224320686" lon="8.63442582418118"><ele>237.0</ele><time>2026-04-05T14:43:57Z</time></trkpt><trkpt lat="45.59905388623319" lon="8.634517017445274"><ele>237.0</ele><time>2026-04-05T14:43:58Z</time></trkpt><trkpt lat="45.599111598030134" lon="8.634598710706902"><ele>236.99999999999997</ele><time>2026-04-05T14:43:59Z</time></trkpt><trkpt lat="45.59916379666246" lon="8.634676402165342"><ele>237.0</ele><time>2026-04-05T14:44:00Z</time></trkpt><trkpt lat="45.59921681682123" lon="8.634756342520213"><ele>236.99999999999997</ele><time>2026-04-05T14:44:01Z</time></trkpt><trkpt lat="45.599265872999055" lon="8.634829851267153"><ele>236.99999999999997</ele><time>2026-04-05T14:44:02Z</time></trkpt><trkpt lat="45.59931499317477" lon="8.634904539620004"><ele>237.0</ele><time>2026-04-05T14:44:03Z</time></trkpt><trkpt lat="45.59936228819945" lon="8.63497721650152"><ele>236.99999999999997</ele><time>2026-04-05T14:44:04Z</time></trkpt><trkpt lat="45.599406204991006" lon="8.635050420730163"><ele>236.99999999999997</ele><time>2026-04-05T14:44:05Z</time></trkpt><trkpt lat="45.59944769436026" lon="8.635197904903903"><ele>237.8</ele><time>2026-04-05T14:44:07Z</time></trkpt><trkpt lat="45.599496510916005" lon="8.635348448506756"><ele>238.6</ele><time>2026-04-05T14:44:09Z</time></trkpt><trkpt lat="45.59953946284042" lon="8.635478591042546"><ele>239.40000000000003</ele><time>2026-04-05T14:44:11Z</time></trkpt><trkpt lat="45.59955834634172" lon="8.635595642072408"><ele>240.20000000000002</ele><time>2026-04-05T14:44:13Z</time></trkpt><trkpt lat="45.59956406621041" lon="8.635709564597413"><ele>241.0</ele><time>2026-04-05T14:44:15Z</time></trkpt><trkpt lat="45.59958259989651" lon="8.635829397016495"><ele>241.16666666666666</ele><time>2026-04-05T14:44:17Z</time></trkpt><trkpt lat="45.59959493798379" lon="8.635932034327437"><ele>241.33333333333331</ele><time>2026-04-05T14:44:19Z</time></trkpt><trkpt lat="45.599614844637195" lon="8.636038805229585"><ele>241.5</ele><time>2026-04-05T14:44:21Z</time></trkpt><trkpt lat="45.59964144769827" lon="8.636185428796272"><ele>241.66666666666669</ele><time>2026-04-05T14:44:23Z</time></trkpt><trkpt lat="45.5996532415736" lon="8.636275028351196"><ele>241.83333333333334</ele><time>2026-04-05T14:44:24Z</time></trkpt><trkpt lat="45.59967041336448" lon="8.636425946822058"><ele>242.0</ele><time>2026-04-05T14:44:26Z</time></trkpt><trkpt lat="45.599676530080984" lon="8.636541424732346"><ele>241.83333333333334</ele><time>2026-04-05T14:44:28Z</time></trkpt><trkpt lat="45.59967915198832" lon="8.636667738632678"><ele>241.66666666666669</ele><time>2026-04-05T14:44:31Z</time></trkpt><trkpt lat="45.5997277023737" lon="8.636831972477871"><ele>241.5</ele><time>2026-04-05T14:44:33Z</time></trkpt><trkpt lat="45.59974479876712" lon="8.636924120615536"><ele>241.33333333333331</ele><time>2026-04-05T14:44:34Z</time></trkpt><trkpt lat="45.59975877487508" lon="8.637022489937966"><ele>241.16666666666666</ele><time>2026-04-05T14:44:35Z</time></trkpt><trkpt lat="45.599770803767576" lon="8.637119739070783"><ele>241.0</ele><time>2026-04-05T14:44:36Z</time></trkpt><trkpt lat="45.59978629535578" lon="8.637222364647968"><ele>241.0</ele><time>2026-04-05T14:44:37Z</time></trkpt><trkpt lat="45.59980195280347" lon="8.63732345343288"><ele>241.00000000000003</ele><time>2026-04-05T14:44:38Z</time></trkpt><trkpt lat="45.599817195979234" lon="8.63742217207544"><ele>241.0</ele><time>2026-04-05T14:44:39Z</time></trkpt><trkpt lat="45.599832590570855" lon="8.637518975330103"><ele>241.0</ele><time>2026-04-05T14:44:40Z</time></trkpt><trkpt lat="45.59984441976596" lon="8.637614338855846"><ele>241.00000000000003</ele><time>2026-04-05T14:44:41Z</time></trkpt><trkpt lat="45.59985804022674" lon="8.637713765983769"><ele>241.0</ele><time>2026-04-05T14:44:42Z</time></trkpt><trkpt lat="45.599872287549154" lon="8.637817769392258"><ele>241.0</ele><time>2026-04-05T14:44:43Z</time></trkpt><trkpt lat="45.599887103974886" lon="8.63792592711361"><ele>240.66666666666666</ele><time>2026-04-05T14:44:44Z</time></trkpt><trkpt lat="45.59990270824295" lon="8.638039646490391"><ele>240.33333333333331</ele><time>2026-04-05T14:44:45Z</time></trkpt><trkpt lat="45.59992625693354" lon="8.638150016842022"><ele>240.0</ele><time>2026-04-05T14:44:46Z</time></trkpt><trkpt lat="45.599938580047144" lon="8.638264363075526"><ele>239.66666666666669</ele><time>2026-04-05T14:44:47Z</time></trkpt><trkpt lat="45.599953003250555" lon="8.638378984495123"><ele>239.33333333333334</ele><time>2026-04-05T14:44:48Z</time></trkpt><trkpt lat="45.5999681131106" lon="8.63848920246489"><ele>239.0</ele><time>2026-04-05T14:44:49Z</time></trkpt><trkpt lat="45.599985499569435" lon="8.638597591675682"><ele>239.0</ele><time>2026-04-05T14:44:50Z</time></trkpt><trkpt lat="45.60000392199008" lon="8.63868999073162"><ele>238.99999999999997</ele><time>2026-04-05T14:44:50.999Z</time></trkpt><trkpt lat="45.59999034969823" lon="8.638848081526337"><ele>238.99999999999997</ele><time>2026-04-05T14:44:52.999Z</time></trkpt><trkpt lat="45.599910463238665" lon="8.638871777130579"><ele>239.0</ele><time>2026-04-05T14:44:54.999Z</time></trkpt><trkpt lat="45.59982168882924" lon="8.638836131760188"><ele>239.0</ele><time>2026-04-05T14:44:56.999Z</time></trkpt><trkpt lat="45.5997335663353" lon="8.638777423233265"><ele>239.00000000000003</ele><time>2026-04-05T14:44:58.999Z</time></trkpt><trkpt lat="45.59965074654106" lon="8.638717214234083"><ele>239.0</ele><time>2026-04-05T14:45:00.999Z</time></trkpt><trkpt lat="45.599574895561034" lon="8.63874291942645"><ele>239.0</ele><time>2026-04-05T14:45:02.999Z</time></trkpt><trkpt lat="45.59951209507932" lon="8.63869687430255"><ele>239.0</ele><time>2026-04-05T14:45:07.999Z</time></trkpt><trkpt lat="45.59950575615204" lon="8.638554883990954"><ele>239.00000000000003</ele><time>2026-04-05T14:45:09.999Z</time></trkpt><trkpt lat="45.59949224929556" lon="8.63842204997775"><ele>239.0</ele><time>2026-04-05T14:45:11.999Z</time></trkpt><trkpt lat="45.59947894852572" lon="8.638307661237508"><ele>239.25</ele><time>2026-04-05T14:45:13.999Z</time></trkpt><trkpt lat="45.59947394043835" lon="8.638175878810515"><ele>239.5</ele><time>2026-04-05T14:45:16.999Z</time></trkpt><trkpt lat="45.599261013084835" lon="8.638141620818185"><ele>239.75</ele><time>2026-04-05T14:45:23.999Z</time></trkpt><trkpt lat="45.599142767651" lon="8.638138087670182"><ele>240.0</ele><time>2026-04-05T14:45:25.999Z</time></trkpt><trkpt lat="45.599046998953476" lon="8.638124460976156"><ele>240.0</ele><time>2026-04-05T14:45:27.999Z</time></trkpt><trkpt lat="45.5989720835869" lon="8.638142029917127"><ele>240.0</ele><time>2026-04-05T14:45:29.999Z</time></trkpt><trkpt lat="45.59889274964868" lon="8.638181010091257"><ele>240.0</ele><time>2026-04-05T14:45:31.999Z</time></trkpt><trkpt lat="45.598802982937684" lon="8.638194075187373"><ele>240.0</ele><time>2026-04-05T14:45:33.999Z</time></trkpt><trkpt lat="45.59871636959211" lon="8.638207847537506"><ele>240.0</ele><time>2026-04-05T14:45:35.999Z</time></trkpt><trkpt lat="45.59864185293044" lon="8.638222187119425"><ele>240.0</ele><time>2026-04-05T14:45:37.999Z</time></trkpt><trkpt lat="45.59855686157505" lon="8.638251102314861"><ele>239.8</ele><time>2026-04-05T14:45:41.999Z</time></trkpt><trkpt lat="45.5984621455449" lon="8.638238847641652"><ele>239.6</ele><time>2026-04-05T14:45:43.999Z</time></trkpt><trkpt lat="45.59839620380567" lon="8.638278104366824"><ele>239.39999999999998</ele><time>2026-04-05T14:45:44.999Z</time></trkpt><trkpt lat="45.59828428139123" lon="8.63830367372884"><ele>239.2</ele><time>2026-04-05T14:45:46.999Z</time></trkpt><trkpt lat="45.59818462513526" lon="8.638297057236976"><ele>239.0</ele><time>2026-04-05T14:45:49Z</time></trkpt><trkpt lat="45.59810817293795" lon="8.638308241027397"><ele>239.00000000000003</ele><time>2026-04-05T14:45:51Z</time></trkpt><trkpt lat="45.59804341938624" lon="8.638347392981949"><ele>239.0</ele><time>2026-04-05T14:45:53Z</time></trkpt><trkpt lat="45.597959075658366" lon="8.638367638498194"><ele>239.0</ele><time>2026-04-05T14:45:55Z</time></trkpt><trkpt lat="45.597886332143865" lon="8.638383299456313"><ele>239.0</ele><time>2026-04-05T14:45:56Z</time></trkpt><trkpt lat="45.59780189014286" lon="8.638403553698561"><ele>239.00000000000003</ele><time>2026-04-05T14:45:57Z</time></trkpt><trkpt lat="45.59771689171495" lon="8.638423093778263"><ele>239.0</ele><time>2026-04-05T14:45:58Z</time></trkpt><trkpt lat="45.597640033178386" lon="8.638438348715347"><ele>239.50000000000003</ele><time>2026-04-05T14:45:59Z</time></trkpt><trkpt lat="45.59757142830702" lon="8.638459584722346"><ele>240.0</ele><time>2026-04-05T14:46:00Z</time></trkpt><trkpt lat="45.59750453570217" lon="8.638467814735849"><ele>240.5</ele><time>2026-04-05T14:46:01Z</time></trkpt><trkpt lat="45.59739195219707" lon="8.638459290419316"><ele>241.0</ele><time>2026-04-05T14:46:03Z</time></trkpt><trkpt lat="45.59730543842232" lon="8.638445360280993"><ele>241.50000000000003</ele><time>2026-04-05T14:46:05Z</time></trkpt><trkpt lat="45.597228314892675" lon="8.638457592241252"><ele>242.0</ele><time>2026-04-05T14:46:08Z</time></trkpt><trkpt lat="45.59716110960872" lon="8.638380413102453"><ele>242.0</ele><time>2026-04-05T14:48:28Z</time></trkpt><trkpt lat="45.59720930484529" lon="8.638321836795994"><ele>241.99999999999997</ele><time>2026-04-05T14:48:31Z</time></trkpt><trkpt lat="45.59721471424007" lon="8.638215514154618"><ele>242.0</ele><time>2026-04-05T14:48:33Z</time></trkpt><trkpt lat="45.597239951382505" lon="8.638303410037732"><ele>242.0</ele><time>2026-04-05T14:52:04.999Z</time></trkpt><trkpt lat="45.59727812508916" lon="8.638378754863933"><ele>241.99999999999997</ele><time>2026-04-05T14:52:13.001Z</time></trkpt><trkpt lat="45.59720346844077" lon="8.638393438051978"><ele>242.0</ele><time>2026-04-05T14:52:55Z</time></trkpt><trkpt lat="45.59713615720174" lon="8.638414200942847"><ele>242.0</ele><time>2026-04-05T15:03:43.999Z</time></trkpt><trkpt lat="45.597198881493874" lon="8.638444199953367"><ele>242.00000000000003</ele><time>2026-04-05T15:05:12.997Z</time></trkpt><trkpt lat="45.597118082704476" lon="8.638460920252589"><ele>242.0</ele><time>2026-04-05T15:06:46.995Z</time></trkpt><trkpt lat="45.59717986827271" lon="8.638393318677604"><ele>242.0</ele><time>2026-04-05T15:07:11.999Z</time></trkpt><trkpt lat="45.59726695829496" lon="8.638362448278352"><ele>242.0</ele><time>2026-04-05T15:07:38.999Z</time></trkpt><trkpt lat="45.59716429117134" lon="8.638333383765648"><ele>242.00000000000003</ele><time>2026-04-05T15:08:14.077Z</time></trkpt><trkpt lat="45.597258601046754" lon="8.638328332573641"><ele>242.0</ele><time>2026-04-05T15:08:39.997Z</time></trkpt><trkpt lat="45.59726025421621" lon="8.63822581856524"><ele>242.0</ele><time>2026-04-05T15:09:27.999Z</time></trkpt><trkpt lat="45.59723414316916" lon="8.63811198069762"><ele>242.0</ele><time>2026-04-05T15:09:31.999Z</time></trkpt><trkpt lat="45.59729573047107" lon="8.63829192556213"><ele>242.0</ele><time>2026-04-05T15:09:35.999Z</time></trkpt><trkpt lat="45.59723138648741" lon="8.638301754842013"><ele>242.0</ele><time>2026-04-05T15:09:51.999Z</time></trkpt><trkpt lat="45.59719465680176" lon="8.638225757469822"><ele>242.0</ele><time>2026-04-05T15:10:11.998Z</time></trkpt><trkpt lat="45.59715643202769" lon="8.638052811132107"><ele>242.0</ele><time>2026-04-05T15:10:16.998Z</time></trkpt><trkpt lat="45.597191692410036" lon="8.638156788489624"><ele>242.0</ele><time>2026-04-05T15:10:18.998Z</time></trkpt><trkpt lat="45.59719150999856" lon="8.638285614823502"><ele>242.0</ele><time>2026-04-05T15:10:20.998Z</time></trkpt><trkpt lat="45.59713531887384" lon="8.638049804349281"><ele>242.0</ele><time>2026-04-05T15:10:22.998Z</time></trkpt><trkpt lat="45.59710314957682" lon="8.63793032390773"><ele>242.0</ele><time>2026-04-05T15:10:24.998Z</time></trkpt><trkpt lat="45.59716960263988" lon="8.637944225720256"><ele>242.0</ele><time>2026-04-05T15:10:30.998Z</time></trkpt><trkpt lat="45.59719010461303" lon="8.638217704111591"><ele>242.0</ele><time>2026-04-05T15:10:31.998Z</time></trkpt><trkpt lat="45.59717531656148" lon="8.63804834272477"><ele>242.0</ele><time>2026-04-05T15:10:36.997Z</time></trkpt><trkpt lat="45.59719363086853" lon="8.638143682735434"><ele>242.0</ele><time>2026-04-05T15:10:41.997Z</time></trkpt><trkpt lat="45.597223462995444" lon="8.63824734712155"><ele>242.00000000000003</ele><time>2026-04-05T15:10:48.997Z</time></trkpt><trkpt lat="45.59725148757683" lon="8.638340416522091"><ele>242.0</ele><time>2026-04-05T15:10:53.997Z</time></trkpt><trkpt lat="45.59718744065397" lon="8.638362234867147"><ele>242.0</ele><time>2026-04-05T15:11:03Z</time></trkpt><trkpt lat="45.597181782384794" lon="8.638216774321727"><ele>242.0</ele><time>2026-04-05T15:11:07Z</time></trkpt><trkpt lat="45.59718640572343" lon="8.638121738615148"><ele>242.00000000000003</ele><time>2026-04-05T15:11:08Z</time></trkpt><trkpt lat="45.59717407264612" lon="8.637972912847271"><ele>242.0</ele><time>2026-04-05T15:11:11Z</time></trkpt><trkpt lat="45.59724274767129" lon="8.638280245048538"><ele>242.00000000000003</ele><time>2026-04-05T15:11:13.999Z</time></trkpt><trkpt lat="45.597159704232816" lon="8.638343823413585"><ele>242.0</ele><time>2026-04-05T15:11:28.999Z</time></trkpt><trkpt lat="45.59722494295433" lon="8.638325383176786"><ele>242.0</ele><time>2026-04-05T15:11:53.999Z</time></trkpt><trkpt lat="45.59714309580083" lon="8.63843082060266"><ele>242.0</ele><time>2026-04-05T15:12:17.998Z</time></trkpt><trkpt lat="45.59708137992878" lon="8.638474649218544"><ele>242.00000000000003</ele><time>2026-04-05T15:12:25.998Z</time></trkpt><trkpt lat="45.59701800438313" lon="8.638509187275444"><ele>242.0</ele><time>2026-04-05T15:12:31.998Z</time></trkpt><trkpt lat="45.59693669641673" lon="8.638519160452558"><ele>241.7142857142857</ele><time>2026-04-05T15:12:39.997Z</time></trkpt><trkpt lat="45.5968795986902" lon="8.638451540536877"><ele>241.4285714285714</ele><time>2026-04-05T15:12:44.997Z</time></trkpt><trkpt lat="45.59685619082842" lon="8.638354222842345"><ele>241.14285714285714</ele><time>2026-04-05T15:12:48.997Z</time></trkpt><trkpt lat="45.596838806869805" lon="8.638255376524098"><ele>240.85714285714283</ele><time>2026-04-05T15:12:53.997Z</time></trkpt><trkpt lat="45.596803677245404" lon="8.63816269462677"><ele>240.57142857142856</ele><time>2026-04-05T15:12:58.997Z</time></trkpt><trkpt lat="45.59679990270757" lon="8.638068535328339"><ele>240.28571428571428</ele><time>2026-04-05T15:13:04Z</time></trkpt><trkpt lat="45.59677672664241" lon="8.637979752679719"><ele>240.0</ele><time>2026-04-05T15:13:07.999Z</time></trkpt><trkpt lat="45.59673335312625" lon="8.63790797282164"><ele>240.0</ele><time>2026-04-05T15:13:13Z</time></trkpt><trkpt lat="45.59671369949413" lon="8.637813568809698"><ele>240.0</ele><time>2026-04-05T15:13:17Z</time></trkpt><trkpt lat="45.596739802785955" lon="8.637728665666259"><ele>240.0</ele><time>2026-04-05T15:13:20.999Z</time></trkpt><trkpt lat="45.596768150713885" lon="8.63762978495638"><ele>240.0</ele><time>2026-04-05T15:13:24.999Z</time></trkpt><trkpt lat="45.59675977106912" lon="8.637533224131369"><ele>240.0</ele><time>2026-04-05T15:13:29.999Z</time></trkpt><trkpt lat="45.59669545861218" lon="8.6374755032873"><ele>240.0</ele><time>2026-04-05T15:13:38.999Z</time></trkpt><trkpt lat="45.59668185548884" lon="8.637318481308235"><ele>240.33333333333331</ele><time>2026-04-05T15:15:06.731Z</time></trkpt><trkpt lat="45.59692188592453" lon="8.637343180349347"><ele>240.66666666666666</ele><time>2026-04-05T15:16:10.942Z</time></trkpt><trkpt lat="45.5968032229644" lon="8.63754491999552"><ele>241.0</ele><time>2026-04-05T15:16:20.996Z</time></trkpt><trkpt lat="45.596873682884215" lon="8.637503135780447"><ele>241.0</ele><time>2026-04-05T15:17:05Z</time></trkpt><trkpt lat="45.59691649099569" lon="8.63743469542653"><ele>241.0</ele><time>2026-04-05T15:17:08Z</time></trkpt><trkpt lat="45.59696794276388" lon="8.637367763169436"><ele>241.0</ele><time>2026-04-05T15:35:27Z</time></trkpt></trkseg></trk></gpx>